Wetterdaten: Samstag, 06.05.2017
Datum Zeit Temp. A. Temp. A. max Feuchte A. Luftdruck Regen Wind Richtung Richtung Sonnenschein ET UV Solar Taupunkt Windchill Windböen
06.05.2017 00:00 3,9 °C 3,9 °C 93 % 1015,1 hPa 0,0 mm 0,0 km/h (0 Bft) O-NO 72 ° 0 min 0,000 mm 0,0 UV-I 0 W/m² 2,9 °C 3,9 °C 0,0 km/h (0 Bft)
06.05.2017 00:01 3,9 °C 3,9 °C 93 % 1015,1 hPa 0,0 mm 0,0 km/h (0 Bft) O-NO 72 ° 0 min 0,000 mm 0,0 UV-I 0 W/m² 2,9 °C 3,9 °C 0,0 km/h (0 Bft)
06.05.2017 00:02 3,8 °C 3,9 °C 93 % 1015,1 hPa 0,0 mm 0,0 km/h (0 Bft) O-NO 72 ° 0 min 0,000 mm 0,0 UV-I 0 W/m² 2,8 °C 3,8 °C 0,0 km/h (0 Bft)
06.05.2017 00:03 3,8 °C 3,8 °C 93 % 1015,1 hPa 0,0 mm 0,0 km/h (0 Bft) O-NO 72 ° 0 min 0,000 mm 0,0 UV-I 0 W/m² 2,8 °C 3,8 °C 0,0 km/h (0 Bft)
06.05.2017 00:04 3,7 °C 3,8 °C 93 % 1015,1 hPa 0,0 mm 0,0 km/h (0 Bft) O-NO 72 ° 0 min 0,000 mm 0,0 UV-I 0 W/m² 2,7 °C 3,7 °C 0,0 km/h (0 Bft)
06.05.2017 00:05 3,7 °C 3,8 °C 93 % 1015,2 hPa 0,0 mm 0,0 km/h (0 Bft) O-NO 72 ° 0 min 0,000 mm 0,0 UV-I 0 W/m² 2,7 °C 3,7 °C 0,0 km/h (0 Bft)
06.05.2017 00:06 3,7 °C 3,7 °C 93 % 1015,2 hPa 0,0 mm 0,0 km/h (0 Bft) O-NO 72 ° 0 min 0,000 mm 0,0 UV-I 0 W/m² 2,7 °C 3,7 °C 0,0 km/h (0 Bft)
06.05.2017 00:07 3,8 °C 3,8 °C 93 % 1015,2 hPa 0,0 mm 0,0 km/h (0 Bft) O-NO 72 ° 0 min 0,000 mm 0,0 UV-I 0 W/m² 2,8 °C 3,8 °C 0,0 km/h (0 Bft)
06.05.2017 00:08 3,8 °C 3,8 °C 94 % 1015,2 hPa 0,0 mm 0,0 km/h (0 Bft) O-NO 72 ° 0 min 0,000 mm 0,0 UV-I 0 W/m² 2,9 °C 3,8 °C 0,0 km/h (0 Bft)
06.05.2017 00:09 3,9 °C 3,9 °C 94 % 1015,2 hPa 0,0 mm 0,0 km/h (0 Bft) O-NO 72 ° 0 min 0,000 mm 0,0 UV-I 0 W/m² 3,0 °C 3,9 °C 0,0 km/h (0 Bft)
06.05.2017 00:10 3,9 °C 3,9 °C 94 % 1015,2 hPa 0,0 mm 0,0 km/h (0 Bft) O-NO 72 ° 0 min 0,000 mm 0,0 UV-I 0 W/m² 3,0 °C 3,9 °C 0,0 km/h (0 Bft)
06.05.2017 00:11 3,9 °C 4,0 °C 94 % 1015,2 hPa 0,0 mm 0,0 km/h (0 Bft) O-NO 72 ° 0 min 0,000 mm 0,0 UV-I 0 W/m² 3,0 °C 3,9 °C 0,0 km/h (0 Bft)
06.05.2017 00:12 4,0 °C 4,0 °C 94 % 1015,1 hPa 0,0 mm 0,0 km/h (0 Bft) O-NO 72 ° 0 min 0,000 mm 0,0 UV-I 0 W/m² 3,1 °C 4,0 °C 0,0 km/h (0 Bft)
06.05.2017 00:13 4,0 °C 4,0 °C 94 % 1015,1 hPa 0,0 mm 0,0 km/h (0 Bft) O-NO 72 ° 0 min 0,000 mm 0,0 UV-I 0 W/m² 3,1 °C 4,0 °C 0,0 km/h (0 Bft)
06.05.2017 00:14 4,1 °C 4,1 °C 94 % 1015,1 hPa 0,0 mm 0,0 km/h (0 Bft) O-NO 72 ° 0 min 0,000 mm 0,0 UV-I 0 W/m² 3,2 °C 4,1 °C 0,0 km/h (0 Bft)
06.05.2017 00:15 4,1 °C 4,1 °C 94 % 1015,1 hPa 0,0 mm 0,0 km/h (0 Bft) O-NO 72 ° 0 min 0,000 mm 0,0 UV-I 0 W/m² 3,2 °C 4,1 °C 0,0 km/h (0 Bft)
06.05.2017 00:16 4,1 °C 4,1 °C 94 % 1015,1 hPa 0,0 mm 0,0 km/h (0 Bft) O-NO 72 ° 0 min 0,000 mm 0,0 UV-I 0 W/m² 3,2 °C 4,1 °C 0,0 km/h (0 Bft)
06.05.2017 00:17 4,0 °C 4,1 °C 94 % 1015,2 hPa 0,0 mm 0,0 km/h (0 Bft) O-NO 72 ° 0 min 0,000 mm 0,0 UV-I 0 W/m² 3,1 °C 4,0 °C 0,0 km/h (0 Bft)
06.05.2017 00:18 3,9 °C 4,0 °C 94 % 1015,1 hPa 0,0 mm 0,0 km/h (0 Bft) O-NO 72 ° 0 min 0,000 mm 0,0 UV-I 0 W/m² 3,0 °C 3,9 °C 0,0 km/h (0 Bft)
06.05.2017 00:19 3,8 °C 3,9 °C 93 % 1015,1 hPa 0,0 mm 0,0 km/h (0 Bft) O-NO 72 ° 0 min 0,000 mm 0,0 UV-I 0 W/m² 2,8 °C 3,8 °C 0,0 km/h (0 Bft)
06.05.2017 00:20 3,7 °C 3,8 °C 93 % 1015,1 hPa 0,0 mm 0,0 km/h (0 Bft) O-NO 72 ° 0 min 0,000 mm 0,0 UV-I 0 W/m² 2,7 °C 3,7 °C 0,0 km/h (0 Bft)
06.05.2017 00:21 3,5 °C 3,7 °C 93 % 1015,1 hPa 0,0 mm 0,0 km/h (0 Bft) O-NO 72 ° 0 min 0,000 mm 0,0 UV-I 0 W/m² 2,5 °C 3,5 °C 0,0 km/h (0 Bft)
06.05.2017 00:22 3,4 °C 3,5 °C 93 % 1015,2 hPa 0,0 mm 0,0 km/h (0 Bft) O-NO 72 ° 0 min 0,000 mm 0,0 UV-I 0 W/m² 2,4 °C 3,4 °C 0,0 km/h (0 Bft)
06.05.2017 00:23 3,3 °C 3,4 °C 93 % 1015,1 hPa 0,0 mm 0,0 km/h (0 Bft) O-NO 72 ° 0 min 0,000 mm 0,0 UV-I 0 W/m² 2,3 °C 3,3 °C 0,0 km/h (0 Bft)
06.05.2017 00:24 3,2 °C 3,3 °C 93 % 1015,1 hPa 0,0 mm 0,0 km/h (0 Bft) O-NO 72 ° 0 min 0,000 mm 0,0 UV-I 0 W/m² 2,2 °C 3,2 °C 0,0 km/h (0 Bft)
06.05.2017 00:25 3,2 °C 3,2 °C 93 % 1015,1 hPa 0,0 mm 0,0 km/h (0 Bft) O-NO 72 ° 0 min 0,000 mm 0,0 UV-I 0 W/m² 2,2 °C 3,2 °C 0,0 km/h (0 Bft)
06.05.2017 00:26 3,1 °C 3,2 °C 93 % 1015,1 hPa 0,0 mm 0,0 km/h (0 Bft) O-NO 72 ° 0 min 0,000 mm 0,0 UV-I 0 W/m² 2,1 °C 3,1 °C 0,0 km/h (0 Bft)
06.05.2017 00:27 3,1 °C 3,1 °C 93 % 1015,1 hPa 0,0 mm 0,0 km/h (0 Bft) O-NO 72 ° 0 min 0,000 mm 0,0 UV-I 0 W/m² 2,1 °C 3,1 °C 0,0 km/h (0 Bft)
06.05.2017 00:28 3,1 °C 3,1 °C 93 % 1015,1 hPa 0,0 mm 0,0 km/h (0 Bft) O-NO 72 ° 0 min 0,000 mm 0,0 UV-I 0 W/m² 2,1 °C 3,1 °C 0,0 km/h (0 Bft)
06.05.2017 00:29 3,1 °C 3,1 °C 94 % 1015,1 hPa 0,0 mm 0,0 km/h (0 Bft) O-NO 72 ° 0 min 0,000 mm 0,0 UV-I 0 W/m² 2,2 °C 3,1 °C 0,0 km/h (0 Bft)
06.05.2017 00:30 3,1 °C 3,1 °C 94 % 1015,1 hPa 0,0 mm 0,0 km/h (0 Bft) O-NO 72 ° 0 min 0,000 mm 0,0 UV-I 0 W/m² 2,2 °C 3,1 °C 0,0 km/h (0 Bft)
06.05.2017 00:31 3,1 °C 3,1 °C 94 % 1015,1 hPa 0,0 mm 0,0 km/h (0 Bft) O-NO 72 ° 0 min 0,000 mm 0,0 UV-I 0 W/m² 2,2 °C 3,1 °C 0,0 km/h (0 Bft)
06.05.2017 00:32 3,1 °C 3,1 °C 94 % 1015,1 hPa 0,0 mm 0,0 km/h (0 Bft) O-NO 72 ° 0 min 0,000 mm 0,0 UV-I 0 W/m² 2,2 °C 3,1 °C 0,0 km/h (0 Bft)
06.05.2017 00:33 3,1 °C 3,1 °C 94 % 1015,1 hPa 0,0 mm 0,0 km/h (0 Bft) O-NO 72 ° 0 min 0,000 mm 0,0 UV-I 0 W/m² 2,2 °C 3,1 °C 0,0 km/h (0 Bft)
06.05.2017 00:34 3,0 °C 3,1 °C 94 % 1015,1 hPa 0,0 mm 0,0 km/h (0 Bft) O-NO 72 ° 0 min 0,000 mm 0,0 UV-I 0 W/m² 2,1 °C 3,0 °C 0,0 km/h (0 Bft)
06.05.2017 00:35 2,9 °C 3,0 °C 94 % 1015,1 hPa 0,0 mm 0,0 km/h (0 Bft) O-NO 72 ° 0 min 0,000 mm 0,0 UV-I 0 W/m² 2,0 °C 2,9 °C 0,0 km/h (0 Bft)
06.05.2017 00:36 2,8 °C 2,9 °C 94 % 1015,0 hPa 0,0 mm 0,0 km/h (0 Bft) O-NO 72 ° 0 min 0,000 mm 0,0 UV-I 0 W/m² 1,9 °C 2,8 °C 0,0 km/h (0 Bft)
06.05.2017 00:37 2,8 °C 2,8 °C 94 % 1015,0 hPa 0,0 mm 0,0 km/h (0 Bft) O-NO 72 ° 0 min 0,000 mm 0,0 UV-I 0 W/m² 1,9 °C 2,8 °C 0,0 km/h (0 Bft)
06.05.2017 00:38 2,8 °C 2,8 °C 94 % 1015,1 hPa 0,0 mm 0,0 km/h (0 Bft) O-NO 72 ° 0 min 0,000 mm 0,0 UV-I 0 W/m² 1,9 °C 2,8 °C 0,0 km/h (0 Bft)
06.05.2017 00:39 2,8 °C 2,8 °C 94 % 1015,0 hPa 0,0 mm 0,0 km/h (0 Bft) O-NO 72 ° 0 min 0,000 mm 0,0 UV-I 0 W/m² 1,9 °C 2,8 °C 0,0 km/h (0 Bft)
06.05.2017 00:40 2,9 °C 2,9 °C 94 % 1015,0 hPa 0,0 mm 0,0 km/h (0 Bft) O-NO 72 ° 0 min 0,000 mm 0,0 UV-I 0 W/m² 2,0 °C 2,9 °C 0,0 km/h (0 Bft)
06.05.2017 00:41 3,0 °C 3,0 °C 94 % 1015,0 hPa 0,0 mm 0,0 km/h (0 Bft) O-NO 72 ° 0 min 0,000 mm 0,0 UV-I 0 W/m² 2,1 °C 3,0 °C 0,0 km/h (0 Bft)
06.05.2017 00:42 3,1 °C 3,1 °C 94 % 1015,0 hPa 0,0 mm 0,0 km/h (0 Bft) O-NO 72 ° 0 min 0,000 mm 0,0 UV-I 0 W/m² 2,2 °C 3,1 °C 0,0 km/h (0 Bft)
06.05.2017 00:43 3,2 °C 3,2 °C 94 % 1015,0 hPa 0,0 mm 0,0 km/h (0 Bft) O-NO 72 ° 0 min 0,000 mm 0,0 UV-I 0 W/m² 2,3 °C 3,2 °C 0,0 km/h (0 Bft)
06.05.2017 00:44 3,3 °C 3,3 °C 95 % 1015,0 hPa 0,0 mm 0,0 km/h (0 Bft) O-NO 72 ° 0 min 0,000 mm 0,0 UV-I 0 W/m² 2,6 °C 3,3 °C 0,0 km/h (0 Bft)
06.05.2017 00:45 3,3 °C 3,3 °C 95 % 1015,0 hPa 0,0 mm 0,2 km/h (0 Bft) O-NO 72 ° 0 min 0,000 mm 0,0 UV-I 0 W/m² 2,6 °C 3,3 °C 1,6 km/h (1 Bft)
06.05.2017 00:46 3,4 °C 3,4 °C 95 % 1015,0 hPa 0,0 mm 0,5 km/h (0 Bft) O-NO 72 ° 0 min 0,000 mm 0,0 UV-I 0 W/m² 2,7 °C 3,4 °C 1,6 km/h (1 Bft)
06.05.2017 00:47 3,4 °C 3,4 °C 94 % 1015,0 hPa 0,0 mm 0,9 km/h (0 Bft) O-NO 72 ° 0 min 0,000 mm 0,0 UV-I 0 W/m² 2,5 °C 3,4 °C 3,2 km/h (1 Bft)
06.05.2017 00:48 3,4 °C 3,4 °C 94 % 1015,0 hPa 0,0 mm 1,1 km/h (1 Bft) O-NO 72 ° 0 min 0,000 mm 0,0 UV-I 0 W/m² 2,5 °C 3,4 °C 3,2 km/h (1 Bft)
06.05.2017 00:49 3,5 °C 3,5 °C 94 % 1014,9 hPa 0,0 mm 0,3 km/h (0 Bft) O-NO 72 ° 0 min 0,000 mm 0,0 UV-I 0 W/m² 2,6 °C 3,5 °C 1,6 km/h (1 Bft)
06.05.2017 00:50 3,6 °C 3,6 °C 95 % 1014,9 hPa 0,0 mm 0,0 km/h (0 Bft) O-NO 72 ° 0 min 0,000 mm 0,0 UV-I 0 W/m² 2,9 °C 3,6 °C 0,0 km/h (0 Bft)
06.05.2017 00:51 3,5 °C 3,6 °C 94 % 1015,0 hPa 0,0 mm 0,0 km/h (0 Bft) O-NO 72 ° 0 min 0,000 mm 0,0 UV-I 0 W/m² 2,6 °C 3,5 °C 0,0 km/h (0 Bft)
06.05.2017 00:52 3,6 °C 3,6 °C 95 % 1015,0 hPa 0,0 mm 0,0 km/h (0 Bft) O-NO 72 ° 0 min 0,000 mm 0,0 UV-I 0 W/m² 2,9 °C 3,6 °C 0,0 km/h (0 Bft)
06.05.2017 00:53 3,5 °C 3,6 °C 94 % 1014,9 hPa 0,0 mm 0,0 km/h (0 Bft) O-NO 72 ° 0 min 0,000 mm 0,0 UV-I 0 W/m² 2,6 °C 3,5 °C 0,0 km/h (0 Bft)
06.05.2017 00:54 3,6 °C 3,6 °C 94 % 1014,9 hPa 0,0 mm 0,0 km/h (0 Bft) O-NO 72 ° 0 min 0,000 mm 0,0 UV-I 0 W/m² 2,7 °C 3,6 °C 0,0 km/h (0 Bft)
06.05.2017 00:55 3,6 °C 3,6 °C 95 % 1014,9 hPa 0,0 mm 0,0 km/h (0 Bft) O-NO 72 ° 0 min 0,000 mm 0,0 UV-I 0 W/m² 2,9 °C 3,6 °C 0,0 km/h (0 Bft)
06.05.2017 00:56 3,7 °C 3,7 °C 95 % 1014,9 hPa 0,0 mm 0,0 km/h (0 Bft) O-NO 72 ° 0 min 0,000 mm 0,0 UV-I 0 W/m² 3,0 °C 3,7 °C 0,0 km/h (0 Bft)
06.05.2017 00:57 3,8 °C 3,8 °C 95 % 1014,9 hPa 0,0 mm 0,0 km/h (0 Bft) O-NO 72 ° 0 min 0,000 mm 0,0 UV-I 0 W/m² 3,1 °C 3,8 °C 0,0 km/h (0 Bft)
06.05.2017 00:58 3,7 °C 3,8 °C 95 % 1014,8 hPa 0,0 mm 0,0 km/h (0 Bft) O-NO 72 ° 0 min 0,000 mm 0,0 UV-I 0 W/m² 3,0 °C 3,7 °C 0,0 km/h (0 Bft)
06.05.2017 00:59 3,5 °C 3,7 °C 94 % 1014,8 hPa 0,0 mm 0,0 km/h (0 Bft) O-NO 72 ° 0 min 0,000 mm 0,0 UV-I 0 W/m² 2,6 °C 3,5 °C 0,0 km/h (0 Bft)
06.05.2017 01:00 3,4 °C 3,5 °C 94 % 1014,8 hPa 0,0 mm 0,0 km/h (0 Bft) O-NO 72 ° 0 min 0,000 mm 0,0 UV-I 0 W/m² 2,5 °C 3,4 °C 0,0 km/h (0 Bft)
06.05.2017 01:01 3,4 °C 3,4 °C 94 % 1014,8 hPa 0,0 mm 0,0 km/h (0 Bft) O-NO 72 ° 0 min 0,000 mm 0,0 UV-I 0 W/m² 2,5 °C 3,4 °C 0,0 km/h (0 Bft)
06.05.2017 01:02 3,4 °C 3,4 °C 94 % 1014,8 hPa 0,0 mm 0,0 km/h (0 Bft) O-NO 72 ° 0 min 0,000 mm 0,0 UV-I 0 W/m² 2,5 °C 3,4 °C 0,0 km/h (0 Bft)
06.05.2017 01:03 3,4 °C 3,4 °C 94 % 1014,8 hPa 0,0 mm 0,0 km/h (0 Bft) O-NO 72 ° 0 min 0,000 mm 0,0 UV-I 0 W/m² 2,5 °C 3,4 °C 0,0 km/h (0 Bft)
06.05.2017 01:04 3,4 °C 3,4 °C 94 % 1014,8 hPa 0,0 mm 0,0 km/h (0 Bft) O-NO 72 ° 0 min 0,000 mm 0,0 UV-I 0 W/m² 2,5 °C 3,4 °C 0,0 km/h (0 Bft)
06.05.2017 01:05 3,4 °C 3,4 °C 94 % 1014,8 hPa 0,0 mm 0,0 km/h (0 Bft) O-NO 72 ° 0 min 0,000 mm 0,0 UV-I 0 W/m² 2,5 °C 3,4 °C 0,0 km/h (0 Bft)
06.05.2017 01:06 3,4 °C 3,4 °C 94 % 1014,8 hPa 0,0 mm 0,0 km/h (0 Bft) O-NO 72 ° 0 min 0,000 mm 0,0 UV-I 0 W/m² 2,5 °C 3,4 °C 0,0 km/h (0 Bft)
06.05.2017 01:07 3,4 °C 3,4 °C 94 % 1014,7 hPa 0,0 mm 0,0 km/h (0 Bft) O-NO 72 ° 0 min 0,000 mm 0,0 UV-I 0 W/m² 2,5 °C 3,4 °C 0,0 km/h (0 Bft)
06.05.2017 01:08 3,4 °C 3,4 °C 94 % 1014,7 hPa 0,0 mm 0,0 km/h (0 Bft) O-NO 72 ° 0 min 0,000 mm 0,0 UV-I 0 W/m² 2,5 °C 3,4 °C 0,0 km/h (0 Bft)
06.05.2017 01:09 3,4 °C 3,4 °C 94 % 1014,7 hPa 0,0 mm 0,0 km/h (0 Bft) O-NO 72 ° 0 min 0,000 mm 0,0 UV-I 0 W/m² 2,5 °C 3,4 °C 0,0 km/h (0 Bft)
06.05.2017 01:10 3,3 °C 3,4 °C 94 % 1014,7 hPa 0,0 mm 0,0 km/h (0 Bft) O-NO 72 ° 0 min 0,000 mm 0,0 UV-I 0 W/m² 2,4 °C 3,3 °C 0,0 km/h (0 Bft)
06.05.2017 01:11 3,3 °C 3,3 °C 94 % 1014,7 hPa 0,0 mm 1,3 km/h (1 Bft) O-NO 72 ° 0 min 0,000 mm 0,0 UV-I 0 W/m² 2,4 °C 3,3 °C 3,2 km/h (1 Bft)
06.05.2017 01:12 3,2 °C 3,3 °C 94 % 1014,7 hPa 0,0 mm 0,6 km/h (0 Bft) O-NO 72 ° 0 min 0,000 mm 0,0 UV-I 0 W/m² 2,3 °C 3,2 °C 1,6 km/h (1 Bft)
06.05.2017 01:13 3,2 °C 3,2 °C 94 % 1014,7 hPa 0,0 mm 0,0 km/h (0 Bft) O-NO 72 ° 0 min 0,000 mm 0,0 UV-I 0 W/m² 2,3 °C 3,2 °C 0,0 km/h (0 Bft)
06.05.2017 01:14 3,3 °C 3,3 °C 94 % 1014,6 hPa 0,0 mm 0,0 km/h (0 Bft) O-NO 72 ° 0 min 0,000 mm 0,0 UV-I 0 W/m² 2,4 °C 3,3 °C 0,0 km/h (0 Bft)
06.05.2017 01:15 3,3 °C 3,3 °C 94 % 1014,6 hPa 0,0 mm 0,0 km/h (0 Bft) O-NO 72 ° 0 min 0,000 mm 0,0 UV-I 0 W/m² 2,4 °C 3,3 °C 0,0 km/h (0 Bft)
06.05.2017 01:16 3,3 °C 3,3 °C 94 % 1014,6 hPa 0,0 mm 0,0 km/h (0 Bft) O-NO 72 ° 0 min 0,000 mm 0,0 UV-I 0 W/m² 2,4 °C 3,3 °C 0,0 km/h (0 Bft)
06.05.2017 01:17 3,3 °C 3,3 °C 94 % 1014,6 hPa 0,0 mm 0,0 km/h (0 Bft) O-NO 72 ° 0 min 0,000 mm 0,0 UV-I 0 W/m² 2,4 °C 3,3 °C 0,0 km/h (0 Bft)
06.05.2017 01:18 3,3 °C 3,3 °C 94 % 1014,6 hPa 0,0 mm 0,0 km/h (0 Bft) O-NO 72 ° 0 min 0,000 mm 0,0 UV-I 0 W/m² 2,4 °C 3,3 °C 0,0 km/h (0 Bft)
06.05.2017 01:19 3,3 °C 3,3 °C 94 % 1014,6 hPa 0,0 mm 0,0 km/h (0 Bft) O-NO 72 ° 0 min 0,000 mm 0,0 UV-I 0 W/m² 2,4 °C 3,3 °C 0,0 km/h (0 Bft)
06.05.2017 01:20 3,3 °C 3,3 °C 94 % 1014,6 hPa 0,0 mm 0,0 km/h (0 Bft) O-NO 72 ° 0 min 0,000 mm 0,0 UV-I 0 W/m² 2,4 °C 3,3 °C 0,0 km/h (0 Bft)
06.05.2017 01:21 3,2 °C 3,3 °C 94 % 1014,6 hPa 0,0 mm 0,0 km/h (0 Bft) O-NO 72 ° 0 min 0,000 mm 0,0 UV-I 0 W/m² 2,3 °C 3,2 °C 0,0 km/h (0 Bft)
06.05.2017 01:22 3,1 °C 3,2 °C 94 % 1014,4 hPa 0,0 mm 0,0 km/h (0 Bft) O-NO 72 ° 0 min 0,000 mm 0,0 UV-I 0 W/m² 2,2 °C 3,1 °C 0,0 km/h (0 Bft)
06.05.2017 01:23 3,1 °C 3,1 °C 94 % 1014,4 hPa 0,0 mm 0,0 km/h (0 Bft) O-NO 72 ° 0 min 0,000 mm 0,0 UV-I 0 W/m² 2,2 °C 3,1 °C 0,0 km/h (0 Bft)
06.05.2017 01:24 3,0 °C 3,1 °C 94 % 1014,4 hPa 0,0 mm 0,0 km/h (0 Bft) O-NO 72 ° 0 min 0,000 mm 0,0 UV-I 0 W/m² 2,1 °C 3,0 °C 0,0 km/h (0 Bft)
06.05.2017 01:25 2,9 °C 3,0 °C 94 % 1014,5 hPa 0,0 mm 0,0 km/h (0 Bft) O-NO 72 ° 0 min 0,000 mm 0,0 UV-I 0 W/m² 2,0 °C 2,9 °C 0,0 km/h (0 Bft)
06.05.2017 01:26 2,8 °C 2,9 °C 94 % 1014,4 hPa 0,0 mm 0,0 km/h (0 Bft) O-NO 72 ° 0 min 0,000 mm 0,0 UV-I 0 W/m² 1,9 °C 2,8 °C 0,0 km/h (0 Bft)
06.05.2017 01:27 2,8 °C 2,8 °C 94 % 1014,4 hPa 0,0 mm 0,0 km/h (0 Bft) O-NO 72 ° 0 min 0,000 mm 0,0 UV-I 0 W/m² 1,9 °C 2,8 °C 0,0 km/h (0 Bft)
06.05.2017 01:28 2,8 °C 2,8 °C 94 % 1014,4 hPa 0,0 mm 0,0 km/h (0 Bft) O-NO 72 ° 0 min 0,000 mm 0,0 UV-I 0 W/m² 1,9 °C 2,8 °C 0,0 km/h (0 Bft)
06.05.2017 01:29 2,9 °C 2,9 °C 94 % 1014,4 hPa 0,0 mm 0,0 km/h (0 Bft) O-NO 72 ° 0 min 0,000 mm 0,0 UV-I 0 W/m² 2,0 °C 2,9 °C 0,0 km/h (0 Bft)
06.05.2017 01:30 2,9 °C 2,9 °C 94 % 1014,4 hPa 0,0 mm 0,0 km/h (0 Bft) O-NO 72 ° 0 min 0,000 mm 0,0 UV-I 0 W/m² 2,0 °C 2,9 °C 0,0 km/h (0 Bft)
06.05.2017 01:31 3,1 °C 3,1 °C 94 % 1014,3 hPa 0,0 mm 0,0 km/h (0 Bft) O-NO 72 ° 0 min 0,000 mm 0,0 UV-I 0 W/m² 2,2 °C 3,1 °C 0,0 km/h (0 Bft)
06.05.2017 01:32 3,1 °C 3,1 °C 95 % 1014,3 hPa 0,0 mm 0,0 km/h (0 Bft) O-NO 72 ° 0 min 0,000 mm 0,0 UV-I 0 W/m² 2,4 °C 3,1 °C 0,0 km/h (0 Bft)
06.05.2017 01:33 3,0 °C 3,1 °C 94 % 1014,3 hPa 0,0 mm 0,0 km/h (0 Bft) O-NO 72 ° 0 min 0,000 mm 0,0 UV-I 0 W/m² 2,1 °C 3,0 °C 0,0 km/h (0 Bft)
06.05.2017 01:34 2,8 °C 3,0 °C 94 % 1014,3 hPa 0,0 mm 0,0 km/h (0 Bft) O-NO 72 ° 0 min 0,000 mm 0,0 UV-I 0 W/m² 1,9 °C 2,8 °C 0,0 km/h (0 Bft)
06.05.2017 01:35 2,7 °C 2,8 °C 94 % 1014,3 hPa 0,0 mm 0,0 km/h (0 Bft) O-NO 72 ° 0 min 0,000 mm 0,0 UV-I 0 W/m² 1,8 °C 2,7 °C 0,0 km/h (0 Bft)
06.05.2017 01:36 2,6 °C 2,7 °C 94 % 1014,3 hPa 0,0 mm 0,0 km/h (0 Bft) O-NO 72 ° 0 min 0,000 mm 0,0 UV-I 0 W/m² 1,7 °C 2,6 °C 0,0 km/h (0 Bft)
06.05.2017 01:37 2,6 °C 2,6 °C 94 % 1014,3 hPa 0,0 mm 0,0 km/h (0 Bft) O-NO 72 ° 0 min 0,000 mm 0,0 UV-I 0 W/m² 1,7 °C 2,6 °C 0,0 km/h (0 Bft)
06.05.2017 01:38 2,6 °C 2,6 °C 94 % 1014,3 hPa 0,0 mm 0,0 km/h (0 Bft) O-NO 72 ° 0 min 0,000 mm 0,0 UV-I 0 W/m² 1,7 °C 2,6 °C 0,0 km/h (0 Bft)
06.05.2017 01:39 2,6 °C 2,6 °C 94 % 1014,2 hPa 0,0 mm 0,0 km/h (0 Bft) O-NO 72 ° 0 min 0,000 mm 0,0 UV-I 0 W/m² 1,7 °C 2,6 °C 0,0 km/h (0 Bft)
06.05.2017 01:40 2,7 °C 2,7 °C 94 % 1014,2 hPa 0,0 mm 0,0 km/h (0 Bft) O-NO 72 ° 0 min 0,000 mm 0,0 UV-I 0 W/m² 1,8 °C 2,7 °C 0,0 km/h (0 Bft)
06.05.2017 01:41 2,6 °C 2,7 °C 94 % 1014,2 hPa 0,0 mm 0,0 km/h (0 Bft) O-NO 72 ° 0 min 0,000 mm 0,0 UV-I 0 W/m² 1,7 °C 2,6 °C 0,0 km/h (0 Bft)
06.05.2017 01:42 2,7 °C 2,7 °C 94 % 1014,2 hPa 0,0 mm 0,0 km/h (0 Bft) O-NO 72 ° 0 min 0,000 mm 0,0 UV-I 0 W/m² 1,8 °C 2,7 °C 0,0 km/h (0 Bft)
06.05.2017 01:43 2,7 °C 2,7 °C 94 % 1014,2 hPa 0,0 mm 0,0 km/h (0 Bft) O-NO 72 ° 0 min 0,000 mm 0,0 UV-I 0 W/m² 1,8 °C 2,7 °C 0,0 km/h (0 Bft)
06.05.2017 01:44 2,7 °C 2,7 °C 94 % 1014,3 hPa 0,0 mm 0,0 km/h (0 Bft) O-NO 72 ° 0 min 0,000 mm 0,0 UV-I 0 W/m² 1,8 °C 2,7 °C 0,0 km/h (0 Bft)
06.05.2017 01:45 2,8 °C 2,8 °C 94 % 1014,3 hPa 0,0 mm 0,0 km/h (0 Bft) O-NO 72 ° 0 min 0,000 mm 0,0 UV-I 0 W/m² 1,9 °C 2,8 °C 0,0 km/h (0 Bft)
06.05.2017 01:46 2,8 °C 2,8 °C 94 % 1014,2 hPa 0,0 mm 0,0 km/h (0 Bft) O-NO 72 ° 0 min 0,000 mm 0,0 UV-I 0 W/m² 1,9 °C 2,8 °C 0,0 km/h (0 Bft)
06.05.2017 01:47 2,7 °C 2,8 °C 94 % 1014,3 hPa 0,0 mm 0,0 km/h (0 Bft) O-NO 72 ° 0 min 0,000 mm 0,0 UV-I 0 W/m² 1,8 °C 2,7 °C 0,0 km/h (0 Bft)
06.05.2017 01:48 2,7 °C 2,7 °C 94 % 1014,2 hPa 0,0 mm 0,0 km/h (0 Bft) O-NO 72 ° 0 min 0,000 mm 0,0 UV-I 0 W/m² 1,8 °C 2,7 °C 0,0 km/h (0 Bft)
06.05.2017 01:49 2,7 °C 2,7 °C 94 % 1014,2 hPa 0,0 mm 0,0 km/h (0 Bft) O-NO 72 ° 0 min 0,000 mm 0,0 UV-I 0 W/m² 1,8 °C 2,7 °C 0,0 km/h (0 Bft)
06.05.2017 01:50 2,7 °C 2,7 °C 94 % 1014,2 hPa 0,0 mm 0,0 km/h (0 Bft) O-NO 72 ° 0 min 0,000 mm 0,0 UV-I 0 W/m² 1,8 °C 2,7 °C 0,0 km/h (0 Bft)
06.05.2017 01:51 2,7 °C 2,7 °C 94 % 1014,2 hPa 0,0 mm 0,0 km/h (0 Bft) O-NO 72 ° 0 min 0,000 mm 0,0 UV-I 0 W/m² 1,8 °C 2,7 °C 0,0 km/h (0 Bft)
06.05.2017 01:52 2,7 °C 2,7 °C 95 % 1014,2 hPa 0,0 mm 0,0 km/h (0 Bft) O-NO 72 ° 0 min 0,000 mm 0,0 UV-I 0 W/m² 2,0 °C 2,7 °C 0,0 km/h (0 Bft)
06.05.2017 01:53 2,7 °C 2,7 °C 94 % 1014,2 hPa 0,0 mm 0,0 km/h (0 Bft) O-NO 72 ° 0 min 0,000 mm 0,0 UV-I 0 W/m² 1,8 °C 2,7 °C 0,0 km/h (0 Bft)
06.05.2017 01:54 2,6 °C 2,7 °C 94 % 1014,2 hPa 0,0 mm 0,0 km/h (0 Bft) O-NO 72 ° 0 min 0,000 mm 0,0 UV-I 0 W/m² 1,7 °C 2,6 °C 0,0 km/h (0 Bft)
06.05.2017 01:55 2,6 °C 2,6 °C 94 % 1014,2 hPa 0,0 mm 0,0 km/h (0 Bft) O-NO 72 ° 0 min 0,000 mm 0,0 UV-I 0 W/m² 1,7 °C 2,6 °C 0,0 km/h (0 Bft)
06.05.2017 01:56 2,7 °C 2,7 °C 95 % 1014,2 hPa 0,0 mm 0,0 km/h (0 Bft) O-NO 72 ° 0 min 0,000 mm 0,0 UV-I 0 W/m² 2,0 °C 2,7 °C 0,0 km/h (0 Bft)
06.05.2017 01:57 2,8 °C 2,8 °C 95 % 1014,2 hPa 0,0 mm 0,0 km/h (0 Bft) O-NO 72 ° 0 min 0,000 mm 0,0 UV-I 0 W/m² 2,1 °C 2,8 °C 0,0 km/h (0 Bft)
06.05.2017 01:58 2,8 °C 2,8 °C 95 % 1014,2 hPa 0,0 mm 0,0 km/h (0 Bft) O-NO 72 ° 0 min 0,000 mm 0,0 UV-I 0 W/m² 2,1 °C 2,8 °C 0,0 km/h (0 Bft)
06.05.2017 01:59 2,7 °C 2,8 °C 95 % 1014,2 hPa 0,0 mm 0,0 km/h (0 Bft) O-NO 72 ° 0 min 0,000 mm 0,0 UV-I 0 W/m² 2,0 °C 2,7 °C 0,0 km/h (0 Bft)
06.05.2017 02:00 2,6 °C 2,7 °C 94 % 1014,1 hPa 0,0 mm 0,0 km/h (0 Bft) O-NO 72 ° 0 min 0,000 mm 0,0 UV-I 0 W/m² 1,7 °C 2,6 °C 0,0 km/h (0 Bft)
06.05.2017 02:01 2,4 °C 2,6 °C 94 % 1014,1 hPa 0,0 mm 0,0 km/h (0 Bft) O-NO 72 ° 0 min 0,000 mm 0,0 UV-I 0 W/m² 1,5 °C 2,4 °C 0,0 km/h (0 Bft)
06.05.2017 02:02 2,3 °C 2,4 °C 94 % 1014,1 hPa 0,0 mm 0,0 km/h (0 Bft) O-NO 72 ° 0 min 0,000 mm 0,0 UV-I 0 W/m² 1,4 °C 2,3 °C 0,0 km/h (0 Bft)
06.05.2017 02:03 2,3 °C 2,3 °C 94 % 1014,1 hPa 0,0 mm 0,0 km/h (0 Bft) O-NO 72 ° 0 min 0,000 mm 0,0 UV-I 0 W/m² 1,4 °C 2,3 °C 0,0 km/h (0 Bft)
06.05.2017 02:04 2,3 °C 2,4 °C 94 % 1014,1 hPa 0,0 mm 0,0 km/h (0 Bft) O-NO 72 ° 0 min 0,000 mm 0,0 UV-I 0 W/m² 1,4 °C 2,3 °C 0,0 km/h (0 Bft)
06.05.2017 02:05 2,3 °C 2,4 °C 95 % 1014,1 hPa 0,0 mm 0,0 km/h (0 Bft) O-NO 72 ° 0 min 0,000 mm 0,0 UV-I 0 W/m² 1,6 °C 2,3 °C 0,0 km/h (0 Bft)
06.05.2017 02:06 2,3 °C 2,3 °C 94 % 1014,1 hPa 0,0 mm 0,0 km/h (0 Bft) O-NO 72 ° 0 min 0,000 mm 0,0 UV-I 0 W/m² 1,4 °C 2,3 °C 0,0 km/h (0 Bft)
06.05.2017 02:07 2,3 °C 2,3 °C 94 % 1014,1 hPa 0,0 mm 0,0 km/h (0 Bft) O-NO 72 ° 0 min 0,000 mm 0,0 UV-I 0 W/m² 1,4 °C 2,3 °C 0,0 km/h (0 Bft)
06.05.2017 02:08 2,2 °C 2,3 °C 94 % 1014,1 hPa 0,0 mm 0,0 km/h (0 Bft) O-NO 72 ° 0 min 0,000 mm 0,0 UV-I 0 W/m² 1,3 °C 2,2 °C 0,0 km/h (0 Bft)
06.05.2017 02:09 2,3 °C 2,3 °C 95 % 1014,1 hPa 0,0 mm 0,0 km/h (0 Bft) O-NO 72 ° 0 min 0,000 mm 0,0 UV-I 0 W/m² 1,6 °C 2,3 °C 0,0 km/h (0 Bft)
06.05.2017 02:10 2,3 °C 2,3 °C 95 % 1014,0 hPa 0,0 mm 0,0 km/h (0 Bft) O-NO 72 ° 0 min 0,000 mm 0,0 UV-I 0 W/m² 1,6 °C 2,3 °C 0,0 km/h (0 Bft)
06.05.2017 02:11 2,2 °C 2,3 °C 95 % 1014,1 hPa 0,0 mm 0,0 km/h (0 Bft) O-NO 72 ° 0 min 0,000 mm 0,0 UV-I 0 W/m² 1,5 °C 2,2 °C 0,0 km/h (0 Bft)
06.05.2017 02:12 2,2 °C 2,2 °C 95 % 1014,1 hPa 0,0 mm 0,0 km/h (0 Bft) O-NO 72 ° 0 min 0,000 mm 0,0 UV-I 0 W/m² 1,5 °C 2,2 °C 0,0 km/h (0 Bft)
06.05.2017 02:13 2,2 °C 2,2 °C 95 % 1014,1 hPa 0,0 mm 0,0 km/h (0 Bft) O-NO 72 ° 0 min 0,000 mm 0,0 UV-I 0 W/m² 1,5 °C 2,2 °C 0,0 km/h (0 Bft)
06.05.2017 02:14 2,2 °C 2,2 °C 95 % 1014,0 hPa 0,0 mm 0,0 km/h (0 Bft) O-NO 72 ° 0 min 0,000 mm 0,0 UV-I 0 W/m² 1,5 °C 2,2 °C 0,0 km/h (0 Bft)
06.05.2017 02:15 2,3 °C 2,3 °C 95 % 1014,0 hPa 0,0 mm 0,0 km/h (0 Bft) O-NO 72 ° 0 min 0,000 mm 0,0 UV-I 0 W/m² 1,6 °C 2,3 °C 0,0 km/h (0 Bft)
06.05.2017 02:16 2,2 °C 2,3 °C 95 % 1014,0 hPa 0,0 mm 0,0 km/h (0 Bft) O-NO 72 ° 0 min 0,000 mm 0,0 UV-I 0 W/m² 1,5 °C 2,2 °C 0,0 km/h (0 Bft)
06.05.2017 02:17 2,2 °C 2,3 °C 95 % 1014,0 hPa 0,0 mm 0,0 km/h (0 Bft) O-NO 72 ° 0 min 0,000 mm 0,0 UV-I 0 W/m² 1,5 °C 2,2 °C 0,0 km/h (0 Bft)
06.05.2017 02:18 2,3 °C 2,3 °C 95 % 1014,0 hPa 0,0 mm 0,0 km/h (0 Bft) O-NO 72 ° 0 min 0,000 mm 0,0 UV-I 0 W/m² 1,6 °C 2,3 °C 0,0 km/h (0 Bft)
06.05.2017 02:19 2,3 °C 2,3 °C 95 % 1014,0 hPa 0,0 mm 0,0 km/h (0 Bft) O-NO 72 ° 0 min 0,000 mm 0,0 UV-I 0 W/m² 1,6 °C 2,3 °C 0,0 km/h (0 Bft)
06.05.2017 02:20 2,3 °C 2,3 °C 95 % 1014,0 hPa 0,0 mm 0,0 km/h (0 Bft) O-NO 72 ° 0 min 0,000 mm 0,0 UV-I 0 W/m² 1,6 °C 2,3 °C 0,0 km/h (0 Bft)
06.05.2017 02:21 2,3 °C 2,3 °C 95 % 1014,0 hPa 0,0 mm 0,0 km/h (0 Bft) O-NO 72 ° 0 min 0,000 mm 0,0 UV-I 0 W/m² 1,6 °C 2,3 °C 0,0 km/h (0 Bft)
06.05.2017 02:22 2,3 °C 2,3 °C 95 % 1013,9 hPa 0,0 mm 0,0 km/h (0 Bft) O-NO 72 ° 0 min 0,000 mm 0,0 UV-I 0 W/m² 1,6 °C 2,3 °C 0,0 km/h (0 Bft)
06.05.2017 02:23 2,3 °C 2,3 °C 95 % 1013,9 hPa 0,0 mm 0,0 km/h (0 Bft) O-NO 72 ° 0 min 0,000 mm 0,0 UV-I 0 W/m² 1,6 °C 2,3 °C 0,0 km/h (0 Bft)
06.05.2017 02:24 2,2 °C 2,3 °C 95 % 1013,9 hPa 0,0 mm 0,0 km/h (0 Bft) O-NO 72 ° 0 min 0,000 mm 0,0 UV-I 0 W/m² 1,5 °C 2,2 °C 0,0 km/h (0 Bft)
06.05.2017 02:25 2,2 °C 2,2 °C 95 % 1013,9 hPa 0,0 mm 0,0 km/h (0 Bft) O-NO 72 ° 0 min 0,000 mm 0,0 UV-I 0 W/m² 1,5 °C 2,2 °C 0,0 km/h (0 Bft)
06.05.2017 02:26 2,1 °C 2,2 °C 94 % 1013,7 hPa 0,0 mm 0,0 km/h (0 Bft) O-NO 72 ° 0 min 0,000 mm 0,0 UV-I 0 W/m² 1,2 °C 2,1 °C 0,0 km/h (0 Bft)
06.05.2017 02:27 2,0 °C 2,1 °C 94 % 1013,7 hPa 0,0 mm 0,0 km/h (0 Bft) O-NO 72 ° 0 min 0,000 mm 0,0 UV-I 0 W/m² 1,1 °C 2,0 °C 0,0 km/h (0 Bft)
06.05.2017 02:28 1,9 °C 2,0 °C 94 % 1013,8 hPa 0,0 mm 0,0 km/h (0 Bft) O-NO 72 ° 0 min 0,000 mm 0,0 UV-I 0 W/m² 1,0 °C 1,9 °C 0,0 km/h (0 Bft)
06.05.2017 02:29 1,8 °C 1,9 °C 94 % 1013,8 hPa 0,0 mm 0,0 km/h (0 Bft) O-NO 72 ° 0 min 0,000 mm 0,0 UV-I 0 W/m² 0,9 °C 1,8 °C 0,0 km/h (0 Bft)
06.05.2017 02:30 1,7 °C 1,8 °C 94 % 1013,7 hPa 0,0 mm 0,0 km/h (0 Bft) O-NO 72 ° 0 min 0,000 mm 0,0 UV-I 0 W/m² 0,8 °C 1,7 °C 0,0 km/h (0 Bft)
06.05.2017 02:31 1,6 °C 1,7 °C 94 % 1013,7 hPa 0,0 mm 0,0 km/h (0 Bft) O-NO 72 ° 0 min 0,000 mm 0,0 UV-I 0 W/m² 0,7 °C 1,6 °C 0,0 km/h (0 Bft)
06.05.2017 02:32 1,6 °C 1,6 °C 94 % 1013,7 hPa 0,0 mm 0,0 km/h (0 Bft) O-NO 72 ° 0 min 0,000 mm 0,0 UV-I 0 W/m² 0,7 °C 1,6 °C 0,0 km/h (0 Bft)
06.05.2017 02:33 1,6 °C 1,6 °C 94 % 1013,8 hPa 0,0 mm 1,5 km/h (1 Bft) O-NO 72 ° 0 min 0,000 mm 0,0 UV-I 0 W/m² 0,7 °C 1,6 °C 1,6 km/h (1 Bft)
06.05.2017 02:34 1,6 °C 1,6 °C 95 % 1013,8 hPa 0,0 mm 0,9 km/h (0 Bft) O-NO 72 ° 0 min 0,000 mm 0,0 UV-I 0 W/m² 0,9 °C 1,6 °C 1,6 km/h (1 Bft)
06.05.2017 02:35 1,5 °C 1,6 °C 95 % 1013,8 hPa 0,0 mm 0,0 km/h (0 Bft) O-NO 72 ° 0 min 0,000 mm 0,0 UV-I 0 W/m² 0,8 °C 1,5 °C 0,0 km/h (0 Bft)
06.05.2017 02:36 1,6 °C 1,6 °C 95 % 1013,7 hPa 0,0 mm 0,0 km/h (0 Bft) O-NO 72 ° 0 min 0,000 mm 0,0 UV-I 0 W/m² 0,9 °C 1,6 °C 0,0 km/h (0 Bft)
06.05.2017 02:37 1,7 °C 1,7 °C 95 % 1013,7 hPa 0,0 mm 0,0 km/h (0 Bft) O-NO 72 ° 0 min 0,000 mm 0,0 UV-I 0 W/m² 1,0 °C 1,7 °C 0,0 km/h (0 Bft)
06.05.2017 02:38 1,8 °C 1,8 °C 95 % 1013,6 hPa 0,0 mm 0,0 km/h (0 Bft) O-NO 72 ° 0 min 0,000 mm 0,0 UV-I 0 W/m² 1,1 °C 1,8 °C 0,0 km/h (0 Bft)
06.05.2017 02:39 1,9 °C 1,9 °C 95 % 1013,6 hPa 0,0 mm 0,0 km/h (0 Bft) O-NO 72 ° 0 min 0,000 mm 0,0 UV-I 0 W/m² 1,2 °C 1,9 °C 0,0 km/h (0 Bft)
06.05.2017 02:40 2,0 °C 2,0 °C 95 % 1013,6 hPa 0,0 mm 0,0 km/h (0 Bft) O-NO 72 ° 0 min 0,000 mm 0,0 UV-I 0 W/m² 1,3 °C 2,0 °C 0,0 km/h (0 Bft)
06.05.2017 02:41 2,1 °C 2,1 °C 95 % 1013,6 hPa 0,0 mm 0,0 km/h (0 Bft) O-NO 72 ° 0 min 0,000 mm 0,0 UV-I 0 W/m² 1,4 °C 2,1 °C 0,0 km/h (0 Bft)
06.05.2017 02:42 2,2 °C 2,2 °C 95 % 1013,6 hPa 0,0 mm 0,0 km/h (0 Bft) O-NO 72 ° 0 min 0,000 mm 0,0 UV-I 0 W/m² 1,5 °C 2,2 °C 0,0 km/h (0 Bft)
06.05.2017 02:43 2,2 °C 2,2 °C 95 % 1013,6 hPa 0,0 mm 1,0 km/h (0 Bft) O-NO 73 ° 0 min 0,000 mm 0,0 UV-I 0 W/m² 1,5 °C 2,2 °C 4,8 km/h (1 Bft)
06.05.2017 02:44 2,3 °C 2,3 °C 95 % 1013,6 hPa 0,0 mm 2,2 km/h (1 Bft) O-NO 73 ° 0 min 0,000 mm 0,0 UV-I 0 W/m² 1,6 °C 2,3 °C 3,2 km/h (1 Bft)
06.05.2017 02:45 2,3 °C 2,3 °C 95 % 1013,6 hPa 0,0 mm 0,6 km/h (0 Bft) O-NO 73 ° 0 min 0,000 mm 0,0 UV-I 0 W/m² 1,6 °C 2,3 °C 1,6 km/h (1 Bft)
06.05.2017 02:46 2,4 °C 2,4 °C 95 % 1013,6 hPa 0,0 mm 0,1 km/h (0 Bft) O-NO 73 ° 0 min 0,000 mm 0,0 UV-I 0 W/m² 1,7 °C 2,4 °C 1,6 km/h (1 Bft)
06.05.2017 02:47 2,4 °C 2,4 °C 95 % 1013,5 hPa 0,0 mm 0,0 km/h (0 Bft) O-NO 73 ° 0 min 0,000 mm 0,0 UV-I 0 W/m² 1,7 °C 2,4 °C 0,0 km/h (0 Bft)
06.05.2017 02:48 2,2 °C 2,4 °C 95 % 1013,5 hPa 0,0 mm 0,0 km/h (0 Bft) O-NO 73 ° 0 min 0,000 mm 0,0 UV-I 0 W/m² 1,5 °C 2,2 °C 0,0 km/h (0 Bft)
06.05.2017 02:49 2,1 °C 2,2 °C 95 % 1013,5 hPa 0,0 mm 0,0 km/h (0 Bft) O-NO 73 ° 0 min 0,000 mm 0,0 UV-I 0 W/m² 1,4 °C 2,1 °C 0,0 km/h (0 Bft)
06.05.2017 02:50 2,0 °C 2,1 °C 95 % 1013,5 hPa 0,0 mm 0,0 km/h (0 Bft) O-NO 73 ° 0 min 0,000 mm 0,0 UV-I 0 W/m² 1,3 °C 2,0 °C 0,0 km/h (0 Bft)
06.05.2017 02:51 1,9 °C 2,0 °C 95 % 1013,5 hPa 0,0 mm 0,0 km/h (0 Bft) O-NO 73 ° 0 min 0,000 mm 0,0 UV-I 0 W/m² 1,2 °C 1,9 °C 0,0 km/h (0 Bft)
06.05.2017 02:52 1,7 °C 1,9 °C 95 % 1013,5 hPa 0,0 mm 0,0 km/h (0 Bft) O-NO 73 ° 0 min 0,000 mm 0,0 UV-I 0 W/m² 1,0 °C 1,7 °C 0,0 km/h (0 Bft)
06.05.2017 02:53 1,7 °C 1,7 °C 94 % 1013,5 hPa 0,0 mm 0,0 km/h (0 Bft) O-NO 73 ° 0 min 0,000 mm 0,0 UV-I 0 W/m² 0,8 °C 1,7 °C 0,0 km/h (0 Bft)
06.05.2017 02:54 1,7 °C 1,7 °C 95 % 1013,5 hPa 0,0 mm 0,0 km/h (0 Bft) O-NO 73 ° 0 min 0,000 mm 0,0 UV-I 0 W/m² 1,0 °C 1,7 °C 0,0 km/h (0 Bft)
06.05.2017 02:55 1,6 °C 1,7 °C 95 % 1013,5 hPa 0,0 mm 0,0 km/h (0 Bft) O-NO 73 ° 0 min 0,000 mm 0,0 UV-I 0 W/m² 0,9 °C 1,6 °C 0,0 km/h (0 Bft)
06.05.2017 02:56 1,4 °C 1,6 °C 94 % 1013,4 hPa 0,0 mm 0,0 km/h (0 Bft) O-NO 73 ° 0 min 0,000 mm 0,0 UV-I 0 W/m² 0,5 °C 1,4 °C 0,0 km/h (0 Bft)
06.05.2017 02:57 1,3 °C 1,4 °C 94 % 1013,4 hPa 0,0 mm 0,0 km/h (0 Bft) O-NO 73 ° 0 min 0,000 mm 0,0 UV-I 0 W/m² 0,4 °C 1,3 °C 0,0 km/h (0 Bft)
06.05.2017 02:58 1,2 °C 1,3 °C 94 % 1013,5 hPa 0,0 mm 0,0 km/h (0 Bft) O-NO 73 ° 0 min 0,000 mm 0,0 UV-I 0 W/m² 0,3 °C 1,2 °C 0,0 km/h (0 Bft)
06.05.2017 02:59 1,2 °C 1,3 °C 94 % 1013,5 hPa 0,0 mm 0,0 km/h (0 Bft) O-NO 73 ° 0 min 0,000 mm 0,0 UV-I 0 W/m² 0,3 °C 1,2 °C 0,0 km/h (0 Bft)
06.05.2017 03:00 1,2 °C 1,2 °C 94 % 1013,3 hPa 0,0 mm 0,0 km/h (0 Bft) O-NO 73 ° 0 min 0,000 mm 0,0 UV-I 0 W/m² 0,3 °C 1,2 °C 0,0 km/h (0 Bft)
06.05.2017 03:01 1,1 °C 1,2 °C 94 % 1013,3 hPa 0,0 mm 0,0 km/h (0 Bft) O-NO 73 ° 0 min 0,000 mm 0,0 UV-I 0 W/m² 0,2 °C 1,1 °C 0,0 km/h (0 Bft)
06.05.2017 03:02 1,1 °C 1,1 °C 94 % 1013,4 hPa 0,0 mm 0,0 km/h (0 Bft) O-NO 73 ° 0 min 0,000 mm 0,0 UV-I 0 W/m² 0,2 °C 1,1 °C 0,0 km/h (0 Bft)
06.05.2017 03:03 1,1 °C 1,1 °C 94 % 1013,4 hPa 0,0 mm 0,0 km/h (0 Bft) O-NO 73 ° 0 min 0,000 mm 0,0 UV-I 0 W/m² 0,2 °C 1,1 °C 0,0 km/h (0 Bft)
06.05.2017 03:04 1,1 °C 1,1 °C 95 % 1013,3 hPa 0,0 mm 0,0 km/h (0 Bft) O-NO 73 ° 0 min 0,000 mm 0,0 UV-I 0 W/m² 0,4 °C 1,1 °C 0,0 km/h (0 Bft)
06.05.2017 03:05 1,0 °C 1,1 °C 94 % 1013,4 hPa 0,0 mm 0,0 km/h (0 Bft) O-NO 73 ° 0 min 0,000 mm 0,0 UV-I 0 W/m² 0,1 °C 1,0 °C 0,0 km/h (0 Bft)
06.05.2017 03:06 0,9 °C 1,0 °C 95 % 1013,3 hPa 0,0 mm 0,0 km/h (0 Bft) O-NO 73 ° 0 min 0,000 mm 0,0 UV-I 0 W/m² 0,2 °C 0,9 °C 0,0 km/h (0 Bft)
06.05.2017 03:07 0,9 °C 1,0 °C 95 % 1013,3 hPa 0,0 mm 0,0 km/h (0 Bft) O-NO 73 ° 0 min 0,000 mm 0,0 UV-I 0 W/m² 0,2 °C 0,9 °C 0,0 km/h (0 Bft)
06.05.2017 03:08 1,0 °C 1,0 °C 95 % 1013,3 hPa 0,0 mm 0,0 km/h (0 Bft) O-NO 73 ° 0 min 0,000 mm 0,0 UV-I 0 W/m² 0,3 °C 1,0 °C 0,0 km/h (0 Bft)
06.05.2017 03:09 1,1 °C 1,1 °C 95 % 1013,3 hPa 0,0 mm 0,0 km/h (0 Bft) O-NO 73 ° 0 min 0,000 mm 0,0 UV-I 0 W/m² 0,4 °C 1,1 °C 0,0 km/h (0 Bft)
06.05.2017 03:10 1,2 °C 1,2 °C 95 % 1013,3 hPa 0,0 mm 0,0 km/h (0 Bft) O-NO 73 ° 0 min 0,000 mm 0,0 UV-I 0 W/m² 0,5 °C 1,2 °C 0,0 km/h (0 Bft)
06.05.2017 03:11 1,3 °C 1,3 °C 95 % 1013,3 hPa 0,0 mm 0,0 km/h (0 Bft) O-NO 73 ° 0 min 0,000 mm 0,0 UV-I 0 W/m² 0,6 °C 1,3 °C 0,0 km/h (0 Bft)
06.05.2017 03:12 1,4 °C 1,4 °C 95 % 1013,2 hPa 0,0 mm 0,0 km/h (0 Bft) O-NO 73 ° 0 min 0,000 mm 0,0 UV-I 0 W/m² 0,7 °C 1,4 °C 0,0 km/h (0 Bft)
06.05.2017 03:13 1,4 °C 1,4 °C 95 % 1013,2 hPa 0,0 mm 0,0 km/h (0 Bft) O-NO 73 ° 0 min 0,000 mm 0,0 UV-I 0 W/m² 0,7 °C 1,4 °C 0,0 km/h (0 Bft)
06.05.2017 03:14 1,4 °C 1,4 °C 95 % 1013,2 hPa 0,0 mm 0,0 km/h (0 Bft) O-NO 73 ° 0 min 0,000 mm 0,0 UV-I 0 W/m² 0,7 °C 1,4 °C 0,0 km/h (0 Bft)
06.05.2017 03:15 1,6 °C 1,6 °C 95 % 1013,2 hPa 0,0 mm 0,0 km/h (0 Bft) O-NO 73 ° 0 min 0,000 mm 0,0 UV-I 0 W/m² 0,9 °C 1,6 °C 0,0 km/h (0 Bft)
06.05.2017 03:16 1,6 °C 1,6 °C 95 % 1013,1 hPa 0,0 mm 0,0 km/h (0 Bft) O-NO 73 ° 0 min 0,000 mm 0,0 UV-I 0 W/m² 0,9 °C 1,6 °C 0,0 km/h (0 Bft)
06.05.2017 03:17 1,6 °C 1,6 °C 95 % 1013,2 hPa 0,0 mm 0,0 km/h (0 Bft) O-NO 73 ° 0 min 0,000 mm 0,0 UV-I 0 W/m² 0,9 °C 1,6 °C 0,0 km/h (0 Bft)
06.05.2017 03:18 1,4 °C 1,6 °C 95 % 1013,1 hPa 0,0 mm 0,0 km/h (0 Bft) O-NO 73 ° 0 min 0,000 mm 0,0 UV-I 0 W/m² 0,7 °C 1,4 °C 0,0 km/h (0 Bft)
06.05.2017 03:19 1,3 °C 1,4 °C 95 % 1013,1 hPa 0,0 mm 0,0 km/h (0 Bft) O-NO 73 ° 0 min 0,000 mm 0,0 UV-I 0 W/m² 0,6 °C 1,3 °C 0,0 km/h (0 Bft)
06.05.2017 03:20 1,2 °C 1,3 °C 95 % 1013,1 hPa 0,0 mm 0,0 km/h (0 Bft) O-NO 73 ° 0 min 0,000 mm 0,0 UV-I 0 W/m² 0,5 °C 1,2 °C 0,0 km/h (0 Bft)
06.05.2017 03:21 1,1 °C 1,2 °C 94 % 1013,1 hPa 0,0 mm 0,0 km/h (0 Bft) O-NO 73 ° 0 min 0,000 mm 0,0 UV-I 0 W/m² 0,2 °C 1,1 °C 0,0 km/h (0 Bft)
06.05.2017 03:22 1,1 °C 1,1 °C 94 % 1013,1 hPa 0,0 mm 0,0 km/h (0 Bft) O-NO 73 ° 0 min 0,000 mm 0,0 UV-I 0 W/m² 0,2 °C 1,1 °C 0,0 km/h (0 Bft)
06.05.2017 03:23 1,0 °C 1,1 °C 95 % 1013,1 hPa 0,0 mm 0,0 km/h (0 Bft) O-NO 73 ° 0 min 0,000 mm 0,0 UV-I 0 W/m² 0,3 °C 1,0 °C 0,0 km/h (0 Bft)
06.05.2017 03:24 1,0 °C 1,1 °C 95 % 1013,0 hPa 0,0 mm 0,0 km/h (0 Bft) O-NO 73 ° 0 min 0,000 mm 0,0 UV-I 0 W/m² 0,3 °C 1,0 °C 0,0 km/h (0 Bft)
06.05.2017 03:25 1,1 °C 1,1 °C 95 % 1013,0 hPa 0,0 mm 0,6 km/h (0 Bft) O-NO 73 ° 0 min 0,000 mm 0,0 UV-I 0 W/m² 0,4 °C 1,1 °C 3,2 km/h (1 Bft)
06.05.2017 03:26 1,2 °C 1,2 °C 95 % 1013,0 hPa 0,0 mm 2,3 km/h (1 Bft) O-NO 73 ° 0 min 0,000 mm 0,0 UV-I 0 W/m² 0,5 °C 1,2 °C 3,2 km/h (1 Bft)
06.05.2017 03:27 1,3 °C 1,3 °C 95 % 1013,0 hPa 0,0 mm 1,6 km/h (1 Bft) O-NO 73 ° 0 min 0,000 mm 0,0 UV-I 0 W/m² 0,6 °C 1,3 °C 1,6 km/h (1 Bft)
06.05.2017 03:28 1,3 °C 1,3 °C 95 % 1013,0 hPa 0,0 mm 1,1 km/h (1 Bft) O-NO 73 ° 0 min 0,000 mm 0,0 UV-I 0 W/m² 0,6 °C 1,3 °C 3,2 km/h (1 Bft)
06.05.2017 03:29 1,2 °C 1,3 °C 95 % 1013,0 hPa 0,0 mm 0,5 km/h (0 Bft) O-NO 73 ° 0 min 0,000 mm 0,0 UV-I 0 W/m² 0,5 °C 1,2 °C 1,6 km/h (1 Bft)
06.05.2017 03:30 1,1 °C 1,2 °C 95 % 1012,9 hPa 0,0 mm 0,0 km/h (0 Bft) O-NO 73 ° 0 min 0,000 mm 0,0 UV-I 0 W/m² 0,4 °C 1,1 °C 0,0 km/h (0 Bft)
06.05.2017 03:31 1,1 °C 1,1 °C 95 % 1012,9 hPa 0,0 mm 0,0 km/h (0 Bft) O-NO 73 ° 0 min 0,000 mm 0,0 UV-I 0 W/m² 0,4 °C 1,1 °C 0,0 km/h (0 Bft)
06.05.2017 03:32 1,0 °C 1,1 °C 95 % 1012,9 hPa 0,0 mm 0,0 km/h (0 Bft) O-NO 73 ° 0 min 0,000 mm 0,0 UV-I 0 W/m² 0,3 °C 1,0 °C 0,0 km/h (0 Bft)
06.05.2017 03:33 1,0 °C 1,1 °C 95 % 1013,0 hPa 0,0 mm 0,3 km/h (0 Bft) O-NO 73 ° 0 min 0,000 mm 0,0 UV-I 0 W/m² 0,3 °C 1,0 °C 1,6 km/h (1 Bft)
06.05.2017 03:34 0,9 °C 1,0 °C 95 % 1013,0 hPa 0,0 mm 0,0 km/h (0 Bft) O-NO 73 ° 0 min 0,000 mm 0,0 UV-I 0 W/m² 0,2 °C 0,9 °C 0,0 km/h (0 Bft)
06.05.2017 03:35 0,9 °C 0,9 °C 95 % 1013,0 hPa 0,0 mm 0,0 km/h (0 Bft) O-NO 73 ° 0 min 0,000 mm 0,0 UV-I 0 W/m² 0,2 °C 0,9 °C 0,0 km/h (0 Bft)
06.05.2017 03:36 0,9 °C 0,9 °C 94 % 1013,0 hPa 0,0 mm 0,1 km/h (0 Bft) O-NO 73 ° 0 min 0,000 mm 0,0 UV-I 0 W/m² 0,0 °C 0,9 °C 1,6 km/h (1 Bft)
06.05.2017 03:37 0,9 °C 0,9 °C 95 % 1013,0 hPa 0,0 mm 1,5 km/h (1 Bft) O-NO 73 ° 0 min 0,000 mm 0,0 UV-I 0 W/m² 0,2 °C 0,9 °C 3,2 km/h (1 Bft)
06.05.2017 03:38 1,1 °C 1,1 °C 95 % 1013,0 hPa 0,0 mm 1,5 km/h (1 Bft) O-NO 73 ° 0 min 0,000 mm 0,0 UV-I 0 W/m² 0,4 °C 1,1 °C 1,6 km/h (1 Bft)
06.05.2017 03:39 1,2 °C 1,2 °C 95 % 1013,1 hPa 0,0 mm 0,5 km/h (0 Bft) O-NO 73 ° 0 min 0,000 mm 0,0 UV-I 0 W/m² 0,5 °C 1,2 °C 1,6 km/h (1 Bft)
06.05.2017 03:40 1,3 °C 1,3 °C 95 % 1013,0 hPa 0,0 mm 0,0 km/h (0 Bft) O-NO 73 ° 0 min 0,000 mm 0,0 UV-I 0 W/m² 0,6 °C 1,3 °C 0,0 km/h (0 Bft)
06.05.2017 03:41 1,4 °C 1,4 °C 95 % 1013,1 hPa 0,0 mm 0,0 km/h (0 Bft) O-NO 73 ° 0 min 0,000 mm 0,0 UV-I 0 W/m² 0,7 °C 1,4 °C 0,0 km/h (0 Bft)
06.05.2017 03:42 1,6 °C 1,6 °C 96 % 1013,1 hPa 0,0 mm 0,0 km/h (0 Bft) O-NO 73 ° 0 min 0,000 mm 0,0 UV-I 0 W/m² 1,0 °C 1,6 °C 0,0 km/h (0 Bft)
06.05.2017 03:43 1,6 °C 1,6 °C 95 % 1013,0 hPa 0,0 mm 0,0 km/h (0 Bft) O-NO 73 ° 0 min 0,000 mm 0,0 UV-I 0 W/m² 0,9 °C 1,6 °C 0,0 km/h (0 Bft)
06.05.2017 03:44 1,6 °C 1,6 °C 95 % 1013,0 hPa 0,0 mm 0,8 km/h (0 Bft) O-NO 73 ° 0 min 0,000 mm 0,0 UV-I 0 W/m² 0,9 °C 1,6 °C 1,6 km/h (1 Bft)
06.05.2017 03:45 1,7 °C 1,7 °C 95 % 1013,0 hPa 0,0 mm 1,3 km/h (1 Bft) O-NO 73 ° 0 min 0,000 mm 0,0 UV-I 0 W/m² 1,0 °C 1,7 °C 1,6 km/h (1 Bft)
06.05.2017 03:46 1,8 °C 1,8 °C 95 % 1013,0 hPa 0,0 mm 1,4 km/h (1 Bft) O-NO 73 ° 0 min 0,000 mm 0,0 UV-I 0 W/m² 1,1 °C 1,8 °C 1,6 km/h (1 Bft)
06.05.2017 03:47 1,8 °C 1,8 °C 95 % 1013,0 hPa 0,0 mm 0,2 km/h (0 Bft) O-NO 73 ° 0 min 0,000 mm 0,0 UV-I 0 W/m² 1,1 °C 1,8 °C 1,6 km/h (1 Bft)
06.05.2017 03:48 1,8 °C 1,8 °C 95 % 1013,0 hPa 0,0 mm 0,0 km/h (0 Bft) O-NO 73 ° 0 min 0,000 mm 0,0 UV-I 0 W/m² 1,1 °C 1,8 °C 0,0 km/h (0 Bft)
06.05.2017 03:49 1,8 °C 1,8 °C 95 % 1013,0 hPa 0,0 mm 0,0 km/h (0 Bft) O-NO 73 ° 0 min 0,000 mm 0,0 UV-I 0 W/m² 1,1 °C 1,8 °C 0,0 km/h (0 Bft)
06.05.2017 03:50 1,8 °C 1,8 °C 95 % 1013,0 hPa 0,0 mm 0,0 km/h (0 Bft) O-NO 73 ° 0 min 0,000 mm 0,0 UV-I 0 W/m² 1,1 °C 1,8 °C 0,0 km/h (0 Bft)
06.05.2017 03:51 1,7 °C 1,8 °C 95 % 1013,0 hPa 0,0 mm 0,0 km/h (0 Bft) O-NO 73 ° 0 min 0,000 mm 0,0 UV-I 0 W/m² 1,0 °C 1,7 °C 0,0 km/h (0 Bft)
06.05.2017 03:52 1,6 °C 1,7 °C 95 % 1012,9 hPa 0,0 mm 0,0 km/h (0 Bft) O-NO 73 ° 0 min 0,000 mm 0,0 UV-I 0 W/m² 0,9 °C 1,6 °C 0,0 km/h (0 Bft)
06.05.2017 03:53 1,6 °C 1,6 °C 95 % 1012,9 hPa 0,0 mm 0,0 km/h (0 Bft) O-NO 73 ° 0 min 0,000 mm 0,0 UV-I 0 W/m² 0,9 °C 1,6 °C 0,0 km/h (0 Bft)
06.05.2017 03:54 1,5 °C 1,6 °C 95 % 1012,9 hPa 0,0 mm 0,0 km/h (0 Bft) O-NO 73 ° 0 min 0,000 mm 0,0 UV-I 0 W/m² 0,8 °C 1,5 °C 0,0 km/h (0 Bft)
06.05.2017 03:55 1,4 °C 1,5 °C 95 % 1012,9 hPa 0,0 mm 0,0 km/h (0 Bft) O-NO 73 ° 0 min 0,000 mm 0,0 UV-I 0 W/m² 0,7 °C 1,4 °C 0,0 km/h (0 Bft)
06.05.2017 03:56 1,4 °C 1,4 °C 95 % 1012,9 hPa 0,0 mm 0,0 km/h (0 Bft) O-NO 73 ° 0 min 0,000 mm 0,0 UV-I 0 W/m² 0,7 °C 1,4 °C 0,0 km/h (0 Bft)
06.05.2017 03:57 1,3 °C 1,4 °C 95 % 1012,9 hPa 0,0 mm 0,0 km/h (0 Bft) O-NO 73 ° 0 min 0,000 mm 0,0 UV-I 0 W/m² 0,6 °C 1,3 °C 0,0 km/h (0 Bft)
06.05.2017 03:58 1,3 °C 1,3 °C 95 % 1012,9 hPa 0,0 mm 0,7 km/h (0 Bft) O-NO 73 ° 0 min 0,000 mm 0,0 UV-I 0 W/m² 0,6 °C 1,3 °C 3,2 km/h (1 Bft)
06.05.2017 03:59 1,2 °C 1,3 °C 95 % 1012,8 hPa 0,0 mm 0,6 km/h (0 Bft) O-NO 73 ° 0 min 0,000 mm 0,0 UV-I 0 W/m² 0,5 °C 1,2 °C 1,6 km/h (1 Bft)
06.05.2017 04:00 1,2 °C 1,2 °C 95 % 1012,8 hPa 0,0 mm 0,0 km/h (0 Bft) O-NO 73 ° 0 min 0,000 mm 0,0 UV-I 0 W/m² 0,5 °C 1,2 °C 0,0 km/h (0 Bft)
06.05.2017 04:01 1,2 °C 1,2 °C 95 % 1012,8 hPa 0,0 mm 0,0 km/h (0 Bft) O-NO 73 ° 0 min 0,000 mm 0,0 UV-I 0 W/m² 0,5 °C 1,2 °C 0,0 km/h (0 Bft)
06.05.2017 04:02 1,2 °C 1,2 °C 95 % 1012,8 hPa 0,0 mm 0,0 km/h (0 Bft) O-NO 73 ° 0 min 0,000 mm 0,0 UV-I 0 W/m² 0,5 °C 1,2 °C 0,0 km/h (0 Bft)
06.05.2017 04:03 1,2 °C 1,2 °C 95 % 1012,8 hPa 0,0 mm 0,0 km/h (0 Bft) O-NO 73 ° 0 min 0,000 mm 0,0 UV-I 0 W/m² 0,5 °C 1,2 °C 0,0 km/h (0 Bft)
06.05.2017 04:04 1,1 °C 1,2 °C 95 % 1012,8 hPa 0,0 mm 0,0 km/h (0 Bft) O-NO 73 ° 0 min 0,000 mm 0,0 UV-I 0 W/m² 0,4 °C 1,1 °C 0,0 km/h (0 Bft)
06.05.2017 04:05 1,1 °C 1,2 °C 95 % 1012,8 hPa 0,0 mm 0,0 km/h (0 Bft) O-NO 73 ° 0 min 0,000 mm 0,0 UV-I 0 W/m² 0,4 °C 1,1 °C 0,0 km/h (0 Bft)
06.05.2017 04:06 1,1 °C 1,2 °C 95 % 1012,8 hPa 0,0 mm 0,0 km/h (0 Bft) O-NO 73 ° 0 min 0,000 mm 0,0 UV-I 0 W/m² 0,4 °C 1,1 °C 0,0 km/h (0 Bft)
06.05.2017 04:07 1,1 °C 1,1 °C 95 % 1012,8 hPa 0,0 mm 0,9 km/h (0 Bft) O-NO 73 ° 0 min 0,000 mm 0,0 UV-I 0 W/m² 0,4 °C 1,1 °C 1,6 km/h (1 Bft)
06.05.2017 04:08 1,0 °C 1,1 °C 95 % 1012,8 hPa 0,0 mm 2,3 km/h (1 Bft) O-NO 73 ° 0 min 0,000 mm 0,0 UV-I 0 W/m² 0,3 °C 1,0 °C 3,2 km/h (1 Bft)
06.05.2017 04:09 0,9 °C 1,0 °C 95 % 1012,8 hPa 0,0 mm 0,3 km/h (0 Bft) O-NO 73 ° 0 min 0,000 mm 0,0 UV-I 0 W/m² 0,2 °C 0,9 °C 1,6 km/h (1 Bft)
06.05.2017 04:10 0,9 °C 0,9 °C 95 % 1012,8 hPa 0,0 mm 0,0 km/h (0 Bft) O-NO 73 ° 0 min 0,000 mm 0,0 UV-I 0 W/m² 0,2 °C 0,9 °C 0,0 km/h (0 Bft)
06.05.2017 04:11 1,1 °C 1,1 °C 95 % 1012,8 hPa 0,0 mm 1,2 km/h (1 Bft) O-NO 73 ° 0 min 0,000 mm 0,0 UV-I 0 W/m² 0,4 °C 1,1 °C 1,6 km/h (1 Bft)
06.05.2017 04:12 1,2 °C 1,2 °C 95 % 1012,9 hPa 0,0 mm 0,6 km/h (0 Bft) O-NO 73 ° 0 min 0,000 mm 0,0 UV-I 0 W/m² 0,5 °C 1,2 °C 1,6 km/h (1 Bft)
06.05.2017 04:13 1,2 °C 1,3 °C 95 % 1012,8 hPa 0,0 mm 2,0 km/h (1 Bft) O-NO 73 ° 0 min 0,000 mm 0,0 UV-I 0 W/m² 0,5 °C 1,2 °C 3,2 km/h (1 Bft)
06.05.2017 04:14 1,0 °C 1,2 °C 95 % 1012,9 hPa 0,0 mm 0,6 km/h (0 Bft) O-NO 73 ° 0 min 0,000 mm 0,0 UV-I 0 W/m² 0,3 °C 1,0 °C 1,6 km/h (1 Bft)
06.05.2017 04:15 0,9 °C 1,0 °C 95 % 1012,8 hPa 0,0 mm 0,0 km/h (0 Bft) O-NO 73 ° 0 min 0,000 mm 0,0 UV-I 0 W/m² 0,2 °C 0,9 °C 0,0 km/h (0 Bft)
06.05.2017 04:16 0,9 °C 0,9 °C 95 % 1012,9 hPa 0,0 mm 0,0 km/h (0 Bft) O-NO 73 ° 0 min 0,000 mm 0,0 UV-I 0 W/m² 0,2 °C 0,9 °C 0,0 km/h (0 Bft)
06.05.2017 04:17 0,9 °C 0,9 °C 95 % 1012,8 hPa 0,0 mm 0,9 km/h (0 Bft) O-NO 73 ° 0 min 0,000 mm 0,0 UV-I 0 W/m² 0,2 °C 0,9 °C 1,6 km/h (1 Bft)
06.05.2017 04:18 0,9 °C 0,9 °C 95 % 1012,9 hPa 0,0 mm 0,9 km/h (0 Bft) O-NO 73 ° 0 min 0,000 mm 0,0 UV-I 0 W/m² 0,2 °C 0,9 °C 1,6 km/h (1 Bft)
06.05.2017 04:19 0,8 °C 0,9 °C 95 % 1012,9 hPa 0,0 mm 0,0 km/h (0 Bft) O-NO 73 ° 0 min 0,000 mm 0,0 UV-I 0 W/m² 0,1 °C 0,8 °C 0,0 km/h (0 Bft)
06.05.2017 04:20 0,7 °C 0,8 °C 95 % 1012,9 hPa 0,0 mm 0,0 km/h (0 Bft) O-NO 73 ° 0 min 0,000 mm 0,0 UV-I 0 W/m² -0,0 °C 0,7 °C 0,0 km/h (0 Bft)
06.05.2017 04:21 0,6 °C 0,7 °C 95 % 1012,8 hPa 0,0 mm 0,1 km/h (0 Bft) O-NO 73 ° 0 min 0,000 mm 0,0 UV-I 0 W/m² -0,1 °C 0,6 °C 1,6 km/h (1 Bft)
06.05.2017 04:22 0,7 °C 0,7 °C 95 % 1012,9 hPa 0,0 mm 0,0 km/h (0 Bft) O-NO 73 ° 0 min 0,000 mm 0,0 UV-I 0 W/m² -0,0 °C 0,7 °C 0,0 km/h (0 Bft)
06.05.2017 04:23 0,8 °C 0,8 °C 95 % 1012,9 hPa 0,0 mm 0,0 km/h (0 Bft) O-NO 73 ° 0 min 0,000 mm 0,0 UV-I 0 W/m² 0,1 °C 0,8 °C 0,0 km/h (0 Bft)
06.05.2017 04:24 0,9 °C 0,9 °C 95 % 1012,9 hPa 0,0 mm 0,0 km/h (0 Bft) O-NO 73 ° 0 min 0,000 mm 0,0 UV-I 0 W/m² 0,2 °C 0,9 °C 0,0 km/h (0 Bft)
06.05.2017 04:25 1,1 °C 1,1 °C 95 % 1012,9 hPa 0,0 mm 0,0 km/h (0 Bft) O-NO 73 ° 0 min 0,000 mm 0,0 UV-I 0 W/m² 0,4 °C 1,1 °C 0,0 km/h (0 Bft)
06.05.2017 04:26 1,4 °C 1,4 °C 96 % 1012,8 hPa 0,0 mm 0,0 km/h (0 Bft) O-NO 73 ° 0 min 0,000 mm 0,0 UV-I 0 W/m² 0,8 °C 1,4 °C 0,0 km/h (0 Bft)
06.05.2017 04:27 1,8 °C 1,8 °C 96 % 1012,7 hPa 0,0 mm 1,0 km/h (0 Bft) O-NO 73 ° 0 min 0,000 mm 0,0 UV-I 0 W/m² 1,2 °C 1,8 °C 3,2 km/h (1 Bft)
06.05.2017 04:28 1,9 °C 1,9 °C 96 % 1012,7 hPa 0,0 mm 0,5 km/h (0 Bft) O-NO 73 ° 0 min 0,000 mm 0,0 UV-I 0 W/m² 1,3 °C 1,9 °C 1,6 km/h (1 Bft)
06.05.2017 04:29 1,9 °C 2,0 °C 96 % 1012,8 hPa 0,0 mm 0,0 km/h (0 Bft) O-NO 73 ° 0 min 0,000 mm 0,0 UV-I 0 W/m² 1,3 °C 1,9 °C 0,0 km/h (0 Bft)
06.05.2017 04:30 1,8 °C 1,9 °C 96 % 1012,8 hPa 0,0 mm 2,1 km/h (1 Bft) O-NO 69 ° 0 min 0,000 mm 0,0 UV-I 0 W/m² 1,2 °C 1,8 °C 4,8 km/h (1 Bft)
06.05.2017 04:31 1,6 °C 1,8 °C 96 % 1012,8 hPa 0,0 mm 1,4 km/h (1 Bft) O-NO 69 ° 0 min 0,000 mm 0,0 UV-I 0 W/m² 1,0 °C 1,6 °C 3,2 km/h (1 Bft)
06.05.2017 04:32 1,4 °C 1,6 °C 95 % 1012,8 hPa 0,0 mm 0,1 km/h (0 Bft) O-NO 69 ° 0 min 0,000 mm 0,0 UV-I 0 W/m² 0,7 °C 1,4 °C 1,6 km/h (1 Bft)
06.05.2017 04:33 1,2 °C 1,4 °C 95 % 1012,7 hPa 0,0 mm 0,0 km/h (0 Bft) O-NO 69 ° 0 min 0,000 mm 0,0 UV-I 0 W/m² 0,5 °C 1,2 °C 0,0 km/h (0 Bft)
06.05.2017 04:34 1,0 °C 1,2 °C 94 % 1012,8 hPa 0,0 mm 0,0 km/h (0 Bft) O-NO 69 ° 0 min 0,000 mm 0,0 UV-I 0 W/m² 0,1 °C 1,0 °C 0,0 km/h (0 Bft)
06.05.2017 04:35 1,0 °C 1,0 °C 94 % 1012,7 hPa 0,0 mm 0,0 km/h (0 Bft) O-NO 69 ° 0 min 0,000 mm 0,0 UV-I 0 W/m² 0,1 °C 1,0 °C 0,0 km/h (0 Bft)
06.05.2017 04:36 1,0 °C 1,0 °C 95 % 1012,7 hPa 0,0 mm 0,0 km/h (0 Bft) O-NO 69 ° 0 min 0,000 mm 0,0 UV-I 0 W/m² 0,3 °C 1,0 °C 0,0 km/h (0 Bft)
06.05.2017 04:37 0,9 °C 1,0 °C 95 % 1012,7 hPa 0,0 mm 0,0 km/h (0 Bft) O-NO 69 ° 0 min 0,000 mm 0,0 UV-I 0 W/m² 0,2 °C 0,9 °C 0,0 km/h (0 Bft)
06.05.2017 04:38 0,8 °C 0,9 °C 95 % 1012,7 hPa 0,0 mm 0,0 km/h (0 Bft) O-NO 69 ° 0 min 0,000 mm 0,0 UV-I 0 W/m² 0,1 °C 0,8 °C 0,0 km/h (0 Bft)
06.05.2017 04:39 0,8 °C 0,8 °C 94 % 1012,7 hPa 0,0 mm 0,0 km/h (0 Bft) O-NO 69 ° 0 min 0,000 mm 0,0 UV-I 0 W/m² -0,1 °C 0,8 °C 0,0 km/h (0 Bft)
06.05.2017 04:40 0,9 °C 0,9 °C 95 % 1012,6 hPa 0,0 mm 0,2 km/h (0 Bft) O-NO 69 ° 0 min 0,000 mm 0,0 UV-I 0 W/m² 0,2 °C 0,9 °C 1,6 km/h (1 Bft)
06.05.2017 04:41 1,0 °C 1,0 °C 95 % 1012,7 hPa 0,0 mm 0,0 km/h (0 Bft) O-NO 69 ° 0 min 0,000 mm 0,0 UV-I 0 W/m² 0,3 °C 1,0 °C 0,0 km/h (0 Bft)
06.05.2017 04:42 0,9 °C 1,0 °C 95 % 1012,6 hPa 0,0 mm 1,1 km/h (1 Bft) O 93 ° 0 min 0,000 mm 0,0 UV-I 0 W/m² 0,2 °C 0,9 °C 3,2 km/h (1 Bft)
06.05.2017 04:43 0,7 °C 0,9 °C 94 % 1012,6 hPa 0,0 mm 3,7 km/h (1 Bft) O-SO 105 ° 0 min 0,000 mm 0,0 UV-I 0 W/m² -0,2 °C 0,7 °C 4,8 km/h (1 Bft)
06.05.2017 04:44 0,9 °C 0,9 °C 94 % 1012,6 hPa 0,0 mm 1,7 km/h (1 Bft) O-SO 107 ° 0 min 0,000 mm 0,0 UV-I 0 W/m² 0,0 °C 0,9 °C 3,2 km/h (1 Bft)
06.05.2017 04:45 1,1 °C 1,1 °C 95 % 1012,6 hPa 0,0 mm 0,0 km/h (0 Bft) O-SO 107 ° 0 min 0,000 mm 0,0 UV-I 0 W/m² 0,4 °C 1,1 °C 0,0 km/h (0 Bft)
06.05.2017 04:46 1,6 °C 1,6 °C 95 % 1012,6 hPa 0,0 mm 0,0 km/h (0 Bft) O-SO 107 ° 0 min 0,000 mm 0,0 UV-I 0 W/m² 0,9 °C 1,6 °C 0,0 km/h (0 Bft)
06.05.2017 04:47 1,3 °C 1,6 °C 95 % 1012,6 hPa 0,0 mm 0,0 km/h (0 Bft) O-SO 107 ° 0 min 0,000 mm 0,0 UV-I 0 W/m² 0,6 °C 1,3 °C 0,0 km/h (0 Bft)
06.05.2017 04:48 1,1 °C 1,3 °C 95 % 1012,5 hPa 0,0 mm 0,0 km/h (0 Bft) O-SO 107 ° 0 min 0,000 mm 0,0 UV-I 0 W/m² 0,4 °C 1,1 °C 0,0 km/h (0 Bft)
06.05.2017 04:49 0,8 °C 1,1 °C 94 % 1012,5 hPa 0,0 mm 0,0 km/h (0 Bft) O-SO 107 ° 0 min 0,000 mm 0,0 UV-I 0 W/m² -0,1 °C 0,8 °C 0,0 km/h (0 Bft)
06.05.2017 04:50 0,8 °C 0,8 °C 94 % 1012,5 hPa 0,0 mm 0,0 km/h (0 Bft) O-SO 107 ° 0 min 0,000 mm 0,0 UV-I 0 W/m² -0,1 °C 0,8 °C 0,0 km/h (0 Bft)
06.05.2017 04:51 0,7 °C 0,8 °C 94 % 1012,4 hPa 0,0 mm 0,0 km/h (0 Bft) O-SO 107 ° 0 min 0,000 mm 0,0 UV-I 0 W/m² -0,2 °C 0,7 °C 0,0 km/h (0 Bft)
06.05.2017 04:52 0,7 °C 0,8 °C 94 % 1012,4 hPa 0,0 mm 0,0 km/h (0 Bft) O-SO 107 ° 0 min 0,000 mm 0,0 UV-I 0 W/m² -0,2 °C 0,7 °C 0,0 km/h (0 Bft)
06.05.2017 04:53 0,6 °C 0,7 °C 94 % 1012,4 hPa 0,0 mm 0,0 km/h (0 Bft) O-SO 107 ° 0 min 0,000 mm 0,0 UV-I 0 W/m² -0,3 °C 0,6 °C 0,0 km/h (0 Bft)
06.05.2017 04:54 0,5 °C 0,6 °C 94 % 1012,4 hPa 0,0 mm 0,0 km/h (0 Bft) O-SO 107 ° 0 min 0,000 mm 0,0 UV-I 0 W/m² -0,4 °C 0,5 °C 0,0 km/h (0 Bft)
06.05.2017 04:55 0,4 °C 0,5 °C 94 % 1012,4 hPa 0,0 mm 0,0 km/h (0 Bft) O-SO 107 ° 0 min 0,000 mm 0,0 UV-I 0 W/m² -0,5 °C 0,4 °C 0,0 km/h (0 Bft)
06.05.2017 04:56 0,3 °C 0,4 °C 94 % 1012,4 hPa 0,0 mm 0,0 km/h (0 Bft) O-SO 107 ° 0 min 0,000 mm 0,0 UV-I 0 W/m² -0,5 °C 0,3 °C 0,0 km/h (0 Bft)
06.05.2017 04:57 0,3 °C 0,3 °C 94 % 1012,4 hPa 0,0 mm 0,0 km/h (0 Bft) O-SO 107 ° 0 min 0,000 mm 0,0 UV-I 0 W/m² -0,5 °C 0,3 °C 0,0 km/h (0 Bft)
06.05.2017 04:58 0,3 °C 0,3 °C 94 % 1012,4 hPa 0,0 mm 0,0 km/h (0 Bft) O-SO 107 ° 0 min 0,000 mm 0,0 UV-I 0 W/m² -0,5 °C 0,3 °C 0,0 km/h (0 Bft)
06.05.2017 04:59 0,3 °C 0,3 °C 94 % 1012,4 hPa 0,0 mm 0,0 km/h (0 Bft) O-SO 107 ° 0 min 0,000 mm 0,0 UV-I 0 W/m² -0,5 °C 0,3 °C 0,0 km/h (0 Bft)
06.05.2017 05:00 0,4 °C 0,4 °C 95 % 1012,4 hPa 0,0 mm 0,0 km/h (0 Bft) O-SO 107 ° 0 min 0,000 mm 0,0 UV-I 0 W/m² -0,3 °C 0,4 °C 0,0 km/h (0 Bft)
06.05.2017 05:01 0,6 °C 0,6 °C 95 % 1012,4 hPa 0,0 mm 0,0 km/h (0 Bft) O-SO 107 ° 0 min 0,000 mm 0,0 UV-I 0 W/m² -0,1 °C 0,6 °C 0,0 km/h (0 Bft)
06.05.2017 05:02 0,7 °C 0,7 °C 95 % 1012,4 hPa 0,0 mm 0,0 km/h (0 Bft) O-SO 107 ° 0 min 0,000 mm 0,0 UV-I 0 W/m² -0,0 °C 0,7 °C 0,0 km/h (0 Bft)
06.05.2017 05:03 0,7 °C 0,7 °C 95 % 1012,4 hPa 0,0 mm 0,0 km/h (0 Bft) O-SO 107 ° 0 min 0,000 mm 0,0 UV-I 0 W/m² -0,0 °C 0,7 °C 0,0 km/h (0 Bft)
06.05.2017 05:04 0,6 °C 0,7 °C 95 % 1012,4 hPa 0,0 mm 0,0 km/h (0 Bft) O-SO 107 ° 0 min 0,000 mm 0,0 UV-I 0 W/m² -0,1 °C 0,6 °C 0,0 km/h (0 Bft)
06.05.2017 05:05 0,6 °C 0,6 °C 95 % 1012,4 hPa 0,0 mm 0,0 km/h (0 Bft) O-SO 107 ° 0 min 0,000 mm 0,0 UV-I 0 W/m² -0,1 °C 0,6 °C 0,0 km/h (0 Bft)
06.05.2017 05:06 0,6 °C 0,6 °C 94 % 1012,4 hPa 0,0 mm 0,0 km/h (0 Bft) O-SO 107 ° 0 min 0,000 mm 0,0 UV-I 0 W/m² -0,3 °C 0,6 °C 0,0 km/h (0 Bft)
06.05.2017 05:07 0,5 °C 0,6 °C 94 % 1012,4 hPa 0,0 mm 0,0 km/h (0 Bft) O-SO 107 ° 0 min 0,000 mm 0,0 UV-I 0 W/m² -0,4 °C 0,5 °C 0,0 km/h (0 Bft)
06.05.2017 05:08 0,4 °C 0,5 °C 94 % 1012,4 hPa 0,0 mm 1,2 km/h (1 Bft) O-SO 107 ° 0 min 0,000 mm 0,0 UV-I 0 W/m² -0,5 °C 0,4 °C 3,2 km/h (1 Bft)
06.05.2017 05:09 0,4 °C 0,4 °C 94 % 1012,4 hPa 0,0 mm 0,3 km/h (0 Bft) O-SO 107 ° 0 min 0,000 mm 0,0 UV-I 0 W/m² -0,5 °C 0,4 °C 1,6 km/h (1 Bft)
06.05.2017 05:10 0,4 °C 0,4 °C 94 % 1012,4 hPa 0,0 mm 0,4 km/h (0 Bft) O-SO 107 ° 0 min 0,000 mm 0,0 UV-I 0 W/m² -0,5 °C 0,4 °C 1,6 km/h (1 Bft)
06.05.2017 05:11 0,6 °C 0,6 °C 95 % 1012,4 hPa 0,0 mm 0,6 km/h (0 Bft) O-SO 107 ° 0 min 0,000 mm 0,0 UV-I 0 W/m² -0,1 °C 0,6 °C 1,6 km/h (1 Bft)
06.05.2017 05:12 0,7 °C 0,7 °C 95 % 1012,4 hPa 0,0 mm 1,2 km/h (1 Bft) O-SO 107 ° 0 min 0,000 mm 0,0 UV-I 0 W/m² -0,0 °C 0,7 °C 1,6 km/h (1 Bft)
06.05.2017 05:13 0,8 °C 0,8 °C 95 % 1012,4 hPa 0,0 mm 1,6 km/h (1 Bft) O-SO 107 ° 0 min 0,000 mm 0,0 UV-I 0 W/m² 0,1 °C 0,8 °C 3,2 km/h (1 Bft)
06.05.2017 05:14 1,0 °C 1,0 °C 95 % 1012,4 hPa 0,0 mm 0,3 km/h (0 Bft) O-SO 107 ° 0 min 0,000 mm 0,0 UV-I 0 W/m² 0,3 °C 1,0 °C 1,6 km/h (1 Bft)
06.05.2017 05:15 1,1 °C 1,1 °C 95 % 1012,4 hPa 0,0 mm 0,0 km/h (0 Bft) O-SO 107 ° 0 min 0,000 mm 0,0 UV-I 0 W/m² 0,4 °C 1,1 °C 0,0 km/h (0 Bft)
06.05.2017 05:16 1,2 °C 1,3 °C 96 % 1012,4 hPa 0,0 mm 0,0 km/h (0 Bft) O-SO 107 ° 0 min 0,000 mm 0,0 UV-I 0 W/m² 0,6 °C 1,2 °C 0,0 km/h (0 Bft)
06.05.2017 05:17 1,2 °C 1,2 °C 95 % 1012,4 hPa 0,0 mm 0,0 km/h (0 Bft) O-SO 107 ° 0 min 0,000 mm 0,0 UV-I 0 W/m² 0,5 °C 1,2 °C 0,0 km/h (0 Bft)
06.05.2017 05:18 0,9 °C 1,2 °C 95 % 1012,4 hPa 0,0 mm 0,0 km/h (0 Bft) O-SO 107 ° 0 min 0,000 mm 0,0 UV-I 0 W/m² 0,2 °C 0,9 °C 0,0 km/h (0 Bft)
06.05.2017 05:19 0,8 °C 0,9 °C 95 % 1012,4 hPa 0,0 mm 0,3 km/h (0 Bft) O-SO 107 ° 0 min 0,000 mm 0,0 UV-I 0 W/m² 0,1 °C 0,8 °C 1,6 km/h (1 Bft)
06.05.2017 05:20 0,8 °C 0,8 °C 94 % 1012,4 hPa 0,0 mm 0,0 km/h (0 Bft) O-SO 107 ° 0 min 0,000 mm 0,0 UV-I 0 W/m² -0,1 °C 0,8 °C 0,0 km/h (0 Bft)
06.05.2017 05:21 0,8 °C 0,8 °C 94 % 1012,4 hPa 0,0 mm 0,8 km/h (0 Bft) O-SO 107 ° 0 min 0,000 mm 0,0 UV-I 0 W/m² -0,1 °C 0,8 °C 3,2 km/h (1 Bft)
06.05.2017 05:22 0,8 °C 0,8 °C 94 % 1012,4 hPa 0,0 mm 1,1 km/h (1 Bft) O-SO 107 ° 0 min 0,000 mm 0,0 UV-I 0 W/m² -0,1 °C 0,8 °C 3,2 km/h (1 Bft)
06.05.2017 05:23 0,9 °C 0,9 °C 95 % 1012,4 hPa 0,0 mm 0,6 km/h (0 Bft) O-SO 107 ° 0 min 0,000 mm 0,0 UV-I 0 W/m² 0,2 °C 0,9 °C 1,6 km/h (1 Bft)
06.05.2017 05:24 1,0 °C 1,0 °C 95 % 1012,3 hPa 0,0 mm 2,5 km/h (1 Bft) O-SO 107 ° 0 min 0,000 mm 0,0 UV-I 0 W/m² 0,3 °C 1,0 °C 4,8 km/h (1 Bft)
06.05.2017 05:25 1,2 °C 1,2 °C 95 % 1012,4 hPa 0,0 mm 5,1 km/h (1 Bft) S-SW 200 ° 0 min 0,000 mm 0,0 UV-I 0 W/m² 0,5 °C -0,3 °C 8,0 km/h (2 Bft)
06.05.2017 05:26 1,4 °C 1,4 °C 95 % 1012,4 hPa 0,0 mm 3,0 km/h (1 Bft) S 180 ° 0 min 0,000 mm 0,0 UV-I 0 W/m² 0,7 °C 1,4 °C 8,0 km/h (2 Bft)
06.05.2017 05:27 1,6 °C 1,6 °C 96 % 1012,3 hPa 0,0 mm 2,5 km/h (1 Bft) S 189 ° 0 min 0,000 mm 0,0 UV-I 0 W/m² 1,0 °C 1,6 °C 3,2 km/h (1 Bft)
06.05.2017 05:28 1,7 °C 1,7 °C 95 % 1012,3 hPa 0,0 mm 0,1 km/h (0 Bft) S 189 ° 0 min 0,000 mm 0,0 UV-I 0 W/m² 1,0 °C 1,7 °C 1,6 km/h (1 Bft)
06.05.2017 05:29 1,6 °C 1,7 °C 95 % 1012,3 hPa 0,0 mm 0,0 km/h (0 Bft) S 189 ° 0 min 0,000 mm 0,0 UV-I 0 W/m² 0,9 °C 1,6 °C 0,0 km/h (0 Bft)
06.05.2017 05:30 1,4 °C 1,6 °C 95 % 1012,3 hPa 0,0 mm 0,0 km/h (0 Bft) S 189 ° 0 min 0,000 mm 0,0 UV-I 0 W/m² 0,7 °C 1,4 °C 0,0 km/h (0 Bft)
06.05.2017 05:31 1,3 °C 1,4 °C 94 % 1012,3 hPa 0,0 mm 0,0 km/h (0 Bft) S 189 ° 0 min 0,000 mm 0,0 UV-I 0 W/m² 0,4 °C 1,3 °C 0,0 km/h (0 Bft)
06.05.2017 05:32 1,2 °C 1,3 °C 94 % 1012,3 hPa 0,0 mm 0,0 km/h (0 Bft) S 189 ° 0 min 0,000 mm 0,0 UV-I 0 W/m² 0,3 °C 1,2 °C 0,0 km/h (0 Bft)
06.05.2017 05:33 1,1 °C 1,2 °C 93 % 1012,3 hPa 0,0 mm 2,1 km/h (1 Bft) W-NW 282 ° 0 min 0,000 mm 0,0 UV-I 0 W/m² 0,1 °C 1,1 °C 3,2 km/h (1 Bft)
06.05.2017 05:34 0,8 °C 1,1 °C 93 % 1012,4 hPa 0,0 mm 0,6 km/h (0 Bft) W-NW 282 ° 0 min 0,000 mm 0,0 UV-I 0 W/m² -0,2 °C 0,8 °C 1,6 km/h (1 Bft)
06.05.2017 05:35 0,6 °C 0,8 °C 93 % 1012,4 hPa 0,0 mm 0,0 km/h (0 Bft) W-NW 282 ° 0 min 0,000 mm 0,0 UV-I 0 W/m² -0,4 °C 0,6 °C 0,0 km/h (0 Bft)
06.05.2017 05:36 0,4 °C 0,6 °C 93 % 1012,3 hPa 0,0 mm 0,0 km/h (0 Bft) W-NW 282 ° 0 min 0,000 mm 0,0 UV-I 0 W/m² -0,6 °C 0,4 °C 0,0 km/h (0 Bft)
06.05.2017 05:37 0,3 °C 0,4 °C 93 % 1012,3 hPa 0,0 mm 0,0 km/h (0 Bft) W-NW 282 ° 0 min 0,000 mm 0,0 UV-I 0 W/m² -0,7 °C 0,3 °C 0,0 km/h (0 Bft)
06.05.2017 05:38 0,2 °C 0,3 °C 94 % 1012,2 hPa 0,0 mm 0,0 km/h (0 Bft) W-NW 282 ° 0 min 0,000 mm 0,0 UV-I 0 W/m² -0,6 °C 0,2 °C 0,0 km/h (0 Bft)
06.05.2017 05:39 0,2 °C 0,2 °C 93 % 1012,2 hPa 0,0 mm 0,0 km/h (0 Bft) W-NW 282 ° 0 min 0,000 mm 0,0 UV-I 0 W/m² -0,8 °C 0,2 °C 0,0 km/h (0 Bft)
06.05.2017 05:40 0,2 °C 0,2 °C 94 % 1012,2 hPa 0,0 mm 0,0 km/h (0 Bft) W-NW 282 ° 0 min 0,000 mm 0,0 UV-I 0 W/m² -0,6 °C 0,2 °C 0,0 km/h (0 Bft)
06.05.2017 05:41 0,2 °C 0,3 °C 94 % 1012,2 hPa 0,0 mm 0,0 km/h (0 Bft) W-NW 282 ° 0 min 0,000 mm 0,0 UV-I 0 W/m² -0,6 °C 0,2 °C 0,0 km/h (0 Bft)
06.05.2017 05:42 0,3 °C 0,3 °C 94 % 1012,2 hPa 0,0 mm 0,0 km/h (0 Bft) W-NW 282 ° 0 min 0,000 mm 0,0 UV-I 0 W/m² -0,5 °C 0,3 °C 0,0 km/h (0 Bft)
06.05.2017 05:43 0,5 °C 0,5 °C 94 % 1012,2 hPa 0,0 mm 0,0 km/h (0 Bft) W-NW 282 ° 0 min 0,000 mm 0,0 UV-I 0 W/m² -0,4 °C 0,5 °C 0,0 km/h (0 Bft)
06.05.2017 05:44 0,5 °C 0,6 °C 94 % 1012,2 hPa 0,0 mm 0,0 km/h (0 Bft) W-NW 282 ° 0 min 0,000 mm 0,0 UV-I 0 W/m² -0,4 °C 0,5 °C 0,0 km/h (0 Bft)
06.05.2017 05:45 0,6 °C 0,6 °C 94 % 1012,2 hPa 0,0 mm 0,0 km/h (0 Bft) W-NW 282 ° 0 min 0,000 mm 0,0 UV-I 0 W/m² -0,3 °C 0,6 °C 0,0 km/h (0 Bft)
06.05.2017 05:46 0,4 °C 0,6 °C 94 % 1012,2 hPa 0,0 mm 0,0 km/h (0 Bft) W-NW 282 ° 0 min 0,000 mm 0,0 UV-I 0 W/m² -0,5 °C 0,4 °C 0,0 km/h (0 Bft)
06.05.2017 05:47 0,4 °C 0,4 °C 94 % 1012,2 hPa 0,0 mm 0,0 km/h (0 Bft) W-NW 282 ° 0 min 0,000 mm 0,0 UV-I 0 W/m² -0,5 °C 0,4 °C 0,0 km/h (0 Bft)
06.05.2017 05:48 0,3 °C 0,4 °C 94 % 1012,1 hPa 0,0 mm 0,0 km/h (0 Bft) W-NW 282 ° 0 min 0,000 mm 0,0 UV-I 0 W/m² -0,5 °C 0,3 °C 0,0 km/h (0 Bft)
06.05.2017 05:49 0,3 °C 0,3 °C 94 % 1012,2 hPa 0,0 mm 0,0 km/h (0 Bft) W-NW 282 ° 0 min 0,000 mm 0,0 UV-I 0 W/m² -0,5 °C 0,3 °C 0,0 km/h (0 Bft)
06.05.2017 05:50 0,3 °C 0,3 °C 94 % 1012,1 hPa 0,0 mm 0,0 km/h (0 Bft) W-NW 282 ° 0 min 0,000 mm 0,0 UV-I 0 W/m² -0,5 °C 0,3 °C 0,0 km/h (0 Bft)
06.05.2017 05:51 0,3 °C 0,3 °C 94 % 1012,1 hPa 0,0 mm 0,0 km/h (0 Bft) W-NW 282 ° 0 min 0,000 mm 0,0 UV-I 0 W/m² -0,5 °C 0,3 °C 0,0 km/h (0 Bft)
06.05.2017 05:52 0,3 °C 0,3 °C 94 % 1012,1 hPa 0,0 mm 0,0 km/h (0 Bft) W-NW 282 ° 0 min 0,000 mm 0,0 UV-I 5 W/m² -0,5 °C 0,3 °C 0,0 km/h (0 Bft)
06.05.2017 05:53 0,3 °C 0,3 °C 94 % 1012,1 hPa 0,0 mm 0,0 km/h (0 Bft) W-NW 282 ° 0 min 0,000 mm 0,0 UV-I 5 W/m² -0,5 °C 0,3 °C 0,0 km/h (0 Bft)
06.05.2017 05:54 0,3 °C 0,3 °C 94 % 1012,1 hPa 0,0 mm 0,0 km/h (0 Bft) W-NW 282 ° 0 min 0,000 mm 0,0 UV-I 5 W/m² -0,5 °C 0,3 °C 0,0 km/h (0 Bft)
06.05.2017 05:55 0,3 °C 0,3 °C 94 % 1012,0 hPa 0,0 mm 0,0 km/h (0 Bft) W-NW 282 ° 0 min 0,000 mm 0,0 UV-I 5 W/m² -0,5 °C 0,3 °C 0,0 km/h (0 Bft)
06.05.2017 05:56 0,4 °C 0,4 °C 95 % 1012,1 hPa 0,0 mm 0,0 km/h (0 Bft) W-NW 282 ° 0 min 0,000 mm 0,0 UV-I 5 W/m² -0,3 °C 0,4 °C 0,0 km/h (0 Bft)
06.05.2017 05:57 0,4 °C 0,4 °C 95 % 1012,1 hPa 0,0 mm 0,0 km/h (0 Bft) W-NW 282 ° 0 min 0,000 mm 0,0 UV-I 7 W/m² -0,3 °C 0,4 °C 0,0 km/h (0 Bft)
06.05.2017 05:58 0,7 °C 0,7 °C 95 % 1012,1 hPa 0,0 mm 0,2 km/h (0 Bft) SW 220 ° 0 min 0,000 mm 0,0 UV-I 7 W/m² -0,0 °C 0,7 °C 1,6 km/h (1 Bft)
06.05.2017 05:59 1,0 °C 1,0 °C 95 % 1012,1 hPa 0,0 mm 1,1 km/h (1 Bft) S-SW 203 ° 0 min 0,000 mm 0,0 UV-I 7 W/m² 0,3 °C 1,0 °C 3,2 km/h (1 Bft)
06.05.2017 06:00 1,2 °C 1,2 °C 95 % 1012,1 hPa 0,0 mm 0,0 km/h (0 Bft) S-SW 203 ° 0 min 0,000 mm 0,0 UV-I 9 W/m² 0,5 °C 1,2 °C 0,0 km/h (0 Bft)
06.05.2017 06:01 1,0 °C 1,2 °C 95 % 1012,1 hPa 0,0 mm 0,1 km/h (0 Bft) S-SW 203 ° 0 min 0,000 mm 0,0 UV-I 9 W/m² 0,3 °C 1,0 °C 1,6 km/h (1 Bft)
06.05.2017 06:02 0,8 °C 1,0 °C 94 % 1012,0 hPa 0,0 mm 0,0 km/h (0 Bft) S-SW 203 ° 0 min 0,000 mm 0,0 UV-I 9 W/m² -0,1 °C 0,8 °C 0,0 km/h (0 Bft)
06.05.2017 06:03 0,7 °C 0,8 °C 94 % 1012,0 hPa 0,0 mm 0,0 km/h (0 Bft) S-SW 203 ° 0 min 0,000 mm 0,0 UV-I 9 W/m² -0,2 °C 0,7 °C 0,0 km/h (0 Bft)
06.05.2017 06:04 0,7 °C 0,7 °C 94 % 1012,0 hPa 0,0 mm 0,0 km/h (0 Bft) S-SW 203 ° 0 min 0,000 mm 0,0 UV-I 11 W/m² -0,2 °C 0,7 °C 0,0 km/h (0 Bft)
06.05.2017 06:05 0,7 °C 0,7 °C 94 % 1012,0 hPa 0,0 mm 0,0 km/h (0 Bft) S-SW 203 ° 0 min 0,000 mm 0,0 UV-I 12 W/m² -0,2 °C 0,7 °C 0,0 km/h (0 Bft)
06.05.2017 06:06 0,6 °C 0,7 °C 94 % 1012,0 hPa 0,0 mm 0,0 km/h (0 Bft) S-SW 203 ° 0 min 0,000 mm 0,0 UV-I 12 W/m² -0,3 °C 0,6 °C 0,0 km/h (0 Bft)
06.05.2017 06:07 0,4 °C 0,6 °C 94 % 1012,0 hPa 0,0 mm 0,0 km/h (0 Bft) S-SW 203 ° 0 min 0,000 mm 0,0 UV-I 12 W/m² -0,5 °C 0,4 °C 0,0 km/h (0 Bft)
06.05.2017 06:08 0,4 °C 0,4 °C 94 % 1011,9 hPa 0,0 mm 0,0 km/h (0 Bft) S-SW 203 ° 0 min 0,000 mm 0,0 UV-I 14 W/m² -0,5 °C 0,4 °C 0,0 km/h (0 Bft)
06.05.2017 06:09 0,3 °C 0,4 °C 94 % 1011,9 hPa 0,0 mm 0,0 km/h (0 Bft) S-SW 203 ° 0 min 0,000 mm 0,0 UV-I 14 W/m² -0,5 °C 0,3 °C 0,0 km/h (0 Bft)
06.05.2017 06:10 0,3 °C 0,3 °C 94 % 1011,9 hPa 0,0 mm 0,0 km/h (0 Bft) S-SW 203 ° 0 min 0,000 mm 0,0 UV-I 14 W/m² -0,5 °C 0,3 °C 0,0 km/h (0 Bft)
06.05.2017 06:11 0,3 °C 0,3 °C 94 % 1011,9 hPa 0,0 mm 0,0 km/h (0 Bft) S-SW 203 ° 0 min 0,000 mm 0,0 UV-I 16 W/m² -0,5 °C 0,3 °C 0,0 km/h (0 Bft)
06.05.2017 06:12 0,3 °C 0,3 °C 94 % 1011,9 hPa 0,0 mm 0,0 km/h (0 Bft) S-SW 203 ° 0 min 0,000 mm 0,0 UV-I 16 W/m² -0,5 °C 0,3 °C 0,0 km/h (0 Bft)
06.05.2017 06:13 0,3 °C 0,4 °C 94 % 1011,9 hPa 0,0 mm 0,0 km/h (0 Bft) S-SW 203 ° 0 min 0,000 mm 0,0 UV-I 18 W/m² -0,5 °C 0,3 °C 0,0 km/h (0 Bft)
06.05.2017 06:14 0,3 °C 0,4 °C 94 % 1011,9 hPa 0,0 mm 0,0 km/h (0 Bft) S-SW 203 ° 0 min 0,000 mm 0,0 UV-I 18 W/m² -0,5 °C 0,3 °C 0,0 km/h (0 Bft)
06.05.2017 06:15 0,4 °C 0,4 °C 94 % 1011,9 hPa 0,0 mm 0,0 km/h (0 Bft) S-SW 203 ° 0 min 0,000 mm 0,0 UV-I 18 W/m² -0,5 °C 0,4 °C 0,0 km/h (0 Bft)
06.05.2017 06:16 0,4 °C 0,4 °C 94 % 1011,9 hPa 0,0 mm 0,0 km/h (0 Bft) S-SW 203 ° 0 min 0,000 mm 0,0 UV-I 19 W/m² -0,5 °C 0,4 °C 0,0 km/h (0 Bft)
06.05.2017 06:17 0,4 °C 0,4 °C 94 % 1011,9 hPa 0,0 mm 0,0 km/h (0 Bft) S-SW 203 ° 0 min 0,000 mm 0,0 UV-I 19 W/m² -0,5 °C 0,4 °C 0,0 km/h (0 Bft)
06.05.2017 06:18 0,4 °C 0,4 °C 94 % 1011,9 hPa 0,0 mm 0,0 km/h (0 Bft) S-SW 203 ° 0 min 0,000 mm 0,0 UV-I 19 W/m² -0,5 °C 0,4 °C 0,0 km/h (0 Bft)
06.05.2017 06:19 0,3 °C 0,4 °C 94 % 1011,9 hPa 0,0 mm 0,0 km/h (0 Bft) S-SW 203 ° 0 min 0,000 mm 0,0 UV-I 21 W/m² -0,5 °C 0,3 °C 0,0 km/h (0 Bft)
06.05.2017 06:20 0,3 °C 0,3 °C 94 % 1011,8 hPa 0,0 mm 0,0 km/h (0 Bft) S-SW 203 ° 0 min 0,000 mm 0,0 UV-I 21 W/m² -0,5 °C 0,3 °C 0,0 km/h (0 Bft)
06.05.2017 06:21 0,3 °C 0,3 °C 94 % 1011,8 hPa 0,0 mm 0,0 km/h (0 Bft) S-SW 203 ° 0 min 0,000 mm 0,0 UV-I 21 W/m² -0,5 °C 0,3 °C 0,0 km/h (0 Bft)
06.05.2017 06:22 0,3 °C 0,3 °C 94 % 1011,9 hPa 0,0 mm 0,0 km/h (0 Bft) S-SW 203 ° 0 min 0,000 mm 0,0 UV-I 23 W/m² -0,5 °C 0,3 °C 0,0 km/h (0 Bft)
06.05.2017 06:23 0,3 °C 0,3 °C 94 % 1011,8 hPa 0,0 mm 0,0 km/h (0 Bft) S-SW 203 ° 0 min 0,000 mm 0,0 UV-I 25 W/m² -0,5 °C 0,3 °C 0,0 km/h (0 Bft)
06.05.2017 06:24 0,3 °C 0,3 °C 94 % 1011,8 hPa 0,0 mm 0,0 km/h (0 Bft) S-SW 203 ° 0 min 0,000 mm 0,0 UV-I 26 W/m² -0,5 °C 0,3 °C 0,0 km/h (0 Bft)
06.05.2017 06:25 0,3 °C 0,3 °C 94 % 1011,9 hPa 0,0 mm 0,0 km/h (0 Bft) S-SW 203 ° 0 min 0,000 mm 0,0 UV-I 30 W/m² -0,5 °C 0,3 °C 0,0 km/h (0 Bft)
06.05.2017 06:26 0,4 °C 0,4 °C 94 % 1011,9 hPa 0,0 mm 0,0 km/h (0 Bft) S-SW 203 ° 0 min 0,000 mm 0,0 UV-I 30 W/m² -0,5 °C 0,4 °C 0,0 km/h (0 Bft)
06.05.2017 06:27 0,4 °C 0,4 °C 94 % 1011,9 hPa 0,0 mm 1,2 km/h (1 Bft) S 171 ° 0 min 0,000 mm 0,0 UV-I 30 W/m² -0,5 °C 0,4 °C 3,2 km/h (1 Bft)
06.05.2017 06:28 0,5 °C 0,5 °C 94 % 1011,9 hPa 0,0 mm 1,0 km/h (0 Bft) S 171 ° 0 min 0,000 mm 0,0 UV-I 32 W/m² -0,4 °C 0,5 °C 3,2 km/h (1 Bft)
06.05.2017 06:29 0,6 °C 0,6 °C 94 % 1011,8 hPa 0,0 mm 0,3 km/h (0 Bft) S 171 ° 0 min 0,000 mm 0,0 UV-I 35 W/m² -0,3 °C 0,6 °C 1,6 km/h (1 Bft)
06.05.2017 06:30 0,7 °C 0,7 °C 95 % 1011,8 hPa 0,0 mm 0,0 km/h (0 Bft) S 171 ° 0 min 0,000 mm 0,0 UV-I 39 W/m² -0,0 °C 0,7 °C 0,0 km/h (0 Bft)
06.05.2017 06:31 0,7 °C 0,7 °C 95 % 1011,8 hPa 0,0 mm 0,0 km/h (0 Bft) S 171 ° 0 min 0,000 mm 0,0 UV-I 42 W/m² -0,0 °C 0,7 °C 0,0 km/h (0 Bft)
06.05.2017 06:32 0,8 °C 0,8 °C 95 % 1011,7 hPa 0,0 mm 0,0 km/h (0 Bft) S 171 ° 0 min 0,000 mm 0,0 UV-I 46 W/m² 0,1 °C 0,8 °C 0,0 km/h (0 Bft)
06.05.2017 06:33 0,8 °C 0,8 °C 95 % 1011,7 hPa 0,0 mm 0,0 km/h (0 Bft) S 171 ° 0 min 0,000 mm 0,0 UV-I 49 W/m² 0,1 °C 0,8 °C 0,0 km/h (0 Bft)
06.05.2017 06:34 0,8 °C 0,8 °C 95 % 1011,8 hPa 0,0 mm 0,0 km/h (0 Bft) S 171 ° 0 min 0,000 mm 0,0 UV-I 47 W/m² 0,1 °C 0,8 °C 0,0 km/h (0 Bft)
06.05.2017 06:35 0,8 °C 0,8 °C 95 % 1011,8 hPa 0,0 mm 0,0 km/h (0 Bft) S 171 ° 0 min 0,000 mm 0,0 UV-I 47 W/m² 0,1 °C 0,8 °C 0,0 km/h (0 Bft)
06.05.2017 06:36 0,8 °C 0,8 °C 95 % 1011,8 hPa 0,0 mm 0,0 km/h (0 Bft) S 171 ° 0 min 0,000 mm 0,0 UV-I 49 W/m² 0,1 °C 0,8 °C 0,0 km/h (0 Bft)
06.05.2017 06:37 0,8 °C 0,8 °C 94 % 1011,8 hPa 0,0 mm 0,0 km/h (0 Bft) S 171 ° 0 min 0,000 mm 0,0 UV-I 53 W/m² -0,1 °C 0,8 °C 0,0 km/h (0 Bft)
06.05.2017 06:38 0,8 °C 0,8 °C 94 % 1011,8 hPa 0,0 mm 0,0 km/h (0 Bft) S 171 ° 0 min 0,000 mm 0,0 UV-I 54 W/m² -0,1 °C 0,8 °C 0,0 km/h (0 Bft)
06.05.2017 06:39 0,8 °C 0,8 °C 94 % 1011,7 hPa 0,0 mm 0,0 km/h (0 Bft) S 171 ° 0 min 0,000 mm 0,0 UV-I 51 W/m² -0,1 °C 0,8 °C 0,0 km/h (0 Bft)
06.05.2017 06:40 0,8 °C 0,8 °C 94 % 1011,7 hPa 0,0 mm 0,0 km/h (0 Bft) S 171 ° 0 min 0,000 mm 0,0 UV-I 54 W/m² -0,1 °C 0,8 °C 0,0 km/h (0 Bft)
06.05.2017 06:41 0,9 °C 0,9 °C 94 % 1011,6 hPa 0,0 mm 0,0 km/h (0 Bft) S 171 ° 0 min 0,000 mm 0,0 UV-I 54 W/m² 0,0 °C 0,9 °C 0,0 km/h (0 Bft)
06.05.2017 06:42 0,9 °C 0,9 °C 94 % 1011,6 hPa 0,0 mm 0,0 km/h (0 Bft) S 171 ° 0 min 0,000 mm 0,0 UV-I 53 W/m² 0,0 °C 0,9 °C 0,0 km/h (0 Bft)
06.05.2017 06:43 0,9 °C 0,9 °C 95 % 1011,7 hPa 0,0 mm 0,0 km/h (0 Bft) S 171 ° 0 min 0,000 mm 0,0 UV-I 49 W/m² 0,2 °C 0,9 °C 0,0 km/h (0 Bft)
06.05.2017 06:44 0,8 °C 0,9 °C 94 % 1011,7 hPa 0,0 mm 0,0 km/h (0 Bft) S 171 ° 0 min 0,000 mm 0,0 UV-I 53 W/m² -0,1 °C 0,8 °C 0,0 km/h (0 Bft)
06.05.2017 06:45 0,9 °C 0,9 °C 94 % 1011,7 hPa 0,0 mm 0,0 km/h (0 Bft) S 171 ° 0 min 0,000 mm 0,0 UV-I 63 W/m² 0,0 °C 0,9 °C 0,0 km/h (0 Bft)
06.05.2017 06:46 0,9 °C 0,9 °C 95 % 1011,6 hPa 0,0 mm 0,0 km/h (0 Bft) S 171 ° 0 min 0,000 mm 0,0 UV-I 67 W/m² 0,2 °C 0,9 °C 0,0 km/h (0 Bft)
06.05.2017 06:47 0,9 °C 0,9 °C 95 % 1011,6 hPa 0,0 mm 0,0 km/h (0 Bft) S 171 ° 0 min 0,000 mm 0,0 UV-I 72 W/m² 0,2 °C 0,9 °C 0,0 km/h (0 Bft)
06.05.2017 06:48 0,9 °C 1,0 °C 95 % 1011,6 hPa 0,0 mm 0,0 km/h (0 Bft) S 171 ° 0 min 0,000 mm 0,0 UV-I 74 W/m² 0,2 °C 0,9 °C 0,0 km/h (0 Bft)
06.05.2017 06:49 1,0 °C 1,0 °C 94 % 1011,7 hPa 0,0 mm 0,0 km/h (0 Bft) S 171 ° 0 min 0,000 mm 0,0 UV-I 77 W/m² 0,1 °C 1,0 °C 0,0 km/h (0 Bft)
06.05.2017 06:50 1,1 °C 1,1 °C 94 % 1011,6 hPa 0,0 mm 0,0 km/h (0 Bft) S 171 ° 0 min 0,000 mm 0,0 UV-I 77 W/m² 0,2 °C 1,1 °C 0,0 km/h (0 Bft)
06.05.2017 06:51 1,2 °C 1,2 °C 95 % 1011,7 hPa 0,0 mm 0,0 km/h (0 Bft) S 171 ° 0 min 0,000 mm 0,0 UV-I 95 W/m² 0,5 °C 1,2 °C 0,0 km/h (0 Bft)
06.05.2017 06:52 1,3 °C 1,3 °C 95 % 1011,6 hPa 0,0 mm 0,0 km/h (0 Bft) S 171 ° 0 min 0,000 mm 0,0 UV-I 95 W/m² 0,6 °C 1,3 °C 0,0 km/h (0 Bft)
06.05.2017 06:53 1,4 °C 1,4 °C 95 % 1011,5 hPa 0,0 mm 0,0 km/h (0 Bft) S 171 ° 0 min 0,000 mm 0,0 UV-I 127 W/m² 0,7 °C 1,4 °C 0,0 km/h (0 Bft)
06.05.2017 06:54 1,4 °C 1,4 °C 95 % 1011,5 hPa 0,0 mm 0,0 km/h (0 Bft) S 171 ° 0 min 0,000 mm 0,0 UV-I 84 W/m² 0,7 °C 1,4 °C 0,0 km/h (0 Bft)
06.05.2017 06:55 1,4 °C 1,5 °C 95 % 1011,5 hPa 0,0 mm 0,0 km/h (0 Bft) S 171 ° 0 min 0,000 mm 0,0 UV-I 79 W/m² 0,7 °C 1,4 °C 0,0 km/h (0 Bft)
06.05.2017 06:56 1,4 °C 1,5 °C 95 % 1011,5 hPa 0,0 mm 0,0 km/h (0 Bft) S 171 ° 0 min 0,000 mm 0,0 UV-I 77 W/m² 0,7 °C 1,4 °C 0,0 km/h (0 Bft)
06.05.2017 06:57 1,5 °C 1,5 °C 94 % 1011,5 hPa 0,0 mm 0,0 km/h (0 Bft) S 171 ° 0 min 0,000 mm 0,0 UV-I 88 W/m² 0,6 °C 1,5 °C 0,0 km/h (0 Bft)
06.05.2017 06:58 1,7 °C 1,7 °C 95 % 1011,5 hPa 0,0 mm 0,0 km/h (0 Bft) S 171 ° 0 min 0,000 mm 0,0 UV-I 77 W/m² 1,0 °C 1,7 °C 0,0 km/h (0 Bft)
06.05.2017 06:59 1,9 °C 1,9 °C 95 % 1011,5 hPa 0,0 mm 0,0 km/h (0 Bft) S 171 ° 0 min 0,000 mm 0,0 UV-I 69 W/m² 1,2 °C 1,9 °C 0,0 km/h (0 Bft)
06.05.2017 07:00 2,0 °C 2,0 °C 95 % 1011,5 hPa 0,0 mm 0,0 km/h (0 Bft) S 171 ° 0 min 0,000 mm 0,0 UV-I 70 W/m² 1,3 °C 2,0 °C 0,0 km/h (0 Bft)
06.05.2017 07:01 2,1 °C 2,1 °C 95 % 1011,4 hPa 0,0 mm 0,0 km/h (0 Bft) S 171 ° 0 min 0,025 mm 0,0 UV-I 84 W/m² 1,4 °C 2,1 °C 0,0 km/h (0 Bft)
06.05.2017 07:02 1,9 °C 2,1 °C 95 % 1011,5 hPa 0,0 mm 0,0 km/h (0 Bft) S 171 ° 0 min 0,000 mm 0,0 UV-I 128 W/m² 1,2 °C 1,9 °C 0,0 km/h (0 Bft)
06.05.2017 07:03 1,8 °C 1,9 °C 94 % 1011,5 hPa 0,0 mm 0,0 km/h (0 Bft) S 171 ° 0 min 0,000 mm 0,0 UV-I 91 W/m² 0,9 °C 1,8 °C 0,0 km/h (0 Bft)
06.05.2017 07:04 1,8 °C 1,8 °C 94 % 1011,5 hPa 0,0 mm 0,0 km/h (0 Bft) S 171 ° 0 min 0,000 mm 0,5 UV-I 107 W/m² 0,9 °C 1,8 °C 0,0 km/h (0 Bft)
06.05.2017 07:05 1,8 °C 1,8 °C 94 % 1011,5 hPa 0,0 mm 0,0 km/h (0 Bft) S 171 ° 0 min 0,000 mm 0,5 UV-I 130 W/m² 0,9 °C 1,8 °C 0,0 km/h (0 Bft)
06.05.2017 07:06 1,8 °C 1,8 °C 94 % 1011,5 hPa 0,0 mm 0,0 km/h (0 Bft) S 171 ° 0 min 0,000 mm 0,5 UV-I 148 W/m² 0,9 °C 1,8 °C 0,0 km/h (0 Bft)
06.05.2017 07:07 1,8 °C 1,8 °C 94 % 1011,5 hPa 0,0 mm 0,0 km/h (0 Bft) S 171 ° 0 min 0,000 mm 0,5 UV-I 127 W/m² 0,9 °C 1,8 °C 0,0 km/h (0 Bft)
06.05.2017 07:08 1,9 °C 1,9 °C 95 % 1011,5 hPa 0,0 mm 0,0 km/h (0 Bft) S 171 ° 0 min 0,000 mm 0,5 UV-I 77 W/m² 1,2 °C 1,9 °C 0,0 km/h (0 Bft)
06.05.2017 07:09 2,0 °C 2,0 °C 94 % 1011,5 hPa 0,0 mm 0,0 km/h (0 Bft) S 171 ° 0 min 0,000 mm 0,5 UV-I 77 W/m² 1,1 °C 2,0 °C 0,0 km/h (0 Bft)
06.05.2017 07:10 2,1 °C 2,1 °C 94 % 1011,5 hPa 0,0 mm 0,0 km/h (0 Bft) S 171 ° 0 min 0,000 mm 0,5 UV-I 77 W/m² 1,2 °C 2,1 °C 0,0 km/h (0 Bft)
06.05.2017 07:11 2,1 °C 2,1 °C 94 % 1011,5 hPa 0,0 mm 0,0 km/h (0 Bft) S 171 ° 0 min 0,000 mm 0,5 UV-I 65 W/m² 1,2 °C 2,1 °C 0,0 km/h (0 Bft)
06.05.2017 07:12 2,1 °C 2,1 °C 94 % 1011,5 hPa 0,0 mm 0,0 km/h (0 Bft) S 171 ° 0 min 0,000 mm 0,5 UV-I 63 W/m² 1,2 °C 2,1 °C 0,0 km/h (0 Bft)
06.05.2017 07:13 2,0 °C 2,1 °C 94 % 1011,4 hPa 0,0 mm 0,0 km/h (0 Bft) S 171 ° 0 min 0,000 mm 0,5 UV-I 63 W/m² 1,1 °C 2,0 °C 0,0 km/h (0 Bft)
06.05.2017 07:14 2,1 °C 2,1 °C 94 % 1011,5 hPa 0,0 mm 0,0 km/h (0 Bft) S 171 ° 0 min 0,000 mm 0,5 UV-I 67 W/m² 1,2 °C 2,1 °C 0,0 km/h (0 Bft)
06.05.2017 07:15 2,1 °C 2,1 °C 94 % 1011,4 hPa 0,0 mm 0,0 km/h (0 Bft) S 171 ° 0 min 0,000 mm 0,5 UV-I 69 W/m² 1,2 °C 2,1 °C 0,0 km/h (0 Bft)
06.05.2017 07:16 2,1 °C 2,1 °C 94 % 1011,4 hPa 0,0 mm 0,0 km/h (0 Bft) S 171 ° 0 min 0,000 mm 0,5 UV-I 72 W/m² 1,2 °C 2,1 °C 0,0 km/h (0 Bft)
06.05.2017 07:17 2,2 °C 2,2 °C 94 % 1011,5 hPa 0,0 mm 0,0 km/h (0 Bft) S 171 ° 0 min 0,000 mm 0,5 UV-I 72 W/m² 1,3 °C 2,2 °C 0,0 km/h (0 Bft)
06.05.2017 07:18 2,2 °C 2,2 °C 94 % 1011,5 hPa 0,0 mm 0,0 km/h (0 Bft) S 171 ° 0 min 0,000 mm 0,5 UV-I 69 W/m² 1,3 °C 2,2 °C 0,0 km/h (0 Bft)
06.05.2017 07:19 2,3 °C 2,3 °C 94 % 1011,4 hPa 0,0 mm 0,0 km/h (0 Bft) S 171 ° 0 min 0,000 mm 0,5 UV-I 69 W/m² 1,4 °C 2,3 °C 0,0 km/h (0 Bft)
06.05.2017 07:20 2,4 °C 2,4 °C 94 % 1011,4 hPa 0,0 mm 0,0 km/h (0 Bft) S 171 ° 0 min 0,000 mm 0,6 UV-I 72 W/m² 1,5 °C 2,4 °C 0,0 km/h (0 Bft)
06.05.2017 07:21 2,5 °C 2,5 °C 94 % 1011,4 hPa 0,0 mm 0,0 km/h (0 Bft) S 171 ° 0 min 0,000 mm 0,6 UV-I 74 W/m² 1,6 °C 2,5 °C 0,0 km/h (0 Bft)
06.05.2017 07:22 2,6 °C 2,6 °C 95 % 1011,4 hPa 0,0 mm 0,0 km/h (0 Bft) S 171 ° 0 min 0,000 mm 0,6 UV-I 77 W/m² 1,9 °C 2,6 °C 0,0 km/h (0 Bft)
06.05.2017 07:23 2,7 °C 2,7 °C 94 % 1011,4 hPa 0,0 mm 0,0 km/h (0 Bft) S 171 ° 0 min 0,000 mm 0,6 UV-I 88 W/m² 1,8 °C 2,7 °C 0,0 km/h (0 Bft)
06.05.2017 07:24 2,9 °C 2,9 °C 95 % 1011,4 hPa 0,0 mm 0,0 km/h (0 Bft) S 171 ° 0 min 0,000 mm 0,6 UV-I 104 W/m² 2,2 °C 2,9 °C 0,0 km/h (0 Bft)
06.05.2017 07:25 3,1 °C 3,1 °C 95 % 1011,6 hPa 0,0 mm 0,0 km/h (0 Bft) S 171 ° 0 min 0,000 mm 0,7 UV-I 121 W/m² 2,4 °C 3,1 °C 0,0 km/h (0 Bft)
06.05.2017 07:26 3,2 °C 3,2 °C 95 % 1011,6 hPa 0,0 mm 0,0 km/h (0 Bft) S 171 ° 0 min 0,000 mm 0,7 UV-I 135 W/m² 2,5 °C 3,2 °C 0,0 km/h (0 Bft)
06.05.2017 07:27 3,3 °C 3,3 °C 95 % 1011,6 hPa 0,0 mm 0,0 km/h (0 Bft) S 171 ° 0 min 0,000 mm 0,7 UV-I 134 W/m² 2,6 °C 3,3 °C 0,0 km/h (0 Bft)
06.05.2017 07:28 3,3 °C 3,3 °C 95 % 1011,5 hPa 0,0 mm 0,0 km/h (0 Bft) S 171 ° 0 min 0,000 mm 0,7 UV-I 149 W/m² 2,6 °C 3,3 °C 0,0 km/h (0 Bft)
06.05.2017 07:29 3,3 °C 3,4 °C 94 % 1011,6 hPa 0,0 mm 0,0 km/h (0 Bft) S 171 ° 0 min 0,000 mm 0,7 UV-I 165 W/m² 2,4 °C 3,3 °C 0,0 km/h (0 Bft)
06.05.2017 07:30 3,3 °C 3,3 °C 94 % 1011,6 hPa 0,0 mm 0,0 km/h (0 Bft) S 171 ° 0 min 0,000 mm 0,7 UV-I 144 W/m² 2,4 °C 3,3 °C 0,0 km/h (0 Bft)
06.05.2017 07:31 3,3 °C 3,3 °C 94 % 1011,6 hPa 0,0 mm 0,0 km/h (0 Bft) S 171 ° 0 min 0,000 mm 0,7 UV-I 155 W/m² 2,4 °C 3,3 °C 0,0 km/h (0 Bft)
06.05.2017 07:32 3,3 °C 3,3 °C 94 % 1011,5 hPa 0,0 mm 0,0 km/h (0 Bft) S 171 ° 0 min 0,000 mm 0,8 UV-I 174 W/m² 2,4 °C 3,3 °C 0,0 km/h (0 Bft)
06.05.2017 07:33 3,4 °C 3,4 °C 94 % 1011,5 hPa 0,0 mm 0,0 km/h (0 Bft) S 171 ° 0 min 0,000 mm 0,8 UV-I 172 W/m² 2,5 °C 3,4 °C 0,0 km/h (0 Bft)
06.05.2017 07:34 3,6 °C 3,6 °C 94 % 1011,5 hPa 0,0 mm 0,0 km/h (0 Bft) S 171 ° 0 min 0,000 mm 0,8 UV-I 195 W/m² 2,7 °C 3,6 °C 0,0 km/h (0 Bft)
06.05.2017 07:35 3,7 °C 3,7 °C 94 % 1011,4 hPa 0,0 mm 0,0 km/h (0 Bft) S 171 ° 0 min 0,000 mm 0,8 UV-I 190 W/m² 2,8 °C 3,7 °C 0,0 km/h (0 Bft)
06.05.2017 07:36 3,8 °C 3,8 °C 94 % 1011,4 hPa 0,0 mm 0,0 km/h (0 Bft) S 171 ° 0 min 0,000 mm 0,9 UV-I 204 W/m² 2,9 °C 3,8 °C 0,0 km/h (0 Bft)
06.05.2017 07:37 3,9 °C 3,9 °C 94 % 1011,5 hPa 0,0 mm 0,0 km/h (0 Bft) S 171 ° 0 min 0,000 mm 0,9 UV-I 200 W/m² 3,0 °C 3,9 °C 0,0 km/h (0 Bft)
06.05.2017 07:38 4,1 °C 4,1 °C 94 % 1011,5 hPa 0,0 mm 0,0 km/h (0 Bft) S 171 ° 0 min 0,000 mm 0,9 UV-I 197 W/m² 3,2 °C 4,1 °C 0,0 km/h (0 Bft)
06.05.2017 07:39 4,2 °C 4,2 °C 94 % 1011,5 hPa 0,0 mm 0,0 km/h (0 Bft) S 171 ° 0 min 0,000 mm 0,9 UV-I 202 W/m² 3,3 °C 4,2 °C 0,0 km/h (0 Bft)
06.05.2017 07:40 4,3 °C 4,3 °C 94 % 1011,5 hPa 0,0 mm 0,0 km/h (0 Bft) S 171 ° 0 min 0,000 mm 0,9 UV-I 185 W/m² 3,4 °C 4,3 °C 0,0 km/h (0 Bft)
06.05.2017 07:41 4,5 °C 4,5 °C 93 % 1011,6 hPa 0,0 mm 0,0 km/h (0 Bft) S 171 ° 0 min 0,000 mm 0,9 UV-I 193 W/m² 3,5 °C 4,5 °C 0,0 km/h (0 Bft)
06.05.2017 07:42 4,7 °C 4,7 °C 94 % 1011,6 hPa 0,0 mm 0,0 km/h (0 Bft) SW 227 ° 0 min 0,000 mm 0,8 UV-I 118 W/m² 3,8 °C 4,7 °C 0,0 km/h (0 Bft)
06.05.2017 07:43 4,8 °C 4,8 °C 93 % 1011,6 hPa 0,0 mm 0,0 km/h (0 Bft) SW 227 ° 0 min 0,000 mm 0,9 UV-I 227 W/m² 3,8 °C 4,8 °C 0,0 km/h (0 Bft)
06.05.2017 07:44 5,0 °C 5,0 °C 93 % 1011,6 hPa 0,0 mm 0,0 km/h (0 Bft) SW 227 ° 0 min 0,000 mm 0,9 UV-I 237 W/m² 4,0 °C 5,0 °C 0,0 km/h (0 Bft)
06.05.2017 07:45 5,2 °C 5,2 °C 93 % 1011,7 hPa 0,0 mm 0,0 km/h (0 Bft) SW 227 ° 0 min 0,000 mm 1,0 UV-I 257 W/m² 4,2 °C 5,2 °C 0,0 km/h (0 Bft)
06.05.2017 07:46 5,3 °C 5,3 °C 92 % 1011,5 hPa 0,0 mm 0,0 km/h (0 Bft) SW 227 ° 0 min 0,000 mm 1,0 UV-I 258 W/m² 4,1 °C 5,3 °C 0,0 km/h (0 Bft)
06.05.2017 07:47 5,4 °C 5,4 °C 92 % 1011,6 hPa 0,0 mm 0,0 km/h (0 Bft) SW 227 ° 0 min 0,000 mm 1,0 UV-I 264 W/m² 4,2 °C 5,4 °C 0,0 km/h (0 Bft)
06.05.2017 07:48 5,5 °C 5,5 °C 92 % 1011,6 hPa 0,0 mm 0,0 km/h (0 Bft) SW 227 ° 0 min 0,000 mm 1,0 UV-I 269 W/m² 4,3 °C 5,5 °C 0,0 km/h (0 Bft)
06.05.2017 07:49 5,5 °C 5,6 °C 92 % 1011,5 hPa 0,0 mm 0,0 km/h (0 Bft) SW 227 ° 0 min 0,000 mm 1,1 UV-I 281 W/m² 4,3 °C 5,5 °C 0,0 km/h (0 Bft)
06.05.2017 07:50 5,4 °C 5,5 °C 91 % 1011,5 hPa 0,0 mm 0,0 km/h (0 Bft) SW 227 ° 0 min 0,000 mm 1,1 UV-I 271 W/m² 4,1 °C 5,4 °C 0,0 km/h (0 Bft)
06.05.2017 07:51 5,5 °C 5,5 °C 92 % 1011,5 hPa 0,0 mm 0,0 km/h (0 Bft) SW 227 ° 0 min 0,000 mm 1,1 UV-I 251 W/m² 4,3 °C 5,5 °C 0,0 km/h (0 Bft)
06.05.2017 07:52 5,7 °C 5,7 °C 92 % 1011,5 hPa 0,0 mm 0,0 km/h (0 Bft) SW 227 ° 0 min 0,000 mm 1,1 UV-I 283 W/m² 4,5 °C 5,7 °C 0,0 km/h (0 Bft)
06.05.2017 07:53 5,8 °C 5,9 °C 91 % 1011,5 hPa 0,0 mm 0,0 km/h (0 Bft) SW 227 ° 0 min 0,000 mm 1,1 UV-I 260 W/m² 4,4 °C 5,8 °C 0,0 km/h (0 Bft)
06.05.2017 07:54 5,9 °C 5,9 °C 91 % 1011,5 hPa 0,0 mm 0,0 km/h (0 Bft) SW 227 ° 1 min 0,000 mm 1,2 UV-I 313 W/m² 4,5 °C 5,9 °C 0,0 km/h (0 Bft)
06.05.2017 07:55 6,1 °C 6,1 °C 91 % 1011,6 hPa 0,0 mm 0,0 km/h (0 Bft) SW 227 ° 1 min 0,000 mm 1,2 UV-I 329 W/m² 4,7 °C 6,1 °C 0,0 km/h (0 Bft)
06.05.2017 07:56 6,3 °C 6,3 °C 91 % 1011,6 hPa 0,0 mm 0,0 km/h (0 Bft) SW 227 ° 1 min 0,000 mm 0,9 UV-I 329 W/m² 4,9 °C 6,3 °C 0,0 km/h (0 Bft)
06.05.2017 07:57 6,4 °C 6,4 °C 92 % 1011,6 hPa 0,0 mm 0,0 km/h (0 Bft) SW 227 ° 0 min 0,000 mm 0,9 UV-I 128 W/m² 5,2 °C 6,4 °C 0,0 km/h (0 Bft)
06.05.2017 07:58 6,4 °C 6,4 °C 91 % 1011,6 hPa 0,0 mm 0,0 km/h (0 Bft) SW 227 ° 0 min 0,000 mm 0,9 UV-I 120 W/m² 5,0 °C 6,4 °C 0,0 km/h (0 Bft)
06.05.2017 07:59 6,4 °C 6,4 °C 90 % 1011,6 hPa 0,0 mm 0,0 km/h (0 Bft) SW 227 ° 0 min 0,000 mm 0,9 UV-I 114 W/m² 4,9 °C 6,4 °C 0,0 km/h (0 Bft)
06.05.2017 08:00 6,3 °C 6,4 °C 90 % 1011,6 hPa 0,0 mm 0,0 km/h (0 Bft) SW 227 ° 0 min 0,000 mm 0,9 UV-I 105 W/m² 4,8 °C 6,3 °C 0,0 km/h (0 Bft)
06.05.2017 08:01 6,3 °C 6,4 °C 90 % 1011,6 hPa 0,0 mm 0,0 km/h (0 Bft) S-SW 207 ° 0 min 0,051 mm 0,9 UV-I 97 W/m² 4,8 °C 6,3 °C 0,0 km/h (0 Bft)
06.05.2017 08:02 6,3 °C 6,3 °C 90 % 1011,6 hPa 0,0 mm 0,0 km/h (0 Bft) S-SW 207 ° 0 min 0,000 mm 0,9 UV-I 95 W/m² 4,8 °C 6,3 °C 0,0 km/h (0 Bft)
06.05.2017 08:03 6,2 °C 6,3 °C 89 % 1011,5 hPa 0,0 mm 0,0 km/h (0 Bft) S-SW 207 ° 0 min 0,000 mm 0,9 UV-I 97 W/m² 4,5 °C 6,2 °C 0,0 km/h (0 Bft)
06.05.2017 08:04 6,2 °C 6,2 °C 90 % 1011,5 hPa 0,0 mm 0,0 km/h (0 Bft) S-SW 207 ° 0 min 0,000 mm 0,9 UV-I 100 W/m² 4,7 °C 6,2 °C 0,0 km/h (0 Bft)
06.05.2017 08:05 6,2 °C 6,2 °C 90 % 1011,4 hPa 0,0 mm 0,0 km/h (0 Bft) S-SW 207 ° 0 min 0,000 mm 0,9 UV-I 104 W/m² 4,7 °C 6,2 °C 0,0 km/h (0 Bft)
06.05.2017 08:06 6,2 °C 6,3 °C 90 % 1011,4 hPa 0,0 mm 0,0 km/h (0 Bft) S-SW 207 ° 0 min 0,000 mm 1,0 UV-I 116 W/m² 4,7 °C 6,2 °C 0,0 km/h (0 Bft)
06.05.2017 08:07 6,3 °C 6,3 °C 91 % 1011,5 hPa 0,0 mm 0,0 km/h (0 Bft) S-SW 207 ° 0 min 0,000 mm 1,0 UV-I 146 W/m² 4,9 °C 6,3 °C 0,0 km/h (0 Bft)
06.05.2017 08:08 6,3 °C 6,3 °C 91 % 1011,5 hPa 0,0 mm 0,0 km/h (0 Bft) S-SW 207 ° 0 min 0,000 mm 1,4 UV-I 146 W/m² 4,9 °C 6,3 °C 0,0 km/h (0 Bft)
06.05.2017 08:09 6,4 °C 6,4 °C 90 % 1011,5 hPa 0,0 mm 0,0 km/h (0 Bft) S-SW 207 ° 0 min 0,000 mm 1,2 UV-I 234 W/m² 4,9 °C 6,4 °C 0,0 km/h (0 Bft)
06.05.2017 08:10 6,6 °C 6,6 °C 90 % 1011,5 hPa 0,0 mm 0,0 km/h (0 Bft) S-SW 207 ° 0 min 0,000 mm 1,3 UV-I 232 W/m² 5,1 °C 6,6 °C 0,0 km/h (0 Bft)
06.05.2017 08:11 6,7 °C 6,7 °C 89 % 1011,5 hPa 0,0 mm 0,0 km/h (0 Bft) S-SW 207 ° 0 min 0,000 mm 1,3 UV-I 262 W/m² 5,0 °C 6,7 °C 0,0 km/h (0 Bft)
06.05.2017 08:12 6,9 °C 6,9 °C 88 % 1011,6 hPa 0,0 mm 0,0 km/h (0 Bft) S-SW 207 ° 1 min 0,000 mm 1,4 UV-I 348 W/m² 5,1 °C 6,9 °C 0,0 km/h (0 Bft)
06.05.2017 08:13 7,2 °C 7,2 °C 89 % 1011,6 hPa 0,0 mm 0,0 km/h (0 Bft) S-SW 207 ° 1 min 0,000 mm 1,4 UV-I 325 W/m² 5,5 °C 7,2 °C 0,0 km/h (0 Bft)
06.05.2017 08:14 7,6 °C 7,6 °C 91 % 1011,5 hPa 0,0 mm 0,0 km/h (0 Bft) S-SW 207 ° 0 min 0,000 mm 1,3 UV-I 274 W/m² 6,2 °C 7,6 °C 0,0 km/h (0 Bft)
06.05.2017 08:15 7,6 °C 7,6 °C 87 % 1011,5 hPa 0,0 mm 0,0 km/h (0 Bft) S-SW 207 ° 1 min 0,000 mm 1,4 UV-I 316 W/m² 5,6 °C 7,6 °C 0,0 km/h (0 Bft)
06.05.2017 08:16 8,0 °C 8,0 °C 89 % 1011,5 hPa 0,0 mm 0,0 km/h (0 Bft) S-SW 207 ° 1 min 0,000 mm 1,5 UV-I 332 W/m² 6,3 °C 8,0 °C 0,0 km/h (0 Bft)
06.05.2017 08:17 8,1 °C 8,1 °C 86 % 1011,5 hPa 0,0 mm 0,0 km/h (0 Bft) S-SW 207 ° 1 min 0,000 mm 1,5 UV-I 359 W/m² 5,9 °C 8,1 °C 0,0 km/h (0 Bft)
06.05.2017 08:18 8,2 °C 8,2 °C 87 % 1011,5 hPa 0,0 mm 0,0 km/h (0 Bft) S-SW 207 ° 1 min 0,000 mm 1,5 UV-I 341 W/m² 6,2 °C 8,2 °C 0,0 km/h (0 Bft)
06.05.2017 08:19 8,3 °C 8,3 °C 87 % 1011,5 hPa 0,0 mm 0,0 km/h (0 Bft) S-SW 207 ° 1 min 0,000 mm 1,5 UV-I 345 W/m² 6,3 °C 8,3 °C 0,0 km/h (0 Bft)
06.05.2017 08:20 8,4 °C 8,4 °C 87 % 1011,5 hPa 0,0 mm 0,0 km/h (0 Bft) S-SW 207 ° 1 min 0,000 mm 1,5 UV-I 339 W/m² 6,4 °C 8,4 °C 0,0 km/h (0 Bft)
06.05.2017 08:21 8,4 °C 8,4 °C 85 % 1011,5 hPa 0,0 mm 0,0 km/h (0 Bft) S-SW 207 ° 1 min 0,000 mm 1,6 UV-I 343 W/m² 6,0 °C 8,4 °C 0,0 km/h (0 Bft)
06.05.2017 08:22 8,6 °C 8,6 °C 84 % 1011,5 hPa 0,0 mm 0,0 km/h (0 Bft) S-SW 207 ° 1 min 0,000 mm 1,6 UV-I 341 W/m² 6,1 °C 8,6 °C 0,0 km/h (0 Bft)
06.05.2017 08:23 8,7 °C 8,7 °C 85 % 1011,5 hPa 0,0 mm 0,0 km/h (0 Bft) S-SW 207 ° 1 min 0,000 mm 1,6 UV-I 341 W/m² 6,3 °C 8,7 °C 0,0 km/h (0 Bft)
06.05.2017 08:24 8,8 °C 8,8 °C 84 % 1011,4 hPa 0,0 mm 0,0 km/h (0 Bft) S-SW 207 ° 1 min 0,000 mm 1,7 UV-I 345 W/m² 6,2 °C 8,8 °C 0,0 km/h (0 Bft)
06.05.2017 08:25 8,7 °C 8,8 °C 84 % 1011,5 hPa 0,0 mm 0,0 km/h (0 Bft) S-SW 207 ° 1 min 0,000 mm 1,7 UV-I 355 W/m² 6,2 °C 8,7 °C 0,0 km/h (0 Bft)
06.05.2017 08:26 8,6 °C 8,7 °C 84 % 1011,4 hPa 0,0 mm 0,0 km/h (0 Bft) S-SW 207 ° 1 min 0,000 mm 1,7 UV-I 357 W/m² 6,1 °C 8,6 °C 0,0 km/h (0 Bft)
06.05.2017 08:27 8,5 °C 8,6 °C 82 % 1011,4 hPa 0,0 mm 0,1 km/h (0 Bft) S-SW 207 ° 1 min 0,000 mm 1,8 UV-I 373 W/m² 5,6 °C 8,5 °C 1,6 km/h (1 Bft)
06.05.2017 08:28 8,4 °C 8,5 °C 84 % 1011,3 hPa 0,0 mm 0,6 km/h (0 Bft) S-SW 207 ° 1 min 0,000 mm 1,8 UV-I 374 W/m² 5,9 °C 8,4 °C 1,6 km/h (1 Bft)
06.05.2017 08:29 8,3 °C 8,4 °C 84 % 1011,4 hPa 0,0 mm 0,1 km/h (0 Bft) S-SW 207 ° 1 min 0,000 mm 1,8 UV-I 376 W/m² 5,8 °C 8,3 °C 1,6 km/h (1 Bft)
06.05.2017 08:30 8,3 °C 8,3 °C 83 % 1011,4 hPa 0,0 mm 0,0 km/h (0 Bft) S-SW 207 ° 1 min 0,000 mm 1,9 UV-I 380 W/m² 5,6 °C 8,3 °C 0,0 km/h (0 Bft)
06.05.2017 08:31 8,4 °C 8,4 °C 84 % 1011,3 hPa 0,0 mm 0,0 km/h (0 Bft) S-SW 207 ° 1 min 0,000 mm 1,9 UV-I 387 W/m² 5,9 °C 8,4 °C 0,0 km/h (0 Bft)
06.05.2017 08:32 8,4 °C 8,4 °C 83 % 1011,4 hPa 0,0 mm 0,0 km/h (0 Bft) S-SW 207 ° 1 min 0,000 mm 1,9 UV-I 390 W/m² 5,7 °C 8,4 °C 0,0 km/h (0 Bft)
06.05.2017 08:33 8,7 °C 8,7 °C 83 % 1011,4 hPa 0,0 mm 0,0 km/h (0 Bft) S-SW 207 ° 1 min 0,000 mm 1,9 UV-I 394 W/m² 6,0 °C 8,7 °C 0,0 km/h (0 Bft)
06.05.2017 08:34 8,8 °C 8,8 °C 83 % 1011,4 hPa 0,0 mm 0,0 km/h (0 Bft) S-SW 207 ° 1 min 0,000 mm 1,9 UV-I 396 W/m² 6,1 °C 8,8 °C 0,0 km/h (0 Bft)
06.05.2017 08:35 8,9 °C 8,9 °C 83 % 1011,4 hPa 0,0 mm 0,0 km/h (0 Bft) S-SW 207 ° 1 min 0,000 mm 2,0 UV-I 397 W/m² 6,2 °C 8,9 °C 0,0 km/h (0 Bft)
06.05.2017 08:36 9,1 °C 9,1 °C 84 % 1011,4 hPa 0,0 mm 0,0 km/h (0 Bft) S-SW 207 ° 1 min 0,000 mm 2,0 UV-I 404 W/m² 6,5 °C 9,1 °C 0,0 km/h (0 Bft)
06.05.2017 08:37 9,1 °C 9,1 °C 83 % 1011,5 hPa 0,0 mm 0,0 km/h (0 Bft) S-SW 207 ° 1 min 0,000 mm 2,0 UV-I 410 W/m² 6,4 °C 9,1 °C 0,0 km/h (0 Bft)
06.05.2017 08:38 9,2 °C 9,2 °C 84 % 1011,4 hPa 0,0 mm 0,1 km/h (0 Bft) S-SW 207 ° 1 min 0,000 mm 2,1 UV-I 413 W/m² 6,6 °C 9,2 °C 1,6 km/h (1 Bft)
06.05.2017 08:39 9,2 °C 9,2 °C 84 % 1011,5 hPa 0,0 mm 0,4 km/h (0 Bft) S-SW 207 ° 1 min 0,000 mm 2,1 UV-I 415 W/m² 6,6 °C 9,2 °C 1,6 km/h (1 Bft)
06.05.2017 08:40 9,2 °C 9,2 °C 86 % 1011,5 hPa 0,0 mm 0,3 km/h (0 Bft) S-SW 207 ° 1 min 0,000 mm 2,1 UV-I 418 W/m² 7,0 °C 9,2 °C 1,6 km/h (1 Bft)
06.05.2017 08:41 9,4 °C 9,4 °C 83 % 1011,4 hPa 0,0 mm 2,4 km/h (1 Bft) SO 126 ° 1 min 0,000 mm 2,2 UV-I 418 W/m² 6,7 °C 9,4 °C 4,8 km/h (1 Bft)
06.05.2017 08:42 9,4 °C 9,4 °C 82 % 1011,4 hPa 0,0 mm 1,9 km/h (1 Bft) O-SO 117 ° 1 min 0,000 mm 2,2 UV-I 429 W/m² 6,5 °C 9,4 °C 3,2 km/h (1 Bft)
06.05.2017 08:43 9,7 °C 9,7 °C 84 % 1011,4 hPa 0,0 mm 0,5 km/h (0 Bft) O-SO 117 ° 1 min 0,000 mm 2,2 UV-I 432 W/m² 7,1 °C 9,7 °C 1,6 km/h (1 Bft)
06.05.2017 08:44 9,8 °C 9,8 °C 80 % 1011,4 hPa 0,0 mm 0,0 km/h (0 Bft) O-SO 117 ° 1 min 0,000 mm 2,2 UV-I 434 W/m² 6,5 °C 9,8 °C 0,0 km/h (0 Bft)
06.05.2017 08:45 9,8 °C 9,8 °C 81 % 1011,4 hPa 0,0 mm 0,0 km/h (0 Bft) O-SO 117 ° 1 min 0,000 mm 2,2 UV-I 432 W/m² 6,7 °C 9,8 °C 0,0 km/h (0 Bft)
06.05.2017 08:46 9,9 °C 9,9 °C 81 % 1011,4 hPa 0,0 mm 0,1 km/h (0 Bft) O-SO 117 ° 1 min 0,000 mm 2,2 UV-I 417 W/m² 6,8 °C 9,9 °C 1,6 km/h (1 Bft)
06.05.2017 08:47 9,9 °C 9,9 °C 80 % 1011,4 hPa 0,0 mm 0,0 km/h (0 Bft) O-SO 117 ° 1 min 0,000 mm 2,2 UV-I 432 W/m² 6,6 °C 9,9 °C 0,0 km/h (0 Bft)
06.05.2017 08:48 9,9 °C 9,9 °C 82 % 1011,4 hPa 0,0 mm 0,2 km/h (0 Bft) O-SO 117 ° 1 min 0,000 mm 2,3 UV-I 445 W/m² 7,0 °C 9,9 °C 1,6 km/h (1 Bft)
06.05.2017 08:49 10,0 °C 10,0 °C 80 % 1011,4 hPa 0,0 mm 1,9 km/h (1 Bft) O-SO 117 ° 1 min 0,000 mm 2,3 UV-I 445 W/m² 6,7 °C 10,0 °C 3,2 km/h (1 Bft)
06.05.2017 08:50 10,1 °C 10,1 °C 83 % 1011,3 hPa 0,0 mm 2,4 km/h (1 Bft) O-SO 117 ° 1 min 0,000 mm 2,3 UV-I 448 W/m² 7,3 °C 10,1 °C 3,2 km/h (1 Bft)
06.05.2017 08:51 10,2 °C 10,2 °C 82 % 1011,3 hPa 0,0 mm 0,9 km/h (0 Bft) O-SO 117 ° 1 min 0,000 mm 2,3 UV-I 448 W/m² 7,3 °C 10,2 °C 1,6 km/h (1 Bft)
06.05.2017 08:52 10,3 °C 10,3 °C 80 % 1011,3 hPa 0,0 mm 0,8 km/h (0 Bft) O-SO 117 ° 1 min 0,000 mm 2,4 UV-I 452 W/m² 7,0 °C 10,3 °C 1,6 km/h (1 Bft)
06.05.2017 08:53 10,3 °C 10,3 °C 79 % 1011,3 hPa 0,0 mm 0,0 km/h (0 Bft) O-SO 117 ° 1 min 0,000 mm 2,4 UV-I 457 W/m² 6,8 °C 10,3 °C 0,0 km/h (0 Bft)
06.05.2017 08:54 10,4 °C 10,4 °C 79 % 1011,3 hPa 0,0 mm 0,6 km/h (0 Bft) O-SO 117 ° 1 min 0,000 mm 2,4 UV-I 461 W/m² 6,9 °C 10,4 °C 1,6 km/h (1 Bft)
06.05.2017 08:55 10,6 °C 10,6 °C 78 % 1011,3 hPa 0,0 mm 0,2 km/h (0 Bft) O-SO 117 ° 1 min 0,000 mm 2,4 UV-I 464 W/m² 6,9 °C 10,6 °C 1,6 km/h (1 Bft)
06.05.2017 08:56 10,6 °C 10,6 °C 78 % 1011,3 hPa 0,0 mm 0,0 km/h (0 Bft) O-SO 117 ° 1 min 0,000 mm 2,5 UV-I 466 W/m² 6,9 °C 10,6 °C 0,0 km/h (0 Bft)
06.05.2017 08:57 10,7 °C 10,7 °C 78 % 1011,3 hPa 0,0 mm 0,0 km/h (0 Bft) O-SO 117 ° 1 min 0,000 mm 2,5 UV-I 469 W/m² 7,0 °C 10,7 °C 0,0 km/h (0 Bft)
06.05.2017 08:58 10,7 °C 10,7 °C 79 % 1011,2 hPa 0,0 mm 0,0 km/h (0 Bft) O-SO 117 ° 1 min 0,000 mm 2,5 UV-I 475 W/m² 7,2 °C 10,7 °C 0,0 km/h (0 Bft)
06.05.2017 08:59 10,7 °C 10,7 °C 80 % 1011,3 hPa 0,0 mm 2,1 km/h (1 Bft) O-SO 117 ° 1 min 0,000 mm 2,6 UV-I 478 W/m² 7,4 °C 10,7 °C 4,8 km/h (1 Bft)
06.05.2017 09:00 10,8 °C 10,8 °C 80 % 1011,2 hPa 0,0 mm 3,2 km/h (1 Bft) O-SO 117 ° 1 min 0,153 mm 2,6 UV-I 489 W/m² 7,5 °C 10,8 °C 3,2 km/h (1 Bft)
06.05.2017 09:01 10,8 °C 10,8 °C 80 % 1011,2 hPa 0,0 mm 2,2 km/h (1 Bft) O-SO 117 ° 1 min 0,000 mm 2,6 UV-I 496 W/m² 7,5 °C 10,8 °C 4,8 km/h (1 Bft)
06.05.2017 09:02 10,8 °C 10,8 °C 77 % 1011,3 hPa 0,0 mm 0,8 km/h (0 Bft) O-SO 117 ° 1 min 0,000 mm 2,7 UV-I 501 W/m² 6,9 °C 10,8 °C 1,6 km/h (1 Bft)
06.05.2017 09:03 10,8 °C 10,8 °C 77 % 1011,3 hPa 0,0 mm 0,0 km/h (0 Bft) O-SO 117 ° 1 min 0,000 mm 2,7 UV-I 510 W/m² 6,9 °C 10,8 °C 0,0 km/h (0 Bft)
06.05.2017 09:04 10,9 °C 10,9 °C 79 % 1011,3 hPa 0,0 mm 0,9 km/h (0 Bft) O-SO 117 ° 1 min 0,000 mm 2,8 UV-I 522 W/m² 7,4 °C 10,9 °C 1,6 km/h (1 Bft)
06.05.2017 09:05 10,9 °C 10,9 °C 78 % 1011,2 hPa 0,0 mm 1,9 km/h (1 Bft) O-SO 117 ° 1 min 0,000 mm 2,8 UV-I 554 W/m² 7,2 °C 10,9 °C 3,2 km/h (1 Bft)
06.05.2017 09:06 11,0 °C 11,0 °C 77 % 1011,2 hPa 0,0 mm 1,5 km/h (1 Bft) O-SO 117 ° 1 min 0,000 mm 2,9 UV-I 584 W/m² 7,1 °C 11,0 °C 3,2 km/h (1 Bft)
06.05.2017 09:07 11,1 °C 11,1 °C 78 % 1011,2 hPa 0,0 mm 0,5 km/h (0 Bft) O-SO 117 ° 1 min 0,000 mm 3,1 UV-I 606 W/m² 7,4 °C 11,1 °C 1,6 km/h (1 Bft)
06.05.2017 09:08 11,2 °C 11,2 °C 79 % 1011,2 hPa 0,0 mm 0,7 km/h (0 Bft) O-SO 117 ° 1 min 0,000 mm 3,1 UV-I 606 W/m² 7,7 °C 11,2 °C 3,2 km/h (1 Bft)
06.05.2017 09:09 11,5 °C 11,5 °C 82 % 1011,2 hPa 0,0 mm 2,1 km/h (1 Bft) O-SO 117 ° 1 min 0,000 mm 3,2 UV-I 647 W/m² 8,5 °C 11,5 °C 3,2 km/h (1 Bft)
06.05.2017 09:10 11,7 °C 11,7 °C 82 % 1011,2 hPa 0,0 mm 3,0 km/h (1 Bft) O-SO 117 ° 1 min 0,000 mm 3,2 UV-I 613 W/m² 8,7 °C 11,7 °C 4,8 km/h (1 Bft)
06.05.2017 09:11 11,8 °C 11,8 °C 76 % 1011,2 hPa 0,0 mm 1,9 km/h (1 Bft) O-SO 117 ° 1 min 0,000 mm 2,8 UV-I 603 W/m² 7,7 °C 11,8 °C 3,2 km/h (1 Bft)
06.05.2017 09:12 11,7 °C 11,8 °C 75 % 1011,2 hPa 0,0 mm 0,5 km/h (0 Bft) O-SO 117 ° 1 min 0,000 mm 2,8 UV-I 362 W/m² 7,4 °C 11,7 °C 1,6 km/h (1 Bft)
06.05.2017 09:13 11,7 °C 11,7 °C 75 % 1011,1 hPa 0,0 mm 1,2 km/h (1 Bft) O-SO 117 ° 1 min 0,000 mm 2,3 UV-I 366 W/m² 7,4 °C 11,7 °C 1,6 km/h (1 Bft)
06.05.2017 09:14 11,7 °C 11,7 °C 75 % 1011,2 hPa 0,0 mm 2,0 km/h (1 Bft) O-SO 117 ° 1 min 0,000 mm 2,4 UV-I 403 W/m² 7,4 °C 11,7 °C 3,2 km/h (1 Bft)
06.05.2017 09:15 11,8 °C 11,8 °C 76 % 1011,1 hPa 0,0 mm 4,3 km/h (1 Bft) O 88 ° 1 min 0,000 mm 2,3 UV-I 309 W/m² 7,7 °C 11,8 °C 6,4 km/h (2 Bft)
06.05.2017 09:16 11,8 °C 11,8 °C 75 % 1011,2 hPa 0,0 mm 2,9 km/h (1 Bft) O 88 ° 1 min 0,000 mm 2,1 UV-I 294 W/m² 7,5 °C 11,8 °C 4,8 km/h (1 Bft)
06.05.2017 09:17 11,7 °C 11,8 °C 74 % 1011,2 hPa 0,0 mm 2,7 km/h (1 Bft) O 88 ° 0 min 0,000 mm 2,0 UV-I 229 W/m² 7,2 °C 11,7 °C 3,2 km/h (1 Bft)
06.05.2017 09:18 11,7 °C 11,7 °C 75 % 1011,2 hPa 0,0 mm 3,6 km/h (1 Bft) O 88 ° 0 min 0,000 mm 1,9 UV-I 241 W/m² 7,4 °C 11,7 °C 4,8 km/h (1 Bft)
06.05.2017 09:19 11,7 °C 11,7 °C 75 % 1011,2 hPa 0,0 mm 1,5 km/h (1 Bft) O 88 ° 0 min 0,000 mm 2,1 UV-I 262 W/m² 7,4 °C 11,7 °C 3,2 km/h (1 Bft)
06.05.2017 09:20 11,6 °C 11,7 °C 74 % 1011,3 hPa 0,0 mm 2,1 km/h (1 Bft) O 88 ° 0 min 0,000 mm 2,1 UV-I 271 W/m² 7,1 °C 11,6 °C 4,8 km/h (1 Bft)
06.05.2017 09:21 11,7 °C 11,7 °C 73 % 1011,2 hPa 0,0 mm 3,8 km/h (1 Bft) O 88 ° 1 min 0,000 mm 2,2 UV-I 297 W/m² 7,0 °C 11,7 °C 4,8 km/h (1 Bft)
06.05.2017 09:22 11,7 °C 11,7 °C 74 % 1011,2 hPa 0,0 mm 3,1 km/h (1 Bft) O 88 ° 1 min 0,000 mm 2,3 UV-I 359 W/m² 7,2 °C 11,7 °C 4,8 km/h (1 Bft)
06.05.2017 09:23 11,8 °C 11,8 °C 75 % 1011,1 hPa 0,0 mm 4,0 km/h (1 Bft) O 88 ° 1 min 0,000 mm 2,2 UV-I 325 W/m² 7,5 °C 11,8 °C 4,8 km/h (1 Bft)
06.05.2017 09:24 11,8 °C 11,8 °C 75 % 1011,1 hPa 0,0 mm 2,4 km/h (1 Bft) O 88 ° 1 min 0,000 mm 2,5 UV-I 327 W/m² 7,5 °C 11,8 °C 3,2 km/h (1 Bft)
06.05.2017 09:25 11,8 °C 11,8 °C 75 % 1011,0 hPa 0,0 mm 2,6 km/h (1 Bft) O 88 ° 1 min 0,000 mm 2,3 UV-I 334 W/m² 7,5 °C 11,8 °C 4,8 km/h (1 Bft)
06.05.2017 09:26 11,9 °C 11,9 °C 77 % 1011,0 hPa 0,0 mm 1,8 km/h (1 Bft) O 88 ° 1 min 0,000 mm 2,6 UV-I 334 W/m² 8,0 °C 11,9 °C 3,2 km/h (1 Bft)
06.05.2017 09:27 11,9 °C 11,9 °C 72 % 1011,0 hPa 0,0 mm 2,4 km/h (1 Bft) O 88 ° 1 min 0,000 mm 2,7 UV-I 466 W/m² 7,0 °C 11,9 °C 4,8 km/h (1 Bft)
06.05.2017 09:28 12,0 °C 12,0 °C 72 % 1011,0 hPa 0,0 mm 1,9 km/h (1 Bft) O 88 ° 1 min 0,000 mm 2,6 UV-I 439 W/m² 7,1 °C 12,0 °C 4,8 km/h (1 Bft)
06.05.2017 09:29 12,1 °C 12,1 °C 71 % 1011,0 hPa 0,0 mm 0,2 km/h (0 Bft) O 88 ° 1 min 0,000 mm 2,5 UV-I 388 W/m² 7,0 °C 12,1 °C 1,6 km/h (1 Bft)
06.05.2017 09:30 12,1 °C 12,1 °C 72 % 1011,0 hPa 0,0 mm 0,3 km/h (0 Bft) O 88 ° 1 min 0,000 mm 2,5 UV-I 392 W/m² 7,2 °C 12,1 °C 1,6 km/h (1 Bft)
06.05.2017 09:31 12,2 °C 12,2 °C 74 % 1011,0 hPa 0,0 mm 1,2 km/h (1 Bft) O 88 ° 1 min 0,000 mm 2,8 UV-I 434 W/m² 7,7 °C 12,2 °C 3,2 km/h (1 Bft)
06.05.2017 09:32 12,4 °C 12,4 °C 73 % 1011,0 hPa 0,0 mm 2,8 km/h (1 Bft) O 88 ° 1 min 0,000 mm 3,1 UV-I 512 W/m² 7,7 °C 12,4 °C 3,2 km/h (1 Bft)
06.05.2017 09:33 12,7 °C 12,7 °C 76 % 1011,0 hPa 0,0 mm 2,6 km/h (1 Bft) N-NO 27 ° 1 min 0,000 mm 3,2 UV-I 578 W/m² 8,6 °C 12,7 °C 4,8 km/h (1 Bft)
06.05.2017 09:34 12,8 °C 12,8 °C 73 % 1011,1 hPa 0,0 mm 3,0 km/h (1 Bft) N-NO 27 ° 1 min 0,000 mm 3,2 UV-I 545 W/m² 8,1 °C 12,8 °C 4,8 km/h (1 Bft)
06.05.2017 09:35 12,9 °C 12,9 °C 70 % 1011,1 hPa 0,0 mm 2,3 km/h (1 Bft) N-NO 27 ° 1 min 0,000 mm 3,2 UV-I 540 W/m² 7,6 °C 12,9 °C 3,2 km/h (1 Bft)
06.05.2017 09:36 12,9 °C 12,9 °C 70 % 1011,1 hPa 0,0 mm 2,0 km/h (1 Bft) N-NO 27 ° 1 min 0,000 mm 3,2 UV-I 517 W/m² 7,6 °C 12,9 °C 3,2 km/h (1 Bft)
06.05.2017 09:37 12,9 °C 12,9 °C 69 % 1011,1 hPa 0,0 mm 2,3 km/h (1 Bft) N-NO 26 ° 1 min 0,000 mm 3,1 UV-I 533 W/m² 7,4 °C 12,9 °C 4,8 km/h (1 Bft)
06.05.2017 09:38 13,1 °C 13,1 °C 75 % 1011,1 hPa 0,0 mm 0,5 km/h (0 Bft) N-NO 26 ° 1 min 0,000 mm 3,3 UV-I 541 W/m² 8,8 °C 13,1 °C 3,2 km/h (1 Bft)
06.05.2017 09:39 13,1 °C 13,1 °C 71 % 1011,1 hPa 0,0 mm 3,1 km/h (1 Bft) N-NO 26 ° 1 min 0,000 mm 3,2 UV-I 461 W/m² 8,0 °C 13,1 °C 4,8 km/h (1 Bft)
06.05.2017 09:40 13,2 °C 13,2 °C 70 % 1011,1 hPa 0,0 mm 2,8 km/h (1 Bft) N-NO 26 ° 1 min 0,000 mm 2,8 UV-I 469 W/m² 7,9 °C 13,2 °C 3,2 km/h (1 Bft)
06.05.2017 09:41 13,2 °C 13,2 °C 69 % 1011,1 hPa 0,0 mm 0,2 km/h (0 Bft) N-NO 26 ° 1 min 0,000 mm 2,9 UV-I 348 W/m² 7,6 °C 13,2 °C 1,6 km/h (1 Bft)
06.05.2017 09:42 13,2 °C 13,2 °C 71 % 1011,1 hPa 0,0 mm 2,4 km/h (1 Bft) NO 49 ° 1 min 0,000 mm 3,1 UV-I 438 W/m² 8,1 °C 13,2 °C 4,8 km/h (1 Bft)
06.05.2017 09:43 13,1 °C 13,2 °C 71 % 1011,1 hPa 0,0 mm 4,0 km/h (1 Bft) N 360 ° 1 min 0,000 mm 3,2 UV-I 469 W/m² 8,0 °C 13,1 °C 6,4 km/h (2 Bft)
06.05.2017 09:44 13,1 °C 13,1 °C 69 % 1011,2 hPa 0,0 mm 4,4 km/h (1 Bft) N 10 ° 1 min 0,000 mm 3,1 UV-I 506 W/m² 7,5 °C 13,1 °C 6,4 km/h (2 Bft)
06.05.2017 09:45 13,1 °C 13,1 °C 68 % 1011,2 hPa 0,0 mm 2,5 km/h (1 Bft) N 10 ° 1 min 0,000 mm 3,4 UV-I 605 W/m² 7,3 °C 13,1 °C 3,2 km/h (1 Bft)
06.05.2017 09:46 13,1 °C 13,1 °C 69 % 1011,2 hPa 0,0 mm 3,2 km/h (1 Bft) N-NO 16 ° 1 min 0,000 mm 3,8 UV-I 622 W/m² 7,5 °C 13,1 °C 4,8 km/h (1 Bft)
06.05.2017 09:47 13,2 °C 13,2 °C 69 % 1011,1 hPa 0,0 mm 0,3 km/h (0 Bft) N 9 ° 1 min 0,000 mm 3,9 UV-I 645 W/m² 7,6 °C 13,2 °C 1,6 km/h (1 Bft)
06.05.2017 09:48 13,3 °C 13,3 °C 73 % 1011,1 hPa 0,0 mm 3,1 km/h (1 Bft) N 5 ° 1 min 0,000 mm 2,5 UV-I 645 W/m² 8,6 °C 13,3 °C 4,8 km/h (1 Bft)
06.05.2017 09:49 13,3 °C 13,3 °C 68 % 1011,1 hPa 0,0 mm 4,7 km/h (1 Bft) N 5 ° 1 min 0,000 mm 3,5 UV-I 645 W/m² 7,5 °C 13,3 °C 6,4 km/h (2 Bft)
06.05.2017 09:50 13,4 °C 13,4 °C 67 % 1011,1 hPa 0,0 mm 2,5 km/h (1 Bft) N 5 ° 1 min 0,000 mm 3,9 UV-I 645 W/m² 7,4 °C 13,4 °C 4,8 km/h (1 Bft)
06.05.2017 09:51 13,4 °C 13,4 °C 66 % 1011,1 hPa 0,0 mm 2,5 km/h (1 Bft) N 11 ° 1 min 0,000 mm 3,9 UV-I 663 W/m² 7,2 °C 13,4 °C 4,8 km/h (1 Bft)
06.05.2017 09:52 13,4 °C 13,4 °C 71 % 1011,1 hPa 0,0 mm 1,8 km/h (1 Bft) N 11 ° 1 min 0,000 mm 4,0 UV-I 649 W/m² 8,3 °C 13,4 °C 3,2 km/h (1 Bft)
06.05.2017 09:53 13,4 °C 13,4 °C 68 % 1011,0 hPa 0,0 mm 1,0 km/h (0 Bft) N 11 ° 1 min 0,000 mm 3,8 UV-I 638 W/m² 7,6 °C 13,4 °C 1,6 km/h (1 Bft)
06.05.2017 09:54 13,4 °C 13,4 °C 67 % 1011,1 hPa 0,0 mm 2,9 km/h (1 Bft) N-NO 15 ° 1 min 0,000 mm 3,8 UV-I 564 W/m² 7,4 °C 13,4 °C 4,8 km/h (1 Bft)
06.05.2017 09:55 13,4 °C 13,4 °C 68 % 1011,0 hPa 0,0 mm 2,1 km/h (1 Bft) N-NO 17 ° 1 min 0,000 mm 3,8 UV-I 617 W/m² 7,6 °C 13,4 °C 4,8 km/h (1 Bft)
06.05.2017 09:56 13,4 °C 13,4 °C 69 % 1011,0 hPa 0,0 mm 0,0 km/h (0 Bft) N-NO 17 ° 1 min 0,000 mm 3,9 UV-I 643 W/m² 7,8 °C 13,4 °C 0,0 km/h (0 Bft)
06.05.2017 09:57 13,6 °C 13,6 °C 73 % 1011,0 hPa 0,0 mm 0,5 km/h (0 Bft) N-NO 17 ° 1 min 0,000 mm 3,9 UV-I 631 W/m² 8,9 °C 13,6 °C 1,6 km/h (1 Bft)
06.05.2017 09:58 13,6 °C 13,7 °C 68 % 1011,0 hPa 0,0 mm 1,1 km/h (1 Bft) N-NO 17 ° 1 min 0,000 mm 3,4 UV-I 599 W/m² 7,8 °C 13,6 °C 3,2 km/h (1 Bft)
06.05.2017 09:59 13,6 °C 13,6 °C 68 % 1011,0 hPa 0,0 mm 0,5 km/h (0 Bft) N-NO 17 ° 1 min 0,000 mm 3,7 UV-I 584 W/m² 7,8 °C 13,6 °C 1,6 km/h (1 Bft)
06.05.2017 10:00 13,5 °C 13,6 °C 68 % 1011,0 hPa 0,0 mm 0,7 km/h (0 Bft) N-NO 17 ° 1 min 0,254 mm 4,0 UV-I 622 W/m² 7,7 °C 13,5 °C 1,6 km/h (1 Bft)
06.05.2017 10:01 13,6 °C 13,6 °C 69 % 1011,0 hPa 0,0 mm 0,1 km/h (0 Bft) N-NO 17 ° 1 min 0,000 mm 4,1 UV-I 677 W/m² 8,0 °C 13,6 °C 1,6 km/h (1 Bft)
06.05.2017 10:02 13,8 °C 13,8 °C 71 % 1011,0 hPa 0,0 mm 0,1 km/h (0 Bft) N-NO 17 ° 1 min 0,000 mm 4,2 UV-I 701 W/m² 8,6 °C 13,8 °C 1,6 km/h (1 Bft)
06.05.2017 10:03 14,1 °C 14,1 °C 70 % 1011,0 hPa 0,0 mm 2,4 km/h (1 Bft) N 360 ° 1 min 0,000 mm 4,3 UV-I 721 W/m² 8,7 °C 14,1 °C 4,8 km/h (1 Bft)
06.05.2017 10:04 14,2 °C 14,2 °C 70 % 1011,0 hPa 0,0 mm 4,3 km/h (1 Bft) N-NW 328 ° 1 min 0,000 mm 4,2 UV-I 679 W/m² 8,8 °C 14,2 °C 6,4 km/h (2 Bft)
06.05.2017 10:05 14,2 °C 14,3 °C 69 % 1011,0 hPa 0,0 mm 3,7 km/h (1 Bft) W-NW 299 ° 1 min 0,000 mm 4,4 UV-I 710 W/m² 8,6 °C 14,2 °C 4,8 km/h (1 Bft)
06.05.2017 10:06 14,2 °C 14,3 °C 68 % 1011,0 hPa 0,0 mm 4,3 km/h (1 Bft) W-NW 298 ° 1 min 0,000 mm 4,4 UV-I 738 W/m² 8,4 °C 14,2 °C 11,3 km/h (2 Bft)
06.05.2017 10:07 14,3 °C 14,3 °C 70 % 1011,0 hPa 0,0 mm 7,8 km/h (2 Bft) N-NW 338 ° 1 min 0,000 mm 4,1 UV-I 737 W/m² 8,9 °C 14,3 °C 11,3 km/h (2 Bft)
06.05.2017 10:08 14,3 °C 14,3 °C 71 % 1011,0 hPa 0,0 mm 7,7 km/h (2 Bft) NW 317 ° 1 min 0,000 mm 3,9 UV-I 737 W/m² 9,1 °C 14,3 °C 9,7 km/h (2 Bft)
06.05.2017 10:09 14,3 °C 14,3 °C 67 % 1011,0 hPa 0,0 mm 6,6 km/h (2 Bft) NW 312 ° 1 min 0,000 mm 3,9 UV-I 587 W/m² 8,3 °C 14,3 °C 8,0 km/h (2 Bft)
06.05.2017 10:10 14,3 °C 14,3 °C 68 % 1011,0 hPa 0,0 mm 4,3 km/h (1 Bft) NW 315 ° 1 min 0,000 mm 3,4 UV-I 485 W/m² 8,5 °C 14,3 °C 6,4 km/h (2 Bft)
06.05.2017 10:11 14,3 °C 14,3 °C 69 % 1011,0 hPa 0,0 mm 6,0 km/h (2 Bft) N-NW 327 ° 1 min 0,000 mm 3,2 UV-I 429 W/m² 8,7 °C 14,3 °C 9,7 km/h (2 Bft)
06.05.2017 10:12 14,2 °C 14,3 °C 69 % 1011,0 hPa 0,0 mm 5,4 km/h (1 Bft) NW 304 ° 1 min 0,000 mm 3,1 UV-I 483 W/m² 8,6 °C 14,2 °C 11,3 km/h (2 Bft)
06.05.2017 10:13 14,2 °C 14,2 °C 66 % 1010,9 hPa 0,0 mm 6,2 km/h (2 Bft) NW 310 ° 1 min 0,000 mm 3,1 UV-I 483 W/m² 7,9 °C 14,2 °C 8,0 km/h (2 Bft)
06.05.2017 10:14 14,1 °C 14,2 °C 69 % 1011,0 hPa 0,0 mm 4,9 km/h (1 Bft) N-NW 328 ° 1 min 0,000 mm 2,8 UV-I 381 W/m² 8,5 °C 14,1 °C 6,4 km/h (2 Bft)
06.05.2017 10:15 14,1 °C 14,1 °C 68 % 1011,0 hPa 0,0 mm 4,4 km/h (1 Bft) NW 321 ° 1 min 0,000 mm 2,8 UV-I 306 W/m² 8,3 °C 14,1 °C 6,4 km/h (2 Bft)
06.05.2017 10:16 13,9 °C 14,1 °C 68 % 1011,0 hPa 0,0 mm 3,3 km/h (1 Bft) NW 316 ° 1 min 0,000 mm 2,7 UV-I 352 W/m² 8,1 °C 13,9 °C 6,4 km/h (2 Bft)
06.05.2017 10:17 13,9 °C 13,9 °C 68 % 1010,9 hPa 0,0 mm 4,8 km/h (1 Bft) NW 305 ° 1 min 0,000 mm 3,0 UV-I 366 W/m² 8,1 °C 13,9 °C 6,4 km/h (2 Bft)
06.05.2017 10:18 13,8 °C 13,9 °C 69 % 1010,9 hPa 0,0 mm 3,3 km/h (1 Bft) NW 305 ° 1 min 0,000 mm 3,3 UV-I 434 W/m² 8,2 °C 13,8 °C 4,8 km/h (1 Bft)
06.05.2017 10:19 13,8 °C 13,8 °C 68 % 1010,9 hPa 0,0 mm 2,6 km/h (1 Bft) NW 305 ° 1 min 0,000 mm 3,1 UV-I 350 W/m² 8,0 °C 13,8 °C 3,2 km/h (1 Bft)
06.05.2017 10:20 13,8 °C 13,8 °C 68 % 1010,9 hPa 0,0 mm 3,2 km/h (1 Bft) NW 305 ° 1 min 0,000 mm 4,1 UV-I 350 W/m² 8,0 °C 13,8 °C 4,8 km/h (1 Bft)
06.05.2017 10:21 13,9 °C 13,9 °C 69 % 1011,0 hPa 0,0 mm 4,9 km/h (1 Bft) NW 323 ° 1 min 0,000 mm 4,0 UV-I 552 W/m² 8,3 °C 13,9 °C 6,4 km/h (2 Bft)
06.05.2017 10:22 14,1 °C 14,1 °C 72 % 1011,0 hPa 0,0 mm 4,0 km/h (1 Bft) W-NW 292 ° 1 min 0,000 mm 4,0 UV-I 661 W/m² 9,1 °C 14,1 °C 6,4 km/h (2 Bft)
06.05.2017 10:23 14,2 °C 14,2 °C 68 % 1011,0 hPa 0,0 mm 5,7 km/h (1 Bft) NW 305 ° 1 min 0,000 mm 4,6 UV-I 728 W/m² 8,4 °C 14,2 °C 8,0 km/h (2 Bft)
06.05.2017 10:24 14,3 °C 14,3 °C 70 % 1011,0 hPa 0,0 mm 4,0 km/h (1 Bft) NW 321 ° 1 min 0,000 mm 4,7 UV-I 728 W/m² 8,9 °C 14,3 °C 6,4 km/h (2 Bft)
06.05.2017 10:25 14,3 °C 14,3 °C 69 % 1011,0 hPa 0,0 mm 6,6 km/h (2 Bft) NW 320 ° 1 min 0,000 mm 4,8 UV-I 754 W/m² 8,7 °C 14,3 °C 8,0 km/h (2 Bft)
06.05.2017 10:26 14,6 °C 14,6 °C 67 % 1011,0 hPa 0,0 mm 4,5 km/h (1 Bft) N-NW 346 ° 1 min 0,000 mm 4,6 UV-I 747 W/m² 8,5 °C 14,6 °C 8,0 km/h (2 Bft)
06.05.2017 10:27 14,7 °C 14,7 °C 66 % 1011,0 hPa 0,0 mm 4,7 km/h (1 Bft) N-NW 329 ° 1 min 0,000 mm 4,2 UV-I 747 W/m² 8,4 °C 14,7 °C 9,7 km/h (2 Bft)
06.05.2017 10:28 14,7 °C 14,7 °C 65 % 1011,0 hPa 0,0 mm 4,4 km/h (1 Bft) W-NW 302 ° 1 min 0,000 mm 4,5 UV-I 700 W/m² 8,2 °C 14,7 °C 6,4 km/h (2 Bft)
06.05.2017 10:29 14,7 °C 14,8 °C 64 % 1011,0 hPa 0,0 mm 5,1 km/h (1 Bft) NW 304 ° 1 min 0,000 mm 3,8 UV-I 420 W/m² 8,0 °C 14,7 °C 8,0 km/h (2 Bft)
06.05.2017 10:30 14,6 °C 14,7 °C 62 % 1011,0 hPa 0,0 mm 1,5 km/h (1 Bft) NW 312 ° 1 min 0,000 mm 3,6 UV-I 469 W/m² 7,4 °C 14,6 °C 4,8 km/h (1 Bft)
06.05.2017 10:31 14,4 °C 14,6 °C 66 % 1011,0 hPa 0,0 mm 2,1 km/h (1 Bft) NW 313 ° 1 min 0,000 mm 3,6 UV-I 520 W/m² 8,1 °C 14,4 °C 6,4 km/h (2 Bft)
06.05.2017 10:32 14,4 °C 14,4 °C 63 % 1011,0 hPa 0,0 mm 4,6 km/h (1 Bft) W-NW 302 ° 1 min 0,000 mm 3,5 UV-I 496 W/m² 7,4 °C 14,4 °C 6,4 km/h (2 Bft)
06.05.2017 10:33 14,3 °C 14,4 °C 61 % 1011,0 hPa 0,0 mm 2,1 km/h (1 Bft) W-NW 302 ° 1 min 0,000 mm 3,3 UV-I 404 W/m² 6,9 °C 14,3 °C 4,8 km/h (1 Bft)
06.05.2017 10:34 14,2 °C 14,3 °C 64 % 1011,0 hPa 0,0 mm 1,4 km/h (1 Bft) W-NW 302 ° 1 min 0,000 mm 3,2 UV-I 374 W/m² 7,5 °C 14,2 °C 3,2 km/h (1 Bft)
06.05.2017 10:35 14,2 °C 14,2 °C 63 % 1010,9 hPa 0,0 mm 2,9 km/h (1 Bft) W-NW 302 ° 1 min 0,000 mm 4,2 UV-I 374 W/m² 7,3 °C 14,2 °C 4,8 km/h (1 Bft)
06.05.2017 10:36 14,3 °C 14,3 °C 63 % 1010,9 hPa 0,0 mm 4,0 km/h (1 Bft) N-NW 327 ° 1 min 0,000 mm 4,0 UV-I 601 W/m² 7,4 °C 14,3 °C 6,4 km/h (2 Bft)
06.05.2017 10:37 14,5 °C 14,5 °C 68 % 1011,0 hPa 0,0 mm 3,6 km/h (1 Bft) N-NW 327 ° 1 min 0,000 mm 4,2 UV-I 613 W/m² 8,7 °C 14,5 °C 4,8 km/h (1 Bft)
06.05.2017 10:38 14,6 °C 14,6 °C 62 % 1011,0 hPa 0,0 mm 2,8 km/h (1 Bft) N-NW 328 ° 1 min 0,000 mm 4,0 UV-I 534 W/m² 7,4 °C 14,6 °C 4,8 km/h (1 Bft)
06.05.2017 10:39 14,6 °C 14,7 °C 62 % 1011,0 hPa 0,0 mm 3,5 km/h (1 Bft) N 355 ° 1 min 0,000 mm 3,8 UV-I 487 W/m² 7,4 °C 14,6 °C 4,8 km/h (1 Bft)
06.05.2017 10:40 14,7 °C 14,7 °C 63 % 1011,0 hPa 0,0 mm 4,0 km/h (1 Bft) N 355 ° 1 min 0,000 mm 4,2 UV-I 568 W/m² 7,7 °C 14,7 °C 4,8 km/h (1 Bft)
06.05.2017 10:41 14,7 °C 14,7 °C 64 % 1011,0 hPa 0,0 mm 2,9 km/h (1 Bft) N 9 ° 1 min 0,000 mm 3,9 UV-I 531 W/m² 8,0 °C 14,7 °C 4,8 km/h (1 Bft)
06.05.2017 10:42 14,7 °C 14,7 °C 68 % 1011,0 hPa 0,0 mm 1,7 km/h (1 Bft) N 9 ° 1 min 0,000 mm 3,8 UV-I 499 W/m² 8,9 °C 14,7 °C 3,2 km/h (1 Bft)
06.05.2017 10:43 14,8 °C 14,8 °C 63 % 1011,0 hPa 0,0 mm 0,0 km/h (0 Bft) N 9 ° 1 min 0,000 mm 3,8 UV-I 501 W/m² 7,8 °C 14,8 °C 0,0 km/h (0 Bft)
06.05.2017 10:44 14,7 °C 14,8 °C 63 % 1010,9 hPa 0,0 mm 0,1 km/h (0 Bft) N 9 ° 1 min 0,000 mm 4,1 UV-I 554 W/m² 7,7 °C 14,7 °C 1,6 km/h (1 Bft)
06.05.2017 10:45 14,8 °C 14,8 °C 65 % 1010,9 hPa 0,0 mm 3,3 km/h (1 Bft) N 5 ° 1 min 0,000 mm 4,1 UV-I 489 W/m² 8,3 °C 14,8 °C 6,4 km/h (2 Bft)
06.05.2017 10:46 14,9 °C 14,9 °C 65 % 1010,9 hPa 0,0 mm 3,9 km/h (1 Bft) NO 47 ° 1 min 0,000 mm 3,8 UV-I 496 W/m² 8,4 °C 14,9 °C 6,4 km/h (2 Bft)
06.05.2017 10:47 15,0 °C 15,0 °C 64 % 1010,9 hPa 0,0 mm 4,3 km/h (1 Bft) NO 38 ° 1 min 0,000 mm 4,2 UV-I 585 W/m² 8,2 °C 15,0 °C 8,0 km/h (2 Bft)
06.05.2017 10:48 14,9 °C 15,0 °C 62 % 1010,9 hPa 0,0 mm 0,2 km/h (0 Bft) NO 38 ° 1 min 0,000 mm 4,4 UV-I 615 W/m² 7,7 °C 14,9 °C 1,6 km/h (1 Bft)
06.05.2017 10:49 14,8 °C 14,9 °C 61 % 1010,9 hPa 0,0 mm 2,1 km/h (1 Bft) O 82 ° 1 min 0,000 mm 4,2 UV-I 603 W/m² 7,4 °C 14,8 °C 3,2 km/h (1 Bft)
06.05.2017 10:50 14,7 °C 14,8 °C 62 % 1010,8 hPa 0,0 mm 2,5 km/h (1 Bft) O-NO 72 ° 1 min 0,000 mm 3,7 UV-I 504 W/m² 7,5 °C 14,7 °C 3,2 km/h (1 Bft)
06.05.2017 10:51 14,7 °C 14,8 °C 63 % 1010,8 hPa 0,0 mm 1,5 km/h (1 Bft) O-NO 72 ° 1 min 0,000 mm 3,4 UV-I 424 W/m² 7,7 °C 14,7 °C 4,8 km/h (1 Bft)
06.05.2017 10:52 14,8 °C 14,8 °C 64 % 1010,9 hPa 0,0 mm 2,9 km/h (1 Bft) O-NO 72 ° 1 min 0,000 mm 3,6 UV-I 438 W/m² 8,1 °C 14,8 °C 4,8 km/h (1 Bft)
06.05.2017 10:53 14,8 °C 14,8 °C 66 % 1010,8 hPa 0,0 mm 3,4 km/h (1 Bft) O-NO 71 ° 1 min 0,000 mm 3,6 UV-I 485 W/m² 8,5 °C 14,8 °C 4,8 km/h (1 Bft)
06.05.2017 10:54 14,8 °C 14,8 °C 61 % 1010,8 hPa 0,0 mm 4,2 km/h (1 Bft) O-NO 71 ° 1 min 0,000 mm 3,4 UV-I 432 W/m² 7,4 °C 14,8 °C 4,8 km/h (1 Bft)
06.05.2017 10:55 14,8 °C 14,8 °C 61 % 1010,8 hPa 0,0 mm 2,1 km/h (1 Bft) O-NO 71 ° 1 min 0,000 mm 3,2 UV-I 424 W/m² 7,4 °C 14,8 °C 4,8 km/h (1 Bft)
06.05.2017 10:56 14,8 °C 14,8 °C 58 % 1010,8 hPa 0,0 mm 1,4 km/h (1 Bft) O-NO 71 ° 1 min 0,000 mm 3,1 UV-I 357 W/m² 6,6 °C 14,8 °C 3,2 km/h (1 Bft)
06.05.2017 10:57 14,8 °C 14,8 °C 60 % 1010,8 hPa 0,0 mm 1,5 km/h (1 Bft) O-NO 71 ° 1 min 0,000 mm 3,0 UV-I 366 W/m² 7,1 °C 14,8 °C 3,2 km/h (1 Bft)
06.05.2017 10:58 14,8 °C 14,8 °C 59 % 1010,8 hPa 0,0 mm 3,0 km/h (1 Bft) O-NO 71 ° 1 min 0,000 mm 3,4 UV-I 403 W/m² 6,9 °C 14,8 °C 6,4 km/h (2 Bft)
06.05.2017 10:59 14,8 °C 14,8 °C 58 % 1010,7 hPa 0,0 mm 1,5 km/h (1 Bft) O-NO 71 ° 1 min 0,000 mm 3,5 UV-I 427 W/m² 6,6 °C 14,8 °C 3,2 km/h (1 Bft)
06.05.2017 11:00 14,8 °C 14,8 °C 61 % 1010,7 hPa 0,0 mm 3,2 km/h (1 Bft) NO 37 ° 1 min 0,000 mm 3,8 UV-I 494 W/m² 7,4 °C 14,8 °C 4,8 km/h (1 Bft)
06.05.2017 11:01 14,8 °C 14,8 °C 59 % 1010,7 hPa 0,0 mm 5,2 km/h (1 Bft) N-NO 32 ° 1 min 0,279 mm 3,8 UV-I 471 W/m² 6,9 °C 14,8 °C 6,4 km/h (2 Bft)
06.05.2017 11:02 14,9 °C 14,9 °C 60 % 1010,7 hPa 0,0 mm 4,9 km/h (1 Bft) N-NO 31 ° 1 min 0,000 mm 4,0 UV-I 533 W/m² 7,2 °C 14,9 °C 6,4 km/h (2 Bft)
06.05.2017 11:03 14,9 °C 15,0 °C 63 % 1010,7 hPa 0,0 mm 2,3 km/h (1 Bft) N-NO 31 ° 1 min 0,000 mm 4,0 UV-I 552 W/m² 7,9 °C 14,9 °C 3,2 km/h (1 Bft)
06.05.2017 11:04 15,1 °C 15,1 °C 61 % 1010,7 hPa 0,0 mm 2,7 km/h (1 Bft) N-NO 31 ° 1 min 0,000 mm 4,4 UV-I 613 W/m² 7,6 °C 15,1 °C 3,2 km/h (1 Bft)
06.05.2017 11:05 15,2 °C 15,2 °C 64 % 1010,7 hPa 0,0 mm 2,4 km/h (1 Bft) N-NO 31 ° 1 min 0,000 mm 4,3 UV-I 599 W/m² 8,4 °C 15,2 °C 3,2 km/h (1 Bft)
06.05.2017 11:06 15,3 °C 15,3 °C 62 % 1010,6 hPa 0,0 mm 2,3 km/h (1 Bft) N-NO 31 ° 1 min 0,000 mm 4,3 UV-I 596 W/m² 8,1 °C 15,3 °C 3,2 km/h (1 Bft)
06.05.2017 11:07 15,3 °C 15,3 °C 62 % 1010,6 hPa 0,0 mm 1,0 km/h (0 Bft) N-NO 31 ° 1 min 0,000 mm 4,2 UV-I 589 W/m² 8,1 °C 15,3 °C 3,2 km/h (1 Bft)
06.05.2017 11:08 15,4 °C 15,4 °C 61 % 1010,6 hPa 0,0 mm 2,3 km/h (1 Bft) N-NO 29 ° 1 min 0,000 mm 4,1 UV-I 557 W/m² 7,9 °C 15,4 °C 3,2 km/h (1 Bft)
06.05.2017 11:09 15,4 °C 15,4 °C 63 % 1010,6 hPa 0,0 mm 2,6 km/h (1 Bft) N 355 ° 1 min 0,000 mm 3,9 UV-I 555 W/m² 8,4 °C 15,4 °C 4,8 km/h (1 Bft)
06.05.2017 11:10 15,5 °C 15,5 °C 64 % 1010,6 hPa 0,0 mm 3,4 km/h (1 Bft) N-NO 22 ° 1 min 0,000 mm 3,9 UV-I 526 W/m² 8,7 °C 15,5 °C 4,8 km/h (1 Bft)
06.05.2017 11:11 15,6 °C 15,6 °C 61 % 1010,6 hPa 0,0 mm 1,5 km/h (1 Bft) N-NO 22 ° 1 min 0,000 mm 3,8 UV-I 503 W/m² 8,1 °C 15,6 °C 3,2 km/h (1 Bft)
06.05.2017 11:12 15,5 °C 15,6 °C 60 % 1010,5 hPa 0,0 mm 2,5 km/h (1 Bft) NO 44 ° 1 min 0,000 mm 3,7 UV-I 480 W/m² 7,8 °C 15,5 °C 4,8 km/h (1 Bft)
06.05.2017 11:13 15,4 °C 15,5 °C 60 % 1010,5 hPa 0,0 mm 3,8 km/h (1 Bft) NO 44 ° 1 min 0,000 mm 3,8 UV-I 494 W/m² 7,7 °C 15,4 °C 6,4 km/h (2 Bft)
06.05.2017 11:14 15,4 °C 15,4 °C 59 % 1010,5 hPa 0,0 mm 4,7 km/h (1 Bft) NO 40 ° 1 min 0,000 mm 3,8 UV-I 489 W/m² 7,4 °C 15,4 °C 8,0 km/h (2 Bft)
06.05.2017 11:15 15,4 °C 15,4 °C 59 % 1010,5 hPa 0,0 mm 4,7 km/h (1 Bft) NO 44 ° 1 min 0,000 mm 3,7 UV-I 489 W/m² 7,4 °C 15,4 °C 6,4 km/h (2 Bft)
06.05.2017 11:16 15,4 °C 15,5 °C 64 % 1010,5 hPa 0,0 mm 2,9 km/h (1 Bft) NO 46 ° 1 min 0,000 mm 3,7 UV-I 483 W/m² 8,6 °C 15,4 °C 4,8 km/h (1 Bft)
06.05.2017 11:17 15,4 °C 15,5 °C 60 % 1010,4 hPa 0,0 mm 2,3 km/h (1 Bft) NO 46 ° 1 min 0,000 mm 3,6 UV-I 489 W/m² 7,7 °C 15,4 °C 3,2 km/h (1 Bft)
06.05.2017 11:18 15,5 °C 15,5 °C 61 % 1010,4 hPa 0,0 mm 4,4 km/h (1 Bft) N-NO 21 ° 1 min 0,000 mm 3,3 UV-I 425 W/m² 8,0 °C 15,5 °C 6,4 km/h (2 Bft)
06.05.2017 11:19 15,6 °C 15,6 °C 63 % 1010,5 hPa 0,0 mm 4,0 km/h (1 Bft) N 11 ° 1 min 0,000 mm 3,2 UV-I 399 W/m² 8,6 °C 15,6 °C 6,4 km/h (2 Bft)
06.05.2017 11:20 15,7 °C 15,7 °C 63 % 1010,4 hPa 0,0 mm 3,1 km/h (1 Bft) N-NW 332 ° 1 min 0,000 mm 3,1 UV-I 383 W/m² 8,7 °C 15,7 °C 6,4 km/h (2 Bft)
06.05.2017 11:21 15,8 °C 15,8 °C 63 % 1010,4 hPa 0,0 mm 5,8 km/h (2 Bft) N-NO 21 ° 1 min 0,000 mm 3,2 UV-I 388 W/m² 8,8 °C 15,8 °C 8,0 km/h (2 Bft)
06.05.2017 11:22 15,8 °C 15,8 °C 62 % 1010,4 hPa 0,0 mm 4,8 km/h (1 Bft) N 11 ° 1 min 0,000 mm 3,2 UV-I 387 W/m² 8,5 °C 15,8 °C 8,0 km/h (2 Bft)
06.05.2017 11:23 15,7 °C 15,8 °C 62 % 1010,4 hPa 0,0 mm 5,0 km/h (1 Bft) N-NW 345 ° 1 min 0,000 mm 3,3 UV-I 401 W/m² 8,4 °C 15,7 °C 6,4 km/h (2 Bft)
06.05.2017 11:24 15,7 °C 15,7 °C 61 % 1010,4 hPa 0,0 mm 5,4 km/h (1 Bft) N 9 ° 1 min 0,000 mm 3,2 UV-I 397 W/m² 8,2 °C 15,7 °C 6,4 km/h (2 Bft)
06.05.2017 11:25 15,7 °C 15,7 °C 60 % 1010,5 hPa 0,0 mm 5,5 km/h (1 Bft) N 350 ° 1 min 0,000 mm 3,3 UV-I 397 W/m² 8,0 °C 15,7 °C 8,0 km/h (2 Bft)
06.05.2017 11:26 15,7 °C 15,7 °C 62 % 1010,5 hPa 0,0 mm 4,0 km/h (1 Bft) N 350 ° 1 min 0,000 mm 3,3 UV-I 404 W/m² 8,4 °C 15,7 °C 6,4 km/h (2 Bft)
06.05.2017 11:27 15,7 °C 15,7 °C 63 % 1010,5 hPa 0,0 mm 4,1 km/h (1 Bft) N 5 ° 1 min 0,000 mm 3,4 UV-I 427 W/m² 8,7 °C 15,7 °C 6,4 km/h (2 Bft)
06.05.2017 11:28 15,5 °C 15,7 °C 60 % 1010,5 hPa 0,0 mm 2,3 km/h (1 Bft) N 5 ° 1 min 0,000 mm 3,4 UV-I 427 W/m² 7,8 °C 15,5 °C 3,2 km/h (1 Bft)
06.05.2017 11:29 15,4 °C 15,5 °C 61 % 1010,4 hPa 0,0 mm 2,5 km/h (1 Bft) NW 323 ° 1 min 0,000 mm 3,5 UV-I 446 W/m² 7,9 °C 15,4 °C 4,8 km/h (1 Bft)
06.05.2017 11:30 15,5 °C 15,5 °C 63 % 1010,5 hPa 0,0 mm 5,2 km/h (1 Bft) W-NW 294 ° 1 min 0,000 mm 3,5 UV-I 445 W/m² 8,5 °C 15,5 °C 6,4 km/h (2 Bft)
06.05.2017 11:31 15,5 °C 15,5 °C 64 % 1010,5 hPa 0,0 mm 4,1 km/h (1 Bft) N-NW 331 ° 1 min 0,000 mm 3,5 UV-I 455 W/m² 8,7 °C 15,5 °C 6,4 km/h (2 Bft)
06.05.2017 11:32 15,5 °C 15,5 °C 63 % 1010,5 hPa 0,0 mm 5,2 km/h (1 Bft) N-NW 331 ° 1 min 0,000 mm 3,6 UV-I 485 W/m² 8,5 °C 15,5 °C 9,7 km/h (2 Bft)
06.05.2017 11:33 15,5 °C 15,5 °C 64 % 1010,4 hPa 0,0 mm 6,8 km/h (2 Bft) NW 313 ° 1 min 0,000 mm 3,6 UV-I 469 W/m² 8,7 °C 15,5 °C 9,7 km/h (2 Bft)
06.05.2017 11:34 15,6 °C 15,6 °C 66 % 1010,4 hPa 0,0 mm 6,8 km/h (2 Bft) NW 312 ° 1 min 0,000 mm 3,7 UV-I 457 W/m² 9,3 °C 15,6 °C 9,7 km/h (2 Bft)
06.05.2017 11:35 15,6 °C 15,6 °C 64 % 1010,4 hPa 0,0 mm 2,6 km/h (1 Bft) NW 325 ° 1 min 0,000 mm 3,6 UV-I 459 W/m² 8,8 °C 15,6 °C 4,8 km/h (1 Bft)
06.05.2017 11:36 15,6 °C 15,6 °C 64 % 1010,3 hPa 0,0 mm 3,9 km/h (1 Bft) NW 306 ° 1 min 0,000 mm 3,7 UV-I 473 W/m² 8,8 °C 15,6 °C 8,0 km/h (2 Bft)
06.05.2017 11:37 15,6 °C 15,6 °C 64 % 1010,3 hPa 0,0 mm 5,6 km/h (1 Bft) W-NW 298 ° 1 min 0,000 mm 3,8 UV-I 497 W/m² 8,8 °C 15,6 °C 8,0 km/h (2 Bft)
06.05.2017 11:38 15,6 °C 15,7 °C 63 % 1010,3 hPa 0,0 mm 4,9 km/h (1 Bft) NW 323 ° 1 min 0,000 mm 3,7 UV-I 466 W/m² 8,6 °C 15,6 °C 8,0 km/h (2 Bft)
06.05.2017 11:39 15,6 °C 15,7 °C 62 % 1010,3 hPa 0,0 mm 5,0 km/h (1 Bft) NW 323 ° 1 min 0,000 mm 3,4 UV-I 438 W/m² 8,3 °C 15,6 °C 8,0 km/h (2 Bft)
06.05.2017 11:40 15,6 °C 15,6 °C 65 % 1010,3 hPa 0,0 mm 5,5 km/h (1 Bft) N 360 ° 1 min 0,000 mm 3,4 UV-I 403 W/m² 9,0 °C 15,6 °C 8,0 km/h (2 Bft)
06.05.2017 11:41 15,7 °C 15,7 °C 64 % 1010,4 hPa 0,0 mm 4,2 km/h (1 Bft) N-NW 340 ° 1 min 0,000 mm 3,3 UV-I 390 W/m² 8,9 °C 15,7 °C 8,0 km/h (2 Bft)
06.05.2017 11:42 15,7 °C 15,7 °C 66 % 1010,3 hPa 0,0 mm 3,0 km/h (1 Bft) N-NW 340 ° 1 min 0,000 mm 3,3 UV-I 390 W/m² 9,4 °C 15,7 °C 4,8 km/h (1 Bft)
06.05.2017 11:44 15,8 °C 15,8 °C 62 % 1010,3 hPa 0,0 mm 3,7 km/h (1 Bft) N-NW 337 ° 2 min 0,000 mm 3,3 UV-I 397 W/m² 8,5 °C 15,8 °C 6,4 km/h (2 Bft)
06.05.2017 11:45 15,7 °C 15,8 °C 63 % 1010,3 hPa 0,0 mm 3,8 km/h (1 Bft) N-NW 331 ° 1 min 0,000 mm 3,3 UV-I 397 W/m² 8,7 °C 15,7 °C 6,4 km/h (2 Bft)
06.05.2017 11:46 15,8 °C 15,8 °C 64 % 1010,3 hPa 0,0 mm 4,6 km/h (1 Bft) NW 325 ° 1 min 0,000 mm 3,3 UV-I 399 W/m² 9,0 °C 15,8 °C 6,4 km/h (2 Bft)
06.05.2017 11:47 15,8 °C 15,8 °C 62 % 1010,3 hPa 0,0 mm 5,2 km/h (1 Bft) NW 317 ° 1 min 0,000 mm 3,3 UV-I 392 W/m² 8,5 °C 15,8 °C 8,0 km/h (2 Bft)
06.05.2017 11:48 15,6 °C 15,8 °C 62 % 1010,2 hPa 0,0 mm 4,1 km/h (1 Bft) NW 312 ° 1 min 0,000 mm 3,2 UV-I 383 W/m² 8,3 °C 15,6 °C 6,4 km/h (2 Bft)
06.05.2017 11:49 15,6 °C 15,6 °C 61 % 1010,2 hPa 0,0 mm 5,5 km/h (1 Bft) NW 317 ° 1 min 0,000 mm 3,2 UV-I 374 W/m² 8,1 °C 15,6 °C 8,0 km/h (2 Bft)
06.05.2017 11:50 15,5 °C 15,6 °C 62 % 1010,3 hPa 0,0 mm 5,8 km/h (2 Bft) NW 317 ° 1 min 0,000 mm 3,2 UV-I 360 W/m² 8,3 °C 15,5 °C 8,0 km/h (2 Bft)
06.05.2017 11:51 15,5 °C 15,6 °C 63 % 1010,2 hPa 0,0 mm 4,0 km/h (1 Bft) NW 317 ° 1 min 0,000 mm 3,1 UV-I 352 W/m² 8,5 °C 15,5 °C 6,4 km/h (2 Bft)
06.05.2017 11:52 15,4 °C 15,5 °C 62 % 1010,2 hPa 0,0 mm 3,1 km/h (1 Bft) NW 319 ° 1 min 0,000 mm 3,0 UV-I 339 W/m² 8,2 °C 15,4 °C 4,8 km/h (1 Bft)
06.05.2017 11:53 15,4 °C 15,4 °C 62 % 1010,2 hPa 0,0 mm 3,1 km/h (1 Bft) N 5 ° 1 min 0,000 mm 3,0 UV-I 327 W/m² 8,2 °C 15,4 °C 6,4 km/h (2 Bft)
06.05.2017 11:54 15,4 °C 15,4 °C 63 % 1010,2 hPa 0,0 mm 2,4 km/h (1 Bft) N 355 ° 1 min 0,000 mm 2,9 UV-I 316 W/m² 8,4 °C 15,4 °C 3,2 km/h (1 Bft)
06.05.2017 11:55 15,4 °C 15,4 °C 64 % 1010,2 hPa 0,0 mm 2,9 km/h (1 Bft) N 355 ° 1 min 0,000 mm 2,9 UV-I 311 W/m² 8,6 °C 15,4 °C 4,8 km/h (1 Bft)
06.05.2017 11:56 15,4 °C 15,4 °C 63 % 1010,2 hPa 0,0 mm 3,6 km/h (1 Bft) N 355 ° 1 min 0,000 mm 2,9 UV-I 315 W/m² 8,4 °C 15,4 °C 4,8 km/h (1 Bft)
06.05.2017 11:57 15,4 °C 15,4 °C 62 % 1010,2 hPa 0,0 mm 3,9 km/h (1 Bft) N-NO 13 ° 1 min 0,000 mm 3,0 UV-I 325 W/m² 8,2 °C 15,4 °C 4,8 km/h (1 Bft)
06.05.2017 11:58 15,3 °C 15,4 °C 60 % 1010,1 hPa 0,0 mm 1,4 km/h (1 Bft) N-NO 13 ° 1 min 0,000 mm 3,1 UV-I 345 W/m² 7,6 °C 15,3 °C 4,8 km/h (1 Bft)
06.05.2017 11:59 15,3 °C 15,3 °C 61 % 1010,2 hPa 0,0 mm 1,9 km/h (1 Bft) N-NO 28 ° 1 min 0,000 mm 3,2 UV-I 359 W/m² 7,8 °C 15,3 °C 4,8 km/h (1 Bft)
06.05.2017 12:00 15,3 °C 15,3 °C 62 % 1010,2 hPa 0,0 mm 3,6 km/h (1 Bft) N-NW 340 ° 1 min 0,254 mm 3,2 UV-I 371 W/m² 8,1 °C 15,3 °C 8,0 km/h (2 Bft)
06.05.2017 12:01 15,3 °C 15,3 °C 66 % 1010,1 hPa 0,0 mm 3,1 km/h (1 Bft) N 5 ° 1 min 0,000 mm 3,1 UV-I 359 W/m² 9,0 °C 15,3 °C 4,8 km/h (1 Bft)
06.05.2017 12:02 15,4 °C 15,4 °C 63 % 1010,1 hPa 0,0 mm 2,8 km/h (1 Bft) N-NO 12 ° 1 min 0,000 mm 3,1 UV-I 359 W/m² 8,4 °C 15,4 °C 4,8 km/h (1 Bft)
06.05.2017 12:04 15,4 °C 15,4 °C 59 % 1010,0 hPa 0,0 mm 4,1 km/h (1 Bft) N-NW 327 ° 2 min 0,000 mm 2,9 UV-I 334 W/m² 7,4 °C 15,4 °C 6,4 km/h (2 Bft)
06.05.2017 12:05 15,4 °C 15,4 °C 61 % 1010,0 hPa 0,0 mm 1,5 km/h (1 Bft) N-NW 327 ° 1 min 0,000 mm 2,9 UV-I 329 W/m² 7,9 °C 15,4 °C 1,6 km/h (1 Bft)
06.05.2017 12:06 15,4 °C 15,4 °C 63 % 1009,9 hPa 0,0 mm 2,0 km/h (1 Bft) N-NW 327 ° 1 min 0,000 mm 2,9 UV-I 327 W/m² 8,4 °C 15,4 °C 3,2 km/h (1 Bft)
06.05.2017 12:07 15,3 °C 15,4 °C 59 % 1009,9 hPa 0,0 mm 1,1 km/h (1 Bft) N-NW 327 ° 1 min 0,000 mm 2,9 UV-I 334 W/m² 7,3 °C 15,3 °C 1,6 km/h (1 Bft)
06.05.2017 12:08 15,3 °C 15,4 °C 61 % 1009,9 hPa 0,0 mm 0,5 km/h (0 Bft) N-NW 327 ° 1 min 0,000 mm 2,9 UV-I 334 W/m² 7,8 °C 15,3 °C 1,6 km/h (1 Bft)
06.05.2017 12:09 15,3 °C 15,3 °C 61 % 1009,9 hPa 0,0 mm 0,6 km/h (0 Bft) N-NW 327 ° 1 min 0,000 mm 2,9 UV-I 336 W/m² 7,8 °C 15,3 °C 1,6 km/h (1 Bft)
06.05.2017 12:10 15,3 °C 15,3 °C 62 % 1009,9 hPa 0,0 mm 0,0 km/h (0 Bft) N-NW 327 ° 1 min 0,000 mm 2,9 UV-I 338 W/m² 8,1 °C 15,3 °C 0,0 km/h (0 Bft)
06.05.2017 12:11 15,3 °C 15,3 °C 59 % 1009,8 hPa 0,0 mm 0,0 km/h (0 Bft) N-NW 327 ° 1 min 0,000 mm 2,9 UV-I 345 W/m² 7,3 °C 15,3 °C 0,0 km/h (0 Bft)
06.05.2017 12:12 15,2 °C 15,3 °C 61 % 1009,8 hPa 0,0 mm 0,0 km/h (0 Bft) N-NW 327 ° 1 min 0,000 mm 2,9 UV-I 346 W/m² 7,7 °C 15,2 °C 0,0 km/h (0 Bft)
06.05.2017 12:13 15,2 °C 15,2 °C 61 % 1009,8 hPa 0,0 mm 0,2 km/h (0 Bft) N-NW 327 ° 1 min 0,000 mm 2,9 UV-I 338 W/m² 7,7 °C 15,2 °C 1,6 km/h (1 Bft)
06.05.2017 12:14 15,3 °C 15,3 °C 64 % 1009,8 hPa 0,0 mm 2,8 km/h (1 Bft) N-NO 29 ° 1 min 0,000 mm 2,8 UV-I 334 W/m² 8,5 °C 15,3 °C 6,4 km/h (2 Bft)
06.05.2017 12:15 15,3 °C 15,3 °C 62 % 1009,8 hPa 0,0 mm 3,5 km/h (1 Bft) NO 36 ° 1 min 0,000 mm 2,8 UV-I 327 W/m² 8,1 °C 15,3 °C 4,8 km/h (1 Bft)
06.05.2017 12:16 15,3 °C 15,3 °C 64 % 1009,8 hPa 0,0 mm 4,5 km/h (1 Bft) NO 51 ° 1 min 0,000 mm 2,7 UV-I 316 W/m² 8,5 °C 15,3 °C 6,4 km/h (2 Bft)
06.05.2017 12:17 15,4 °C 15,4 °C 64 % 1009,7 hPa 0,0 mm 4,7 km/h (1 Bft) O-NO 78 ° 1 min 0,000 mm 2,6 UV-I 316 W/m² 8,6 °C 15,4 °C 6,4 km/h (2 Bft)
06.05.2017 12:18 15,3 °C 15,4 °C 65 % 1009,7 hPa 0,0 mm 5,6 km/h (1 Bft) O 84 ° 1 min 0,000 mm 2,6 UV-I 295 W/m² 8,8 °C 15,3 °C 8,0 km/h (2 Bft)
06.05.2017 12:19 15,2 °C 15,3 °C 64 % 1009,7 hPa 0,0 mm 4,2 km/h (1 Bft) O 84 ° 0 min 0,000 mm 2,5 UV-I 288 W/m² 8,4 °C 15,2 °C 6,4 km/h (2 Bft)
06.05.2017 12:20 15,2 °C 15,2 °C 64 % 1009,6 hPa 0,0 mm 5,9 km/h (2 Bft) NO 42 ° 0 min 0,000 mm 2,6 UV-I 288 W/m² 8,4 °C 15,2 °C 8,0 km/h (2 Bft)
06.05.2017 12:21 15,1 °C 15,2 °C 65 % 1009,6 hPa 0,0 mm 5,1 km/h (1 Bft) O-NO 64 ° 1 min 0,000 mm 2,6 UV-I 294 W/m² 8,6 °C 15,1 °C 6,4 km/h (2 Bft)
06.05.2017 12:22 15,1 °C 15,2 °C 65 % 1009,6 hPa 0,0 mm 6,6 km/h (2 Bft) NO 55 ° 1 min 0,000 mm 2,6 UV-I 297 W/m² 8,6 °C 15,1 °C 8,0 km/h (2 Bft)
06.05.2017 12:23 15,1 °C 15,2 °C 64 % 1009,6 hPa 0,0 mm 4,2 km/h (1 Bft) NO 55 ° 1 min 0,000 mm 2,7 UV-I 308 W/m² 8,3 °C 15,1 °C 6,4 km/h (2 Bft)
06.05.2017 12:24 15,1 °C 15,2 °C 63 % 1009,6 hPa 0,0 mm 2,8 km/h (1 Bft) NO 55 ° 1 min 0,000 mm 2,8 UV-I 316 W/m² 8,1 °C 15,1 °C 3,2 km/h (1 Bft)
06.05.2017 12:25 15,0 °C 15,1 °C 65 % 1009,6 hPa 0,0 mm 2,7 km/h (1 Bft) O-NO 69 ° 1 min 0,000 mm 2,9 UV-I 338 W/m² 8,5 °C 15,0 °C 6,4 km/h (2 Bft)
06.05.2017 12:26 15,1 °C 15,1 °C 65 % 1009,5 hPa 0,0 mm 5,3 km/h (1 Bft) O-NO 75 ° 1 min 0,000 mm 3,0 UV-I 348 W/m² 8,6 °C 15,1 °C 6,4 km/h (2 Bft)
06.05.2017 12:27 15,1 °C 15,1 °C 66 % 1009,5 hPa 0,0 mm 6,7 km/h (2 Bft) O-NO 74 ° 1 min 0,000 mm 3,0 UV-I 350 W/m² 8,8 °C 15,1 °C 9,7 km/h (2 Bft)
06.05.2017 12:28 15,2 °C 15,2 °C 64 % 1009,5 hPa 0,0 mm 4,8 km/h (1 Bft) NO 54 ° 1 min 0,000 mm 3,0 UV-I 346 W/m² 8,4 °C 15,2 °C 6,4 km/h (2 Bft)
06.05.2017 12:29 15,1 °C 15,2 °C 64 % 1009,5 hPa 0,0 mm 5,7 km/h (1 Bft) O 86 ° 1 min 0,000 mm 2,9 UV-I 334 W/m² 8,3 °C 15,1 °C 8,0 km/h (2 Bft)
06.05.2017 12:30 15,1 °C 15,1 °C 65 % 1009,5 hPa 0,0 mm 5,2 km/h (1 Bft) O 86 ° 1 min 0,000 mm 2,8 UV-I 322 W/m² 8,6 °C 15,1 °C 6,4 km/h (2 Bft)
06.05.2017 12:31 15,1 °C 15,1 °C 65 % 1009,4 hPa 0,0 mm 3,8 km/h (1 Bft) NO 51 ° 1 min 0,000 mm 2,8 UV-I 308 W/m² 8,6 °C 15,1 °C 4,8 km/h (1 Bft)
06.05.2017 12:32 15,1 °C 15,1 °C 65 % 1009,4 hPa 0,0 mm 3,9 km/h (1 Bft) O-NO 59 ° 1 min 0,000 mm 2,6 UV-I 302 W/m² 8,6 °C 15,1 °C 4,8 km/h (1 Bft)
06.05.2017 12:33 15,1 °C 15,1 °C 65 % 1009,4 hPa 0,0 mm 5,4 km/h (1 Bft) O-NO 69 ° 1 min 0,000 mm 2,6 UV-I 295 W/m² 8,6 °C 15,1 °C 8,0 km/h (2 Bft)
06.05.2017 12:34 15,1 °C 15,1 °C 64 % 1009,4 hPa 0,0 mm 2,5 km/h (1 Bft) O-NO 69 ° 1 min 0,000 mm 2,6 UV-I 292 W/m² 8,3 °C 15,1 °C 4,8 km/h (1 Bft)
06.05.2017 12:35 15,1 °C 15,1 °C 64 % 1009,4 hPa 0,0 mm 4,3 km/h (1 Bft) O-NO 77 ° 0 min 0,000 mm 2,5 UV-I 288 W/m² 8,3 °C 15,1 °C 12,9 km/h (3 Bft)
06.05.2017 12:36 15,1 °C 15,1 °C 65 % 1009,3 hPa 0,0 mm 7,3 km/h (2 Bft) O-NO 74 ° 0 min 0,000 mm 2,5 UV-I 287 W/m² 8,6 °C 15,1 °C 9,7 km/h (2 Bft)
06.05.2017 12:37 15,1 °C 15,1 °C 64 % 1009,4 hPa 0,0 mm 4,1 km/h (1 Bft) O 83 ° 0 min 0,000 mm 2,5 UV-I 287 W/m² 8,3 °C 15,1 °C 8,0 km/h (2 Bft)
06.05.2017 12:38 15,1 °C 15,1 °C 65 % 1009,3 hPa 0,0 mm 1,3 km/h (1 Bft) O 83 ° 0 min 0,000 mm 2,5 UV-I 288 W/m² 8,6 °C 15,1 °C 4,8 km/h (1 Bft)
06.05.2017 12:39 15,1 °C 15,1 °C 66 % 1009,2 hPa 0,0 mm 4,2 km/h (1 Bft) NO 55 ° 1 min 0,000 mm 2,6 UV-I 299 W/m² 8,8 °C 15,1 °C 6,4 km/h (2 Bft)
06.05.2017 12:40 15,2 °C 15,2 °C 67 % 1009,2 hPa 0,0 mm 3,6 km/h (1 Bft) NO 49 ° 1 min 0,000 mm 2,7 UV-I 316 W/m² 9,1 °C 15,2 °C 6,4 km/h (2 Bft)
06.05.2017 12:41 15,2 °C 15,2 °C 65 % 1009,2 hPa 0,0 mm 3,1 km/h (1 Bft) O-NO 61 ° 1 min 0,000 mm 2,9 UV-I 339 W/m² 8,7 °C 15,2 °C 6,4 km/h (2 Bft)
06.05.2017 12:42 15,2 °C 15,2 °C 64 % 1009,2 hPa 0,0 mm 6,4 km/h (2 Bft) O-NO 73 ° 1 min 0,000 mm 3,1 UV-I 364 W/m² 8,4 °C 15,2 °C 8,0 km/h (2 Bft)
06.05.2017 12:43 15,2 °C 15,2 °C 64 % 1009,2 hPa 0,0 mm 6,5 km/h (2 Bft) O 84 ° 1 min 0,000 mm 3,2 UV-I 411 W/m² 8,4 °C 15,2 °C 8,0 km/h (2 Bft)
06.05.2017 12:44 15,1 °C 15,2 °C 63 % 1009,1 hPa 0,0 mm 4,4 km/h (1 Bft) O-SO 105 ° 1 min 0,000 mm 3,6 UV-I 438 W/m² 8,1 °C 15,1 °C 6,4 km/h (2 Bft)
06.05.2017 12:45 15,1 °C 15,1 °C 63 % 1009,1 hPa 0,0 mm 6,6 km/h (2 Bft) O 92 ° 1 min 0,000 mm 3,8 UV-I 478 W/m² 8,1 °C 15,1 °C 11,3 km/h (2 Bft)
06.05.2017 12:46 15,2 °C 15,2 °C 65 % 1009,1 hPa 0,0 mm 6,1 km/h (2 Bft) O 96 ° 1 min 0,000 mm 4,0 UV-I 492 W/m² 8,7 °C 15,2 °C 11,3 km/h (2 Bft)
06.05.2017 12:47 15,2 °C 15,2 °C 64 % 1009,1 hPa 0,0 mm 4,5 km/h (1 Bft) O 86 ° 1 min 0,000 mm 4,0 UV-I 489 W/m² 8,4 °C 15,2 °C 9,7 km/h (2 Bft)
06.05.2017 12:48 15,2 °C 15,2 °C 64 % 1009,0 hPa 0,0 mm 4,9 km/h (1 Bft) O 92 ° 1 min 0,000 mm 3,9 UV-I 462 W/m² 8,4 °C 15,2 °C 6,4 km/h (2 Bft)
06.05.2017 12:49 15,3 °C 15,3 °C 66 % 1009,1 hPa 0,0 mm 4,6 km/h (1 Bft) NO 46 ° 1 min 0,000 mm 3,8 UV-I 445 W/m² 9,0 °C 15,3 °C 8,0 km/h (2 Bft)
06.05.2017 12:50 15,5 °C 15,5 °C 66 % 1009,1 hPa 0,0 mm 5,7 km/h (1 Bft) NO 52 ° 1 min 0,000 mm 3,7 UV-I 429 W/m² 9,2 °C 15,5 °C 8,0 km/h (2 Bft)
06.05.2017 12:51 15,5 °C 15,5 °C 63 % 1009,1 hPa 0,0 mm 4,0 km/h (1 Bft) NO 50 ° 1 min 0,000 mm 3,6 UV-I 417 W/m² 8,5 °C 15,5 °C 6,4 km/h (2 Bft)
06.05.2017 12:52 15,6 °C 15,6 °C 63 % 1009,1 hPa 0,0 mm 5,3 km/h (1 Bft) O-NO 65 ° 1 min 0,000 mm 3,6 UV-I 408 W/m² 8,6 °C 15,6 °C 8,0 km/h (2 Bft)
06.05.2017 12:53 15,6 °C 15,6 °C 63 % 1009,1 hPa 0,0 mm 5,0 km/h (1 Bft) NO 38 ° 1 min 0,000 mm 3,5 UV-I 399 W/m² 8,6 °C 15,6 °C 8,0 km/h (2 Bft)
06.05.2017 12:54 15,5 °C 15,6 °C 61 % 1009,0 hPa 0,0 mm 3,4 km/h (1 Bft) NO 34 ° 1 min 0,000 mm 3,5 UV-I 373 W/m² 8,0 °C 15,5 °C 6,4 km/h (2 Bft)
06.05.2017 12:55 15,6 °C 15,6 °C 63 % 1009,0 hPa 0,0 mm 3,7 km/h (1 Bft) NO 46 ° 1 min 0,000 mm 3,2 UV-I 353 W/m² 8,6 °C 15,6 °C 6,4 km/h (2 Bft)
06.05.2017 12:56 15,6 °C 15,6 °C 63 % 1009,0 hPa 0,0 mm 5,0 km/h (1 Bft) N-NO 31 ° 1 min 0,000 mm 3,1 UV-I 336 W/m² 8,6 °C 15,6 °C 6,4 km/h (2 Bft)
06.05.2017 12:57 15,6 °C 15,6 °C 61 % 1008,9 hPa 0,0 mm 3,7 km/h (1 Bft) N-NO 18 ° 1 min 0,000 mm 3,0 UV-I 322 W/m² 8,1 °C 15,6 °C 4,8 km/h (1 Bft)
06.05.2017 12:58 15,6 °C 15,6 °C 61 % 1008,9 hPa 0,0 mm 3,8 km/h (1 Bft) O-NO 71 ° 1 min 0,000 mm 2,9 UV-I 309 W/m² 8,1 °C 15,6 °C 8,0 km/h (2 Bft)
06.05.2017 12:59 15,5 °C 15,6 °C 61 % 1008,9 hPa 0,0 mm 4,4 km/h (1 Bft) O 80 ° 1 min 0,000 mm 2,8 UV-I 301 W/m² 8,0 °C 15,5 °C 6,4 km/h (2 Bft)
06.05.2017 13:00 15,4 °C 15,5 °C 61 % 1008,9 hPa 0,0 mm 3,2 km/h (1 Bft) O 94 ° 1 min 0,000 mm 2,7 UV-I 297 W/m² 7,9 °C 15,4 °C 4,8 km/h (1 Bft)
06.05.2017 13:01 15,3 °C 15,4 °C 62 % 1008,9 hPa 0,0 mm 0,6 km/h (0 Bft) O-NO 67 ° 1 min 0,203 mm 2,7 UV-I 297 W/m² 8,1 °C 15,3 °C 3,2 km/h (1 Bft)
06.05.2017 13:02 15,3 °C 15,3 °C 64 % 1008,9 hPa 0,0 mm 4,5 km/h (1 Bft) O-NO 75 ° 1 min 0,000 mm 2,7 UV-I 297 W/m² 8,5 °C 15,3 °C 4,8 km/h (1 Bft)
06.05.2017 13:03 15,3 °C 15,3 °C 62 % 1008,9 hPa 0,0 mm 6,6 km/h (2 Bft) O-NO 73 ° 1 min 0,000 mm 2,7 UV-I 297 W/m² 8,1 °C 15,3 °C 8,0 km/h (2 Bft)
06.05.2017 13:04 15,2 °C 15,3 °C 61 % 1008,9 hPa 0,0 mm 3,8 km/h (1 Bft) O-NO 77 ° 1 min 0,000 mm 2,7 UV-I 297 W/m² 7,7 °C 15,2 °C 6,4 km/h (2 Bft)
06.05.2017 13:05 15,2 °C 15,2 °C 62 % 1008,9 hPa 0,0 mm 5,5 km/h (1 Bft) O-NO 65 ° 1 min 0,000 mm 2,7 UV-I 299 W/m² 8,0 °C 15,2 °C 8,0 km/h (2 Bft)
06.05.2017 13:06 15,2 °C 15,2 °C 62 % 1008,9 hPa 0,0 mm 3,2 km/h (1 Bft) O 86 ° 1 min 0,000 mm 2,7 UV-I 301 W/m² 8,0 °C 15,2 °C 6,4 km/h (2 Bft)
06.05.2017 13:07 15,1 °C 15,2 °C 62 % 1008,9 hPa 0,0 mm 0,5 km/h (0 Bft) O 86 ° 1 min 0,000 mm 2,7 UV-I 302 W/m² 7,9 °C 15,1 °C 1,6 km/h (1 Bft)
06.05.2017 13:08 15,1 °C 15,1 °C 62 % 1008,9 hPa 0,0 mm 4,0 km/h (1 Bft) O-NO 60 ° 1 min 0,000 mm 2,7 UV-I 306 W/m² 7,9 °C 15,1 °C 6,4 km/h (2 Bft)
06.05.2017 13:09 15,2 °C 15,2 °C 62 % 1008,8 hPa 0,0 mm 5,8 km/h (2 Bft) NO 48 ° 1 min 0,000 mm 2,8 UV-I 309 W/m² 8,0 °C 15,2 °C 8,0 km/h (2 Bft)
06.05.2017 13:10 15,2 °C 15,2 °C 61 % 1008,9 hPa 0,0 mm 3,2 km/h (1 Bft) NO 48 ° 1 min 0,000 mm 2,8 UV-I 311 W/m² 7,7 °C 15,2 °C 6,4 km/h (2 Bft)
06.05.2017 13:11 15,2 °C 15,2 °C 63 % 1008,8 hPa 0,0 mm 3,6 km/h (1 Bft) NO 38 ° 1 min 0,000 mm 2,7 UV-I 309 W/m² 8,2 °C 15,2 °C 4,8 km/h (1 Bft)
06.05.2017 13:12 15,3 °C 15,3 °C 62 % 1008,8 hPa 0,0 mm 4,9 km/h (1 Bft) NO 36 ° 1 min 0,000 mm 2,7 UV-I 294 W/m² 8,1 °C 15,3 °C 6,4 km/h (2 Bft)
06.05.2017 13:13 15,4 °C 15,4 °C 61 % 1008,8 hPa 0,0 mm 5,6 km/h (1 Bft) O-NO 57 ° 0 min 0,000 mm 2,5 UV-I 279 W/m² 7,9 °C 15,4 °C 8,0 km/h (2 Bft)
06.05.2017 13:14 15,4 °C 15,4 °C 61 % 1008,8 hPa 0,0 mm 4,6 km/h (1 Bft) NO 50 ° 0 min 0,000 mm 2,4 UV-I 258 W/m² 7,9 °C 15,4 °C 6,4 km/h (2 Bft)
06.05.2017 13:15 15,4 °C 15,4 °C 60 % 1008,8 hPa 0,0 mm 8,6 km/h (2 Bft) NO 53 ° 0 min 0,000 mm 2,2 UV-I 236 W/m² 7,7 °C 15,4 °C 11,3 km/h (2 Bft)
06.05.2017 13:16 15,4 °C 15,4 °C 61 % 1008,7 hPa 0,0 mm 5,0 km/h (1 Bft) NO 55 ° 0 min 0,000 mm 2,1 UV-I 216 W/m² 7,9 °C 15,4 °C 8,0 km/h (2 Bft)
06.05.2017 13:17 15,3 °C 15,4 °C 61 % 1008,8 hPa 0,0 mm 5,7 km/h (1 Bft) NO 35 ° 0 min 0,000 mm 2,1 UV-I 211 W/m² 7,8 °C 15,3 °C 8,0 km/h (2 Bft)
06.05.2017 13:18 15,3 °C 15,3 °C 64 % 1008,8 hPa 0,0 mm 4,2 km/h (1 Bft) N-NO 23 ° 0 min 0,000 mm 2,1 UV-I 216 W/m² 8,5 °C 15,3 °C 6,4 km/h (2 Bft)
06.05.2017 13:19 15,3 °C 15,3 °C 62 % 1008,8 hPa 0,0 mm 4,6 km/h (1 Bft) O-NO 62 ° 0 min 0,000 mm 2,1 UV-I 221 W/m² 8,1 °C 15,3 °C 8,0 km/h (2 Bft)
06.05.2017 13:20 15,3 °C 15,3 °C 62 % 1008,8 hPa 0,0 mm 8,2 km/h (2 Bft) NO 55 ° 0 min 0,000 mm 2,1 UV-I 225 W/m² 8,1 °C 15,3 °C 11,3 km/h (2 Bft)
06.05.2017 13:21 15,3 °C 15,3 °C 62 % 1008,9 hPa 0,0 mm 2,0 km/h (1 Bft) NO 55 ° 0 min 0,000 mm 2,1 UV-I 225 W/m² 8,1 °C 15,3 °C 4,8 km/h (1 Bft)
06.05.2017 13:22 15,2 °C 15,3 °C 62 % 1008,8 hPa 0,0 mm 3,9 km/h (1 Bft) O 89 ° 0 min 0,000 mm 2,0 UV-I 220 W/m² 8,0 °C 15,2 °C 6,4 km/h (2 Bft)
06.05.2017 13:23 15,2 °C 15,2 °C 60 % 1008,8 hPa 0,0 mm 5,9 km/h (2 Bft) O 86 ° 0 min 0,000 mm 2,0 UV-I 209 W/m² 7,5 °C 15,2 °C 8,0 km/h (2 Bft)
06.05.2017 13:24 15,1 °C 15,2 °C 60 % 1008,9 hPa 0,0 mm 4,3 km/h (1 Bft) O 82 ° 0 min 0,000 mm 2,0 UV-I 209 W/m² 7,4 °C 15,1 °C 6,4 km/h (2 Bft)
06.05.2017 13:25 15,1 °C 15,1 °C 61 % 1008,8 hPa 0,0 mm 3,9 km/h (1 Bft) O 82 ° 0 min 0,000 mm 2,0 UV-I 213 W/m² 7,6 °C 15,1 °C 4,8 km/h (1 Bft)
06.05.2017 13:26 15,1 °C 15,1 °C 62 % 1008,8 hPa 0,0 mm 4,5 km/h (1 Bft) O 82 ° 0 min 0,000 mm 2,1 UV-I 225 W/m² 7,9 °C 15,1 °C 6,4 km/h (2 Bft)
06.05.2017 13:27 15,1 °C 15,1 °C 61 % 1008,8 hPa 0,0 mm 4,1 km/h (1 Bft) O 82 ° 0 min 0,000 mm 2,2 UV-I 248 W/m² 7,6 °C 15,1 °C 4,8 km/h (1 Bft)
06.05.2017 13:28 15,1 °C 15,1 °C 60 % 1008,8 hPa 0,0 mm 3,8 km/h (1 Bft) O 81 ° 0 min 0,000 mm 2,5 UV-I 279 W/m² 7,4 °C 15,1 °C 4,8 km/h (1 Bft)
06.05.2017 13:29 15,1 °C 15,1 °C 60 % 1008,8 hPa 0,0 mm 2,6 km/h (1 Bft) NO 51 ° 1 min 0,000 mm 2,8 UV-I 367 W/m² 7,4 °C 15,1 °C 6,4 km/h (2 Bft)
06.05.2017 13:30 15,2 °C 15,2 °C 62 % 1008,7 hPa 0,0 mm 5,6 km/h (1 Bft) NO 56 ° 1 min 0,000 mm 3,5 UV-I 413 W/m² 8,0 °C 15,2 °C 8,0 km/h (2 Bft)
06.05.2017 13:31 15,3 °C 15,3 °C 62 % 1008,7 hPa 0,0 mm 3,8 km/h (1 Bft) NO 54 ° 1 min 0,000 mm 3,6 UV-I 438 W/m² 8,1 °C 15,3 °C 4,8 km/h (1 Bft)
06.05.2017 13:32 15,4 °C 15,4 °C 64 % 1008,6 hPa 0,0 mm 2,5 km/h (1 Bft) NO 54 ° 1 min 0,000 mm 3,7 UV-I 434 W/m² 8,6 °C 15,4 °C 4,8 km/h (1 Bft)
06.05.2017 13:33 15,6 °C 15,6 °C 61 % 1008,6 hPa 0,0 mm 1,4 km/h (1 Bft) NO 53 ° 1 min 0,000 mm 3,7 UV-I 424 W/m² 8,1 °C 15,6 °C 4,8 km/h (1 Bft)
06.05.2017 13:34 15,6 °C 15,6 °C 59 % 1008,6 hPa 0,0 mm 3,8 km/h (1 Bft) O-NO 78 ° 1 min 0,000 mm 3,7 UV-I 410 W/m² 7,6 °C 15,6 °C 4,8 km/h (1 Bft)
06.05.2017 13:35 15,6 °C 15,6 °C 62 % 1008,5 hPa 0,0 mm 4,7 km/h (1 Bft) N-NO 29 ° 1 min 0,000 mm 3,7 UV-I 504 W/m² 8,3 °C 15,6 °C 8,0 km/h (2 Bft)
06.05.2017 13:36 15,6 °C 15,6 °C 62 % 1008,4 hPa 0,0 mm 4,3 km/h (1 Bft) N 11 ° 1 min 0,000 mm 3,8 UV-I 445 W/m² 8,3 °C 15,6 °C 6,4 km/h (2 Bft)
06.05.2017 13:37 15,7 °C 15,7 °C 59 % 1008,4 hPa 0,0 mm 3,8 km/h (1 Bft) N 11 ° 1 min 0,000 mm 3,9 UV-I 429 W/m² 7,7 °C 15,7 °C 4,8 km/h (1 Bft)
06.05.2017 13:38 15,7 °C 15,7 °C 64 % 1008,5 hPa 0,0 mm 5,8 km/h (2 Bft) N-NO 32 ° 1 min 0,000 mm 4,3 UV-I 527 W/m² 8,9 °C 15,7 °C 11,3 km/h (2 Bft)
06.05.2017 13:39 15,7 °C 15,8 °C 63 % 1008,4 hPa 0,0 mm 3,9 km/h (1 Bft) NO 49 ° 1 min 0,000 mm 5,5 UV-I 527 W/m² 8,7 °C 15,7 °C 6,4 km/h (2 Bft)
06.05.2017 13:40 15,7 °C 15,7 °C 58 % 1008,5 hPa 0,0 mm 4,4 km/h (1 Bft) N 11 ° 1 min 0,000 mm 4,9 UV-I 573 W/m² 7,5 °C 15,7 °C 6,4 km/h (2 Bft)
06.05.2017 13:41 15,8 °C 15,8 °C 60 % 1008,4 hPa 0,0 mm 4,8 km/h (1 Bft) NO 50 ° 1 min 0,000 mm 4,1 UV-I 452 W/m² 8,1 °C 15,8 °C 6,4 km/h (2 Bft)
06.05.2017 13:42 15,8 °C 15,8 °C 58 % 1008,4 hPa 0,0 mm 6,1 km/h (2 Bft) NO 35 ° 1 min 0,000 mm 4,1 UV-I 459 W/m² 7,6 °C 15,8 °C 8,0 km/h (2 Bft)
06.05.2017 13:43 15,8 °C 15,9 °C 57 % 1008,4 hPa 0,0 mm 7,2 km/h (2 Bft) N-NO 31 ° 1 min 0,000 mm 3,9 UV-I 415 W/m² 7,3 °C 15,8 °C 11,3 km/h (2 Bft)
06.05.2017 13:44 15,8 °C 15,8 °C 57 % 1008,4 hPa 0,0 mm 6,9 km/h (2 Bft) N-NO 32 ° 1 min 0,000 mm 3,8 UV-I 434 W/m² 7,3 °C 15,8 °C 11,3 km/h (2 Bft)
06.05.2017 13:45 15,9 °C 15,9 °C 57 % 1008,3 hPa 0,0 mm 6,5 km/h (2 Bft) NO 38 ° 1 min 0,000 mm 3,8 UV-I 396 W/m² 7,4 °C 15,9 °C 9,7 km/h (2 Bft)
06.05.2017 13:46 15,8 °C 15,9 °C 58 % 1008,3 hPa 0,0 mm 9,1 km/h (2 Bft) N-NO 28 ° 1 min 0,000 mm 4,0 UV-I 418 W/m² 7,6 °C 15,8 °C 14,5 km/h (3 Bft)
06.05.2017 13:47 15,9 °C 15,9 °C 57 % 1008,2 hPa 0,0 mm 8,6 km/h (2 Bft) NO 36 ° 1 min 0,000 mm 4,8 UV-I 489 W/m² 7,4 °C 15,9 °C 16,1 km/h (3 Bft)
06.05.2017 13:48 15,8 °C 15,9 °C 56 % 1008,2 hPa 0,0 mm 7,0 km/h (2 Bft) NO 50 ° 1 min 0,000 mm 6,2 UV-I 489 W/m² 7,0 °C 15,8 °C 11,3 km/h (2 Bft)
06.05.2017 13:49 15,9 °C 15,9 °C 57 % 1008,1 hPa 0,0 mm 7,6 km/h (2 Bft) O-NO 64 ° 1 min 0,000 mm 4,1 UV-I 489 W/m² 7,4 °C 15,9 °C 9,7 km/h (2 Bft)
06.05.2017 13:50 15,9 °C 16,0 °C 58 % 1008,1 hPa 0,0 mm 7,0 km/h (2 Bft) NO 56 ° 1 min 0,000 mm 5,0 UV-I 527 W/m² 7,6 °C 15,9 °C 12,9 km/h (3 Bft)
06.05.2017 13:51 16,0 °C 16,0 °C 58 % 1008,1 hPa 0,0 mm 5,6 km/h (1 Bft) N-NO 24 ° 1 min 0,000 mm 5,2 UV-I 626 W/m² 7,7 °C 16,0 °C 9,7 km/h (2 Bft)
06.05.2017 13:52 16,2 °C 16,2 °C 63 % 1008,0 hPa 0,0 mm 7,7 km/h (2 Bft) O-NO 59 ° 1 min 0,000 mm 6,7 UV-I 626 W/m² 9,1 °C 16,2 °C 12,9 km/h (3 Bft)
06.05.2017 13:53 16,3 °C 16,3 °C 58 % 1008,0 hPa 0,0 mm 8,9 km/h (2 Bft) N 5 ° 1 min 0,000 mm 4,7 UV-I 533 W/m² 8,0 °C 16,3 °C 14,5 km/h (3 Bft)
06.05.2017 13:54 16,4 °C 16,4 °C 57 % 1008,0 hPa 0,0 mm 6,6 km/h (2 Bft) NO 49 ° 1 min 0,000 mm 4,9 UV-I 570 W/m² 7,9 °C 16,4 °C 12,9 km/h (3 Bft)
06.05.2017 13:55 16,3 °C 16,4 °C 57 % 1008,0 hPa 0,0 mm 7,8 km/h (2 Bft) N 9 ° 1 min 0,000 mm 6,7 UV-I 570 W/m² 7,8 °C 16,3 °C 11,3 km/h (2 Bft)
06.05.2017 13:56 16,4 °C 16,4 °C 57 % 1007,9 hPa 0,0 mm 6,0 km/h (2 Bft) N-NO 27 ° 1 min 0,000 mm 7,5 UV-I 969 W/m² 7,9 °C 16,4 °C 8,0 km/h (2 Bft)
06.05.2017 13:57 16,6 °C 16,6 °C 58 % 1007,9 hPa 0,0 mm 4,8 km/h (1 Bft) N-NO 26 ° 1 min 0,000 mm 6,8 UV-I 1034 W/m² 8,3 °C 16,6 °C 8,0 km/h (2 Bft)
06.05.2017 13:58 16,7 °C 16,7 °C 59 % 1007,9 hPa 0,0 mm 4,8 km/h (1 Bft) NO 53 ° 1 min 0,000 mm 7,3 UV-I 984 W/m² 8,6 °C 16,7 °C 11,3 km/h (2 Bft)
06.05.2017 13:59 16,9 °C 16,9 °C 59 % 1007,8 hPa 0,0 mm 4,9 km/h (1 Bft) NO 46 ° 1 min 0,000 mm 6,2 UV-I 984 W/m² 8,8 °C 16,9 °C 8,0 km/h (2 Bft)
06.05.2017 14:00 17,0 °C 17,0 °C 60 % 1007,8 hPa 0,0 mm 10,3 km/h (2 Bft) O-SO 102 ° 1 min 0,000 mm 7,1 UV-I 984 W/m² 9,2 °C 17,0 °C 16,1 km/h (3 Bft)
06.05.2017 14:01 16,9 °C 17,0 °C 56 % 1007,8 hPa 0,0 mm 10,8 km/h (2 Bft) O 90 ° 1 min 0,254 mm 7,1 UV-I 984 W/m² 8,1 °C 16,9 °C 14,5 km/h (3 Bft)
06.05.2017 14:02 17,0 °C 17,0 °C 56 % 1007,8 hPa 0,0 mm 7,8 km/h (2 Bft) NO 49 ° 1 min 0,000 mm 7,0 UV-I 1039 W/m² 8,2 °C 17,0 °C 12,9 km/h (3 Bft)
06.05.2017 14:03 17,0 °C 17,0 °C 56 % 1007,8 hPa 0,0 mm 14,1 km/h (3 Bft) O 89 ° 1 min 0,000 mm 7,0 UV-I 1023 W/m² 8,2 °C 17,0 °C 19,3 km/h (3 Bft)
06.05.2017 14:04 16,9 °C 17,0 °C 58 % 1007,8 hPa 0,0 mm 8,6 km/h (2 Bft) O-NO 59 ° 1 min 0,000 mm 6,9 UV-I 991 W/m² 8,6 °C 16,9 °C 14,5 km/h (3 Bft)
06.05.2017 14:05 17,0 °C 17,0 °C 58 % 1007,7 hPa 0,0 mm 4,6 km/h (1 Bft) NO 47 ° 1 min 0,000 mm 6,8 UV-I 977 W/m² 8,7 °C 17,0 °C 8,0 km/h (2 Bft)
06.05.2017 14:06 17,2 °C 17,2 °C 56 % 1007,6 hPa 0,0 mm 8,9 km/h (2 Bft) NO 44 ° 1 min 0,000 mm 6,7 UV-I 960 W/m² 8,3 °C 17,2 °C 14,5 km/h (3 Bft)
06.05.2017 14:07 17,2 °C 17,2 °C 55 % 1007,6 hPa 0,0 mm 10,0 km/h (2 Bft) N-NO 25 ° 1 min 0,000 mm 6,7 UV-I 946 W/m² 8,1 °C 17,2 °C 14,5 km/h (3 Bft)
06.05.2017 14:08 17,2 °C 17,2 °C 55 % 1007,6 hPa 0,0 mm 9,8 km/h (2 Bft) O-NO 67 ° 1 min 0,000 mm 6,7 UV-I 933 W/m² 8,1 °C 17,2 °C 14,5 km/h (3 Bft)
06.05.2017 14:09 17,2 °C 17,2 °C 54 % 1007,6 hPa 0,0 mm 8,7 km/h (2 Bft) NO 40 ° 1 min 0,000 mm 5,9 UV-I 933 W/m² 7,8 °C 17,2 °C 14,5 km/h (3 Bft)
06.05.2017 14:10 17,3 °C 17,3 °C 58 % 1007,6 hPa 0,0 mm 4,6 km/h (1 Bft) O-NO 57 ° 1 min 0,000 mm 6,6 UV-I 851 W/m² 9,0 °C 17,3 °C 6,4 km/h (2 Bft)
06.05.2017 14:11 17,3 °C 17,3 °C 54 % 1007,6 hPa 0,0 mm 9,1 km/h (2 Bft) O-NO 63 ° 1 min 0,000 mm 6,6 UV-I 932 W/m² 7,9 °C 17,3 °C 12,9 km/h (3 Bft)
06.05.2017 14:12 17,2 °C 17,3 °C 53 % 1007,5 hPa 0,0 mm 6,1 km/h (2 Bft) O 90 ° 1 min 0,000 mm 6,6 UV-I 939 W/m² 7,5 °C 17,2 °C 9,7 km/h (2 Bft)
06.05.2017 14:13 17,3 °C 17,3 °C 54 % 1007,5 hPa 0,0 mm 5,5 km/h (1 Bft) NO 46 ° 1 min 0,000 mm 6,6 UV-I 935 W/m² 7,9 °C 17,3 °C 9,7 km/h (2 Bft)
06.05.2017 14:14 17,3 °C 17,3 °C 53 % 1007,4 hPa 0,0 mm 8,7 km/h (2 Bft) N 10 ° 1 min 0,000 mm 6,1 UV-I 838 W/m² 7,6 °C 17,3 °C 14,5 km/h (3 Bft)
06.05.2017 14:15 17,3 °C 17,4 °C 52 % 1007,4 hPa 0,0 mm 9,3 km/h (2 Bft) O-NO 68 ° 1 min 0,000 mm 6,3 UV-I 740 W/m² 7,3 °C 17,3 °C 14,5 km/h (3 Bft)
06.05.2017 14:16 17,4 °C 17,4 °C 54 % 1007,3 hPa 0,0 mm 9,8 km/h (2 Bft) O 92 ° 1 min 0,000 mm 5,6 UV-I 861 W/m² 8,0 °C 17,4 °C 16,1 km/h (3 Bft)
06.05.2017 14:17 17,4 °C 17,4 °C 56 % 1007,3 hPa 0,0 mm 9,0 km/h (2 Bft) N-NO 30 ° 1 min 0,000 mm 4,7 UV-I 861 W/m² 8,5 °C 17,4 °C 14,5 km/h (3 Bft)
06.05.2017 14:18 17,4 °C 17,4 °C 53 % 1007,2 hPa 0,0 mm 8,1 km/h (2 Bft) N-NO 32 ° 1 min 0,000 mm 6,1 UV-I 861 W/m² 7,7 °C 17,4 °C 14,5 km/h (3 Bft)
06.05.2017 14:19 17,6 °C 17,6 °C 55 % 1007,2 hPa 0,0 mm 8,4 km/h (2 Bft) NO 36 ° 1 min 0,000 mm 5,9 UV-I 861 W/m² 8,5 °C 17,6 °C 9,7 km/h (2 Bft)
06.05.2017 14:20 17,7 °C 17,7 °C 53 % 1007,2 hPa 0,0 mm 7,2 km/h (2 Bft) O-NO 69 ° 1 min 0,000 mm 5,8 UV-I 814 W/m² 8,0 °C 17,7 °C 9,7 km/h (2 Bft)
06.05.2017 14:21 17,8 °C 17,8 °C 52 % 1007,2 hPa 0,0 mm 4,9 km/h (1 Bft) N 360 ° 1 min 0,000 mm 5,6 UV-I 814 W/m² 7,8 °C 17,8 °C 9,7 km/h (2 Bft)
06.05.2017 14:22 17,7 °C 17,8 °C 55 % 1007,2 hPa 0,0 mm 5,0 km/h (1 Bft) N-NO 32 ° 1 min 0,000 mm 3,9 UV-I 814 W/m² 8,5 °C 17,7 °C 8,0 km/h (2 Bft)
06.05.2017 14:23 17,7 °C 17,7 °C 52 % 1007,2 hPa 0,0 mm 7,6 km/h (2 Bft) O 82 ° 1 min 0,000 mm 5,1 UV-I 650 W/m² 7,7 °C 17,7 °C 11,3 km/h (2 Bft)
06.05.2017 14:24 17,7 °C 17,7 °C 54 % 1007,2 hPa 0,0 mm 6,6 km/h (2 Bft) O 82 ° 1 min 0,000 mm 4,9 UV-I 635 W/m² 8,3 °C 17,7 °C 12,9 km/h (3 Bft)
06.05.2017 14:25 17,7 °C 17,7 °C 52 % 1007,2 hPa 0,0 mm 6,5 km/h (2 Bft) N 9 ° 1 min 0,000 mm 5,0 UV-I 578 W/m² 7,7 °C 17,7 °C 9,7 km/h (2 Bft)
06.05.2017 14:26 17,7 °C 17,7 °C 52 % 1007,1 hPa 0,0 mm 6,3 km/h (2 Bft) NO 49 ° 1 min 0,000 mm 4,8 UV-I 621 W/m² 7,7 °C 17,7 °C 8,0 km/h (2 Bft)
06.05.2017 14:27 17,7 °C 17,7 °C 53 % 1007,1 hPa 0,0 mm 10,4 km/h (2 Bft) NO 35 ° 1 min 0,000 mm 4,9 UV-I 605 W/m² 8,0 °C 17,7 °C 19,3 km/h (3 Bft)
06.05.2017 14:28 17,6 °C 17,7 °C 51 % 1007,1 hPa 0,0 mm 8,8 km/h (2 Bft) O-NO 69 ° 1 min 0,000 mm 4,8 UV-I 619 W/m² 7,3 °C 17,6 °C 11,3 km/h (2 Bft)
06.05.2017 14:29 17,6 °C 17,6 °C 54 % 1007,1 hPa 0,0 mm 4,0 km/h (1 Bft) O 83 ° 1 min 0,000 mm 5,7 UV-I 798 W/m² 8,2 °C 17,6 °C 6,4 km/h (2 Bft)
06.05.2017 14:30 17,7 °C 17,7 °C 52 % 1007,1 hPa 0,0 mm 3,1 km/h (1 Bft) N-NO 30 ° 1 min 0,000 mm 5,6 UV-I 800 W/m² 7,7 °C 17,7 °C 4,8 km/h (1 Bft)
06.05.2017 14:31 17,8 °C 17,8 °C 58 % 1007,1 hPa 0,0 mm 6,7 km/h (2 Bft) NO 51 ° 1 min 0,000 mm 5,5 UV-I 744 W/m² 9,4 °C 17,8 °C 9,7 km/h (2 Bft)
06.05.2017 14:32 17,8 °C 17,8 °C 52 % 1007,1 hPa 0,0 mm 10,4 km/h (2 Bft) O 101 ° 1 min 0,000 mm 5,6 UV-I 777 W/m² 7,8 °C 17,8 °C 14,5 km/h (3 Bft)
06.05.2017 14:33 17,7 °C 17,8 °C 50 % 1007,0 hPa 0,0 mm 5,0 km/h (1 Bft) SO 139 ° 1 min 0,000 mm 5,6 UV-I 788 W/m² 7,1 °C 17,7 °C 9,7 km/h (2 Bft)
06.05.2017 14:34 17,6 °C 17,7 °C 52 % 1007,0 hPa 0,0 mm 1,6 km/h (1 Bft) O-NO 63 ° 1 min 0,000 mm 5,9 UV-I 849 W/m² 7,6 °C 17,6 °C 6,4 km/h (2 Bft)
06.05.2017 14:35 17,7 °C 17,7 °C 54 % 1007,0 hPa 0,0 mm 11,8 km/h (2 Bft) NO 42 ° 1 min 0,000 mm 5,9 UV-I 840 W/m² 8,3 °C 17,7 °C 16,1 km/h (3 Bft)
06.05.2017 14:36 17,9 °C 17,9 °C 54 % 1007,0 hPa 0,0 mm 5,7 km/h (1 Bft) O-NO 71 ° 1 min 0,000 mm 5,9 UV-I 831 W/m² 8,5 °C 17,9 °C 11,3 km/h (2 Bft)
06.05.2017 14:37 18,1 °C 18,1 °C 53 % 1007,0 hPa 0,0 mm 8,4 km/h (2 Bft) O 88 ° 1 min 0,000 mm 6,0 UV-I 846 W/m² 8,4 °C 18,1 °C 14,5 km/h (3 Bft)
06.05.2017 14:38 18,2 °C 18,2 °C 51 % 1007,0 hPa 0,0 mm 8,1 km/h (2 Bft) O-NO 69 ° 1 min 0,000 mm 6,0 UV-I 877 W/m² 7,9 °C 18,2 °C 12,9 km/h (3 Bft)
06.05.2017 14:39 18,3 °C 18,3 °C 53 % 1007,0 hPa 0,0 mm 9,5 km/h (2 Bft) SO 134 ° 1 min 0,000 mm 5,9 UV-I 831 W/m² 8,6 °C 18,3 °C 16,1 km/h (3 Bft)
06.05.2017 14:40 18,2 °C 18,3 °C 51 % 1007,0 hPa 0,0 mm 7,3 km/h (2 Bft) O-NO 58 ° 1 min 0,000 mm 5,8 UV-I 831 W/m² 7,9 °C 18,2 °C 16,1 km/h (3 Bft)
06.05.2017 14:41 18,2 °C 18,2 °C 53 % 1007,0 hPa 0,0 mm 11,5 km/h (2 Bft) O 88 ° 1 min 0,000 mm 5,9 UV-I 849 W/m² 8,5 °C 18,2 °C 14,5 km/h (3 Bft)
06.05.2017 14:42 18,1 °C 18,2 °C 48 % 1007,1 hPa 0,0 mm 4,1 km/h (1 Bft) O-NO 69 ° 1 min 0,000 mm 5,8 UV-I 809 W/m² 6,9 °C 18,1 °C 6,4 km/h (2 Bft)
06.05.2017 14:43 18,0 °C 18,1 °C 48 % 1007,1 hPa 0,0 mm 8,2 km/h (2 Bft) NO 35 ° 1 min 0,000 mm 5,3 UV-I 809 W/m² 6,8 °C 18,0 °C 16,1 km/h (3 Bft)
06.05.2017 14:44 18,1 °C 18,1 °C 47 % 1007,0 hPa 0,0 mm 11,8 km/h (2 Bft) O-NO 62 ° 1 min 0,000 mm 5,5 UV-I 809 W/m² 6,6 °C 18,1 °C 14,5 km/h (3 Bft)
06.05.2017 14:45 18,1 °C 18,1 °C 46 % 1007,0 hPa 0,0 mm 10,2 km/h (2 Bft) N-NO 30 ° 1 min 0,000 mm 5,4 UV-I 728 W/m² 6,3 °C 18,1 °C 16,1 km/h (3 Bft)
06.05.2017 14:46 18,1 °C 18,1 °C 46 % 1007,0 hPa 0,0 mm 13,9 km/h (3 Bft) NO 36 ° 1 min 0,000 mm 5,5 UV-I 668 W/m² 6,3 °C 18,1 °C 20,9 km/h (4 Bft)
06.05.2017 14:47 18,1 °C 18,1 °C 46 % 1006,9 hPa 0,0 mm 12,0 km/h (2 Bft) O-NO 66 ° 1 min 0,000 mm 5,1 UV-I 668 W/m² 6,3 °C 18,1 °C 14,5 km/h (3 Bft)
06.05.2017 14:48 18,1 °C 18,1 °C 46 % 1006,9 hPa 0,0 mm 8,1 km/h (2 Bft) O-NO 61 ° 1 min 0,000 mm 5,8 UV-I 833 W/m² 6,3 °C 18,1 °C 12,9 km/h (3 Bft)
06.05.2017 14:49 18,1 °C 18,1 °C 47 % 1006,9 hPa 0,0 mm 6,0 km/h (2 Bft) N-NO 32 ° 1 min 0,000 mm 5,8 UV-I 835 W/m² 6,6 °C 18,1 °C 8,0 km/h (2 Bft)
06.05.2017 14:50 18,1 °C 18,1 °C 46 % 1006,9 hPa 0,0 mm 7,6 km/h (2 Bft) NO 44 ° 1 min 0,000 mm 5,7 UV-I 831 W/m² 6,3 °C 18,1 °C 9,7 km/h (2 Bft)
06.05.2017 14:51 18,2 °C 18,2 °C 46 % 1006,8 hPa 0,0 mm 6,2 km/h (2 Bft) NO 51 ° 1 min 0,000 mm 5,7 UV-I 831 W/m² 6,4 °C 18,2 °C 11,3 km/h (2 Bft)
06.05.2017 14:52 18,5 °C 18,5 °C 47 % 1006,8 hPa 0,0 mm 9,5 km/h (2 Bft) NO 44 ° 1 min 0,000 mm 5,7 UV-I 814 W/m² 7,0 °C 18,5 °C 16,1 km/h (3 Bft)
06.05.2017 14:53 18,6 °C 18,6 °C 46 % 1006,8 hPa 0,0 mm 11,4 km/h (2 Bft) O-NO 64 ° 1 min 0,000 mm 5,6 UV-I 793 W/m² 6,8 °C 18,6 °C 14,5 km/h (3 Bft)
06.05.2017 14:54 18,6 °C 18,7 °C 47 % 1006,8 hPa 0,0 mm 10,9 km/h (2 Bft) O-SO 107 ° 1 min 0,000 mm 5,4 UV-I 768 W/m² 7,1 °C 18,6 °C 17,7 km/h (3 Bft)
06.05.2017 14:55 18,6 °C 18,6 °C 49 % 1006,8 hPa 0,0 mm 6,1 km/h (2 Bft) NO 39 ° 1 min 0,000 mm 5,4 UV-I 747 W/m² 7,7 °C 18,6 °C 11,3 km/h (2 Bft)
06.05.2017 14:56 18,6 °C 18,6 °C 47 % 1006,8 hPa 0,0 mm 7,7 km/h (2 Bft) O-NO 63 ° 1 min 0,000 mm 5,5 UV-I 784 W/m² 7,1 °C 18,6 °C 12,9 km/h (3 Bft)
06.05.2017 14:57 18,6 °C 18,6 °C 47 % 1006,8 hPa 0,0 mm 10,9 km/h (2 Bft) N-NO 25 ° 1 min 0,000 mm 5,5 UV-I 786 W/m² 7,1 °C 18,6 °C 16,1 km/h (3 Bft)
06.05.2017 14:58 18,7 °C 18,7 °C 47 % 1006,8 hPa 0,0 mm 7,8 km/h (2 Bft) N-NW 330 ° 1 min 0,000 mm 5,4 UV-I 759 W/m² 7,2 °C 18,7 °C 14,5 km/h (3 Bft)
06.05.2017 14:59 18,7 °C 18,7 °C 48 % 1006,7 hPa 0,0 mm 8,3 km/h (2 Bft) O 98 ° 1 min 0,000 mm 5,4 UV-I 779 W/m² 7,5 °C 18,7 °C 12,9 km/h (3 Bft)
06.05.2017 15:00 18,8 °C 18,8 °C 47 % 1006,7 hPa 0,0 mm 7,2 km/h (2 Bft) O 90 ° 1 min 0,000 mm 5,3 UV-I 731 W/m² 7,2 °C 18,8 °C 11,3 km/h (2 Bft)
06.05.2017 15:01 18,8 °C 18,8 °C 44 % 1006,7 hPa 0,0 mm 7,8 km/h (2 Bft) N-NO 30 ° 1 min 0,483 mm 5,4 UV-I 768 W/m² 6,3 °C 18,8 °C 17,7 km/h (3 Bft)
06.05.2017 15:02 18,8 °C 18,8 °C 43 % 1006,7 hPa 0,0 mm 13,3 km/h (3 Bft) N-NO 31 ° 1 min 0,000 mm 5,3 UV-I 768 W/m² 6,0 °C 18,8 °C 17,7 km/h (3 Bft)
06.05.2017 15:03 18,8 °C 18,8 °C 43 % 1006,7 hPa 0,0 mm 15,2 km/h (3 Bft) O-NO 69 ° 1 min 0,000 mm 5,3 UV-I 784 W/m² 6,0 °C 18,8 °C 24,1 km/h (4 Bft)
06.05.2017 15:04 18,7 °C 18,8 °C 42 % 1006,7 hPa 0,0 mm 12,9 km/h (3 Bft) O-SO 103 ° 1 min 0,000 mm 5,4 UV-I 791 W/m² 5,5 °C 18,7 °C 16,1 km/h (3 Bft)
06.05.2017 15:05 18,6 °C 18,7 °C 42 % 1006,7 hPa 0,0 mm 8,9 km/h (2 Bft) O-NO 75 ° 1 min 0,000 mm 5,4 UV-I 791 W/m² 5,4 °C 18,6 °C 14,5 km/h (3 Bft)
06.05.2017 15:06 18,6 °C 18,6 °C 42 % 1006,7 hPa 0,0 mm 8,4 km/h (2 Bft) NO 52 ° 1 min 0,000 mm 5,4 UV-I 795 W/m² 5,4 °C 18,6 °C 16,1 km/h (3 Bft)
06.05.2017 15:07 18,7 °C 18,7 °C 43 % 1006,7 hPa 0,0 mm 2,4 km/h (1 Bft) N 350 ° 1 min 0,000 mm 5,3 UV-I 786 W/m² 5,9 °C 18,7 °C 6,4 km/h (2 Bft)
06.05.2017 15:08 18,8 °C 18,8 °C 46 % 1006,7 hPa 0,0 mm 2,8 km/h (1 Bft) NO 42 ° 1 min 0,000 mm 5,5 UV-I 802 W/m² 6,9 °C 18,8 °C 4,8 km/h (1 Bft)
06.05.2017 15:09 19,0 °C 19,0 °C 49 % 1006,7 hPa 0,0 mm 5,4 km/h (1 Bft) O 84 ° 1 min 0,000 mm 5,6 UV-I 849 W/m² 8,0 °C 19,0 °C 9,7 km/h (2 Bft)
06.05.2017 15:10 19,1 °C 19,2 °C 43 % 1006,7 hPa 0,0 mm 8,2 km/h (2 Bft) O-NO 64 ° 1 min 0,000 mm 5,7 UV-I 846 W/m² 6,2 °C 19,1 °C 12,9 km/h (3 Bft)
06.05.2017 15:11 19,1 °C 19,2 °C 41 % 1006,7 hPa 0,0 mm 5,6 km/h (1 Bft) NO 53 ° 1 min 0,000 mm 5,7 UV-I 853 W/m² 5,5 °C 19,1 °C 12,9 km/h (3 Bft)
06.05.2017 15:12 19,1 °C 19,1 °C 41 % 1006,7 hPa 0,0 mm 8,5 km/h (2 Bft) O-SO 107 ° 1 min 0,000 mm 5,4 UV-I 853 W/m² 5,5 °C 19,1 °C 16,1 km/h (3 Bft)
06.05.2017 15:13 18,9 °C 19,1 °C 43 % 1006,7 hPa 0,0 mm 7,7 km/h (2 Bft) O 83 ° 1 min 0,000 mm 5,2 UV-I 853 W/m² 6,0 °C 18,9 °C 14,5 km/h (3 Bft)
06.05.2017 15:14 18,9 °C 18,9 °C 43 % 1006,7 hPa 0,0 mm 7,6 km/h (2 Bft) N-NO 23 ° 1 min 0,000 mm 5,5 UV-I 765 W/m² 6,0 °C 18,9 °C 11,3 km/h (2 Bft)
06.05.2017 15:15 18,9 °C 18,9 °C 41 % 1006,7 hPa 0,0 mm 7,8 km/h (2 Bft) O-NO 63 ° 1 min 0,000 mm 3,7 UV-I 434 W/m² 5,4 °C 18,9 °C 9,7 km/h (2 Bft)
06.05.2017 15:16 18,8 °C 18,9 °C 40 % 1006,6 hPa 0,0 mm 6,6 km/h (2 Bft) O 89 ° 1 min 0,000 mm 5,5 UV-I 434 W/m² 4,9 °C 18,8 °C 9,7 km/h (2 Bft)
06.05.2017 15:17 18,8 °C 18,8 °C 41 % 1006,6 hPa 0,0 mm 2,8 km/h (1 Bft) NO 44 ° 1 min 0,000 mm 5,7 UV-I 434 W/m² 5,3 °C 18,8 °C 3,2 km/h (1 Bft)
06.05.2017 15:18 18,9 °C 18,9 °C 44 % 1006,6 hPa 0,0 mm 4,4 km/h (1 Bft) N-NO 16 ° 1 min 0,000 mm 5,5 UV-I 837 W/m² 6,4 °C 18,9 °C 8,0 km/h (2 Bft)
06.05.2017 15:19 19,0 °C 19,0 °C 45 % 1006,6 hPa 0,0 mm 3,1 km/h (1 Bft) O-NO 73 ° 1 min 0,000 mm 5,8 UV-I 907 W/m² 6,8 °C 19,0 °C 4,8 km/h (1 Bft)
06.05.2017 15:20 19,1 °C 19,1 °C 41 % 1006,6 hPa 0,0 mm 8,3 km/h (2 Bft) O-NO 66 ° 1 min 0,000 mm 5,9 UV-I 937 W/m² 5,5 °C 19,1 °C 14,5 km/h (3 Bft)
06.05.2017 15:21 19,1 °C 19,1 °C 42 % 1006,7 hPa 0,0 mm 9,0 km/h (2 Bft) O-NO 63 ° 1 min 0,000 mm 4,5 UV-I 937 W/m² 5,9 °C 19,1 °C 14,5 km/h (3 Bft)
06.05.2017 15:22 19,1 °C 19,1 °C 41 % 1006,6 hPa 0,0 mm 6,9 km/h (2 Bft) N-NO 22 ° 1 min 0,000 mm 3,7 UV-I 937 W/m² 5,5 °C 19,1 °C 14,5 km/h (3 Bft)
06.05.2017 15:23 18,9 °C 19,1 °C 41 % 1006,7 hPa 0,0 mm 13,4 km/h (3 Bft) O-NO 68 ° 1 min 0,000 mm 3,3 UV-I 397 W/m² 5,4 °C 18,9 °C 16,1 km/h (3 Bft)
06.05.2017 15:24 18,8 °C 18,9 °C 41 % 1006,7 hPa 0,0 mm 6,6 km/h (2 Bft) O 79 ° 1 min 0,000 mm 3,2 UV-I 381 W/m² 5,3 °C 18,8 °C 12,9 km/h (3 Bft)
06.05.2017 15:25 18,7 °C 18,8 °C 42 % 1006,6 hPa 0,0 mm 7,1 km/h (2 Bft) N-NO 15 ° 1 min 0,000 mm 3,3 UV-I 385 W/m² 5,5 °C 18,7 °C 12,9 km/h (3 Bft)
06.05.2017 15:26 18,6 °C 18,7 °C 43 % 1006,6 hPa 0,0 mm 3,3 km/h (1 Bft) N 360 ° 1 min 0,000 mm 3,4 UV-I 410 W/m² 5,8 °C 18,6 °C 6,4 km/h (2 Bft)
06.05.2017 15:27 18,7 °C 18,7 °C 43 % 1006,6 hPa 0,0 mm 4,6 km/h (1 Bft) O 87 ° 1 min 0,000 mm 5,0 UV-I 747 W/m² 5,9 °C 18,7 °C 11,3 km/h (2 Bft)
06.05.2017 15:28 18,8 °C 18,8 °C 44 % 1006,5 hPa 0,0 mm 6,0 km/h (2 Bft) O 91 ° 1 min 0,000 mm 4,5 UV-I 649 W/m² 6,3 °C 18,8 °C 11,3 km/h (2 Bft)
06.05.2017 15:29 18,8 °C 18,8 °C 44 % 1006,5 hPa 0,0 mm 4,9 km/h (1 Bft) O-NO 63 ° 1 min 0,000 mm 4,7 UV-I 645 W/m² 6,3 °C 18,8 °C 8,0 km/h (2 Bft)
06.05.2017 15:30 18,9 °C 18,9 °C 44 % 1006,5 hPa 0,0 mm 5,2 km/h (1 Bft) NO 34 ° 1 min 0,000 mm 5,0 UV-I 645 W/m² 6,4 °C 18,9 °C 9,7 km/h (2 Bft)
06.05.2017 15:31 18,9 °C 18,9 °C 46 % 1006,6 hPa 0,0 mm 8,4 km/h (2 Bft) O-NO 58 ° 1 min 0,000 mm 4,5 UV-I 645 W/m² 7,0 °C 18,9 °C 14,5 km/h (3 Bft)
06.05.2017 15:32 18,9 °C 18,9 °C 44 % 1006,4 hPa 0,0 mm 6,1 km/h (2 Bft) O 86 ° 1 min 0,000 mm 3,9 UV-I 645 W/m² 6,4 °C 18,9 °C 11,3 km/h (2 Bft)
06.05.2017 15:33 18,9 °C 18,9 °C 46 % 1006,4 hPa 0,0 mm 7,0 km/h (2 Bft) NO 49 ° 1 min 0,000 mm 4,6 UV-I 645 W/m² 7,0 °C 18,9 °C 12,9 km/h (3 Bft)
06.05.2017 15:34 18,9 °C 18,9 °C 42 % 1006,4 hPa 0,0 mm 7,4 km/h (2 Bft) NO 45 ° 1 min 0,000 mm 5,2 UV-I 772 W/m² 5,7 °C 18,9 °C 14,5 km/h (3 Bft)
06.05.2017 15:35 18,9 °C 18,9 °C 45 % 1006,4 hPa 0,0 mm 8,0 km/h (2 Bft) O 94 ° 1 min 0,000 mm 4,8 UV-I 805 W/m² 6,7 °C 18,9 °C 12,9 km/h (3 Bft)
06.05.2017 15:36 19,1 °C 19,1 °C 44 % 1006,3 hPa 0,0 mm 8,9 km/h (2 Bft) O-SO 109 ° 1 min 0,000 mm 3,8 UV-I 805 W/m² 6,6 °C 19,1 °C 14,5 km/h (3 Bft)
06.05.2017 15:37 19,1 °C 19,1 °C 44 % 1006,4 hPa 0,0 mm 7,9 km/h (2 Bft) O-NO 78 ° 1 min 0,000 mm 3,9 UV-I 577 W/m² 6,6 °C 19,1 °C 12,9 km/h (3 Bft)
06.05.2017 15:38 19,1 °C 19,1 °C 44 % 1006,3 hPa 0,0 mm 8,6 km/h (2 Bft) O 80 ° 1 min 0,000 mm 4,4 UV-I 554 W/m² 6,6 °C 19,1 °C 14,5 km/h (3 Bft)
06.05.2017 15:39 19,0 °C 19,1 °C 44 % 1006,3 hPa 0,0 mm 11,6 km/h (2 Bft) O-NO 78 ° 1 min 0,000 mm 4,9 UV-I 573 W/m² 6,5 °C 19,0 °C 16,1 km/h (3 Bft)
06.05.2017 15:40 18,9 °C 19,1 °C 45 % 1006,3 hPa 0,0 mm 5,8 km/h (2 Bft) SO 129 ° 1 min 0,000 mm 4,1 UV-I 564 W/m² 6,7 °C 18,9 °C 11,3 km/h (2 Bft)
06.05.2017 15:41 18,9 °C 18,9 °C 43 % 1006,3 hPa 0,0 mm 5,4 km/h (1 Bft) O-NO 67 ° 1 min 0,000 mm 3,6 UV-I 564 W/m² 6,0 °C 18,9 °C 12,9 km/h (3 Bft)
06.05.2017 15:42 18,9 °C 18,9 °C 44 % 1006,3 hPa 0,0 mm 2,7 km/h (1 Bft) W-NW 296 ° 1 min 0,000 mm 3,8 UV-I 475 W/m² 6,4 °C 18,9 °C 6,4 km/h (2 Bft)
06.05.2017 15:43 18,8 °C 18,9 °C 42 % 1006,2 hPa 0,0 mm 2,4 km/h (1 Bft) O 85 ° 1 min 0,000 mm 3,4 UV-I 417 W/m² 5,6 °C 18,8 °C 4,8 km/h (1 Bft)
06.05.2017 15:44 18,8 °C 18,8 °C 44 % 1006,2 hPa 0,0 mm 7,8 km/h (2 Bft) NO 35 ° 1 min 0,000 mm 3,3 UV-I 352 W/m² 6,3 °C 18,8 °C 14,5 km/h (3 Bft)
06.05.2017 15:45 18,8 °C 18,8 °C 44 % 1006,2 hPa 0,0 mm 18,0 km/h (3 Bft) NO 36 ° 1 min 0,000 mm 3,1 UV-I 352 W/m² 6,3 °C 18,8 °C 19,3 km/h (3 Bft)
06.05.2017 15:46 18,9 °C 18,9 °C 43 % 1006,2 hPa 0,0 mm 9,4 km/h (2 Bft) O-NO 57 ° 1 min 0,000 mm 3,2 UV-I 373 W/m² 6,0 °C 18,9 °C 14,5 km/h (3 Bft)
06.05.2017 15:47 18,9 °C 18,9 °C 43 % 1006,3 hPa 0,0 mm 7,8 km/h (2 Bft) NO 40 ° 1 min 0,000 mm 3,5 UV-I 424 W/m² 6,0 °C 18,9 °C 14,5 km/h (3 Bft)
06.05.2017 15:48 18,9 °C 19,0 °C 42 % 1006,3 hPa 0,0 mm 11,5 km/h (2 Bft) O-NO 68 ° 1 min 0,000 mm 3,4 UV-I 422 W/m² 5,7 °C 18,9 °C 17,7 km/h (3 Bft)
06.05.2017 15:49 18,9 °C 18,9 °C 42 % 1006,3 hPa 0,0 mm 7,0 km/h (2 Bft) O 80 ° 1 min 0,000 mm 3,8 UV-I 422 W/m² 5,7 °C 18,9 °C 8,0 km/h (2 Bft)
06.05.2017 15:50 18,8 °C 18,9 °C 42 % 1006,2 hPa 0,0 mm 6,1 km/h (2 Bft) O-NO 66 ° 1 min 0,000 mm 3,4 UV-I 422 W/m² 5,6 °C 18,8 °C 8,0 km/h (2 Bft)
06.05.2017 15:51 18,8 °C 18,8 °C 41 % 1006,1 hPa 0,0 mm 3,9 km/h (1 Bft) O 101 ° 1 min 0,000 mm 3,3 UV-I 487 W/m² 5,3 °C 18,8 °C 6,4 km/h (2 Bft)
06.05.2017 15:52 18,8 °C 18,8 °C 43 % 1006,1 hPa 0,0 mm 4,3 km/h (1 Bft) O-SO 108 ° 1 min 0,000 mm 3,5 UV-I 496 W/m² 6,0 °C 18,8 °C 6,4 km/h (2 Bft)
06.05.2017 15:53 18,8 °C 18,8 °C 43 % 1006,1 hPa 0,0 mm 4,5 km/h (1 Bft) O-NO 57 ° 1 min 0,000 mm 3,1 UV-I 441 W/m² 6,0 °C 18,8 °C 6,4 km/h (2 Bft)
06.05.2017 15:54 18,7 °C 18,8 °C 42 % 1006,1 hPa 0,0 mm 6,4 km/h (2 Bft) NO 53 ° 1 min 0,000 mm 2,7 UV-I 441 W/m² 5,5 °C 18,7 °C 9,7 km/h (2 Bft)
06.05.2017 15:55 18,7 °C 18,7 °C 42 % 1006,1 hPa 0,0 mm 5,2 km/h (1 Bft) NO 38 ° 0 min 0,000 mm 2,7 UV-I 287 W/m² 5,5 °C 18,7 °C 9,7 km/h (2 Bft)
06.05.2017 15:56 18,6 °C 18,7 °C 42 % 1006,1 hPa 0,0 mm 7,2 km/h (2 Bft) NO 42 ° 1 min 0,000 mm 2,7 UV-I 302 W/m² 5,4 °C 18,6 °C 9,7 km/h (2 Bft)
06.05.2017 15:57 18,7 °C 18,7 °C 43 % 1006,1 hPa 0,0 mm 5,2 km/h (1 Bft) O 87 ° 1 min 0,000 mm 2,7 UV-I 311 W/m² 5,9 °C 18,7 °C 6,4 km/h (2 Bft)
06.05.2017 15:58 18,7 °C 18,7 °C 43 % 1006,1 hPa 0,0 mm 6,5 km/h (2 Bft) O-NO 69 ° 1 min 0,000 mm 2,8 UV-I 357 W/m² 5,9 °C 18,7 °C 9,7 km/h (2 Bft)
06.05.2017 15:59 18,6 °C 18,7 °C 43 % 1006,1 hPa 0,0 mm 9,9 km/h (2 Bft) O 99 ° 1 min 0,000 mm 3,3 UV-I 357 W/m² 5,8 °C 18,6 °C 12,9 km/h (3 Bft)
06.05.2017 16:00 18,6 °C 18,7 °C 43 % 1006,1 hPa 0,0 mm 7,5 km/h (2 Bft) O-NO 59 ° 1 min 0,000 mm 2,8 UV-I 357 W/m² 5,8 °C 18,6 °C 11,3 km/h (2 Bft)
06.05.2017 16:01 18,6 °C 18,6 °C 45 % 1006,1 hPa 0,0 mm 3,4 km/h (1 Bft) N 9 ° 1 min 0,406 mm 2,6 UV-I 325 W/m² 6,4 °C 18,6 °C 11,3 km/h (2 Bft)
06.05.2017 16:02 18,7 °C 18,7 °C 43 % 1006,1 hPa 0,0 mm 11,5 km/h (2 Bft) O-SO 109 ° 1 min 0,000 mm 2,5 UV-I 301 W/m² 5,9 °C 18,7 °C 17,7 km/h (3 Bft)
06.05.2017 16:03 18,6 °C 18,7 °C 43 % 1006,1 hPa 0,0 mm 7,4 km/h (2 Bft) O-NO 66 ° 1 min 0,000 mm 2,4 UV-I 294 W/m² 5,8 °C 18,6 °C 9,7 km/h (2 Bft)
06.05.2017 16:04 18,6 °C 18,7 °C 41 % 1006,1 hPa 0,0 mm 4,7 km/h (1 Bft) O-NO 61 ° 0 min 0,000 mm 2,3 UV-I 287 W/m² 5,1 °C 18,6 °C 8,0 km/h (2 Bft)
06.05.2017 16:05 18,5 °C 18,6 °C 41 % 1006,0 hPa 0,0 mm 4,0 km/h (1 Bft) O-NO 59 ° 0 min 0,000 mm 2,2 UV-I 276 W/m² 5,0 °C 18,5 °C 4,8 km/h (1 Bft)
06.05.2017 16:06 18,6 °C 18,6 °C 43 % 1006,0 hPa 0,0 mm 4,9 km/h (1 Bft) NO 34 ° 0 min 0,000 mm 2,2 UV-I 269 W/m² 5,8 °C 18,6 °C 6,4 km/h (2 Bft)
06.05.2017 16:07 18,6 °C 18,6 °C 41 % 1006,0 hPa 0,0 mm 4,4 km/h (1 Bft) O-NO 73 ° 0 min 0,000 mm 2,1 UV-I 255 W/m² 5,1 °C 18,6 °C 6,4 km/h (2 Bft)
06.05.2017 16:08 18,6 °C 18,6 °C 41 % 1006,0 hPa 0,0 mm 6,8 km/h (2 Bft) O 85 ° 0 min 0,000 mm 2,1 UV-I 250 W/m² 5,1 °C 18,6 °C 11,3 km/h (2 Bft)
06.05.2017 16:09 18,5 °C 18,6 °C 43 % 1005,9 hPa 0,0 mm 8,5 km/h (2 Bft) O-NO 59 ° 0 min 0,000 mm 2,0 UV-I 246 W/m² 5,7 °C 18,5 °C 16,1 km/h (3 Bft)
06.05.2017 16:10 18,5 °C 18,5 °C 44 % 1005,9 hPa 0,0 mm 11,3 km/h (2 Bft) N-NO 17 ° 0 min 0,000 mm 1,9 UV-I 244 W/m² 6,0 °C 18,5 °C 16,1 km/h (3 Bft)
06.05.2017 16:11 18,4 °C 18,5 °C 44 % 1006,0 hPa 0,0 mm 8,1 km/h (2 Bft) N 5 ° 0 min 0,000 mm 1,9 UV-I 244 W/m² 5,9 °C 18,4 °C 12,9 km/h (3 Bft)
06.05.2017 16:12 18,4 °C 18,4 °C 45 % 1005,9 hPa 0,0 mm 8,9 km/h (2 Bft) NO 51 ° 0 min 0,000 mm 1,9 UV-I 243 W/m² 6,3 °C 18,4 °C 12,9 km/h (3 Bft)
06.05.2017 16:13 18,4 °C 18,4 °C 48 % 1005,9 hPa 0,0 mm 9,7 km/h (2 Bft) N-NW 347 ° 0 min 0,000 mm 1,9 UV-I 237 W/m² 7,2 °C 18,4 °C 16,1 km/h (3 Bft)
06.05.2017 16:14 18,4 °C 18,4 °C 47 % 1005,9 hPa 0,0 mm 7,2 km/h (2 Bft) NO 38 ° 0 min 0,000 mm 1,8 UV-I 232 W/m² 6,9 °C 18,4 °C 14,5 km/h (3 Bft)
06.05.2017 16:15 18,4 °C 18,4 °C 47 % 1005,9 hPa 0,0 mm 8,5 km/h (2 Bft) NO 40 ° 0 min 0,000 mm 1,7 UV-I 227 W/m² 6,9 °C 18,4 °C 14,5 km/h (3 Bft)
06.05.2017 16:16 18,3 °C 18,4 °C 46 % 1005,9 hPa 0,0 mm 6,3 km/h (2 Bft) O 82 ° 0 min 0,000 mm 1,7 UV-I 221 W/m² 6,5 °C 18,3 °C 9,7 km/h (2 Bft)
06.05.2017 16:17 18,2 °C 18,3 °C 48 % 1005,9 hPa 0,0 mm 7,3 km/h (2 Bft) O-NO 75 ° 0 min 0,000 mm 1,7 UV-I 216 W/m² 7,0 °C 18,2 °C 11,3 km/h (2 Bft)
06.05.2017 16:18 18,2 °C 18,2 °C 48 % 1006,0 hPa 0,0 mm 8,8 km/h (2 Bft) O-NO 62 ° 0 min 0,000 mm 1,6 UV-I 211 W/m² 7,0 °C 18,2 °C 14,5 km/h (3 Bft)
06.05.2017 16:19 18,2 °C 18,2 °C 47 % 1005,9 hPa 0,0 mm 7,3 km/h (2 Bft) NO 49 ° 0 min 0,000 mm 1,6 UV-I 206 W/m² 6,7 °C 18,2 °C 11,3 km/h (2 Bft)
06.05.2017 16:20 18,2 °C 18,2 °C 48 % 1005,9 hPa 0,0 mm 3,6 km/h (1 Bft) N-NO 13 ° 0 min 0,000 mm 1,6 UV-I 202 W/m² 7,0 °C 18,2 °C 8,0 km/h (2 Bft)
06.05.2017 16:21 18,2 °C 18,2 °C 48 % 1006,0 hPa 0,0 mm 8,8 km/h (2 Bft) NO 40 ° 0 min 0,000 mm 1,6 UV-I 199 W/m² 7,0 °C 18,2 °C 14,5 km/h (3 Bft)
06.05.2017 16:22 18,1 °C 18,2 °C 48 % 1005,9 hPa 0,0 mm 6,6 km/h (2 Bft) NO 37 ° 0 min 0,000 mm 1,5 UV-I 193 W/m² 6,9 °C 18,1 °C 11,3 km/h (2 Bft)
06.05.2017 16:23 18,1 °C 18,1 °C 48 % 1005,9 hPa 0,0 mm 8,1 km/h (2 Bft) O-NO 67 ° 0 min 0,000 mm 1,5 UV-I 190 W/m² 6,9 °C 18,1 °C 11,3 km/h (2 Bft)
06.05.2017 16:24 17,9 °C 18,1 °C 46 % 1005,9 hPa 0,0 mm 9,9 km/h (2 Bft) O 84 ° 0 min 0,000 mm 1,5 UV-I 186 W/m² 6,1 °C 17,9 °C 16,1 km/h (3 Bft)
06.05.2017 16:25 17,9 °C 18,0 °C 47 % 1006,0 hPa 0,0 mm 9,8 km/h (2 Bft) N-NO 24 ° 0 min 0,000 mm 1,5 UV-I 186 W/m² 6,4 °C 17,9 °C 14,5 km/h (3 Bft)
06.05.2017 16:26 17,9 °C 17,9 °C 47 % 1005,9 hPa 0,0 mm 7,6 km/h (2 Bft) NO 53 ° 0 min 0,000 mm 1,5 UV-I 190 W/m² 6,4 °C 17,9 °C 11,3 km/h (2 Bft)
06.05.2017 16:27 17,9 °C 17,9 °C 49 % 1005,9 hPa 0,0 mm 8,6 km/h (2 Bft) O 85 ° 0 min 0,000 mm 1,5 UV-I 193 W/m² 7,0 °C 17,9 °C 11,3 km/h (2 Bft)
06.05.2017 16:28 17,9 °C 17,9 °C 48 % 1005,9 hPa 0,0 mm 9,9 km/h (2 Bft) O-NO 66 ° 0 min 0,000 mm 1,6 UV-I 199 W/m² 6,7 °C 17,9 °C 14,5 km/h (3 Bft)
06.05.2017 16:29 17,8 °C 17,9 °C 48 % 1005,9 hPa 0,0 mm 7,6 km/h (2 Bft) NO 51 ° 0 min 0,000 mm 1,6 UV-I 206 W/m² 6,6 °C 17,8 °C 14,5 km/h (3 Bft)
06.05.2017 16:30 17,8 °C 17,8 °C 48 % 1005,8 hPa 0,0 mm 6,6 km/h (2 Bft) O-NO 73 ° 0 min 0,000 mm 1,6 UV-I 211 W/m² 6,6 °C 17,8 °C 14,5 km/h (3 Bft)
06.05.2017 16:31 17,8 °C 17,8 °C 48 % 1005,9 hPa 0,0 mm 9,9 km/h (2 Bft) NO 49 ° 0 min 0,000 mm 1,7 UV-I 223 W/m² 6,6 °C 17,8 °C 14,5 km/h (3 Bft)
06.05.2017 16:32 17,7 °C 17,8 °C 49 % 1005,8 hPa 0,0 mm 10,6 km/h (2 Bft) NO 48 ° 0 min 0,000 mm 1,7 UV-I 230 W/m² 6,9 °C 17,7 °C 19,3 km/h (3 Bft)
06.05.2017 16:33 17,8 °C 17,8 °C 48 % 1005,8 hPa 0,0 mm 7,9 km/h (2 Bft) NO 42 ° 0 min 0,000 mm 1,8 UV-I 237 W/m² 6,6 °C 17,8 °C 11,3 km/h (2 Bft)
06.05.2017 16:34 17,8 °C 17,8 °C 49 % 1005,8 hPa 0,0 mm 7,8 km/h (2 Bft) O 92 ° 0 min 0,000 mm 1,8 UV-I 241 W/m² 6,9 °C 17,8 °C 16,1 km/h (3 Bft)
06.05.2017 16:35 17,8 °C 17,8 °C 48 % 1005,8 hPa 0,0 mm 11,9 km/h (2 Bft) NO 53 ° 0 min 0,000 mm 1,8 UV-I 244 W/m² 6,6 °C 17,8 °C 17,7 km/h (3 Bft)
06.05.2017 16:36 17,7 °C 17,8 °C 49 % 1005,8 hPa 0,0 mm 11,3 km/h (2 Bft) O 86 ° 0 min 0,000 mm 1,8 UV-I 244 W/m² 6,9 °C 17,7 °C 14,5 km/h (3 Bft)
06.05.2017 16:37 17,7 °C 17,7 °C 48 % 1005,7 hPa 0,0 mm 6,0 km/h (2 Bft) O-NO 61 ° 0 min 0,000 mm 1,8 UV-I 246 W/m² 6,6 °C 17,7 °C 9,7 km/h (2 Bft)
06.05.2017 16:38 17,7 °C 17,7 °C 47 % 1005,8 hPa 0,0 mm 12,4 km/h (3 Bft) O 97 ° 0 min 0,000 mm 1,8 UV-I 250 W/m² 6,2 °C 17,7 °C 16,1 km/h (3 Bft)
06.05.2017 16:39 17,6 °C 17,7 °C 48 % 1005,7 hPa 0,0 mm 7,0 km/h (2 Bft) NO 44 ° 0 min 0,000 mm 1,8 UV-I 257 W/m² 6,5 °C 17,6 °C 11,3 km/h (2 Bft)
06.05.2017 16:40 17,6 °C 17,7 °C 47 % 1005,8 hPa 0,0 mm 10,3 km/h (2 Bft) O-NO 62 ° 0 min 0,000 mm 1,9 UV-I 267 W/m² 6,2 °C 17,6 °C 16,1 km/h (3 Bft)
06.05.2017 16:41 17,7 °C 17,7 °C 48 % 1005,8 hPa 0,0 mm 11,0 km/h (2 Bft) NO 55 ° 0 min 0,000 mm 2,0 UV-I 281 W/m² 6,6 °C 17,7 °C 16,1 km/h (3 Bft)
06.05.2017 16:42 17,7 °C 17,7 °C 48 % 1005,8 hPa 0,0 mm 10,0 km/h (2 Bft) O-NO 68 ° 0 min 0,000 mm 2,0 UV-I 287 W/m² 6,6 °C 17,7 °C 12,9 km/h (3 Bft)
06.05.2017 16:43 17,7 °C 17,7 °C 49 % 1005,8 hPa 0,0 mm 8,0 km/h (2 Bft) O-NO 78 ° 1 min 0,000 mm 2,1 UV-I 304 W/m² 6,9 °C 17,7 °C 14,5 km/h (3 Bft)
06.05.2017 16:44 17,8 °C 17,8 °C 49 % 1005,8 hPa 0,0 mm 11,6 km/h (2 Bft) O-NO 63 ° 1 min 0,000 mm 2,2 UV-I 313 W/m² 6,9 °C 17,8 °C 17,7 km/h (3 Bft)
06.05.2017 16:45 17,8 °C 17,8 °C 49 % 1005,8 hPa 0,0 mm 9,3 km/h (2 Bft) NO 54 ° 1 min 0,000 mm 2,2 UV-I 302 W/m² 6,9 °C 17,8 °C 16,1 km/h (3 Bft)
06.05.2017 16:46 17,8 °C 17,8 °C 48 % 1005,8 hPa 0,0 mm 9,7 km/h (2 Bft) NO 36 ° 1 min 0,000 mm 2,2 UV-I 308 W/m² 6,6 °C 17,8 °C 16,1 km/h (3 Bft)
06.05.2017 16:47 17,9 °C 17,9 °C 47 % 1005,8 hPa 0,0 mm 5,6 km/h (1 Bft) N-NO 25 ° 1 min 0,000 mm 2,2 UV-I 297 W/m² 6,4 °C 17,9 °C 11,3 km/h (2 Bft)
06.05.2017 16:48 17,9 °C 17,9 °C 48 % 1005,8 hPa 0,0 mm 7,6 km/h (2 Bft) O-NO 63 ° 0 min 0,000 mm 2,1 UV-I 288 W/m² 6,7 °C 17,9 °C 14,5 km/h (3 Bft)
06.05.2017 16:49 17,9 °C 17,9 °C 46 % 1005,9 hPa 0,0 mm 12,6 km/h (3 Bft) O-NO 78 ° 0 min 0,000 mm 2,0 UV-I 281 W/m² 6,1 °C 17,9 °C 16,1 km/h (3 Bft)
06.05.2017 16:50 17,9 °C 17,9 °C 46 % 1005,9 hPa 0,0 mm 5,7 km/h (1 Bft) O-NO 71 ° 0 min 0,000 mm 2,0 UV-I 274 W/m² 6,1 °C 17,9 °C 9,7 km/h (2 Bft)
06.05.2017 16:51 17,8 °C 17,9 °C 47 % 1005,8 hPa 0,0 mm 7,0 km/h (2 Bft) O-NO 63 ° 0 min 0,000 mm 1,9 UV-I 272 W/m² 6,3 °C 17,8 °C 14,5 km/h (3 Bft)
06.05.2017 16:52 17,9 °C 17,9 °C 46 % 1005,9 hPa 0,0 mm 10,5 km/h (2 Bft) NO 40 ° 0 min 0,000 mm 1,9 UV-I 274 W/m² 6,1 °C 17,9 °C 16,1 km/h (3 Bft)
06.05.2017 16:53 17,8 °C 17,9 °C 46 % 1005,9 hPa 0,0 mm 10,0 km/h (2 Bft) O-NO 59 ° 0 min 0,000 mm 1,9 UV-I 269 W/m² 6,0 °C 17,8 °C 16,1 km/h (3 Bft)
06.05.2017 16:54 17,8 °C 17,8 °C 46 % 1005,9 hPa 0,0 mm 8,5 km/h (2 Bft) O-NO 71 ° 0 min 0,000 mm 1,8 UV-I 262 W/m² 6,0 °C 17,8 °C 20,9 km/h (4 Bft)
06.05.2017 16:55 17,8 °C 17,8 °C 47 % 1005,9 hPa 0,0 mm 9,4 km/h (2 Bft) NO 55 ° 0 min 0,000 mm 1,8 UV-I 262 W/m² 6,3 °C 17,8 °C 17,7 km/h (3 Bft)
06.05.2017 16:56 17,7 °C 17,8 °C 47 % 1005,9 hPa 0,0 mm 11,3 km/h (2 Bft) O 80 ° 0 min 0,000 mm 1,7 UV-I 258 W/m² 6,2 °C 17,7 °C 14,5 km/h (3 Bft)
06.05.2017 16:57 17,7 °C 17,7 °C 46 % 1005,9 hPa 0,0 mm 7,2 km/h (2 Bft) NO 49 ° 0 min 0,000 mm 1,7 UV-I 250 W/m² 5,9 °C 17,7 °C 14,5 km/h (3 Bft)
06.05.2017 16:58 17,7 °C 17,7 °C 47 % 1005,9 hPa 0,0 mm 5,8 km/h (2 Bft) O-NO 72 ° 0 min 0,000 mm 1,7 UV-I 248 W/m² 6,2 °C 17,7 °C 11,3 km/h (2 Bft)
06.05.2017 16:59 17,7 °C 17,7 °C 47 % 1005,9 hPa 0,0 mm 6,2 km/h (2 Bft) NO 45 ° 0 min 0,000 mm 1,7 UV-I 250 W/m² 6,2 °C 17,7 °C 9,7 km/h (2 Bft)
06.05.2017 17:00 17,7 °C 17,7 °C 47 % 1005,9 hPa 0,0 mm 9,1 km/h (2 Bft) O 88 ° 0 min 0,203 mm 1,7 UV-I 253 W/m² 6,2 °C 17,7 °C 16,1 km/h (3 Bft)
06.05.2017 17:01 17,8 °C 17,8 °C 46 % 1005,9 hPa 0,0 mm 9,1 km/h (2 Bft) NO 53 ° 0 min 0,000 mm 1,7 UV-I 253 W/m² 6,0 °C 17,8 °C 12,9 km/h (3 Bft)
06.05.2017 17:02 17,7 °C 17,8 °C 46 % 1005,9 hPa 0,0 mm 9,2 km/h (2 Bft) O-NO 65 ° 0 min 0,000 mm 1,7 UV-I 251 W/m² 5,9 °C 17,7 °C 14,5 km/h (3 Bft)
06.05.2017 17:03 17,7 °C 17,7 °C 46 % 1005,9 hPa 0,0 mm 9,1 km/h (2 Bft) N-NO 30 ° 0 min 0,000 mm 1,7 UV-I 244 W/m² 5,9 °C 17,7 °C 14,5 km/h (3 Bft)
06.05.2017 17:04 17,7 °C 17,7 °C 47 % 1005,9 hPa 0,0 mm 6,4 km/h (2 Bft) O-NO 62 ° 0 min 0,000 mm 1,6 UV-I 236 W/m² 6,2 °C 17,7 °C 12,9 km/h (3 Bft)
06.05.2017 17:05 17,8 °C 17,8 °C 48 % 1005,9 hPa 0,0 mm 7,6 km/h (2 Bft) NO 46 ° 0 min 0,000 mm 1,6 UV-I 227 W/m² 6,6 °C 17,8 °C 11,3 km/h (2 Bft)
06.05.2017 17:06 17,8 °C 17,8 °C 46 % 1005,9 hPa 0,0 mm 12,0 km/h (2 Bft) NO 43 ° 0 min 0,000 mm 1,5 UV-I 211 W/m² 6,0 °C 17,8 °C 17,7 km/h (3 Bft)
06.05.2017 17:07 17,8 °C 17,8 °C 45 % 1005,9 hPa 0,0 mm 6,6 km/h (2 Bft) N-NW 347 ° 0 min 0,000 mm 1,4 UV-I 202 W/m² 5,7 °C 17,8 °C 9,7 km/h (2 Bft)
06.05.2017 17:08 17,8 °C 17,8 °C 45 % 1005,9 hPa 0,0 mm 4,3 km/h (1 Bft) O-NO 59 ° 0 min 0,000 mm 1,3 UV-I 193 W/m² 5,7 °C 17,8 °C 11,3 km/h (2 Bft)
06.05.2017 17:09 17,8 °C 17,8 °C 46 % 1005,9 hPa 0,0 mm 14,0 km/h (3 Bft) O-SO 102 ° 0 min 0,000 mm 1,3 UV-I 186 W/m² 6,0 °C 17,8 °C 19,3 km/h (3 Bft)
06.05.2017 17:10 17,7 °C 17,8 °C 46 % 1005,9 hPa 0,0 mm 12,4 km/h (3 Bft) O-NO 69 ° 0 min 0,000 mm 1,3 UV-I 181 W/m² 5,9 °C 17,7 °C 22,5 km/h (4 Bft)
06.05.2017 17:11 17,6 °C 17,7 °C 45 % 1005,9 hPa 0,0 mm 7,2 km/h (2 Bft) O-SO 106 ° 0 min 0,000 mm 1,2 UV-I 176 W/m² 5,5 °C 17,6 °C 12,9 km/h (3 Bft)
06.05.2017 17:12 17,5 °C 17,6 °C 45 % 1005,9 hPa 0,0 mm 8,4 km/h (2 Bft) NO 46 ° 0 min 0,000 mm 1,2 UV-I 169 W/m² 5,4 °C 17,5 °C 12,9 km/h (3 Bft)
06.05.2017 17:13 17,4 °C 17,5 °C 47 % 1005,9 hPa 0,0 mm 9,4 km/h (2 Bft) O 81 ° 0 min 0,000 mm 1,2 UV-I 163 W/m² 6,0 °C 17,4 °C 14,5 km/h (3 Bft)
06.05.2017 17:14 17,4 °C 17,4 °C 46 % 1006,0 hPa 0,0 mm 12,8 km/h (3 Bft) N-NO 26 ° 0 min 0,000 mm 1,1 UV-I 160 W/m² 5,7 °C 17,4 °C 17,7 km/h (3 Bft)
06.05.2017 17:15 17,4 °C 17,4 °C 44 % 1006,0 hPa 0,0 mm 7,4 km/h (2 Bft) O 85 ° 0 min 0,000 mm 1,1 UV-I 155 W/m² 5,0 °C 17,4 °C 12,9 km/h (3 Bft)
06.05.2017 17:16 17,3 °C 17,4 °C 46 % 1006,0 hPa 0,0 mm 11,3 km/h (2 Bft) O 90 ° 0 min 0,000 mm 1,1 UV-I 148 W/m² 5,6 °C 17,3 °C 17,7 km/h (3 Bft)
06.05.2017 17:17 17,3 °C 17,3 °C 45 % 1005,9 hPa 0,0 mm 11,6 km/h (2 Bft) O-NO 71 ° 0 min 0,000 mm 1,0 UV-I 141 W/m² 5,3 °C 17,3 °C 22,5 km/h (4 Bft)
06.05.2017 17:18 17,3 °C 17,3 °C 45 % 1006,0 hPa 0,0 mm 8,9 km/h (2 Bft) O 92 ° 0 min 0,000 mm 0,9 UV-I 121 W/m² 5,3 °C 17,3 °C 14,5 km/h (3 Bft)
06.05.2017 17:19 17,3 °C 17,3 °C 46 % 1006,0 hPa 0,0 mm 6,9 km/h (2 Bft) O-NO 74 ° 0 min 0,000 mm 0,8 UV-I 113 W/m² 5,6 °C 17,3 °C 12,9 km/h (3 Bft)
06.05.2017 17:20 17,3 °C 17,3 °C 45 % 1006,0 hPa 0,0 mm 7,6 km/h (2 Bft) O-NO 73 ° 0 min 0,000 mm 0,8 UV-I 104 W/m² 5,3 °C 17,3 °C 16,1 km/h (3 Bft)
06.05.2017 17:21 17,3 °C 17,3 °C 45 % 1006,0 hPa 0,0 mm 3,0 km/h (1 Bft) O-NO 76 ° 0 min 0,000 mm 0,7 UV-I 97 W/m² 5,3 °C 17,3 °C 8,0 km/h (2 Bft)
06.05.2017 17:22 17,3 °C 17,3 °C 46 % 1006,0 hPa 0,0 mm 5,2 km/h (1 Bft) O-NO 63 ° 0 min 0,000 mm 0,7 UV-I 90 W/m² 5,6 °C 17,3 °C 9,7 km/h (2 Bft)
06.05.2017 17:23 17,2 °C 17,3 °C 46 % 1006,0 hPa 0,0 mm 2,3 km/h (1 Bft) N-NO 33 ° 0 min 0,000 mm 0,6 UV-I 79 W/m² 5,5 °C 17,2 °C 6,4 km/h (2 Bft)
06.05.2017 17:24 17,2 °C 17,3 °C 46 % 1006,0 hPa 0,0 mm 4,5 km/h (1 Bft) NO 49 ° 0 min 0,000 mm 0,6 UV-I 74 W/m² 5,5 °C 17,2 °C 6,4 km/h (2 Bft)
06.05.2017 17:25 17,2 °C 17,2 °C 48 % 1006,0 hPa 0,0 mm 4,6 km/h (1 Bft) O-NO 57 ° 0 min 0,000 mm 0,5 UV-I 69 W/m² 6,1 °C 17,2 °C 9,7 km/h (2 Bft)
06.05.2017 17:26 17,1 °C 17,2 °C 49 % 1006,1 hPa 0,0 mm 7,5 km/h (2 Bft) O-NO 60 ° 0 min 0,000 mm 0,5 UV-I 65 W/m² 6,3 °C 17,1 °C 12,9 km/h (3 Bft)
06.05.2017 17:27 17,1 °C 17,1 °C 46 % 1006,0 hPa 0,0 mm 4,1 km/h (1 Bft) O-NO 61 ° 0 min 0,000 mm 0,5 UV-I 62 W/m² 5,4 °C 17,1 °C 6,4 km/h (2 Bft)
06.05.2017 17:28 17,1 °C 17,1 °C 43 % 1006,1 hPa 0,0 mm 3,4 km/h (1 Bft) NO 55 ° 0 min 0,000 mm 0,0 UV-I 58 W/m² 4,4 °C 17,1 °C 4,8 km/h (1 Bft)
06.05.2017 17:29 17,0 °C 17,1 °C 44 % 1006,1 hPa 0,0 mm 4,2 km/h (1 Bft) NO 40 ° 0 min 0,000 mm 0,0 UV-I 54 W/m² 4,7 °C 17,0 °C 8,0 km/h (2 Bft)
06.05.2017 17:30 17,0 °C 17,0 °C 44 % 1006,1 hPa 0,0 mm 3,1 km/h (1 Bft) O-NO 63 ° 0 min 0,000 mm 0,0 UV-I 53 W/m² 4,7 °C 17,0 °C 4,8 km/h (1 Bft)
06.05.2017 17:31 17,0 °C 17,0 °C 44 % 1006,1 hPa 0,0 mm 1,7 km/h (1 Bft) O-NO 63 ° 0 min 0,000 mm 0,0 UV-I 53 W/m² 4,7 °C 17,0 °C 3,2 km/h (1 Bft)
06.05.2017 17:32 17,0 °C 17,0 °C 44 % 1006,0 hPa 0,0 mm 3,3 km/h (1 Bft) NO 51 ° 0 min 0,000 mm 0,0 UV-I 51 W/m² 4,7 °C 17,0 °C 6,4 km/h (2 Bft)
06.05.2017 17:33 16,9 °C 17,0 °C 45 % 1006,1 hPa 0,0 mm 2,3 km/h (1 Bft) NO 51 ° 0 min 0,000 mm 0,0 UV-I 51 W/m² 4,9 °C 16,9 °C 4,8 km/h (1 Bft)
06.05.2017 17:34 16,8 °C 16,9 °C 46 % 1006,0 hPa 0,0 mm 2,9 km/h (1 Bft) NO 51 ° 0 min 0,000 mm 0,0 UV-I 49 W/m² 5,1 °C 16,8 °C 3,2 km/h (1 Bft)
06.05.2017 17:35 16,8 °C 16,8 °C 45 % 1006,1 hPa 0,0 mm 1,0 km/h (0 Bft) NO 51 ° 0 min 0,000 mm 0,0 UV-I 49 W/m² 4,8 °C 16,8 °C 3,2 km/h (1 Bft)
06.05.2017 17:36 16,7 °C 16,8 °C 47 % 1006,0 hPa 0,0 mm 0,6 km/h (0 Bft) NO 51 ° 0 min 0,000 mm 0,0 UV-I 49 W/m² 5,3 °C 16,7 °C 1,6 km/h (1 Bft)
06.05.2017 17:37 16,7 °C 16,7 °C 48 % 1006,1 hPa 0,0 mm 2,3 km/h (1 Bft) NO 51 ° 0 min 0,000 mm 0,0 UV-I 49 W/m² 5,6 °C 16,7 °C 4,8 km/h (1 Bft)
06.05.2017 17:38 16,5 °C 16,7 °C 46 % 1006,1 hPa 0,0 mm 2,0 km/h (1 Bft) O 92 ° 0 min 0,000 mm 0,0 UV-I 47 W/m² 4,8 °C 16,5 °C 4,8 km/h (1 Bft)
06.05.2017 17:39 16,5 °C 16,6 °C 47 % 1006,1 hPa 0,0 mm 3,2 km/h (1 Bft) O 92 ° 0 min 0,000 mm 0,0 UV-I 47 W/m² 5,2 °C 16,5 °C 4,8 km/h (1 Bft)
06.05.2017 17:40 16,5 °C 16,5 °C 43 % 1006,1 hPa 0,0 mm 1,0 km/h (0 Bft) O 92 ° 0 min 0,000 mm 0,0 UV-I 47 W/m² 3,9 °C 16,5 °C 3,2 km/h (1 Bft)
06.05.2017 17:41 16,4 °C 16,5 °C 47 % 1006,0 hPa 0,0 mm 2,1 km/h (1 Bft) O 94 ° 0 min 0,000 mm 0,0 UV-I 46 W/m² 5,1 °C 16,4 °C 4,8 km/h (1 Bft)
06.05.2017 17:42 16,4 °C 16,4 °C 43 % 1006,1 hPa 0,0 mm 1,5 km/h (1 Bft) O-SO 102 ° 0 min 0,000 mm 0,0 UV-I 46 W/m² 3,8 °C 16,4 °C 4,8 km/h (1 Bft)
06.05.2017 17:43 16,4 °C 16,4 °C 44 % 1006,1 hPa 0,0 mm 0,1 km/h (0 Bft) O-SO 102 ° 0 min 0,000 mm 0,0 UV-I 44 W/m² 4,1 °C 16,4 °C 1,6 km/h (1 Bft)
06.05.2017 17:44 16,3 °C 16,4 °C 45 % 1006,1 hPa 0,0 mm 0,0 km/h (0 Bft) O-SO 102 ° 0 min 0,000 mm 0,0 UV-I 44 W/m² 4,3 °C 16,3 °C 0,0 km/h (0 Bft)
06.05.2017 17:45 16,3 °C 16,3 °C 47 % 1006,1 hPa 0,0 mm 0,0 km/h (0 Bft) O-SO 102 ° 0 min 0,000 mm 0,0 UV-I 44 W/m² 5,0 °C 16,3 °C 0,0 km/h (0 Bft)
06.05.2017 17:46 16,2 °C 16,3 °C 45 % 1006,1 hPa 0,0 mm 0,0 km/h (0 Bft) O-SO 102 ° 0 min 0,000 mm 0,0 UV-I 44 W/m² 4,3 °C 16,2 °C 0,0 km/h (0 Bft)
06.05.2017 17:47 16,3 °C 16,3 °C 45 % 1006,1 hPa 0,0 mm 0,0 km/h (0 Bft) O-SO 102 ° 0 min 0,000 mm 0,0 UV-I 44 W/m² 4,3 °C 16,3 °C 0,0 km/h (0 Bft)
06.05.2017 17:48 16,3 °C 16,3 °C 44 % 1006,1 hPa 0,0 mm 1,1 km/h (1 Bft) O-SO 102 ° 0 min 0,000 mm 0,0 UV-I 46 W/m² 4,0 °C 16,3 °C 3,2 km/h (1 Bft)
06.05.2017 17:49 16,1 °C 16,3 °C 53 % 1006,1 hPa 0,0 mm 0,8 km/h (0 Bft) O-SO 102 ° 0 min 0,000 mm 0,0 UV-I 47 W/m² 6,5 °C 16,1 °C 3,2 km/h (1 Bft)
06.05.2017 17:50 15,9 °C 16,1 °C 54 % 1006,1 hPa 0,0 mm 0,0 km/h (0 Bft) O-SO 102 ° 0 min 0,000 mm 0,0 UV-I 49 W/m² 6,6 °C 15,9 °C 0,0 km/h (0 Bft)
06.05.2017 17:51 15,9 °C 15,9 °C 48 % 1006,0 hPa 0,0 mm 0,0 km/h (0 Bft) O-SO 102 ° 0 min 0,000 mm 0,0 UV-I 49 W/m² 4,9 °C 15,9 °C 0,0 km/h (0 Bft)
06.05.2017 17:52 15,7 °C 15,9 °C 59 % 1006,0 hPa 0,0 mm 0,0 km/h (0 Bft) O-SO 102 ° 0 min 0,000 mm 0,0 UV-I 51 W/m² 7,7 °C 15,7 °C 0,0 km/h (0 Bft)
06.05.2017 17:53 15,6 °C 15,7 °C 54 % 1006,0 hPa 0,0 mm 0,0 km/h (0 Bft) O-SO 102 ° 0 min 0,000 mm 0,0 UV-I 51 W/m² 6,3 °C 15,6 °C 0,0 km/h (0 Bft)
06.05.2017 17:54 15,6 °C 15,6 °C 53 % 1006,0 hPa 0,0 mm 0,0 km/h (0 Bft) O-SO 102 ° 0 min 0,000 mm 0,0 UV-I 51 W/m² 6,1 °C 15,6 °C 0,0 km/h (0 Bft)
06.05.2017 17:55 15,7 °C 15,7 °C 46 % 1006,0 hPa 0,0 mm 0,0 km/h (0 Bft) O-SO 102 ° 0 min 0,000 mm 0,0 UV-I 51 W/m² 4,1 °C 15,7 °C 0,0 km/h (0 Bft)
06.05.2017 17:56 15,7 °C 15,7 °C 49 % 1006,0 hPa 0,0 mm 0,0 km/h (0 Bft) O-SO 102 ° 0 min 0,000 mm 0,0 UV-I 49 W/m² 5,0 °C 15,7 °C 0,0 km/h (0 Bft)
06.05.2017 17:57 15,7 °C 15,7 °C 52 % 1006,0 hPa 0,0 mm 0,0 km/h (0 Bft) O-SO 102 ° 0 min 0,000 mm 0,0 UV-I 49 W/m² 5,9 °C 15,7 °C 0,0 km/h (0 Bft)
06.05.2017 17:58 15,7 °C 15,7 °C 50 % 1006,0 hPa 0,0 mm 0,0 km/h (0 Bft) O-SO 102 ° 0 min 0,000 mm 0,0 UV-I 49 W/m² 5,3 °C 15,7 °C 0,0 km/h (0 Bft)
06.05.2017 17:59 15,7 °C 15,7 °C 50 % 1006,0 hPa 0,0 mm 0,0 km/h (0 Bft) O-SO 102 ° 0 min 0,000 mm 0,0 UV-I 47 W/m² 5,3 °C 15,7 °C 0,0 km/h (0 Bft)
06.05.2017 18:00 15,7 °C 15,7 °C 53 % 1006,0 hPa 0,0 mm 0,0 km/h (0 Bft) O-SO 102 ° 0 min 0,000 mm 0,0 UV-I 47 W/m² 6,1 °C 15,7 °C 0,0 km/h (0 Bft)
06.05.2017 18:01 15,7 °C 15,7 °C 50 % 1006,0 hPa 0,0 mm 0,0 km/h (0 Bft) O-SO 102 ° 0 min 0,077 mm 0,0 UV-I 47 W/m² 5,3 °C 15,7 °C 0,0 km/h (0 Bft)
06.05.2017 18:02 15,7 °C 15,7 °C 52 % 1006,1 hPa 0,0 mm 0,0 km/h (0 Bft) O-SO 102 ° 0 min 0,000 mm 0,0 UV-I 46 W/m² 5,9 °C 15,7 °C 0,0 km/h (0 Bft)
06.05.2017 18:03 15,7 °C 15,7 °C 53 % 1006,0 hPa 0,0 mm 0,0 km/h (0 Bft) O-SO 102 ° 0 min 0,000 mm 0,0 UV-I 46 W/m² 6,1 °C 15,7 °C 0,0 km/h (0 Bft)
06.05.2017 18:04 15,6 °C 15,7 °C 55 % 1006,0 hPa 0,0 mm 0,0 km/h (0 Bft) O-SO 102 ° 0 min 0,000 mm 0,0 UV-I 44 W/m² 6,6 °C 15,6 °C 0,0 km/h (0 Bft)
06.05.2017 18:05 15,6 °C 15,6 °C 56 % 1006,1 hPa 0,0 mm 0,0 km/h (0 Bft) O-SO 102 ° 0 min 0,000 mm 0,0 UV-I 42 W/m² 6,9 °C 15,6 °C 0,0 km/h (0 Bft)
06.05.2017 18:06 15,5 °C 15,6 °C 55 % 1006,1 hPa 0,0 mm 0,0 km/h (0 Bft) O-SO 102 ° 0 min 0,000 mm 0,0 UV-I 40 W/m² 6,5 °C 15,5 °C 0,0 km/h (0 Bft)
06.05.2017 18:07 15,4 °C 15,5 °C 55 % 1006,1 hPa 0,0 mm 0,0 km/h (0 Bft) O-SO 102 ° 0 min 0,000 mm 0,0 UV-I 39 W/m² 6,4 °C 15,4 °C 0,0 km/h (0 Bft)
06.05.2017 18:08 15,4 °C 15,4 °C 57 % 1006,0 hPa 0,0 mm 0,0 km/h (0 Bft) O-SO 102 ° 0 min 0,000 mm 0,0 UV-I 39 W/m² 6,9 °C 15,4 °C 0,0 km/h (0 Bft)
06.05.2017 18:09 15,3 °C 15,4 °C 56 % 1006,1 hPa 0,0 mm 0,0 km/h (0 Bft) O-SO 102 ° 0 min 0,000 mm 0,0 UV-I 37 W/m² 6,6 °C 15,3 °C 0,0 km/h (0 Bft)
06.05.2017 18:10 15,3 °C 15,3 °C 58 % 1006,0 hPa 0,0 mm 0,0 km/h (0 Bft) O-SO 102 ° 0 min 0,000 mm 0,0 UV-I 35 W/m² 7,1 °C 15,3 °C 0,0 km/h (0 Bft)
06.05.2017 18:11 15,2 °C 15,3 °C 58 % 1006,1 hPa 0,0 mm 0,0 km/h (0 Bft) O-SO 102 ° 0 min 0,000 mm 0,0 UV-I 33 W/m² 7,0 °C 15,2 °C 0,0 km/h (0 Bft)
06.05.2017 18:12 15,1 °C 15,2 °C 60 % 1006,1 hPa 0,0 mm 0,0 km/h (0 Bft) O-SO 102 ° 0 min 0,000 mm 0,0 UV-I 33 W/m² 7,4 °C 15,1 °C 0,0 km/h (0 Bft)
06.05.2017 18:13 15,1 °C 15,1 °C 58 % 1006,1 hPa 0,0 mm 0,0 km/h (0 Bft) O-SO 102 ° 0 min 0,000 mm 0,0 UV-I 32 W/m² 6,9 °C 15,1 °C 0,0 km/h (0 Bft)
06.05.2017 18:14 15,1 °C 15,1 °C 57 % 1006,1 hPa 0,0 mm 0,1 km/h (0 Bft) O-SO 102 ° 0 min 0,000 mm 0,0 UV-I 30 W/m² 6,6 °C 15,1 °C 1,6 km/h (1 Bft)
06.05.2017 18:15 15,0 °C 15,1 °C 57 % 1006,0 hPa 0,0 mm 1,5 km/h (1 Bft) O-SO 102 ° 0 min 0,000 mm 0,0 UV-I 30 W/m² 6,6 °C 15,0 °C 3,2 km/h (1 Bft)
06.05.2017 18:16 14,9 °C 15,0 °C 57 % 1006,0 hPa 0,0 mm 0,2 km/h (0 Bft) O-SO 102 ° 0 min 0,000 mm 0,0 UV-I 28 W/m² 6,5 °C 14,9 °C 1,6 km/h (1 Bft)
06.05.2017 18:17 14,9 °C 15,0 °C 57 % 1006,0 hPa 0,0 mm 1,1 km/h (1 Bft) O-SO 102 ° 0 min 0,000 mm 0,0 UV-I 26 W/m² 6,5 °C 14,9 °C 3,2 km/h (1 Bft)
06.05.2017 18:18 14,9 °C 14,9 °C 56 % 1006,1 hPa 0,0 mm 0,0 km/h (0 Bft) O-SO 102 ° 0 min 0,000 mm 0,0 UV-I 26 W/m² 6,2 °C 14,9 °C 0,0 km/h (0 Bft)
06.05.2017 18:19 14,9 °C 14,9 °C 58 % 1006,1 hPa 0,0 mm 1,0 km/h (0 Bft) O-SO 102 ° 0 min 0,000 mm 0,0 UV-I 26 W/m² 6,7 °C 14,9 °C 3,2 km/h (1 Bft)
06.05.2017 18:20 14,9 °C 14,9 °C 56 % 1006,1 hPa 0,0 mm 1,5 km/h (1 Bft) O-SO 102 ° 0 min 0,000 mm 0,0 UV-I 25 W/m² 6,2 °C 14,9 °C 3,2 km/h (1 Bft)
06.05.2017 18:21 14,9 °C 14,9 °C 57 % 1006,0 hPa 0,0 mm 0,9 km/h (0 Bft) O-SO 102 ° 0 min 0,000 mm 0,0 UV-I 25 W/m² 6,5 °C 14,9 °C 1,6 km/h (1 Bft)
06.05.2017 18:22 14,8 °C 14,9 °C 59 % 1006,0 hPa 0,0 mm 1,7 km/h (1 Bft) O-SO 102 ° 0 min 0,000 mm 0,0 UV-I 25 W/m² 6,9 °C 14,8 °C 3,2 km/h (1 Bft)
06.05.2017 18:23 14,8 °C 14,8 °C 58 % 1006,1 hPa 0,0 mm 2,6 km/h (1 Bft) O-SO 107 ° 0 min 0,000 mm 0,0 UV-I 25 W/m² 6,6 °C 14,8 °C 4,8 km/h (1 Bft)
06.05.2017 18:24 14,8 °C 14,8 °C 59 % 1006,1 hPa 0,0 mm 1,9 km/h (1 Bft) O-SO 107 ° 0 min 0,000 mm 0,0 UV-I 25 W/m² 6,9 °C 14,8 °C 3,2 km/h (1 Bft)
06.05.2017 18:25 14,7 °C 14,8 °C 58 % 1006,1 hPa 0,0 mm 0,6 km/h (0 Bft) O-SO 107 ° 0 min 0,000 mm 0,0 UV-I 25 W/m² 6,5 °C 14,7 °C 1,6 km/h (1 Bft)
06.05.2017 18:26 14,7 °C 14,7 °C 58 % 1006,1 hPa 0,0 mm 0,9 km/h (0 Bft) O-SO 107 ° 0 min 0,000 mm 0,0 UV-I 25 W/m² 6,5 °C 14,7 °C 1,6 km/h (1 Bft)
06.05.2017 18:27 14,7 °C 14,7 °C 59 % 1006,0 hPa 0,0 mm 0,0 km/h (0 Bft) O-SO 107 ° 0 min 0,000 mm 0,0 UV-I 23 W/m² 6,8 °C 14,7 °C 0,0 km/h (0 Bft)
06.05.2017 18:28 14,7 °C 14,7 °C 59 % 1006,0 hPa 0,0 mm 0,3 km/h (0 Bft) O-SO 107 ° 0 min 0,000 mm 0,0 UV-I 23 W/m² 6,8 °C 14,7 °C 1,6 km/h (1 Bft)
06.05.2017 18:29 14,7 °C 14,7 °C 57 % 1006,0 hPa 0,0 mm 0,4 km/h (0 Bft) O-SO 107 ° 0 min 0,000 mm 0,0 UV-I 23 W/m² 6,3 °C 14,7 °C 1,6 km/h (1 Bft)
06.05.2017 18:30 14,7 °C 14,7 °C 56 % 1006,0 hPa 0,0 mm 1,6 km/h (1 Bft) O-SO 107 ° 0 min 0,000 mm 0,0 UV-I 23 W/m² 6,0 °C 14,7 °C 3,2 km/h (1 Bft)
06.05.2017 18:31 14,7 °C 14,7 °C 57 % 1006,0 hPa 0,0 mm 0,9 km/h (0 Bft) O-SO 107 ° 0 min 0,000 mm 0,0 UV-I 23 W/m² 6,3 °C 14,7 °C 1,6 km/h (1 Bft)
06.05.2017 18:32 14,7 °C 14,7 °C 58 % 1006,0 hPa 0,0 mm 1,1 km/h (1 Bft) O-SO 107 ° 0 min 0,000 mm 0,0 UV-I 21 W/m² 6,5 °C 14,7 °C 3,2 km/h (1 Bft)
06.05.2017 18:33 14,7 °C 14,7 °C 57 % 1006,1 hPa 0,0 mm 0,8 km/h (0 Bft) O-SO 107 ° 0 min 0,000 mm 0,0 UV-I 21 W/m² 6,3 °C 14,7 °C 3,2 km/h (1 Bft)
06.05.2017 18:34 14,7 °C 14,7 °C 57 % 1006,1 hPa 0,0 mm 0,1 km/h (0 Bft) O-SO 107 ° 0 min 0,000 mm 0,0 UV-I 19 W/m² 6,3 °C 14,7 °C 1,6 km/h (1 Bft)
06.05.2017 18:35 14,6 °C 14,7 °C 58 % 1006,1 hPa 0,0 mm 0,2 km/h (0 Bft) O-SO 107 ° 0 min 0,000 mm 0,0 UV-I 19 W/m² 6,4 °C 14,6 °C 1,6 km/h (1 Bft)
06.05.2017 18:36 14,6 °C 14,6 °C 58 % 1006,1 hPa 0,0 mm 0,7 km/h (0 Bft) O-SO 107 ° 0 min 0,000 mm 0,0 UV-I 18 W/m² 6,4 °C 14,6 °C 1,6 km/h (1 Bft)
06.05.2017 18:37 14,4 °C 14,6 °C 64 % 1006,1 hPa 0,0 mm 1,5 km/h (1 Bft) O-SO 107 ° 0 min 0,000 mm 0,0 UV-I 18 W/m² 7,7 °C 14,4 °C 3,2 km/h (1 Bft)
06.05.2017 18:38 14,3 °C 14,4 °C 62 % 1006,1 hPa 0,0 mm 1,7 km/h (1 Bft) O-SO 107 ° 0 min 0,000 mm 0,0 UV-I 18 W/m² 7,1 °C 14,3 °C 3,2 km/h (1 Bft)
06.05.2017 18:39 14,2 °C 14,3 °C 61 % 1006,1 hPa 0,0 mm 2,6 km/h (1 Bft) O-SO 109 ° 0 min 0,000 mm 0,0 UV-I 16 W/m² 6,8 °C 14,2 °C 4,8 km/h (1 Bft)
06.05.2017 18:40 14,2 °C 14,2 °C 61 % 1006,2 hPa 0,0 mm 1,3 km/h (1 Bft) O-SO 115 ° 0 min 0,000 mm 0,0 UV-I 16 W/m² 6,8 °C 14,2 °C 3,2 km/h (1 Bft)
06.05.2017 18:41 14,2 °C 14,2 °C 61 % 1006,2 hPa 0,0 mm 0,9 km/h (0 Bft) O-SO 115 ° 0 min 0,000 mm 0,0 UV-I 16 W/m² 6,8 °C 14,2 °C 1,6 km/h (1 Bft)
06.05.2017 18:42 14,1 °C 14,2 °C 62 % 1006,1 hPa 0,0 mm 0,6 km/h (0 Bft) O-SO 115 ° 0 min 0,000 mm 0,0 UV-I 14 W/m² 6,9 °C 14,1 °C 1,6 km/h (1 Bft)
06.05.2017 18:43 14,2 °C 14,2 °C 60 % 1006,2 hPa 0,0 mm 1,1 km/h (1 Bft) SO 124 ° 0 min 0,000 mm 0,0 UV-I 14 W/m² 6,5 °C 14,2 °C 3,2 km/h (1 Bft)
06.05.2017 18:44 14,1 °C 14,2 °C 61 % 1006,1 hPa 0,0 mm 0,4 km/h (0 Bft) SO 124 ° 0 min 0,000 mm 0,0 UV-I 14 W/m² 6,7 °C 14,1 °C 1,6 km/h (1 Bft)
06.05.2017 18:45 14,1 °C 14,2 °C 62 % 1006,2 hPa 0,0 mm 1,7 km/h (1 Bft) SO 124 ° 0 min 0,000 mm 0,0 UV-I 12 W/m² 6,9 °C 14,1 °C 3,2 km/h (1 Bft)
06.05.2017 18:46 14,1 °C 14,1 °C 60 % 1006,2 hPa 0,0 mm 0,9 km/h (0 Bft) SO 124 ° 0 min 0,000 mm 0,0 UV-I 12 W/m² 6,5 °C 14,1 °C 3,2 km/h (1 Bft)
06.05.2017 18:47 14,1 °C 14,1 °C 64 % 1006,2 hPa 0,0 mm 1,0 km/h (0 Bft) SO 124 ° 0 min 0,000 mm 0,0 UV-I 12 W/m² 7,4 °C 14,1 °C 3,2 km/h (1 Bft)
06.05.2017 18:48 14,1 °C 14,1 °C 59 % 1006,2 hPa 0,0 mm 0,2 km/h (0 Bft) SO 124 ° 0 min 0,000 mm 0,0 UV-I 12 W/m² 6,2 °C 14,1 °C 1,6 km/h (1 Bft)
06.05.2017 18:49 14,1 °C 14,1 °C 62 % 1006,2 hPa 0,0 mm 0,5 km/h (0 Bft) SO 124 ° 0 min 0,000 mm 0,0 UV-I 12 W/m² 6,9 °C 14,1 °C 1,6 km/h (1 Bft)
06.05.2017 18:50 14,0 °C 14,1 °C 63 % 1006,3 hPa 0,0 mm 0,0 km/h (0 Bft) SO 124 ° 0 min 0,000 mm 0,0 UV-I 12 W/m² 7,1 °C 14,0 °C 0,0 km/h (0 Bft)
06.05.2017 18:51 13,9 °C 14,0 °C 64 % 1006,3 hPa 0,0 mm 0,4 km/h (0 Bft) SO 124 ° 0 min 0,000 mm 0,0 UV-I 12 W/m² 7,2 °C 13,9 °C 1,6 km/h (1 Bft)
06.05.2017 18:52 13,9 °C 13,9 °C 64 % 1006,3 hPa 0,0 mm 1,9 km/h (1 Bft) SO 124 ° 0 min 0,000 mm 0,0 UV-I 12 W/m² 7,2 °C 13,9 °C 3,2 km/h (1 Bft)
06.05.2017 18:53 13,8 °C 13,9 °C 63 % 1006,3 hPa 0,0 mm 1,2 km/h (1 Bft) SO 124 ° 0 min 0,000 mm 0,0 UV-I 12 W/m² 6,9 °C 13,8 °C 3,2 km/h (1 Bft)
06.05.2017 18:54 13,9 °C 13,9 °C 61 % 1006,3 hPa 0,0 mm 2,0 km/h (1 Bft) SO 130 ° 0 min 0,000 mm 0,0 UV-I 12 W/m² 6,5 °C 13,9 °C 4,8 km/h (1 Bft)
06.05.2017 18:55 13,8 °C 13,9 °C 62 % 1006,3 hPa 0,0 mm 3,9 km/h (1 Bft) SO 134 ° 0 min 0,000 mm 0,0 UV-I 12 W/m² 6,6 °C 13,8 °C 4,8 km/h (1 Bft)
06.05.2017 18:56 13,9 °C 13,9 °C 63 % 1006,3 hPa 0,0 mm 4,2 km/h (1 Bft) S-SO 167 ° 0 min 0,000 mm 0,0 UV-I 12 W/m² 7,0 °C 13,9 °C 6,4 km/h (2 Bft)
06.05.2017 18:57 13,9 °C 13,9 °C 62 % 1006,3 hPa 0,0 mm 3,4 km/h (1 Bft) S 180 ° 0 min 0,000 mm 0,0 UV-I 12 W/m² 6,7 °C 13,9 °C 4,8 km/h (1 Bft)
06.05.2017 18:58 13,8 °C 13,9 °C 64 % 1006,3 hPa 0,0 mm 2,5 km/h (1 Bft) S 180 ° 0 min 0,000 mm 0,0 UV-I 12 W/m² 7,1 °C 13,8 °C 3,2 km/h (1 Bft)
06.05.2017 18:59 13,8 °C 13,8 °C 64 % 1006,3 hPa 0,0 mm 2,3 km/h (1 Bft) S 180 ° 0 min 0,000 mm 0,0 UV-I 12 W/m² 7,1 °C 13,8 °C 3,2 km/h (1 Bft)
06.05.2017 19:00 13,8 °C 13,8 °C 64 % 1006,3 hPa 0,0 mm 1,8 km/h (1 Bft) S 180 ° 0 min 0,000 mm 0,0 UV-I 12 W/m² 7,1 °C 13,8 °C 3,2 km/h (1 Bft)
06.05.2017 19:01 13,8 °C 13,8 °C 62 % 1006,3 hPa 0,0 mm 2,5 km/h (1 Bft) S-SW 194 ° 0 min 0,025 mm 0,0 UV-I 12 W/m² 6,6 °C 13,8 °C 4,8 km/h (1 Bft)
06.05.2017 19:02 13,9 °C 13,9 °C 59 % 1006,4 hPa 0,0 mm 2,0 km/h (1 Bft) W-SW 258 ° 0 min 0,000 mm 0,0 UV-I 12 W/m² 6,0 °C 13,9 °C 3,2 km/h (1 Bft)
06.05.2017 19:03 14,1 °C 14,1 °C 61 % 1006,4 hPa 0,0 mm 4,5 km/h (1 Bft) NW 305 ° 0 min 0,000 mm 0,0 UV-I 11 W/m² 6,7 °C 14,1 °C 6,4 km/h (2 Bft)
06.05.2017 19:04 14,1 °C 14,1 °C 60 % 1006,5 hPa 0,0 mm 3,3 km/h (1 Bft) W-NW 291 ° 0 min 0,000 mm 0,0 UV-I 11 W/m² 6,5 °C 14,1 °C 4,8 km/h (1 Bft)
06.05.2017 19:05 14,2 °C 14,2 °C 60 % 1006,5 hPa 0,0 mm 1,3 km/h (1 Bft) W-NW 292 ° 0 min 0,000 mm 0,0 UV-I 11 W/m² 6,5 °C 14,2 °C 3,2 km/h (1 Bft)
06.05.2017 19:06 14,2 °C 14,2 °C 62 % 1006,5 hPa 0,0 mm 2,3 km/h (1 Bft) W-NW 286 ° 0 min 0,000 mm 0,0 UV-I 11 W/m² 7,0 °C 14,2 °C 3,2 km/h (1 Bft)
06.05.2017 19:07 14,2 °C 14,2 °C 60 % 1006,6 hPa 0,0 mm 2,8 km/h (1 Bft) W 267 ° 0 min 0,000 mm 0,0 UV-I 11 W/m² 6,5 °C 14,2 °C 4,8 km/h (1 Bft)
06.05.2017 19:08 14,2 °C 14,2 °C 59 % 1006,6 hPa 0,0 mm 3,4 km/h (1 Bft) W 260 ° 0 min 0,000 mm 0,0 UV-I 11 W/m² 6,3 °C 14,2 °C 6,4 km/h (2 Bft)
06.05.2017 19:09 14,2 °C 14,2 °C 60 % 1006,6 hPa 0,0 mm 5,0 km/h (1 Bft) W-SW 257 ° 0 min 0,000 mm 0,0 UV-I 11 W/m² 6,5 °C 14,2 °C 6,4 km/h (2 Bft)
06.05.2017 19:10 14,2 °C 14,2 °C 60 % 1006,6 hPa 0,0 mm 5,4 km/h (1 Bft) W-SW 253 ° 0 min 0,000 mm 0,0 UV-I 11 W/m² 6,5 °C 14,2 °C 8,0 km/h (2 Bft)
06.05.2017 19:11 14,3 °C 14,3 °C 60 % 1006,6 hPa 0,0 mm 4,0 km/h (1 Bft) W-SW 254 ° 0 min 0,000 mm 0,0 UV-I 11 W/m² 6,6 °C 14,3 °C 6,4 km/h (2 Bft)
06.05.2017 19:12 14,3 °C 14,3 °C 60 % 1006,6 hPa 0,0 mm 4,6 km/h (1 Bft) W-SW 254 ° 0 min 0,000 mm 0,0 UV-I 11 W/m² 6,6 °C 14,3 °C 6,4 km/h (2 Bft)
06.05.2017 19:13 14,3 °C 14,3 °C 60 % 1006,7 hPa 0,0 mm 6,3 km/h (2 Bft) W 269 ° 0 min 0,000 mm 0,0 UV-I 11 W/m² 6,6 °C 14,3 °C 11,3 km/h (2 Bft)
06.05.2017 19:14 14,3 °C 14,3 °C 60 % 1006,7 hPa 0,0 mm 3,4 km/h (1 Bft) W 274 ° 0 min 0,000 mm 0,0 UV-I 11 W/m² 6,6 °C 14,3 °C 6,4 km/h (2 Bft)
06.05.2017 19:15 14,4 °C 14,4 °C 60 % 1006,7 hPa 0,0 mm 5,5 km/h (1 Bft) W 263 ° 0 min 0,000 mm 0,0 UV-I 11 W/m² 6,7 °C 14,4 °C 11,3 km/h (2 Bft)
06.05.2017 19:16 14,4 °C 14,4 °C 60 % 1006,7 hPa 0,0 mm 5,6 km/h (1 Bft) W 267 ° 0 min 0,000 mm 0,0 UV-I 11 W/m² 6,7 °C 14,4 °C 9,7 km/h (2 Bft)
06.05.2017 19:17 14,4 °C 14,4 °C 61 % 1006,7 hPa 0,0 mm 5,8 km/h (2 Bft) W 262 ° 0 min 0,000 mm 0,0 UV-I 11 W/m² 7,0 °C 14,4 °C 9,7 km/h (2 Bft)
06.05.2017 19:18 14,4 °C 14,4 °C 60 % 1006,7 hPa 0,0 mm 6,4 km/h (2 Bft) W-NW 283 ° 0 min 0,000 mm 0,0 UV-I 11 W/m² 6,7 °C 14,4 °C 12,9 km/h (3 Bft)
06.05.2017 19:19 14,5 °C 14,5 °C 62 % 1006,7 hPa 0,0 mm 5,0 km/h (1 Bft) W-SW 248 ° 0 min 0,000 mm 0,0 UV-I 11 W/m² 7,3 °C 14,5 °C 8,0 km/h (2 Bft)
06.05.2017 19:20 14,4 °C 14,5 °C 61 % 1006,7 hPa 0,0 mm 4,3 km/h (1 Bft) W 281 ° 0 min 0,000 mm 0,0 UV-I 11 W/m² 7,0 °C 14,4 °C 8,0 km/h (2 Bft)
06.05.2017 19:21 14,4 °C 14,4 °C 61 % 1006,7 hPa 0,0 mm 6,4 km/h (2 Bft) W 273 ° 0 min 0,000 mm 0,0 UV-I 12 W/m² 7,0 °C 14,4 °C 9,7 km/h (2 Bft)
06.05.2017 19:22 14,4 °C 14,4 °C 63 % 1006,7 hPa 0,0 mm 5,7 km/h (1 Bft) W-SW 248 ° 0 min 0,000 mm 0,0 UV-I 12 W/m² 7,4 °C 14,4 °C 11,3 km/h (2 Bft)
06.05.2017 19:23 14,3 °C 14,4 °C 62 % 1006,8 hPa 0,0 mm 5,5 km/h (1 Bft) W 261 ° 0 min 0,000 mm 0,0 UV-I 12 W/m² 7,1 °C 14,3 °C 6,4 km/h (2 Bft)
06.05.2017 19:24 14,3 °C 14,3 °C 62 % 1006,7 hPa 0,0 mm 9,8 km/h (2 Bft) W 277 ° 0 min 0,000 mm 0,0 UV-I 12 W/m² 7,1 °C 14,3 °C 14,5 km/h (3 Bft)
06.05.2017 19:25 14,3 °C 14,3 °C 64 % 1006,8 hPa 0,0 mm 6,8 km/h (2 Bft) W 270 ° 0 min 0,000 mm 0,0 UV-I 12 W/m² 7,6 °C 14,3 °C 11,3 km/h (2 Bft)
06.05.2017 19:26 14,3 °C 14,3 °C 63 % 1006,8 hPa 0,0 mm 9,1 km/h (2 Bft) W 274 ° 0 min 0,000 mm 0,0 UV-I 12 W/m² 7,4 °C 14,3 °C 12,9 km/h (3 Bft)
06.05.2017 19:27 14,3 °C 14,3 °C 63 % 1006,8 hPa 0,0 mm 5,6 km/h (1 Bft) W-NW 292 ° 0 min 0,000 mm 0,0 UV-I 12 W/m² 7,4 °C 14,3 °C 9,7 km/h (2 Bft)
06.05.2017 19:28 14,3 °C 14,3 °C 63 % 1006,8 hPa 0,0 mm 5,2 km/h (1 Bft) W 268 ° 0 min 0,000 mm 0,0 UV-I 12 W/m² 7,4 °C 14,3 °C 6,4 km/h (2 Bft)
06.05.2017 19:29 14,2 °C 14,3 °C 64 % 1006,8 hPa 0,0 mm 6,4 km/h (2 Bft) W 264 ° 0 min 0,000 mm 0,0 UV-I 12 W/m² 7,5 °C 14,2 °C 9,7 km/h (2 Bft)
06.05.2017 19:30 14,2 °C 14,3 °C 65 % 1006,8 hPa 0,0 mm 12,8 km/h (3 Bft) W 279 ° 0 min 0,000 mm 0,0 UV-I 12 W/m² 7,7 °C 14,2 °C 19,3 km/h (3 Bft)
06.05.2017 19:31 14,2 °C 14,2 °C 65 % 1006,8 hPa 0,0 mm 9,9 km/h (2 Bft) W 263 ° 0 min 0,000 mm 0,0 UV-I 12 W/m² 7,7 °C 14,2 °C 20,9 km/h (4 Bft)
06.05.2017 19:32 14,2 °C 14,2 °C 65 % 1006,9 hPa 0,0 mm 14,8 km/h (3 Bft) W 268 ° 0 min 0,000 mm 0,0 UV-I 12 W/m² 7,7 °C 14,2 °C 22,5 km/h (4 Bft)
06.05.2017 19:33 14,1 °C 14,2 °C 66 % 1006,9 hPa 0,0 mm 11,7 km/h (2 Bft) W-SW 252 ° 0 min 0,000 mm 0,0 UV-I 11 W/m² 7,8 °C 14,1 °C 17,7 km/h (3 Bft)
06.05.2017 19:34 14,1 °C 14,1 °C 67 % 1006,9 hPa 0,0 mm 14,6 km/h (3 Bft) W 259 ° 0 min 0,000 mm 0,0 UV-I 11 W/m² 8,1 °C 14,1 °C 17,7 km/h (3 Bft)
06.05.2017 19:35 14,0 °C 14,1 °C 67 % 1007,0 hPa 0,0 mm 9,5 km/h (2 Bft) SW 234 ° 0 min 0,000 mm 0,0 UV-I 11 W/m² 8,0 °C 14,0 °C 14,5 km/h (3 Bft)
06.05.2017 19:36 13,9 °C 14,0 °C 68 % 1007,0 hPa 0,0 mm 12,5 km/h (3 Bft) W 260 ° 0 min 0,000 mm 0,0 UV-I 11 W/m² 8,1 °C 13,9 °C 17,7 km/h (3 Bft)
06.05.2017 19:37 13,9 °C 13,9 °C 68 % 1007,0 hPa 0,0 mm 10,4 km/h (2 Bft) W 261 ° 0 min 0,000 mm 0,0 UV-I 11 W/m² 8,1 °C 13,9 °C 16,1 km/h (3 Bft)
06.05.2017 19:38 13,8 °C 13,9 °C 69 % 1007,0 hPa 0,0 mm 8,5 km/h (2 Bft) W-SW 251 ° 0 min 0,000 mm 0,0 UV-I 11 W/m² 8,2 °C 13,8 °C 17,7 km/h (3 Bft)
06.05.2017 19:39 13,8 °C 13,8 °C 70 % 1007,1 hPa 0,0 mm 11,2 km/h (2 Bft) W-NW 284 ° 0 min 0,000 mm 0,0 UV-I 11 W/m² 8,4 °C 13,8 °C 17,7 km/h (3 Bft)
06.05.2017 19:40 13,7 °C 13,8 °C 70 % 1007,1 hPa 0,0 mm 9,9 km/h (2 Bft) W 269 ° 0 min 0,000 mm 0,0 UV-I 11 W/m² 8,3 °C 13,7 °C 14,5 km/h (3 Bft)
06.05.2017 19:41 13,6 °C 13,7 °C 71 % 1007,2 hPa 0,0 mm 8,8 km/h (2 Bft) W 259 ° 0 min 0,000 mm 0,0 UV-I 11 W/m² 8,4 °C 13,6 °C 14,5 km/h (3 Bft)
06.05.2017 19:42 13,5 °C 13,6 °C 71 % 1007,1 hPa 0,0 mm 11,7 km/h (2 Bft) W-SW 238 ° 0 min 0,000 mm 0,0 UV-I 11 W/m² 8,3 °C 13,5 °C 22,5 km/h (4 Bft)
06.05.2017 19:43 13,4 °C 13,5 °C 71 % 1007,1 hPa 0,0 mm 11,5 km/h (2 Bft) W-SW 258 ° 0 min 0,000 mm 0,0 UV-I 11 W/m² 8,3 °C 13,4 °C 14,5 km/h (3 Bft)
06.05.2017 19:44 13,4 °C 13,4 °C 72 % 1007,1 hPa 0,0 mm 14,6 km/h (3 Bft) W 269 ° 0 min 0,000 mm 0,0 UV-I 11 W/m² 8,5 °C 13,4 °C 22,5 km/h (4 Bft)
06.05.2017 19:45 13,3 °C 13,4 °C 73 % 1007,1 hPa 0,0 mm 15,1 km/h (3 Bft) W-SW 254 ° 0 min 0,000 mm 0,0 UV-I 11 W/m² 8,6 °C 13,3 °C 19,3 km/h (3 Bft)
06.05.2017 19:46 13,2 °C 13,3 °C 73 % 1007,2 hPa 0,0 mm 11,6 km/h (2 Bft) W-SW 250 ° 0 min 0,000 mm 0,0 UV-I 11 W/m² 8,5 °C 13,2 °C 19,3 km/h (3 Bft)
06.05.2017 19:47 13,2 °C 13,2 °C 74 % 1007,2 hPa 0,0 mm 13,9 km/h (3 Bft) W-NW 298 ° 0 min 0,000 mm 0,0 UV-I 11 W/m² 8,7 °C 13,2 °C 19,3 km/h (3 Bft)
06.05.2017 19:48 13,1 °C 13,2 °C 75 % 1007,2 hPa 0,0 mm 15,4 km/h (3 Bft) W 273 ° 0 min 0,000 mm 0,0 UV-I 11 W/m² 8,8 °C 13,1 °C 29,0 km/h (5 Bft)
06.05.2017 19:49 13,0 °C 13,1 °C 76 % 1007,2 hPa 0,0 mm 14,6 km/h (3 Bft) NW 308 ° 0 min 0,000 mm 0,0 UV-I 11 W/m² 8,9 °C 13,0 °C 22,5 km/h (4 Bft)
06.05.2017 19:50 12,9 °C 13,0 °C 76 % 1007,2 hPa 0,0 mm 12,9 km/h (3 Bft) W-NW 302 ° 0 min 0,000 mm 0,0 UV-I 11 W/m² 8,8 °C 12,9 °C 24,1 km/h (4 Bft)
06.05.2017 19:51 12,8 °C 12,9 °C 77 % 1007,3 hPa 0,0 mm 11,3 km/h (2 Bft) NW 309 ° 0 min 0,000 mm 0,0 UV-I 11 W/m² 8,9 °C 12,8 °C 16,1 km/h (3 Bft)
06.05.2017 19:52 12,8 °C 12,8 °C 77 % 1007,3 hPa 0,0 mm 13,9 km/h (3 Bft) W-SW 258 ° 0 min 0,000 mm 0,0 UV-I 9 W/m² 8,9 °C 12,8 °C 19,3 km/h (3 Bft)
06.05.2017 19:53 12,7 °C 12,8 °C 78 % 1007,3 hPa 0,0 mm 17,6 km/h (3 Bft) W-NW 298 ° 0 min 0,000 mm 0,0 UV-I 9 W/m² 9,0 °C 12,7 °C 24,1 km/h (4 Bft)
06.05.2017 19:54 12,6 °C 12,7 °C 79 % 1007,3 hPa 0,0 mm 8,9 km/h (2 Bft) W 272 ° 0 min 0,000 mm 0,0 UV-I 9 W/m² 9,1 °C 12,6 °C 12,9 km/h (3 Bft)
06.05.2017 19:55 12,6 °C 12,6 °C 79 % 1007,3 hPa 0,0 mm 14,5 km/h (3 Bft) W-NW 284 ° 0 min 0,000 mm 0,0 UV-I 7 W/m² 9,1 °C 12,6 °C 22,5 km/h (4 Bft)
06.05.2017 19:56 12,4 °C 12,6 °C 79 % 1007,3 hPa 0,0 mm 9,1 km/h (2 Bft) W 269 ° 0 min 0,000 mm 0,0 UV-I 7 W/m² 8,9 °C 12,4 °C 12,9 km/h (3 Bft)
06.05.2017 19:57 12,4 °C 12,4 °C 80 % 1007,3 hPa 0,0 mm 14,5 km/h (3 Bft) SW 236 ° 0 min 0,000 mm 0,0 UV-I 7 W/m² 9,0 °C 12,4 °C 19,3 km/h (3 Bft)
06.05.2017 19:58 12,3 °C 12,4 °C 81 % 1007,4 hPa 0,0 mm 12,4 km/h (3 Bft) W 270 ° 0 min 0,000 mm 0,0 UV-I 7 W/m² 9,1 °C 12,3 °C 19,3 km/h (3 Bft)
06.05.2017 19:59 12,2 °C 12,3 °C 81 % 1007,3 hPa 0,0 mm 14,2 km/h (3 Bft) W-SW 246 ° 0 min 0,000 mm 0,0 UV-I 7 W/m² 9,0 °C 12,2 °C 17,7 km/h (3 Bft)
06.05.2017 20:00 12,1 °C 12,2 °C 82 % 1007,3 hPa 0,0 mm 12,5 km/h (3 Bft) W 271 ° 0 min 0,000 mm 0,0 UV-I 7 W/m² 9,1 °C 12,1 °C 17,7 km/h (3 Bft)
06.05.2017 20:01 12,0 °C 12,1 °C 81 % 1007,3 hPa 0,0 mm 16,2 km/h (3 Bft) W-SW 240 ° 0 min 0,051 mm 0,0 UV-I 7 W/m² 8,8 °C 12,0 °C 22,5 km/h (4 Bft)
06.05.2017 20:02 11,9 °C 12,0 °C 82 % 1007,3 hPa 0,0 mm 9,3 km/h (2 Bft) W 276 ° 0 min 0,000 mm 0,0 UV-I 5 W/m² 8,9 °C 11,9 °C 16,1 km/h (3 Bft)
06.05.2017 20:03 11,8 °C 11,9 °C 82 % 1007,4 hPa 0,0 mm 13,1 km/h (3 Bft) W-NW 287 ° 0 min 0,000 mm 0,0 UV-I 5 W/m² 8,8 °C 11,8 °C 16,1 km/h (3 Bft)
06.05.2017 20:04 11,8 °C 11,8 °C 82 % 1007,4 hPa 0,0 mm 12,1 km/h (2 Bft) W 259 ° 0 min 0,000 mm 0,0 UV-I 5 W/m² 8,8 °C 11,8 °C 22,5 km/h (4 Bft)
06.05.2017 20:05 11,8 °C 11,8 °C 82 % 1007,5 hPa 0,0 mm 17,7 km/h (3 Bft) W-SW 255 ° 0 min 0,000 mm 0,0 UV-I 5 W/m² 8,8 °C 11,8 °C 22,5 km/h (4 Bft)
06.05.2017 20:06 11,7 °C 11,8 °C 83 % 1007,4 hPa 0,0 mm 14,0 km/h (3 Bft) SW 231 ° 0 min 0,000 mm 0,0 UV-I 5 W/m² 8,9 °C 11,7 °C 17,7 km/h (3 Bft)
06.05.2017 20:07 11,7 °C 11,7 °C 83 % 1007,4 hPa 0,0 mm 14,9 km/h (3 Bft) W 269 ° 0 min 0,000 mm 0,0 UV-I 5 W/m² 8,9 °C 11,7 °C 20,9 km/h (4 Bft)
06.05.2017 20:08 11,7 °C 11,7 °C 83 % 1007,4 hPa 0,0 mm 12,9 km/h (3 Bft) W 265 ° 0 min 0,000 mm 0,0 UV-I 5 W/m² 8,9 °C 11,7 °C 17,7 km/h (3 Bft)
06.05.2017 20:09 11,6 °C 11,7 °C 83 % 1007,4 hPa 0,0 mm 12,8 km/h (3 Bft) W 267 ° 0 min 0,000 mm 0,0 UV-I 0 W/m² 8,8 °C 11,6 °C 20,9 km/h (4 Bft)
06.05.2017 20:10 11,6 °C 11,7 °C 84 % 1007,4 hPa 0,0 mm 15,2 km/h (3 Bft) W-SW 254 ° 0 min 0,000 mm 0,0 UV-I 0 W/m² 9,0 °C 11,6 °C 20,9 km/h (4 Bft)
06.05.2017 20:11 11,6 °C 11,6 °C 83 % 1007,5 hPa 0,0 mm 14,9 km/h (3 Bft) W 265 ° 0 min 0,000 mm 0,0 UV-I 0 W/m² 8,8 °C 11,6 °C 22,5 km/h (4 Bft)
06.05.2017 20:12 11,6 °C 11,6 °C 84 % 1007,4 hPa 0,0 mm 11,5 km/h (2 Bft) W-SW 247 ° 0 min 0,000 mm 0,0 UV-I 0 W/m² 9,0 °C 11,6 °C 16,1 km/h (3 Bft)
06.05.2017 20:13 11,5 °C 11,6 °C 84 % 1007,5 hPa 0,0 mm 16,7 km/h (3 Bft) W 281 ° 0 min 0,000 mm 0,0 UV-I 0 W/m² 8,9 °C 11,5 °C 22,5 km/h (4 Bft)
06.05.2017 20:14 11,5 °C 11,5 °C 84 % 1007,4 hPa 0,0 mm 11,8 km/h (2 Bft) S-SW 210 ° 0 min 0,000 mm 0,0 UV-I 0 W/m² 8,9 °C 11,5 °C 19,3 km/h (3 Bft)
06.05.2017 20:15 11,5 °C 11,5 °C 84 % 1007,4 hPa 0,0 mm 8,3 km/h (2 Bft) W 262 ° 0 min 0,000 mm 0,0 UV-I 0 W/m² 8,9 °C 11,5 °C 12,9 km/h (3 Bft)
06.05.2017 20:16 11,4 °C 11,5 °C 84 % 1007,5 hPa 0,0 mm 7,0 km/h (2 Bft) W-NW 289 ° 0 min 0,000 mm 0,0 UV-I 0 W/m² 8,8 °C 11,4 °C 11,3 km/h (2 Bft)
06.05.2017 20:17 11,4 °C 11,4 °C 84 % 1007,5 hPa 0,0 mm 8,2 km/h (2 Bft) W 263 ° 0 min 0,000 mm 0,0 UV-I 0 W/m² 8,8 °C 11,4 °C 11,3 km/h (2 Bft)
06.05.2017 20:18 11,4 °C 11,4 °C 84 % 1007,5 hPa 0,0 mm 6,1 km/h (2 Bft) W 267 ° 0 min 0,000 mm 0,0 UV-I 0 W/m² 8,8 °C 11,4 °C 12,9 km/h (3 Bft)
06.05.2017 20:19 11,4 °C 11,4 °C 84 % 1007,6 hPa 0,0 mm 12,3 km/h (3 Bft) W 279 ° 0 min 0,000 mm 0,0 UV-I 0 W/m² 8,8 °C 11,4 °C 19,3 km/h (3 Bft)
06.05.2017 20:20 11,4 °C 11,4 °C 84 % 1007,5 hPa 0,0 mm 13,3 km/h (3 Bft) W-SW 257 ° 0 min 0,000 mm 0,0 UV-I 0 W/m² 8,8 °C 11,4 °C 17,7 km/h (3 Bft)
06.05.2017 20:21 11,4 °C 11,4 °C 84 % 1007,6 hPa 0,0 mm 12,5 km/h (3 Bft) W-SW 246 ° 0 min 0,000 mm 0,0 UV-I 0 W/m² 8,8 °C 11,4 °C 17,7 km/h (3 Bft)
06.05.2017 20:22 11,4 °C 11,4 °C 84 % 1007,5 hPa 0,0 mm 20,2 km/h (4 Bft) W-SW 257 ° 0 min 0,000 mm 0,0 UV-I 0 W/m² 8,8 °C 11,4 °C 24,1 km/h (4 Bft)
06.05.2017 20:23 11,4 °C 11,4 °C 84 % 1007,6 hPa 0,0 mm 17,1 km/h (3 Bft) W 261 ° 0 min 0,000 mm 0,0 UV-I 0 W/m² 8,8 °C 11,4 °C 22,5 km/h (4 Bft)
06.05.2017 20:24 11,4 °C 11,4 °C 84 % 1007,6 hPa 0,0 mm 10,7 km/h (2 Bft) W-SW 254 ° 0 min 0,000 mm 0,0 UV-I 0 W/m² 8,8 °C 11,4 °C 12,9 km/h (3 Bft)
06.05.2017 20:25 11,4 °C 11,4 °C 84 % 1007,6 hPa 0,0 mm 13,6 km/h (3 Bft) W 270 ° 0 min 0,000 mm 0,0 UV-I 0 W/m² 8,8 °C 11,4 °C 20,9 km/h (4 Bft)
06.05.2017 20:26 11,3 °C 11,4 °C 84 % 1007,6 hPa 0,0 mm 17,2 km/h (3 Bft) W 260 ° 0 min 0,000 mm 0,0 UV-I 0 W/m² 8,7 °C 11,3 °C 22,5 km/h (4 Bft)
06.05.2017 20:27 11,3 °C 11,4 °C 84 % 1007,7 hPa 0,0 mm 11,8 km/h (2 Bft) W 267 ° 0 min 0,000 mm 0,0 UV-I 0 W/m² 8,7 °C 11,3 °C 14,5 km/h (3 Bft)
06.05.2017 20:28 11,3 °C 11,3 °C 84 % 1007,7 hPa 0,0 mm 9,7 km/h (2 Bft) W-SW 240 ° 0 min 0,000 mm 0,0 UV-I 0 W/m² 8,7 °C 11,3 °C 17,7 km/h (3 Bft)
06.05.2017 20:29 11,3 °C 11,4 °C 84 % 1007,7 hPa 0,0 mm 11,7 km/h (2 Bft) W 279 ° 0 min 0,000 mm 0,0 UV-I 0 W/m² 8,7 °C 11,3 °C 14,5 km/h (3 Bft)
06.05.2017 20:30 11,3 °C 11,4 °C 84 % 1007,7 hPa 0,0 mm 15,3 km/h (3 Bft) W-NW 292 ° 0 min 0,000 mm 0,0 UV-I 0 W/m² 8,7 °C 11,3 °C 22,5 km/h (4 Bft)
06.05.2017 20:31 11,3 °C 11,3 °C 84 % 1007,7 hPa 0,0 mm 17,6 km/h (3 Bft) W-SW 240 ° 0 min 0,000 mm 0,0 UV-I 0 W/m² 8,7 °C 11,3 °C 29,0 km/h (5 Bft)
06.05.2017 20:32 11,3 °C 11,3 °C 84 % 1007,8 hPa 0,0 mm 16,0 km/h (3 Bft) W-SW 247 ° 0 min 0,000 mm 0,0 UV-I 0 W/m² 8,7 °C 11,3 °C 22,5 km/h (4 Bft)
06.05.2017 20:33 11,3 °C 11,3 °C 84 % 1007,8 hPa 0,0 mm 9,4 km/h (2 Bft) W-SW 244 ° 0 min 0,000 mm 0,0 UV-I 0 W/m² 8,7 °C 11,3 °C 16,1 km/h (3 Bft)
06.05.2017 20:34 11,3 °C 11,4 °C 84 % 1007,8 hPa 0,0 mm 11,1 km/h (2 Bft) W 262 ° 0 min 0,000 mm 0,0 UV-I 0 W/m² 8,7 °C 11,3 °C 19,3 km/h (3 Bft)
06.05.2017 20:35 11,3 °C 11,3 °C 84 % 1007,8 hPa 0,0 mm 8,2 km/h (2 Bft) W-SW 240 ° 0 min 0,000 mm 0,0 UV-I 0 W/m² 8,7 °C 11,3 °C 14,5 km/h (3 Bft)
06.05.2017 20:36 11,3 °C 11,3 °C 84 % 1007,8 hPa 0,0 mm 17,8 km/h (3 Bft) W 267 ° 0 min 0,000 mm 0,0 UV-I 0 W/m² 8,7 °C 11,3 °C 24,1 km/h (4 Bft)
06.05.2017 20:37 11,3 °C 11,3 °C 84 % 1007,8 hPa 0,0 mm 14,7 km/h (3 Bft) SW 228 ° 0 min 0,000 mm 0,0 UV-I 0 W/m² 8,7 °C 11,3 °C 22,5 km/h (4 Bft)
06.05.2017 20:38 11,3 °C 11,3 °C 85 % 1007,9 hPa 0,0 mm 13,6 km/h (3 Bft) SW 217 ° 0 min 0,000 mm 0,0 UV-I 0 W/m² 8,9 °C 11,3 °C 20,9 km/h (4 Bft)
06.05.2017 20:39 11,3 °C 11,3 °C 85 % 1007,9 hPa 0,0 mm 11,8 km/h (2 Bft) W-SW 253 ° 0 min 0,000 mm 0,0 UV-I 0 W/m² 8,9 °C 11,3 °C 16,1 km/h (3 Bft)
06.05.2017 20:40 11,3 °C 11,3 °C 85 % 1007,9 hPa 0,0 mm 10,6 km/h (2 Bft) W 259 ° 0 min 0,000 mm 0,0 UV-I 0 W/m² 8,9 °C 11,3 °C 14,5 km/h (3 Bft)
06.05.2017 20:41 11,3 °C 11,3 °C 85 % 1008,0 hPa 0,0 mm 15,7 km/h (3 Bft) NW 307 ° 0 min 0,000 mm 0,0 UV-I 0 W/m² 8,9 °C 11,3 °C 22,5 km/h (4 Bft)
06.05.2017 20:42 11,2 °C 11,3 °C 86 % 1008,0 hPa 0,0 mm 12,9 km/h (3 Bft) W-SW 254 ° 0 min 0,000 mm 0,0 UV-I 0 W/m² 8,9 °C 11,2 °C 24,1 km/h (4 Bft)
06.05.2017 20:43 11,2 °C 11,2 °C 86 % 1008,0 hPa 0,0 mm 13,2 km/h (3 Bft) W 263 ° 0 min 0,000 mm 0,0 UV-I 0 W/m² 8,9 °C 11,2 °C 20,9 km/h (4 Bft)
06.05.2017 20:44 11,2 °C 11,2 °C 86 % 1008,0 hPa 0,0 mm 8,7 km/h (2 Bft) SW 221 ° 0 min 0,000 mm 0,0 UV-I 0 W/m² 8,9 °C 11,2 °C 14,5 km/h (3 Bft)
06.05.2017 20:45 11,2 °C 11,2 °C 86 % 1008,0 hPa 0,0 mm 7,2 km/h (2 Bft) W 265 ° 0 min 0,000 mm 0,0 UV-I 0 W/m² 8,9 °C 11,2 °C 11,3 km/h (2 Bft)
06.05.2017 20:46 11,1 °C 11,2 °C 87 % 1008,1 hPa 0,0 mm 12,0 km/h (2 Bft) W 263 ° 0 min 0,000 mm 0,0 UV-I 0 W/m² 9,0 °C 11,1 °C 16,1 km/h (3 Bft)
06.05.2017 20:47 11,1 °C 11,1 °C 87 % 1008,1 hPa 0,0 mm 7,3 km/h (2 Bft) W-SW 255 ° 0 min 0,000 mm 0,0 UV-I 0 W/m² 9,0 °C 11,1 °C 11,3 km/h (2 Bft)
06.05.2017 20:48 11,1 °C 11,1 °C 87 % 1008,1 hPa 0,0 mm 6,2 km/h (2 Bft) W-SW 246 ° 0 min 0,000 mm 0,0 UV-I 0 W/m² 9,0 °C 11,1 °C 9,7 km/h (2 Bft)
06.05.2017 20:49 11,0 °C 11,1 °C 87 % 1008,1 hPa 0,0 mm 11,0 km/h (2 Bft) W 265 ° 0 min 0,000 mm 0,0 UV-I 0 W/m² 8,9 °C 11,0 °C 16,1 km/h (3 Bft)
06.05.2017 20:50 10,9 °C 11,0 °C 87 % 1008,1 hPa 0,2 mm 8,9 km/h (2 Bft) W-SW 254 ° 0 min 0,000 mm 0,0 UV-I 0 W/m² 8,8 °C 10,9 °C 14,5 km/h (3 Bft)
06.05.2017 20:51 10,9 °C 10,9 °C 88 % 1008,1 hPa 0,0 mm 11,5 km/h (2 Bft) SW 234 ° 0 min 0,000 mm 0,0 UV-I 0 W/m² 9,0 °C 10,9 °C 17,7 km/h (3 Bft)
06.05.2017 20:52 10,9 °C 10,9 °C 88 % 1008,0 hPa 0,0 mm 9,8 km/h (2 Bft) W 263 ° 0 min 0,000 mm 0,0 UV-I 0 W/m² 9,0 °C 10,9 °C 17,7 km/h (3 Bft)
06.05.2017 20:53 10,9 °C 10,9 °C 88 % 1008,1 hPa 0,0 mm 7,1 km/h (2 Bft) W-SW 248 ° 0 min 0,000 mm 0,0 UV-I 0 W/m² 9,0 °C 10,9 °C 9,7 km/h (2 Bft)
06.05.2017 20:54 10,8 °C 10,9 °C 88 % 1008,1 hPa 0,0 mm 7,0 km/h (2 Bft) W-SW 244 ° 0 min 0,000 mm 0,0 UV-I 0 W/m² 8,9 °C 10,8 °C 12,9 km/h (3 Bft)
06.05.2017 20:55 10,8 °C 10,8 °C 88 % 1008,1 hPa 0,0 mm 7,0 km/h (2 Bft) W-NW 285 ° 0 min 0,000 mm 0,0 UV-I 0 W/m² 8,9 °C 10,8 °C 14,5 km/h (3 Bft)
06.05.2017 20:56 10,8 °C 10,8 °C 88 % 1008,1 hPa 0,0 mm 9,1 km/h (2 Bft) W-SW 250 ° 0 min 0,000 mm 0,0 UV-I 0 W/m² 8,9 °C 10,8 °C 17,7 km/h (3 Bft)
06.05.2017 20:57 10,8 °C 10,8 °C 88 % 1008,1 hPa 0,0 mm 10,9 km/h (2 Bft) W-SW 245 ° 0 min 0,000 mm 0,0 UV-I 0 W/m² 8,9 °C 10,8 °C 17,7 km/h (3 Bft)
06.05.2017 20:58 10,8 °C 10,8 °C 89 % 1008,1 hPa 0,0 mm 8,5 km/h (2 Bft) W-SW 247 ° 0 min 0,000 mm 0,0 UV-I 0 W/m² 9,1 °C 10,8 °C 14,5 km/h (3 Bft)
06.05.2017 20:59 10,7 °C 10,8 °C 89 % 1008,1 hPa 0,0 mm 6,3 km/h (2 Bft) W-SW 254 ° 0 min 0,000 mm 0,0 UV-I 0 W/m² 9,0 °C 10,7 °C 12,9 km/h (3 Bft)
06.05.2017 21:00 10,7 °C 10,7 °C 89 % 1008,1 hPa 0,0 mm 9,1 km/h (2 Bft) W 259 ° 0 min 0,025 mm 0,0 UV-I 0 W/m² 9,0 °C 10,7 °C 17,7 km/h (3 Bft)
06.05.2017 21:01 10,7 °C 10,7 °C 89 % 1008,1 hPa 0,0 mm 9,5 km/h (2 Bft) SW 236 ° 0 min 0,000 mm 0,0 UV-I 0 W/m² 9,0 °C 10,7 °C 16,1 km/h (3 Bft)
06.05.2017 21:02 10,7 °C 10,7 °C 89 % 1008,2 hPa 0,0 mm 12,0 km/h (2 Bft) W-SW 238 ° 0 min 0,000 mm 0,0 UV-I 0 W/m² 9,0 °C 10,7 °C 19,3 km/h (3 Bft)
06.05.2017 21:03 10,7 °C 10,7 °C 89 % 1008,2 hPa 0,0 mm 7,6 km/h (2 Bft) W-SW 251 ° 0 min 0,000 mm 0,0 UV-I 0 W/m² 9,0 °C 10,7 °C 11,3 km/h (2 Bft)
06.05.2017 21:04 10,7 °C 10,7 °C 89 % 1008,2 hPa 0,0 mm 6,7 km/h (2 Bft) W-SW 254 ° 0 min 0,000 mm 0,0 UV-I 0 W/m² 9,0 °C 10,7 °C 12,9 km/h (3 Bft)
06.05.2017 21:05 10,6 °C 10,7 °C 89 % 1008,2 hPa 0,0 mm 11,0 km/h (2 Bft) W 273 ° 0 min 0,000 mm 0,0 UV-I 0 W/m² 8,9 °C 10,6 °C 17,7 km/h (3 Bft)
06.05.2017 21:06 10,7 °C 10,7 °C 89 % 1008,1 hPa 0,0 mm 12,4 km/h (3 Bft) W 262 ° 0 min 0,000 mm 0,0 UV-I 0 W/m² 9,0 °C 10,7 °C 17,7 km/h (3 Bft)
06.05.2017 21:07 10,7 °C 10,7 °C 89 % 1008,2 hPa 0,0 mm 8,3 km/h (2 Bft) W 260 ° 0 min 0,000 mm 0,0 UV-I 0 W/m² 9,0 °C 10,7 °C 14,5 km/h (3 Bft)
06.05.2017 21:08 10,6 °C 10,7 °C 89 % 1008,2 hPa 0,0 mm 8,2 km/h (2 Bft) W-SW 247 ° 0 min 0,000 mm 0,0 UV-I 0 W/m² 8,9 °C 10,6 °C 12,9 km/h (3 Bft)
06.05.2017 21:09 10,6 °C 10,7 °C 89 % 1008,2 hPa 0,0 mm 7,2 km/h (2 Bft) W 265 ° 0 min 0,000 mm 0,0 UV-I 0 W/m² 8,9 °C 10,6 °C 12,9 km/h (3 Bft)
06.05.2017 21:10 10,6 °C 10,6 °C 89 % 1008,3 hPa 0,0 mm 6,4 km/h (2 Bft) W-SW 245 ° 0 min 0,000 mm 0,0 UV-I 0 W/m² 8,9 °C 10,6 °C 11,3 km/h (2 Bft)
06.05.2017 21:11 10,6 °C 10,6 °C 89 % 1008,3 hPa 0,0 mm 8,9 km/h (2 Bft) W 261 ° 0 min 0,000 mm 0,0 UV-I 0 W/m² 8,9 °C 10,6 °C 17,7 km/h (3 Bft)
06.05.2017 21:12 10,6 °C 10,6 °C 89 % 1008,3 hPa 0,0 mm 10,5 km/h (2 Bft) W 273 ° 0 min 0,000 mm 0,0 UV-I 0 W/m² 8,9 °C 10,6 °C 14,5 km/h (3 Bft)
06.05.2017 21:13 10,6 °C 10,6 °C 89 % 1008,3 hPa 0,0 mm 12,1 km/h (2 Bft) W 277 ° 0 min 0,000 mm 0,0 UV-I 0 W/m² 8,9 °C 10,6 °C 17,7 km/h (3 Bft)
06.05.2017 21:14 10,6 °C 10,6 °C 89 % 1008,3 hPa 0,0 mm 11,3 km/h (2 Bft) W 267 ° 0 min 0,000 mm 0,0 UV-I 0 W/m² 8,9 °C 10,6 °C 16,1 km/h (3 Bft)
06.05.2017 21:15 10,5 °C 10,6 °C 90 % 1008,3 hPa 0,0 mm 14,1 km/h (3 Bft) W 271 ° 0 min 0,000 mm 0,0 UV-I 0 W/m² 8,9 °C 10,5 °C 17,7 km/h (3 Bft)
06.05.2017 21:16 10,5 °C 10,5 °C 90 % 1008,4 hPa 0,0 mm 10,8 km/h (2 Bft) W-SW 248 ° 0 min 0,000 mm 0,0 UV-I 0 W/m² 8,9 °C 10,5 °C 16,1 km/h (3 Bft)
06.05.2017 21:17 10,4 °C 10,5 °C 90 % 1008,3 hPa 0,0 mm 12,9 km/h (3 Bft) W-SW 255 ° 0 min 0,000 mm 0,0 UV-I 0 W/m² 8,8 °C 10,4 °C 19,3 km/h (3 Bft)
06.05.2017 21:18 10,4 °C 10,4 °C 90 % 1008,3 hPa 0,2 mm 14,6 km/h (3 Bft) W 261 ° 0 min 0,000 mm 0,0 UV-I 0 W/m² 8,8 °C 10,4 °C 20,9 km/h (4 Bft)
06.05.2017 21:19 10,4 °C 10,4 °C 90 % 1008,3 hPa 0,0 mm 7,3 km/h (2 Bft) W-SW 250 ° 0 min 0,000 mm 0,0 UV-I 0 W/m² 8,8 °C 10,4 °C 11,3 km/h (2 Bft)
06.05.2017 21:20 10,4 °C 10,4 °C 90 % 1008,3 hPa 0,0 mm 15,2 km/h (3 Bft) W-SW 254 ° 0 min 0,000 mm 0,0 UV-I 0 W/m² 8,8 °C 10,4 °C 22,5 km/h (4 Bft)
06.05.2017 21:21 10,4 °C 10,4 °C 90 % 1008,4 hPa 0,0 mm 12,9 km/h (3 Bft) W 269 ° 0 min 0,000 mm 0,0 UV-I 0 W/m² 8,8 °C 10,4 °C 19,3 km/h (3 Bft)
06.05.2017 21:22 10,4 °C 10,4 °C 90 % 1008,4 hPa 0,0 mm 15,2 km/h (3 Bft) W-SW 257 ° 0 min 0,000 mm 0,0 UV-I 0 W/m² 8,8 °C 10,4 °C 24,1 km/h (4 Bft)
06.05.2017 21:23 10,3 °C 10,4 °C 90 % 1008,5 hPa 0,0 mm 14,6 km/h (3 Bft) W 265 ° 0 min 0,000 mm 0,0 UV-I 0 W/m² 8,7 °C 10,3 °C 20,9 km/h (4 Bft)
06.05.2017 21:24 10,3 °C 10,3 °C 90 % 1008,5 hPa 0,0 mm 10,7 km/h (2 Bft) W 265 ° 0 min 0,000 mm 0,0 UV-I 0 W/m² 8,7 °C 10,3 °C 16,1 km/h (3 Bft)
06.05.2017 21:25 10,3 °C 10,3 °C 90 % 1008,5 hPa 0,0 mm 12,7 km/h (3 Bft) W-SW 248 ° 0 min 0,000 mm 0,0 UV-I 0 W/m² 8,7 °C 10,3 °C 19,3 km/h (3 Bft)
06.05.2017 21:26 10,3 °C 10,3 °C 90 % 1008,5 hPa 0,0 mm 18,6 km/h (3 Bft) W 273 ° 0 min 0,000 mm 0,0 UV-I 0 W/m² 8,7 °C 10,3 °C 27,4 km/h (4 Bft)
06.05.2017 21:27 10,3 °C 10,3 °C 90 % 1008,5 hPa 0,0 mm 16,1 km/h (3 Bft) W-SW 249 ° 0 min 0,000 mm 0,0 UV-I 0 W/m² 8,7 °C 10,3 °C 25,7 km/h (4 Bft)
06.05.2017 21:28 10,2 °C 10,3 °C 90 % 1008,5 hPa 0,0 mm 16,8 km/h (3 Bft) W 263 ° 0 min 0,000 mm 0,0 UV-I 0 W/m² 8,6 °C 10,2 °C 22,5 km/h (4 Bft)
06.05.2017 21:29 10,3 °C 10,3 °C 90 % 1008,6 hPa 0,0 mm 17,0 km/h (3 Bft) W-SW 249 ° 0 min 0,000 mm 0,0 UV-I 0 W/m² 8,7 °C 10,3 °C 20,9 km/h (4 Bft)
06.05.2017 21:30 10,2 °C 10,3 °C 90 % 1008,6 hPa 0,0 mm 12,4 km/h (3 Bft) W 271 ° 0 min 0,000 mm 0,0 UV-I 0 W/m² 8,6 °C 10,2 °C 17,7 km/h (3 Bft)
06.05.2017 21:31 10,2 °C 10,2 °C 91 % 1008,6 hPa 0,0 mm 16,5 km/h (3 Bft) W 261 ° 0 min 0,000 mm 0,0 UV-I 0 W/m² 8,8 °C 10,2 °C 20,9 km/h (4 Bft)
06.05.2017 21:32 10,2 °C 10,2 °C 91 % 1008,6 hPa 0,0 mm 10,1 km/h (2 Bft) W-SW 257 ° 0 min 0,000 mm 0,0 UV-I 0 W/m² 8,8 °C 10,2 °C 16,1 km/h (3 Bft)
06.05.2017 21:33 10,2 °C 10,2 °C 91 % 1008,7 hPa 0,0 mm 11,0 km/h (2 Bft) W 274 ° 0 min 0,000 mm 0,0 UV-I 0 W/m² 8,8 °C 10,2 °C 16,1 km/h (3 Bft)
06.05.2017 21:34 10,2 °C 10,2 °C 91 % 1008,7 hPa 0,0 mm 10,4 km/h (2 Bft) W-SW 257 ° 0 min 0,000 mm 0,0 UV-I 0 W/m² 8,8 °C 10,2 °C 19,3 km/h (3 Bft)
06.05.2017 21:35 10,2 °C 10,2 °C 91 % 1008,7 hPa 0,0 mm 16,4 km/h (3 Bft) W 269 ° 0 min 0,000 mm 0,0 UV-I 0 W/m² 8,8 °C 10,2 °C 20,9 km/h (4 Bft)
06.05.2017 21:36 10,2 °C 10,2 °C 91 % 1008,7 hPa 0,0 mm 15,8 km/h (3 Bft) W 261 ° 0 min 0,000 mm 0,0 UV-I 0 W/m² 8,8 °C 10,2 °C 24,1 km/h (4 Bft)
06.05.2017 21:37 10,2 °C 10,2 °C 91 % 1008,8 hPa 0,0 mm 17,7 km/h (3 Bft) W-SW 254 ° 0 min 0,000 mm 0,0 UV-I 0 W/m² 8,8 °C 10,2 °C 24,1 km/h (4 Bft)
06.05.2017 21:38 10,2 °C 10,2 °C 91 % 1008,8 hPa 0,0 mm 15,8 km/h (3 Bft) NW 318 ° 0 min 0,000 mm 0,0 UV-I 0 W/m² 8,8 °C 10,2 °C 22,5 km/h (4 Bft)
06.05.2017 21:39 10,2 °C 10,2 °C 91 % 1008,8 hPa 0,2 mm 18,2 km/h (3 Bft) W-SW 238 ° 0 min 0,000 mm 0,0 UV-I 0 W/m² 8,8 °C 10,2 °C 29,0 km/h (5 Bft)
06.05.2017 21:40 10,1 °C 10,2 °C 91 % 1008,8 hPa 0,0 mm 18,0 km/h (3 Bft) NW 323 ° 0 min 0,000 mm 0,0 UV-I 0 W/m² 8,7 °C 10,1 °C 29,0 km/h (5 Bft)
06.05.2017 21:41 10,1 °C 10,2 °C 91 % 1008,8 hPa 0,0 mm 15,0 km/h (3 Bft) W-SW 241 ° 0 min 0,000 mm 0,0 UV-I 0 W/m² 8,7 °C 10,1 °C 25,7 km/h (4 Bft)
06.05.2017 21:42 10,1 °C 10,2 °C 91 % 1008,8 hPa 0,0 mm 16,2 km/h (3 Bft) W-SW 251 ° 0 min 0,000 mm 0,0 UV-I 0 W/m² 8,7 °C 10,1 °C 20,9 km/h (4 Bft)
06.05.2017 21:43 10,1 °C 10,1 °C 91 % 1008,8 hPa 0,0 mm 11,3 km/h (2 Bft) W 268 ° 0 min 0,000 mm 0,0 UV-I 0 W/m² 8,7 °C 10,1 °C 16,1 km/h (3 Bft)
06.05.2017 21:44 10,1 °C 10,1 °C 91 % 1008,9 hPa 0,0 mm 13,6 km/h (3 Bft) W-NW 300 ° 0 min 0,000 mm 0,0 UV-I 0 W/m² 8,7 °C 10,1 °C 25,7 km/h (4 Bft)
06.05.2017 21:45 10,1 °C 10,1 °C 91 % 1008,9 hPa 0,0 mm 10,1 km/h (2 Bft) W 261 ° 0 min 0,000 mm 0,0 UV-I 0 W/m² 8,7 °C 10,1 °C 16,1 km/h (3 Bft)
06.05.2017 21:46 10,1 °C 10,1 °C 91 % 1008,9 hPa 0,0 mm 17,2 km/h (3 Bft) W 281 ° 0 min 0,000 mm 0,0 UV-I 0 W/m² 8,7 °C 10,1 °C 25,7 km/h (4 Bft)
06.05.2017 21:47 10,1 °C 10,1 °C 91 % 1008,8 hPa 0,0 mm 16,0 km/h (3 Bft) W-SW 244 ° 0 min 0,000 mm 0,0 UV-I 0 W/m² 8,7 °C 10,1 °C 25,7 km/h (4 Bft)
06.05.2017 21:48 10,1 °C 10,1 °C 91 % 1008,9 hPa 0,0 mm 18,1 km/h (3 Bft) W-NW 287 ° 0 min 0,000 mm 0,0 UV-I 0 W/m² 8,7 °C 10,1 °C 24,1 km/h (4 Bft)
06.05.2017 21:49 10,1 °C 10,1 °C 91 % 1008,8 hPa 0,2 mm 17,9 km/h (3 Bft) W-NW 284 ° 0 min 0,000 mm 0,0 UV-I 0 W/m² 8,7 °C 10,1 °C 22,5 km/h (4 Bft)
06.05.2017 21:50 10,1 °C 10,1 °C 91 % 1008,8 hPa 0,0 mm 16,2 km/h (3 Bft) W 269 ° 0 min 0,000 mm 0,0 UV-I 0 W/m² 8,7 °C 10,1 °C 19,3 km/h (3 Bft)
06.05.2017 21:51 10,0 °C 10,1 °C 91 % 1008,9 hPa 0,0 mm 13,2 km/h (3 Bft) W 259 ° 0 min 0,000 mm 0,0 UV-I 0 W/m² 8,6 °C 8,1 °C 24,1 km/h (4 Bft)
06.05.2017 21:52 10,0 °C 10,0 °C 91 % 1008,9 hPa 0,0 mm 20,7 km/h (4 Bft) W-SW 251 ° 0 min 0,000 mm 0,0 UV-I 0 W/m² 8,6 °C 7,3 °C 27,4 km/h (4 Bft)
06.05.2017 21:53 10,0 °C 10,0 °C 91 % 1008,9 hPa 0,0 mm 14,7 km/h (3 Bft) W 267 ° 0 min 0,000 mm 0,0 UV-I 0 W/m² 8,6 °C 8,0 °C 24,1 km/h (4 Bft)
06.05.2017 21:54 10,0 °C 10,0 °C 91 % 1008,9 hPa 0,0 mm 22,0 km/h (4 Bft) W 269 ° 0 min 0,000 mm 0,0 UV-I 0 W/m² 8,6 °C 7,2 °C 32,2 km/h (5 Bft)
06.05.2017 21:55 10,0 °C 10,0 °C 91 % 1009,0 hPa 0,0 mm 20,1 km/h (4 Bft) W-NW 284 ° 0 min 0,000 mm 0,0 UV-I 0 W/m² 8,6 °C 7,4 °C 30,6 km/h (5 Bft)
06.05.2017 21:56 9,9 °C 10,0 °C 91 % 1009,0 hPa 0,0 mm 13,8 km/h (3 Bft) W 280 ° 0 min 0,000 mm 0,0 UV-I 0 W/m² 8,5 °C 7,9 °C 20,9 km/h (4 Bft)
06.05.2017 21:57 9,9 °C 10,0 °C 91 % 1009,0 hPa 0,0 mm 15,0 km/h (3 Bft) W 275 ° 0 min 0,000 mm 0,0 UV-I 0 W/m² 8,5 °C 7,8 °C 17,7 km/h (3 Bft)
06.05.2017 21:58 10,0 °C 10,0 °C 91 % 1009,0 hPa 0,0 mm 16,6 km/h (3 Bft) W-SW 250 ° 0 min 0,000 mm 0,0 UV-I 0 W/m² 8,6 °C 7,7 °C 22,5 km/h (4 Bft)
06.05.2017 21:59 9,9 °C 10,0 °C 91 % 1009,0 hPa 0,0 mm 16,4 km/h (3 Bft) W-NW 294 ° 0 min 0,000 mm 0,0 UV-I 0 W/m² 8,5 °C 7,6 °C 24,1 km/h (4 Bft)
06.05.2017 22:00 9,9 °C 9,9 °C 91 % 1009,0 hPa 0,0 mm 9,2 km/h (2 Bft) W 274 ° 0 min 0,000 mm 0,0 UV-I 0 W/m² 8,5 °C 8,7 °C 12,9 km/h (3 Bft)
06.05.2017 22:01 9,9 °C 9,9 °C 91 % 1009,0 hPa 0,0 mm 17,0 km/h (3 Bft) W 277 ° 0 min 0,026 mm 0,0 UV-I 0 W/m² 8,5 °C 7,6 °C 20,9 km/h (4 Bft)
06.05.2017 22:02 9,9 °C 9,9 °C 91 % 1009,0 hPa 0,0 mm 19,0 km/h (3 Bft) W 261 ° 0 min 0,000 mm 0,0 UV-I 0 W/m² 8,5 °C 7,3 °C 24,1 km/h (4 Bft)
06.05.2017 22:03 9,9 °C 9,9 °C 91 % 1009,0 hPa 0,2 mm 12,5 km/h (3 Bft) W 270 ° 0 min 0,000 mm 0,0 UV-I 0 W/m² 8,5 °C 8,1 °C 24,1 km/h (4 Bft)
06.05.2017 22:04 9,9 °C 9,9 °C 91 % 1009,1 hPa 0,0 mm 13,9 km/h (3 Bft) W 263 ° 0 min 0,000 mm 0,0 UV-I 0 W/m² 8,5 °C 7,9 °C 20,9 km/h (4 Bft)
06.05.2017 22:05 9,9 °C 9,9 °C 91 % 1009,1 hPa 0,0 mm 13,5 km/h (3 Bft) W 261 ° 0 min 0,000 mm 0,0 UV-I 0 W/m² 8,5 °C 8,0 °C 19,3 km/h (3 Bft)
06.05.2017 22:06 9,9 °C 9,9 °C 91 % 1009,1 hPa 0,0 mm 13,7 km/h (3 Bft) W 264 ° 0 min 0,000 mm 0,0 UV-I 0 W/m² 8,5 °C 8,0 °C 22,5 km/h (4 Bft)
06.05.2017 22:07 9,9 °C 9,9 °C 91 % 1009,1 hPa 0,0 mm 19,6 km/h (3 Bft) W-SW 250 ° 0 min 0,000 mm 0,0 UV-I 0 W/m² 8,5 °C 7,3 °C 24,1 km/h (4 Bft)
06.05.2017 22:08 9,9 °C 9,9 °C 91 % 1009,2 hPa 0,0 mm 18,9 km/h (3 Bft) W 270 ° 0 min 0,000 mm 0,0 UV-I 0 W/m² 8,5 °C 7,4 °C 25,7 km/h (4 Bft)
06.05.2017 22:09 9,9 °C 9,9 °C 91 % 1009,2 hPa 0,0 mm 16,9 km/h (3 Bft) W 276 ° 0 min 0,000 mm 0,0 UV-I 0 W/m² 8,5 °C 7,6 °C 22,5 km/h (4 Bft)
06.05.2017 22:10 9,9 °C 9,9 °C 91 % 1009,2 hPa 0,0 mm 13,4 km/h (3 Bft) W-SW 254 ° 0 min 0,000 mm 0,0 UV-I 0 W/m² 8,5 °C 8,0 °C 17,7 km/h (3 Bft)
06.05.2017 22:11 9,9 °C 10,0 °C 91 % 1009,2 hPa 0,0 mm 15,9 km/h (3 Bft) W 269 ° 0 min 0,000 mm 0,0 UV-I 0 W/m² 8,5 °C 7,7 °C 20,9 km/h (4 Bft)
06.05.2017 22:12 9,9 °C 9,9 °C 91 % 1009,3 hPa 0,0 mm 12,9 km/h (3 Bft) W 275 ° 0 min 0,000 mm 0,0 UV-I 0 W/m² 8,5 °C 8,1 °C 19,3 km/h (3 Bft)
06.05.2017 22:13 9,9 °C 9,9 °C 91 % 1009,2 hPa 0,2 mm 17,6 km/h (3 Bft) NW 306 ° 0 min 0,000 mm 0,0 UV-I 0 W/m² 8,5 °C 7,5 °C 22,5 km/h (4 Bft)
06.05.2017 22:14 9,9 °C 9,9 °C 92 % 1009,2 hPa 0,0 mm 17,4 km/h (3 Bft) W-NW 298 ° 0 min 0,000 mm 0,0 UV-I 0 W/m² 8,7 °C 7,5 °C 22,5 km/h (4 Bft)
06.05.2017 22:15 9,9 °C 9,9 °C 92 % 1009,3 hPa 0,0 mm 17,3 km/h (3 Bft) W 259 ° 0 min 0,000 mm 0,0 UV-I 0 W/m² 8,7 °C 7,5 °C 24,1 km/h (4 Bft)
06.05.2017 22:16 9,9 °C 9,9 °C 92 % 1009,3 hPa 0,0 mm 16,8 km/h (3 Bft) W 271 ° 0 min 0,000 mm 0,0 UV-I 0 W/m² 8,7 °C 7,6 °C 25,7 km/h (4 Bft)
06.05.2017 22:17 9,9 °C 9,9 °C 92 % 1009,4 hPa 0,0 mm 10,4 km/h (2 Bft) W-NW 288 ° 0 min 0,000 mm 0,0 UV-I 0 W/m² 8,7 °C 8,4 °C 14,5 km/h (3 Bft)
06.05.2017 22:19 9,9 °C 9,9 °C 92 % 1009,4 hPa 0,0 mm 16,0 km/h (3 Bft) W-SW 248 ° 0 min 0,000 mm 0,0 UV-I 0 W/m² 8,7 °C 7,7 °C 20,9 km/h (4 Bft)
06.05.2017 22:20 9,9 °C 9,9 °C 92 % 1009,4 hPa 0,0 mm 13,2 km/h (3 Bft) W-NW 292 ° 0 min 0,000 mm 0,0 UV-I 0 W/m² 8,7 °C 8,0 °C 19,3 km/h (3 Bft)
06.05.2017 22:21 9,9 °C 9,9 °C 92 % 1009,4 hPa 0,0 mm 15,7 km/h (3 Bft) W-SW 248 ° 0 min 0,000 mm 0,0 UV-I 0 W/m² 8,7 °C 7,7 °C 24,1 km/h (4 Bft)
06.05.2017 22:22 9,9 °C 9,9 °C 92 % 1009,4 hPa 0,0 mm 16,5 km/h (3 Bft) W 280 ° 0 min 0,000 mm 0,0 UV-I 0 W/m² 8,7 °C 7,6 °C 20,9 km/h (4 Bft)
06.05.2017 22:23 9,9 °C 9,9 °C 92 % 1009,4 hPa 0,0 mm 9,6 km/h (2 Bft) W-NW 286 ° 0 min 0,000 mm 0,0 UV-I 0 W/m² 8,7 °C 8,6 °C 17,7 km/h (3 Bft)
06.05.2017 22:24 9,9 °C 9,9 °C 92 % 1009,4 hPa 0,0 mm 13,1 km/h (3 Bft) W 267 ° 0 min 0,000 mm 0,0 UV-I 0 W/m² 8,7 °C 8,0 °C 17,7 km/h (3 Bft)
06.05.2017 22:25 9,9 °C 9,9 °C 92 % 1009,5 hPa 0,2 mm 12,7 km/h (3 Bft) W 277 ° 0 min 0,000 mm 0,0 UV-I 0 W/m² 8,7 °C 8,1 °C 22,5 km/h (4 Bft)
06.05.2017 22:26 9,9 °C 9,9 °C 92 % 1009,5 hPa 0,0 mm 13,3 km/h (3 Bft) W 265 ° 0 min 0,000 mm 0,0 UV-I 0 W/m² 8,7 °C 8,0 °C 17,7 km/h (3 Bft)
06.05.2017 22:27 9,9 °C 9,9 °C 92 % 1009,6 hPa 0,0 mm 13,4 km/h (3 Bft) W 263 ° 0 min 0,000 mm 0,0 UV-I 0 W/m² 8,7 °C 8,0 °C 19,3 km/h (3 Bft)
06.05.2017 22:28 9,9 °C 9,9 °C 92 % 1009,6 hPa 0,0 mm 13,0 km/h (3 Bft) W-NW 296 ° 0 min 0,000 mm 0,0 UV-I 0 W/m² 8,7 °C 8,1 °C 19,3 km/h (3 Bft)
06.05.2017 22:29 9,9 °C 9,9 °C 92 % 1009,6 hPa 0,0 mm 7,5 km/h (2 Bft) W-NW 286 ° 0 min 0,000 mm 0,0 UV-I 0 W/m² 8,7 °C 9,0 °C 11,3 km/h (2 Bft)
06.05.2017 22:30 9,9 °C 9,9 °C 92 % 1009,6 hPa 0,0 mm 9,7 km/h (2 Bft) W-NW 288 ° 0 min 0,000 mm 0,0 UV-I 0 W/m² 8,7 °C 8,6 °C 12,9 km/h (3 Bft)
06.05.2017 22:31 9,9 °C 9,9 °C 92 % 1009,6 hPa 0,2 mm 8,5 km/h (2 Bft) W-SW 258 ° 0 min 0,000 mm 0,0 UV-I 0 W/m² 8,7 °C 8,8 °C 14,5 km/h (3 Bft)
06.05.2017 22:32 9,9 °C 9,9 °C 92 % 1009,7 hPa 0,0 mm 8,9 km/h (2 Bft) W 269 ° 0 min 0,000 mm 0,0 UV-I 0 W/m² 8,7 °C 8,7 °C 12,9 km/h (3 Bft)
06.05.2017 22:33 9,9 °C 9,9 °C 92 % 1009,7 hPa 0,0 mm 10,2 km/h (2 Bft) W 275 ° 0 min 0,000 mm 0,0 UV-I 0 W/m² 8,7 °C 8,5 °C 14,5 km/h (3 Bft)
06.05.2017 22:34 9,9 °C 9,9 °C 92 % 1009,7 hPa 0,0 mm 13,2 km/h (3 Bft) W 268 ° 0 min 0,000 mm 0,0 UV-I 0 W/m² 8,7 °C 8,0 °C 16,1 km/h (3 Bft)
06.05.2017 22:35 9,9 °C 9,9 °C 92 % 1009,7 hPa 0,0 mm 8,6 km/h (2 Bft) W 270 ° 0 min 0,000 mm 0,0 UV-I 0 W/m² 8,7 °C 8,8 °C 16,1 km/h (3 Bft)
06.05.2017 22:36 9,8 °C 9,9 °C 92 % 1009,8 hPa 0,0 mm 16,0 km/h (3 Bft) SW 235 ° 0 min 0,000 mm 0,0 UV-I 0 W/m² 8,6 °C 7,5 °C 22,5 km/h (4 Bft)
06.05.2017 22:37 9,8 °C 9,8 °C 92 % 1009,8 hPa 0,0 mm 15,0 km/h (3 Bft) W 273 ° 0 min 0,000 mm 0,0 UV-I 0 W/m² 8,6 °C 7,7 °C 17,7 km/h (3 Bft)
06.05.2017 22:38 9,8 °C 9,8 °C 92 % 1009,8 hPa 0,0 mm 15,1 km/h (3 Bft) W-SW 252 ° 0 min 0,000 mm 0,0 UV-I 0 W/m² 8,6 °C 7,7 °C 20,9 km/h (4 Bft)
06.05.2017 22:39 9,8 °C 9,8 °C 92 % 1009,8 hPa 0,0 mm 11,0 km/h (2 Bft) W 271 ° 0 min 0,000 mm 0,0 UV-I 0 W/m² 8,6 °C 8,2 °C 16,1 km/h (3 Bft)
06.05.2017 22:40 9,8 °C 9,8 °C 92 % 1009,8 hPa 0,0 mm 11,1 km/h (2 Bft) W 270 ° 0 min 0,000 mm 0,0 UV-I 0 W/m² 8,6 °C 8,2 °C 17,7 km/h (3 Bft)
06.05.2017 22:41 9,8 °C 9,8 °C 92 % 1009,8 hPa 0,0 mm 13,5 km/h (3 Bft) W 271 ° 0 min 0,000 mm 0,0 UV-I 0 W/m² 8,6 °C 7,9 °C 17,7 km/h (3 Bft)
06.05.2017 22:42 9,8 °C 9,8 °C 92 % 1009,9 hPa 0,0 mm 19,4 km/h (3 Bft) W 263 ° 0 min 0,000 mm 0,0 UV-I 0 W/m² 8,6 °C 7,2 °C 27,4 km/h (4 Bft)
06.05.2017 22:43 9,8 °C 9,8 °C 92 % 1009,9 hPa 0,0 mm 8,9 km/h (2 Bft) W-NW 294 ° 0 min 0,000 mm 0,0 UV-I 0 W/m² 8,6 °C 8,6 °C 16,1 km/h (3 Bft)
06.05.2017 22:44 9,7 °C 9,8 °C 92 % 1009,8 hPa 0,2 mm 12,0 km/h (2 Bft) W 276 ° 0 min 0,000 mm 0,0 UV-I 0 W/m² 8,5 °C 8,0 °C 16,1 km/h (3 Bft)
06.05.2017 22:45 9,7 °C 9,8 °C 92 % 1009,8 hPa 0,0 mm 13,9 km/h (3 Bft) W-SW 254 ° 0 min 0,000 mm 0,0 UV-I 0 W/m² 8,5 °C 7,7 °C 19,3 km/h (3 Bft)
06.05.2017 22:46 9,7 °C 9,7 °C 92 % 1009,9 hPa 0,0 mm 9,6 km/h (2 Bft) W 275 ° 0 min 0,000 mm 0,0 UV-I 0 W/m² 8,5 °C 8,3 °C 19,3 km/h (3 Bft)
06.05.2017 22:47 9,7 °C 9,7 °C 92 % 1009,8 hPa 0,0 mm 11,1 km/h (2 Bft) W 281 ° 0 min 0,000 mm 0,0 UV-I 0 W/m² 8,5 °C 8,1 °C 12,9 km/h (3 Bft)
06.05.2017 22:49 9,7 °C 9,7 °C 92 % 1009,9 hPa 0,0 mm 10,3 km/h (2 Bft) W-NW 294 ° 0 min 0,000 mm 0,0 UV-I 0 W/m² 8,5 °C 8,2 °C 17,7 km/h (3 Bft)
06.05.2017 22:50 9,7 °C 9,7 °C 92 % 1009,9 hPa 0,0 mm 10,9 km/h (2 Bft) W-NW 286 ° 0 min 0,000 mm 0,0 UV-I 0 W/m² 8,5 °C 8,1 °C 16,1 km/h (3 Bft)
06.05.2017 22:51 9,7 °C 9,7 °C 92 % 1009,9 hPa 0,0 mm 10,1 km/h (2 Bft) W 281 ° 0 min 0,000 mm 0,0 UV-I 0 W/m² 8,5 °C 8,3 °C 12,9 km/h (3 Bft)
06.05.2017 22:52 9,6 °C 9,7 °C 92 % 1009,9 hPa 0,0 mm 14,3 km/h (3 Bft) W 274 ° 0 min 0,000 mm 0,0 UV-I 0 W/m² 8,4 °C 7,5 °C 20,9 km/h (4 Bft)
06.05.2017 22:53 9,6 °C 9,7 °C 92 % 1009,9 hPa 0,2 mm 11,5 km/h (2 Bft) W 267 ° 0 min 0,000 mm 0,0 UV-I 0 W/m² 8,4 °C 7,9 °C 16,1 km/h (3 Bft)
06.05.2017 22:54 9,6 °C 9,6 °C 92 % 1009,9 hPa 0,0 mm 11,1 km/h (2 Bft) W-NW 282 ° 0 min 0,000 mm 0,0 UV-I 0 W/m² 8,4 °C 8,0 °C 16,1 km/h (3 Bft)
06.05.2017 22:55 9,6 °C 9,6 °C 92 % 1010,0 hPa 0,0 mm 13,0 km/h (3 Bft) W 273 ° 0 min 0,000 mm 0,0 UV-I 0 W/m² 8,4 °C 7,7 °C 19,3 km/h (3 Bft)
06.05.2017 22:56 9,6 °C 9,6 °C 92 % 1009,9 hPa 0,0 mm 8,0 km/h (2 Bft) W 266 ° 0 min 0,000 mm 0,0 UV-I 0 W/m² 8,4 °C 8,5 °C 11,3 km/h (2 Bft)
06.05.2017 22:57 9,6 °C 9,6 °C 92 % 1010,0 hPa 0,0 mm 10,0 km/h (2 Bft) W-SW 248 ° 0 min 0,000 mm 0,0 UV-I 0 W/m² 8,4 °C 8,2 °C 14,5 km/h (3 Bft)
06.05.2017 22:58 9,6 °C 9,6 °C 92 % 1009,9 hPa 0,0 mm 12,2 km/h (2 Bft) W-SW 256 ° 0 min 0,000 mm 0,0 UV-I 0 W/m² 8,4 °C 7,8 °C 17,7 km/h (3 Bft)
06.05.2017 22:59 9,6 °C 9,6 °C 92 % 1010,0 hPa 0,0 mm 19,3 km/h (3 Bft) NW 321 ° 0 min 0,000 mm 0,0 UV-I 0 W/m² 8,4 °C 6,9 °C 27,4 km/h (4 Bft)
06.05.2017 23:00 9,6 °C 9,6 °C 92 % 1010,0 hPa 0,2 mm 13,3 km/h (3 Bft) W-SW 246 ° 0 min 0,000 mm 0,0 UV-I 0 W/m² 8,4 °C 7,6 °C 22,5 km/h (4 Bft)
06.05.2017 23:01 9,6 °C 9,6 °C 92 % 1010,0 hPa 0,0 mm 11,3 km/h (2 Bft) W-SW 241 ° 0 min 0,025 mm 0,0 UV-I 0 W/m² 8,4 °C 7,9 °C 16,1 km/h (3 Bft)
06.05.2017 23:02 9,5 °C 9,6 °C 92 % 1010,0 hPa 0,0 mm 12,2 km/h (2 Bft) W 269 ° 0 min 0,000 mm 0,0 UV-I 0 W/m² 8,3 °C 7,7 °C 16,1 km/h (3 Bft)
06.05.2017 23:03 9,6 °C 9,6 °C 92 % 1010,0 hPa 0,0 mm 8,7 km/h (2 Bft) W 259 ° 0 min 0,000 mm 0,0 UV-I 0 W/m² 8,4 °C 8,4 °C 14,5 km/h (3 Bft)
06.05.2017 23:04 9,5 °C 9,6 °C 92 % 1010,0 hPa 0,2 mm 16,8 km/h (3 Bft) W 267 ° 0 min 0,000 mm 0,0 UV-I 0 W/m² 8,3 °C 7,1 °C 27,4 km/h (4 Bft)
06.05.2017 23:05 9,4 °C 9,5 °C 92 % 1010,0 hPa 0,0 mm 23,6 km/h (4 Bft) W 263 ° 0 min 0,000 mm 0,0 UV-I 0 W/m² 8,2 °C 6,3 °C 29,0 km/h (5 Bft)
06.05.2017 23:06 9,4 °C 9,5 °C 92 % 1010,1 hPa 0,0 mm 19,7 km/h (3 Bft) W-NW 301 ° 0 min 0,000 mm 0,0 UV-I 0 W/m² 8,2 °C 6,6 °C 30,6 km/h (5 Bft)
06.05.2017 23:07 9,4 °C 9,4 °C 91 % 1010,0 hPa 0,0 mm 14,6 km/h (3 Bft) W 277 ° 0 min 0,000 mm 0,0 UV-I 0 W/m² 8,0 °C 7,2 °C 22,5 km/h (4 Bft)
06.05.2017 23:08 9,4 °C 9,4 °C 91 % 1010,0 hPa 0,2 mm 12,0 km/h (2 Bft) W-NW 294 ° 0 min 0,000 mm 0,0 UV-I 0 W/m² 8,0 °C 7,6 °C 20,9 km/h (4 Bft)
06.05.2017 23:09 9,4 °C 9,4 °C 91 % 1010,0 hPa 0,0 mm 13,5 km/h (3 Bft) W-NW 286 ° 0 min 0,000 mm 0,0 UV-I 0 W/m² 8,0 °C 7,4 °C 25,7 km/h (4 Bft)
06.05.2017 23:10 9,4 °C 9,4 °C 91 % 1010,0 hPa 0,0 mm 17,7 km/h (3 Bft) W-SW 254 ° 0 min 0,000 mm 0,0 UV-I 0 W/m² 8,0 °C 6,9 °C 32,2 km/h (5 Bft)
06.05.2017 23:11 9,3 °C 9,4 °C 91 % 1010,0 hPa 0,0 mm 17,6 km/h (3 Bft) W 259 ° 0 min 0,000 mm 0,0 UV-I 0 W/m² 7,9 °C 6,7 °C 27,4 km/h (4 Bft)
06.05.2017 23:12 9,3 °C 9,3 °C 91 % 1010,0 hPa 0,0 mm 9,4 km/h (2 Bft) W-NW 293 ° 0 min 0,000 mm 0,0 UV-I 0 W/m² 7,9 °C 7,9 °C 14,5 km/h (3 Bft)
06.05.2017 23:13 9,3 °C 9,3 °C 91 % 1010,0 hPa 0,0 mm 12,8 km/h (3 Bft) W 277 ° 0 min 0,000 mm 0,0 UV-I 0 W/m² 7,9 °C 7,3 °C 17,7 km/h (3 Bft)
06.05.2017 23:14 9,3 °C 9,3 °C 91 % 1010,0 hPa 0,0 mm 15,5 km/h (3 Bft) W-NW 288 ° 0 min 0,000 mm 0,0 UV-I 0 W/m² 7,9 °C 7,0 °C 20,9 km/h (4 Bft)
06.05.2017 23:15 9,2 °C 9,3 °C 91 % 1010,0 hPa 0,0 mm 13,3 km/h (3 Bft) W-SW 242 ° 0 min 0,000 mm 0,0 UV-I 0 W/m² 7,8 °C 7,2 °C 20,9 km/h (4 Bft)
06.05.2017 23:16 9,3 °C 9,3 °C 91 % 1010,0 hPa 0,2 mm 15,5 km/h (3 Bft) W-NW 294 ° 0 min 0,000 mm 0,0 UV-I 0 W/m² 7,9 °C 7,0 °C 24,1 km/h (4 Bft)
06.05.2017 23:17 9,2 °C 9,3 °C 91 % 1010,0 hPa 0,0 mm 9,9 km/h (2 Bft) W-NW 292 ° 0 min 0,000 mm 0,0 UV-I 0 W/m² 7,8 °C 7,7 °C 19,3 km/h (3 Bft)
06.05.2017 23:18 9,2 °C 9,2 °C 91 % 1010,0 hPa 0,0 mm 8,6 km/h (2 Bft) SW 236 ° 0 min 0,000 mm 0,0 UV-I 0 W/m² 7,8 °C 7,9 °C 16,1 km/h (3 Bft)
06.05.2017 23:19 9,2 °C 9,2 °C 91 % 1010,0 hPa 0,0 mm 12,3 km/h (3 Bft) W 265 ° 0 min 0,000 mm 0,0 UV-I 0 W/m² 7,8 °C 7,3 °C 20,9 km/h (4 Bft)
06.05.2017 23:20 9,1 °C 9,2 °C 91 % 1010,1 hPa 0,0 mm 14,0 km/h (3 Bft) W-SW 253 ° 0 min 0,000 mm 0,0 UV-I 0 W/m² 7,7 °C 6,9 °C 20,9 km/h (4 Bft)
06.05.2017 23:21 9,1 °C 9,2 °C 91 % 1010,1 hPa 0,0 mm 10,8 km/h (2 Bft) W-SW 244 ° 0 min 0,000 mm 0,0 UV-I 0 W/m² 7,7 °C 7,4 °C 17,7 km/h (3 Bft)
06.05.2017 23:22 9,1 °C 9,1 °C 92 % 1010,1 hPa 0,0 mm 8,1 km/h (2 Bft) W-SW 257 ° 0 min 0,000 mm 0,0 UV-I 0 W/m² 7,9 °C 7,9 °C 12,9 km/h (3 Bft)
06.05.2017 23:23 9,1 °C 9,1 °C 92 % 1010,2 hPa 0,0 mm 7,2 km/h (2 Bft) W 267 ° 0 min 0,000 mm 0,0 UV-I 0 W/m² 7,9 °C 8,1 °C 11,3 km/h (2 Bft)
06.05.2017 23:24 9,1 °C 9,1 °C 92 % 1010,2 hPa 0,0 mm 13,9 km/h (3 Bft) W 261 ° 0 min 0,000 mm 0,0 UV-I 0 W/m² 7,9 °C 6,9 °C 24,1 km/h (4 Bft)
06.05.2017 23:25 9,1 °C 9,1 °C 92 % 1010,1 hPa 0,0 mm 15,1 km/h (3 Bft) W 266 ° 0 min 0,000 mm 0,0 UV-I 0 W/m² 7,9 °C 6,8 °C 24,1 km/h (4 Bft)
06.05.2017 23:26 9,0 °C 9,1 °C 92 % 1010,1 hPa 0,0 mm 16,5 km/h (3 Bft) W 276 ° 0 min 0,000 mm 0,0 UV-I 0 W/m² 7,8 °C 6,5 °C 30,6 km/h (5 Bft)
06.05.2017 23:27 8,9 °C 9,0 °C 92 % 1010,2 hPa 0,2 mm 19,2 km/h (3 Bft) W 260 ° 0 min 0,000 mm 0,0 UV-I 0 W/m² 7,7 °C 6,1 °C 29,0 km/h (5 Bft)
06.05.2017 23:28 8,9 °C 9,0 °C 92 % 1010,2 hPa 0,0 mm 18,7 km/h (3 Bft) W 261 ° 0 min 0,000 mm 0,0 UV-I 0 W/m² 7,7 °C 6,1 °C 24,1 km/h (4 Bft)
06.05.2017 23:29 8,9 °C 8,9 °C 92 % 1010,2 hPa 0,0 mm 14,8 km/h (3 Bft) W 259 ° 0 min 0,000 mm 0,0 UV-I 0 W/m² 7,7 °C 6,6 °C 22,5 km/h (4 Bft)
06.05.2017 23:30 8,9 °C 8,9 °C 92 % 1010,2 hPa 0,0 mm 15,4 km/h (3 Bft) W-SW 250 ° 0 min 0,000 mm 0,0 UV-I 0 W/m² 7,7 °C 6,5 °C 22,5 km/h (4 Bft)
06.05.2017 23:31 8,9 °C 8,9 °C 91 % 1010,3 hPa 0,0 mm 15,9 km/h (3 Bft) W 278 ° 0 min 0,000 mm 0,0 UV-I 0 W/m² 7,5 °C 6,4 °C 20,9 km/h (4 Bft)
06.05.2017 23:32 8,9 °C 8,9 °C 91 % 1010,2 hPa 0,0 mm 13,5 km/h (3 Bft) W-SW 246 ° 0 min 0,000 mm 0,0 UV-I 0 W/m² 7,5 °C 6,8 °C 19,3 km/h (3 Bft)
06.05.2017 23:33 8,9 °C 8,9 °C 91 % 1010,2 hPa 0,0 mm 18,5 km/h (3 Bft) W-SW 251 ° 0 min 0,000 mm 0,0 UV-I 0 W/m² 7,5 °C 6,1 °C 25,7 km/h (4 Bft)
06.05.2017 23:34 8,8 °C 8,9 °C 91 % 1010,2 hPa 0,0 mm 16,9 km/h (3 Bft) W 262 ° 0 min 0,000 mm 0,0 UV-I 0 W/m² 7,4 °C 6,2 °C 22,5 km/h (4 Bft)
06.05.2017 23:35 8,8 °C 8,8 °C 91 % 1010,2 hPa 0,0 mm 11,3 km/h (2 Bft) W 261 ° 0 min 0,000 mm 0,0 UV-I 0 W/m² 7,4 °C 7,0 °C 17,7 km/h (3 Bft)
06.05.2017 23:36 8,8 °C 8,8 °C 91 % 1010,2 hPa 0,0 mm 9,4 km/h (2 Bft) W 281 ° 0 min 0,000 mm 0,0 UV-I 0 W/m² 7,4 °C 7,3 °C 12,9 km/h (3 Bft)
06.05.2017 23:37 8,8 °C 8,8 °C 92 % 1010,3 hPa 0,0 mm 10,1 km/h (2 Bft) W-SW 242 ° 0 min 0,000 mm 0,0 UV-I 0 W/m² 7,6 °C 7,2 °C 16,1 km/h (3 Bft)
06.05.2017 23:38 8,7 °C 8,8 °C 92 % 1010,3 hPa 0,0 mm 12,2 km/h (2 Bft) W-SW 257 ° 0 min 0,000 mm 0,0 UV-I 0 W/m² 7,5 °C 6,7 °C 19,3 km/h (3 Bft)
06.05.2017 23:39 8,7 °C 8,7 °C 92 % 1010,2 hPa 0,0 mm 11,9 km/h (2 Bft) SW 234 ° 0 min 0,000 mm 0,0 UV-I 0 W/m² 7,5 °C 6,8 °C 16,1 km/h (3 Bft)
06.05.2017 23:40 8,7 °C 8,7 °C 92 % 1010,3 hPa 0,0 mm 7,6 km/h (2 Bft) W-SW 244 ° 0 min 0,000 mm 0,0 UV-I 0 W/m² 7,5 °C 7,6 °C 12,9 km/h (3 Bft)
06.05.2017 23:41 8,7 °C 8,7 °C 92 % 1010,4 hPa 0,0 mm 16,7 km/h (3 Bft) W-SW 255 ° 0 min 0,000 mm 0,0 UV-I 0 W/m² 7,5 °C 6,1 °C 24,1 km/h (4 Bft)
06.05.2017 23:42 8,7 °C 8,7 °C 92 % 1010,4 hPa 0,0 mm 14,4 km/h (3 Bft) W-NW 283 ° 0 min 0,000 mm 0,0 UV-I 0 W/m² 7,5 °C 6,4 °C 17,7 km/h (3 Bft)
06.05.2017 23:43 8,6 °C 8,7 °C 92 % 1010,4 hPa 0,0 mm 16,1 km/h (3 Bft) W 274 ° 0 min 0,000 mm 0,0 UV-I 0 W/m² 7,4 °C 6,0 °C 24,1 km/h (4 Bft)
06.05.2017 23:44 8,7 °C 8,7 °C 92 % 1010,4 hPa 0,0 mm 12,1 km/h (2 Bft) W-SW 251 ° 0 min 0,000 mm 0,0 UV-I 0 W/m² 7,5 °C 6,7 °C 17,7 km/h (3 Bft)
06.05.2017 23:45 8,7 °C 8,7 °C 92 % 1010,4 hPa 0,0 mm 15,2 km/h (3 Bft) W-SW 258 ° 0 min 0,000 mm 0,0 UV-I 0 W/m² 7,5 °C 6,3 °C 22,5 km/h (4 Bft)
06.05.2017 23:46 8,6 °C 8,7 °C 92 % 1010,4 hPa 0,0 mm 10,6 km/h (2 Bft) S-SW 206 ° 0 min 0,000 mm 0,0 UV-I 0 W/m² 7,4 °C 6,9 °C 16,1 km/h (3 Bft)
06.05.2017 23:47 8,6 °C 8,6 °C 92 % 1010,5 hPa 0,2 mm 17,9 km/h (3 Bft) W 265 ° 0 min 0,000 mm 0,0 UV-I 0 W/m² 7,4 °C 5,8 °C 29,0 km/h (5 Bft)
06.05.2017 23:48 8,6 °C 8,6 °C 92 % 1010,4 hPa 0,0 mm 15,6 km/h (3 Bft) W-NW 290 ° 0 min 0,000 mm 0,0 UV-I 0 W/m² 7,4 °C 6,1 °C 24,1 km/h (4 Bft)
06.05.2017 23:49 8,6 °C 8,6 °C 92 % 1010,4 hPa 0,0 mm 16,2 km/h (3 Bft) W-SW 252 ° 0 min 0,000 mm 0,0 UV-I 0 W/m² 7,4 °C 6,0 °C 22,5 km/h (4 Bft)
06.05.2017 23:50 8,6 °C 8,6 °C 92 % 1010,4 hPa 0,0 mm 11,8 km/h (2 Bft) W 266 ° 0 min 0,000 mm 0,0 UV-I 0 W/m² 7,4 °C 6,7 °C 14,5 km/h (3 Bft)
06.05.2017 23:51 8,6 °C 8,6 °C 91 % 1010,4 hPa 0,0 mm 14,6 km/h (3 Bft) W-NW 296 ° 0 min 0,000 mm 0,0 UV-I 0 W/m² 7,2 °C 6,2 °C 24,1 km/h (4 Bft)
06.05.2017 23:52 8,6 °C 8,6 °C 92 % 1010,4 hPa 0,0 mm 17,1 km/h (3 Bft) W 269 ° 0 min 0,000 mm 0,0 UV-I 0 W/m² 7,4 °C 5,9 °C 29,0 km/h (5 Bft)
06.05.2017 23:53 8,6 °C 8,6 °C 91 % 1010,4 hPa 0,0 mm 15,1 km/h (3 Bft) W-NW 286 ° 0 min 0,000 mm 0,0 UV-I 0 W/m² 7,2 °C 6,2 °C 24,1 km/h (4 Bft)
06.05.2017 23:54 8,6 °C 8,6 °C 91 % 1010,5 hPa 0,0 mm 13,7 km/h (3 Bft) N-NW 329 ° 0 min 0,000 mm 0,0 UV-I 0 W/m² 7,2 °C 6,4 °C 22,5 km/h (4 Bft)
06.05.2017 23:55 8,6 °C 8,6 °C 91 % 1010,4 hPa 0,0 mm 10,5 km/h (2 Bft) W 280 ° 0 min 0,000 mm 0,0 UV-I 0 W/m² 7,2 °C 6,9 °C 16,1 km/h (3 Bft)
06.05.2017 23:56 8,5 °C 8,6 °C 91 % 1010,5 hPa 0,0 mm 16,2 km/h (3 Bft) W-NW 284 ° 0 min 0,000 mm 0,0 UV-I 0 W/m² 7,1 °C 5,9 °C 24,1 km/h (4 Bft)
06.05.2017 23:57 8,5 °C 8,5 °C 91 % 1010,5 hPa 0,0 mm 15,6 km/h (3 Bft) SW 231 ° 0 min 0,000 mm 0,0 UV-I 0 W/m² 7,1 °C 6,0 °C 22,5 km/h (4 Bft)
06.05.2017 23:58 8,5 °C 8,5 °C 91 % 1010,5 hPa 0,0 mm 11,1 km/h (2 Bft) W 273 ° 0 min 0,000 mm 0,0 UV-I 0 W/m² 7,1 °C 6,6 °C 17,7 km/h (3 Bft)
06.05.2017 23:59 8,5 °C 8,5 °C 91 % 1010,4 hPa 0,0 mm 16,2 km/h (3 Bft) W-SW 248 ° 0 min 0,000 mm 0,0 UV-I 0 W/m² 7,1 °C 5,9 °C 24,1 km/h (4 Bft)
_ Min-Zeit 05:41 05:40 15:16 16:39 - 18:50 - - - - - - 05:39 05:25 18:50
Minimum _ 0,2 °C 0,2 °C 40 % 1005,7 hPa - 0,0 km/h (0 Bft) - - - - - - -0,8 °C -0,3 °C 0,0 km/h (0 Bft)
_ Max-Zeit 15:10 15:11 05:27 00:22 23:47 23:05 - - 12:04 15:01 13:56 14:02 14:31 15:38 23:10
Maximum _ 19,2 °C 19,2 °C 96 % 1015,2 hPa 0,2 mm 23,6 km/h
W (4 Bft)
- - 2 min 0,483 mm 7,5 UV-I 1039 W/m² 9,4 °C 19,1 °C 32,2 km/h
W (5 Bft)
Durchschnitt _ 9,9 °C 9,9 °C 77 % 1010,0 hPa #3,2 mm 4,6 km/h (1 Bft) W - #7:32 h #2,794 mm 3,1 UV-I 191 W/m² 5,4 °C 9,7 °C 7,2 km/h (2 Bft)